<?xml version="1.0" encoding="UTF-8" standalone="no" ?>
<gpx xmlns="http://www.topografix.com/GPX/1/1" xmlns:xsi="http://www.w3.org/2001/XMLSchema-instance" xsi:schemaLocation="http://www.topografix.com/GPX/1/1 http://www.topografix.com/GPX/1/1/gpx.xsd" version="1.1" creator="VisuGPX - https://www.visugpx.com">
  <metadata>
    <name>Parcours solo Fabregas - Janas - Le Mai</name>
    <desc><![CDATA[Parcours 80% chemin et piste et 20 % route. Très agréable sauf jour de grand vent !!]]></desc>
  </metadata>
  <wpt lat="43.07246" lon="5.87978">
    <ele>3.1</ele>
    <name><![CDATA[Plage de la Verne]]></name>
    <type><![CDATA[water]]></type>
  </wpt>
  <wpt lat="43.07105" lon="5.85385">
    <ele>84.3</ele>
    <type><![CDATA[picnic]]></type>
  </wpt>
  <wpt lat="43.05325" lon="5.84701">
    <ele>311.5</ele>
    <name><![CDATA[Chapelle Notre Dame du Mai]]></name>
    <type><![CDATA[patrimoine]]></type>
  </wpt>
  <wpt lat="43.05318" lon="5.84723">
    <ele>309.2</ele>
    <name><![CDATA[Le Mai]]></name>
    <type><![CDATA[sommet]]></type>
  </wpt>
  <wpt lat="43.05313" lon="5.84713">
    <ele>308.3</ele>
    <name><![CDATA[Le Mai]]></name>
    <type><![CDATA[vue]]></type>
  </wpt>
  <trk>
    <name><![CDATA[Parcours solo Fabregas - Janas - Le Mai_1]]></name>
    <trkseg>
      <trkpt lat="43.07452" lon="5.88389">
        <ele>17.2</ele>
        <time>2019-10-23T09:17:46Z</time>
      </trkpt>
      <trkpt lat="43.0745" lon="5.88379">
        <ele>17.4</ele>
        <time>2019-10-23T09:17:47Z</time>
      </trkpt>
      <trkpt lat="43.07437" lon="5.88328">
        <ele>19.9</ele>
        <time>2019-10-23T09:17:48Z</time>
      </trkpt>
      <trkpt lat="43.0743" lon="5.88233">
        <ele>23.7</ele>
        <time>2019-10-23T09:17:49Z</time>
      </trkpt>
      <trkpt lat="43.07432" lon="5.8823">
        <ele>24</ele>
        <time>2019-10-23T09:17:50Z</time>
      </trkpt>
      <trkpt lat="43.07427" lon="5.88188">
        <ele>24.1</ele>
        <time>2019-10-23T09:17:51Z</time>
      </trkpt>
      <trkpt lat="43.07337" lon="5.88137">
        <ele>17.7</ele>
        <time>2019-10-23T09:17:52Z</time>
      </trkpt>
      <trkpt lat="43.0733" lon="5.88133">
        <ele>12.6</ele>
        <time>2019-10-23T09:17:53Z</time>
      </trkpt>
      <trkpt lat="43.07319" lon="5.88124">
        <ele>11.9</ele>
        <time>2019-10-23T09:17:54Z</time>
      </trkpt>
      <trkpt lat="43.0731" lon="5.88086">
        <ele>11.6</ele>
        <time>2019-10-23T09:17:55Z</time>
      </trkpt>
      <trkpt lat="43.07281" lon="5.88008">
        <ele>7</ele>
        <time>2019-10-23T09:17:56Z</time>
      </trkpt>
      <trkpt lat="43.07279" lon="5.87999">
        <ele>7.1</ele>
        <time>2019-10-23T09:17:57Z</time>
      </trkpt>
      <trkpt lat="43.0729" lon="5.87982">
        <ele>8.4</ele>
        <time>2019-10-23T09:17:58Z</time>
      </trkpt>
      <trkpt lat="43.07294" lon="5.87975">
        <ele>8.8</ele>
        <time>2019-10-23T09:18:00Z</time>
      </trkpt>
      <trkpt lat="43.07326" lon="5.87907">
        <ele>11.9</ele>
        <time>2019-10-23T09:18:01Z</time>
      </trkpt>
      <trkpt lat="43.07367" lon="5.87913">
        <ele>17.4</ele>
        <time>2019-10-23T09:18:02Z</time>
      </trkpt>
      <trkpt lat="43.07412" lon="5.87855">
        <ele>21.3</ele>
        <time>2019-10-23T09:18:03Z</time>
      </trkpt>
      <trkpt lat="43.07412" lon="5.87836">
        <ele>23.7</ele>
        <time>2019-10-23T09:18:04Z</time>
      </trkpt>
      <trkpt lat="43.07372" lon="5.87797">
        <ele>16.9</ele>
        <time>2019-10-23T09:18:05Z</time>
      </trkpt>
      <trkpt lat="43.07362" lon="5.87764">
        <ele>15.5</ele>
        <time>2019-10-23T09:18:06Z</time>
      </trkpt>
      <trkpt lat="43.07377" lon="5.87733">
        <ele>14.2</ele>
        <time>2019-10-23T09:18:07Z</time>
      </trkpt>
      <trkpt lat="43.07384" lon="5.87719">
        <ele>14.2</ele>
        <time>2019-10-23T09:18:08Z</time>
      </trkpt>
      <trkpt lat="43.07363" lon="5.87704">
        <ele>12.9</ele>
        <time>2019-10-23T09:18:09Z</time>
      </trkpt>
      <trkpt lat="43.07347" lon="5.87691">
        <ele>11.9</ele>
        <time>2019-10-23T09:18:10Z</time>
      </trkpt>
      <trkpt lat="43.07246" lon="5.87629">
        <ele>19.3</ele>
        <time>2019-10-23T09:18:11Z</time>
      </trkpt>
      <trkpt lat="43.07197" lon="5.87602">
        <ele>20.8</ele>
        <time>2019-10-23T09:18:12Z</time>
      </trkpt>
      <trkpt lat="43.07164" lon="5.87578">
        <ele>23.7</ele>
        <time>2019-10-23T09:18:13Z</time>
      </trkpt>
      <trkpt lat="43.07152" lon="5.87552">
        <ele>23.3</ele>
        <time>2019-10-23T09:18:14Z</time>
      </trkpt>
      <trkpt lat="43.07146" lon="5.87536">
        <ele>23.4</ele>
        <time>2019-10-23T09:18:15Z</time>
      </trkpt>
      <trkpt lat="43.07147" lon="5.87523">
        <ele>23.7</ele>
        <time>2019-10-23T09:18:16Z</time>
      </trkpt>
      <trkpt lat="43.0715" lon="5.87506">
        <ele>10</ele>
        <time>2019-10-23T09:18:17Z</time>
      </trkpt>
      <trkpt lat="43.0715" lon="5.87501">
        <ele>10</ele>
        <time>2019-10-23T09:18:18Z</time>
      </trkpt>
      <trkpt lat="43.07151" lon="5.87496">
        <ele>10</ele>
        <time>2019-10-23T09:18:19Z</time>
      </trkpt>
      <trkpt lat="43.07152" lon="5.87492">
        <ele>10</ele>
        <time>2019-10-23T09:18:20Z</time>
      </trkpt>
      <trkpt lat="43.07153" lon="5.87488">
        <ele>10</ele>
        <time>2019-10-23T09:18:21Z</time>
      </trkpt>
      <trkpt lat="43.07154" lon="5.87484">
        <ele>10</ele>
        <time>2019-10-23T09:18:22Z</time>
      </trkpt>
      <trkpt lat="43.07156" lon="5.8748">
        <ele>10</ele>
        <time>2019-10-23T09:18:23Z</time>
      </trkpt>
      <trkpt lat="43.07157" lon="5.87476">
        <ele>10</ele>
        <time>2019-10-23T09:18:24Z</time>
      </trkpt>
      <trkpt lat="43.07159" lon="5.87471">
        <ele>10</ele>
        <time>2019-10-23T09:18:25Z</time>
      </trkpt>
      <trkpt lat="43.0716" lon="5.87466">
        <ele>10</ele>
        <time>2019-10-23T09:18:26Z</time>
      </trkpt>
      <trkpt lat="43.07161" lon="5.87461">
        <ele>10</ele>
        <time>2019-10-23T09:18:28Z</time>
      </trkpt>
      <trkpt lat="43.07162" lon="5.87455">
        <ele>10</ele>
        <time>2019-10-23T09:18:29Z</time>
      </trkpt>
      <trkpt lat="43.07162" lon="5.8745">
        <ele>10</ele>
        <time>2019-10-23T09:18:30Z</time>
      </trkpt>
      <trkpt lat="43.07165" lon="5.87437">
        <ele>11</ele>
        <time>2019-10-23T09:18:32Z</time>
      </trkpt>
      <trkpt lat="43.07166" lon="5.87431">
        <ele>11</ele>
        <time>2019-10-23T09:18:33Z</time>
      </trkpt>
      <trkpt lat="43.07168" lon="5.87424">
        <ele>11</ele>
        <time>2019-10-23T09:18:34Z</time>
      </trkpt>
      <trkpt lat="43.07169" lon="5.87419">
        <ele>11</ele>
        <time>2019-10-23T09:18:35Z</time>
      </trkpt>
      <trkpt lat="43.07171" lon="5.87413">
        <ele>11</ele>
        <time>2019-10-23T09:18:36Z</time>
      </trkpt>
      <trkpt lat="43.07172" lon="5.87407">
        <ele>11</ele>
        <time>2019-10-23T09:18:37Z</time>
      </trkpt>
      <trkpt lat="43.07173" lon="5.87401">
        <ele>11</ele>
        <time>2019-10-23T09:18:38Z</time>
      </trkpt>
      <trkpt lat="43.07175" lon="5.87395">
        <ele>11</ele>
        <time>2019-10-23T09:18:39Z</time>
      </trkpt>
      <trkpt lat="43.07177" lon="5.8739">
        <ele>11</ele>
        <time>2019-10-23T09:18:41Z</time>
      </trkpt>
      <trkpt lat="43.07179" lon="5.87384">
        <ele>12</ele>
        <time>2019-10-23T09:18:42Z</time>
      </trkpt>
      <trkpt lat="43.0718" lon="5.87378">
        <ele>12</ele>
        <time>2019-10-23T09:18:43Z</time>
      </trkpt>
      <trkpt lat="43.07182" lon="5.87373">
        <ele>12</ele>
        <time>2019-10-23T09:18:44Z</time>
      </trkpt>
      <trkpt lat="43.07184" lon="5.87367">
        <ele>12</ele>
        <time>2019-10-23T09:18:45Z</time>
      </trkpt>
      <trkpt lat="43.07186" lon="5.8736">
        <ele>12</ele>
        <time>2019-10-23T09:18:46Z</time>
      </trkpt>
      <trkpt lat="43.07187" lon="5.87354">
        <ele>12</ele>
        <time>2019-10-23T09:18:47Z</time>
      </trkpt>
      <trkpt lat="43.07189" lon="5.87348">
        <ele>12</ele>
        <time>2019-10-23T09:18:48Z</time>
      </trkpt>
      <trkpt lat="43.07192" lon="5.87341">
        <ele>12</ele>
        <time>2019-10-23T09:18:49Z</time>
      </trkpt>
      <trkpt lat="43.07194" lon="5.87335">
        <ele>12</ele>
        <time>2019-10-23T09:18:50Z</time>
      </trkpt>
      <trkpt lat="43.07197" lon="5.87329">
        <ele>12</ele>
        <time>2019-10-23T09:18:51Z</time>
      </trkpt>
      <trkpt lat="43.07199" lon="5.87322">
        <ele>12</ele>
        <time>2019-10-23T09:18:52Z</time>
      </trkpt>
      <trkpt lat="43.072" lon="5.87316">
        <ele>12</ele>
        <time>2019-10-23T09:18:53Z</time>
      </trkpt>
      <trkpt lat="43.07202" lon="5.8731">
        <ele>12</ele>
        <time>2019-10-23T09:18:54Z</time>
      </trkpt>
      <trkpt lat="43.07202" lon="5.87304">
        <ele>12</ele>
        <time>2019-10-23T09:18:55Z</time>
      </trkpt>
      <trkpt lat="43.07203" lon="5.87298">
        <ele>12</ele>
        <time>2019-10-23T09:18:56Z</time>
      </trkpt>
      <trkpt lat="43.07205" lon="5.87293">
        <ele>12</ele>
        <time>2019-10-23T09:18:57Z</time>
      </trkpt>
      <trkpt lat="43.07207" lon="5.87287">
        <ele>12</ele>
        <time>2019-10-23T09:18:58Z</time>
      </trkpt>
      <trkpt lat="43.07209" lon="5.87282">
        <ele>12</ele>
        <time>2019-10-23T09:18:59Z</time>
      </trkpt>
      <trkpt lat="43.0721" lon="5.87277">
        <ele>12</ele>
        <time>2019-10-23T09:19:01Z</time>
      </trkpt>
      <trkpt lat="43.07211" lon="5.87272">
        <ele>12</ele>
        <time>2019-10-23T09:19:02Z</time>
      </trkpt>
      <trkpt lat="43.07211" lon="5.87268">
        <ele>12</ele>
        <time>2019-10-23T09:19:03Z</time>
      </trkpt>
      <trkpt lat="43.07209" lon="5.87264">
        <ele>13</ele>
        <time>2019-10-23T09:19:04Z</time>
      </trkpt>
      <trkpt lat="43.07204" lon="5.87259">
        <ele>13</ele>
        <time>2019-10-23T09:19:05Z</time>
      </trkpt>
      <trkpt lat="43.07201" lon="5.87255">
        <ele>13</ele>
        <time>2019-10-23T09:19:06Z</time>
      </trkpt>
      <trkpt lat="43.07196" lon="5.8725">
        <ele>13</ele>
        <time>2019-10-23T09:19:07Z</time>
      </trkpt>
      <trkpt lat="43.07192" lon="5.87246">
        <ele>13</ele>
        <time>2019-10-23T09:19:08Z</time>
      </trkpt>
      <trkpt lat="43.07189" lon="5.87242">
        <ele>13</ele>
        <time>2019-10-23T09:19:09Z</time>
      </trkpt>
      <trkpt lat="43.07186" lon="5.87239">
        <ele>13</ele>
        <time>2019-10-23T09:19:10Z</time>
      </trkpt>
      <trkpt lat="43.07184" lon="5.87236">
        <ele>13</ele>
        <time>2019-10-23T09:19:11Z</time>
      </trkpt>
      <trkpt lat="43.07182" lon="5.8723">
        <ele>13</ele>
        <time>2019-10-23T09:19:12Z</time>
      </trkpt>
      <trkpt lat="43.0718" lon="5.87224">
        <ele>14</ele>
        <time>2019-10-23T09:19:13Z</time>
      </trkpt>
      <trkpt lat="43.07179" lon="5.87219">
        <ele>14</ele>
        <time>2019-10-23T09:19:14Z</time>
      </trkpt>
      <trkpt lat="43.0718" lon="5.87214">
        <ele>14</ele>
        <time>2019-10-23T09:19:15Z</time>
      </trkpt>
      <trkpt lat="43.0718" lon="5.87208">
        <ele>14</ele>
        <time>2019-10-23T09:19:16Z</time>
      </trkpt>
      <trkpt lat="43.0718" lon="5.87202">
        <ele>14</ele>
        <time>2019-10-23T09:19:18Z</time>
      </trkpt>
      <trkpt lat="43.0718" lon="5.87195">
        <ele>14</ele>
        <time>2019-10-23T09:19:19Z</time>
      </trkpt>
      <trkpt lat="43.07181" lon="5.87189">
        <ele>14</ele>
        <time>2019-10-23T09:19:20Z</time>
      </trkpt>
      <trkpt lat="43.07181" lon="5.87182">
        <ele>14</ele>
        <time>2019-10-23T09:19:21Z</time>
      </trkpt>
      <trkpt lat="43.07182" lon="5.87175">
        <ele>14</ele>
        <time>2019-10-23T09:19:22Z</time>
      </trkpt>
      <trkpt lat="43.07184" lon="5.87169">
        <ele>14</ele>
        <time>2019-10-23T09:19:23Z</time>
      </trkpt>
      <trkpt lat="43.07185" lon="5.87162">
        <ele>13</ele>
        <time>2019-10-23T09:19:24Z</time>
      </trkpt>
      <trkpt lat="43.07186" lon="5.87156">
        <ele>13</ele>
        <time>2019-10-23T09:19:25Z</time>
      </trkpt>
      <trkpt lat="43.07187" lon="5.87149">
        <ele>13</ele>
        <time>2019-10-23T09:19:26Z</time>
      </trkpt>
      <trkpt lat="43.07188" lon="5.87143">
        <ele>13</ele>
        <time>2019-10-23T09:19:27Z</time>
      </trkpt>
      <trkpt lat="43.07188" lon="5.87137">
        <ele>13</ele>
        <time>2019-10-23T09:19:28Z</time>
      </trkpt>
      <trkpt lat="43.07189" lon="5.87131">
        <ele>13</ele>
        <time>2019-10-23T09:19:29Z</time>
      </trkpt>
      <trkpt lat="43.0719" lon="5.87125">
        <ele>13</ele>
        <time>2019-10-23T09:19:30Z</time>
      </trkpt>
      <trkpt lat="43.07191" lon="5.87119">
        <ele>13</ele>
        <time>2019-10-23T09:19:31Z</time>
      </trkpt>
      <trkpt lat="43.07197" lon="5.87116">
        <ele>13</ele>
        <time>2019-10-23T09:19:32Z</time>
      </trkpt>
      <trkpt lat="43.07201" lon="5.87116">
        <ele>14</ele>
        <time>2019-10-23T09:19:33Z</time>
      </trkpt>
      <trkpt lat="43.07205" lon="5.87117">
        <ele>14</ele>
        <time>2019-10-23T09:19:34Z</time>
      </trkpt>
      <trkpt lat="43.07208" lon="5.8712">
        <ele>15</ele>
        <time>2019-10-23T09:19:35Z</time>
      </trkpt>
      <trkpt lat="43.07211" lon="5.87124">
        <ele>15</ele>
        <time>2019-10-23T09:19:36Z</time>
      </trkpt>
      <trkpt lat="43.07213" lon="5.87128">
        <ele>16</ele>
        <time>2019-10-23T09:19:37Z</time>
      </trkpt>
      <trkpt lat="43.07216" lon="5.87133">
        <ele>16</ele>
        <time>2019-10-23T09:19:38Z</time>
      </trkpt>
      <trkpt lat="43.07218" lon="5.87138">
        <ele>16</ele>
        <time>2019-10-23T09:19:39Z</time>
      </trkpt>
      <trkpt lat="43.0722" lon="5.87142">
        <ele>17</ele>
        <time>2019-10-23T09:19:41Z</time>
      </trkpt>
      <trkpt lat="43.07222" lon="5.87147">
        <ele>17</ele>
        <time>2019-10-23T09:19:42Z</time>
      </trkpt>
      <trkpt lat="43.07225" lon="5.87152">
        <ele>16</ele>
        <time>2019-10-23T09:19:43Z</time>
      </trkpt>
      <trkpt lat="43.07228" lon="5.87156">
        <ele>16</ele>
        <time>2019-10-23T09:19:44Z</time>
      </trkpt>
      <trkpt lat="43.07231" lon="5.8716">
        <ele>16</ele>
        <time>2019-10-23T09:19:45Z</time>
      </trkpt>
      <trkpt lat="43.07234" lon="5.87163">
        <ele>15</ele>
        <time>2019-10-23T09:19:46Z</time>
      </trkpt>
      <trkpt lat="43.07237" lon="5.87164">
        <ele>15</ele>
        <time>2019-10-23T09:19:47Z</time>
      </trkpt>
      <trkpt lat="43.0724" lon="5.87166">
        <ele>15</ele>
        <time>2019-10-23T09:19:48Z</time>
      </trkpt>
      <trkpt lat="43.07243" lon="5.87171">
        <ele>16</ele>
        <time>2019-10-23T09:19:49Z</time>
      </trkpt>
      <trkpt lat="43.07245" lon="5.87176">
        <ele>16</ele>
        <time>2019-10-23T09:19:50Z</time>
      </trkpt>
      <trkpt lat="43.07248" lon="5.87182">
        <ele>16</ele>
        <time>2019-10-23T09:19:51Z</time>
      </trkpt>
      <trkpt lat="43.07251" lon="5.87188">
        <ele>16</ele>
        <time>2019-10-23T09:19:52Z</time>
      </trkpt>
      <trkpt lat="43.07253" lon="5.87193">
        <ele>16</ele>
        <time>2019-10-23T09:19:53Z</time>
      </trkpt>
      <trkpt lat="43.07256" lon="5.87199">
        <ele>16</ele>
        <time>2019-10-23T09:19:54Z</time>
      </trkpt>
      <trkpt lat="43.07258" lon="5.87204">
        <ele>16</ele>
        <time>2019-10-23T09:19:55Z</time>
      </trkpt>
      <trkpt lat="43.07261" lon="5.8721">
        <ele>16</ele>
        <time>2019-10-23T09:19:56Z</time>
      </trkpt>
      <trkpt lat="43.07264" lon="5.87215">
        <ele>16</ele>
        <time>2019-10-23T09:19:57Z</time>
      </trkpt>
      <trkpt lat="43.07266" lon="5.87221">
        <ele>16</ele>
        <time>2019-10-23T09:19:58Z</time>
      </trkpt>
      <trkpt lat="43.07269" lon="5.87226">
        <ele>15</ele>
        <time>2019-10-23T09:19:59Z</time>
      </trkpt>
      <trkpt lat="43.07272" lon="5.87231">
        <ele>15</ele>
        <time>2019-10-23T09:20:00Z</time>
      </trkpt>
      <trkpt lat="43.07274" lon="5.87236">
        <ele>14</ele>
        <time>2019-10-23T09:20:01Z</time>
      </trkpt>
      <trkpt lat="43.07278" lon="5.87241">
        <ele>14</ele>
        <time>2019-10-23T09:20:02Z</time>
      </trkpt>
      <trkpt lat="43.07281" lon="5.87244">
        <ele>15</ele>
        <time>2019-10-23T09:20:03Z</time>
      </trkpt>
      <trkpt lat="43.07286" lon="5.87247">
        <ele>16</ele>
        <time>2019-10-23T09:20:04Z</time>
      </trkpt>
      <trkpt lat="43.0729" lon="5.87248">
        <ele>16</ele>
        <time>2019-10-23T09:20:05Z</time>
      </trkpt>
      <trkpt lat="43.07295" lon="5.8725">
        <ele>16</ele>
        <time>2019-10-23T09:20:06Z</time>
      </trkpt>
      <trkpt lat="43.073" lon="5.87252">
        <ele>16</ele>
        <time>2019-10-23T09:20:07Z</time>
      </trkpt>
      <trkpt lat="43.07304" lon="5.87253">
        <ele>16</ele>
        <time>2019-10-23T09:20:08Z</time>
      </trkpt>
      <trkpt lat="43.07309" lon="5.87254">
        <ele>16</ele>
        <time>2019-10-23T09:20:09Z</time>
      </trkpt>
      <trkpt lat="43.07312" lon="5.87253">
        <ele>15</ele>
        <time>2019-10-23T09:20:10Z</time>
      </trkpt>
      <trkpt lat="43.07315" lon="5.8725">
        <ele>15</ele>
        <time>2019-10-23T09:20:11Z</time>
      </trkpt>
      <trkpt lat="43.07316" lon="5.87246">
        <ele>15</ele>
        <time>2019-10-23T09:20:12Z</time>
      </trkpt>
      <trkpt lat="43.07317" lon="5.87241">
        <ele>15</ele>
        <time>2019-10-23T09:20:13Z</time>
      </trkpt>
      <trkpt lat="43.07318" lon="5.87235">
        <ele>15</ele>
        <time>2019-10-23T09:20:14Z</time>
      </trkpt>
      <trkpt lat="43.07318" lon="5.8723">
        <ele>16</ele>
        <time>2019-10-23T09:20:15Z</time>
      </trkpt>
      <trkpt lat="43.07319" lon="5.87225">
        <ele>16</ele>
        <time>2019-10-23T09:20:16Z</time>
      </trkpt>
      <trkpt lat="43.07319" lon="5.8722">
        <ele>16</ele>
        <time>2019-10-23T09:20:17Z</time>
      </trkpt>
      <trkpt lat="43.0732" lon="5.87215">
        <ele>16</ele>
        <time>2019-10-23T09:20:18Z</time>
      </trkpt>
      <trkpt lat="43.0732" lon="5.8721">
        <ele>16</ele>
        <time>2019-10-23T09:20:19Z</time>
      </trkpt>
      <trkpt lat="43.0732" lon="5.87205">
        <ele>16</ele>
        <time>2019-10-23T09:20:20Z</time>
      </trkpt>
      <trkpt lat="43.07321" lon="5.872">
        <ele>16</ele>
        <time>2019-10-23T09:20:21Z</time>
      </trkpt>
      <trkpt lat="43.07321" lon="5.87195">
        <ele>16</ele>
        <time>2019-10-23T09:20:22Z</time>
      </trkpt>
      <trkpt lat="43.07322" lon="5.87191">
        <ele>16</ele>
        <time>2019-10-23T09:20:23Z</time>
      </trkpt>
      <trkpt lat="43.07322" lon="5.87186">
        <ele>16</ele>
        <time>2019-10-23T09:20:24Z</time>
      </trkpt>
      <trkpt lat="43.07323" lon="5.87181">
        <ele>17</ele>
        <time>2019-10-23T09:20:25Z</time>
      </trkpt>
      <trkpt lat="43.07323" lon="5.87176">
        <ele>17</ele>
        <time>2019-10-23T09:20:26Z</time>
      </trkpt>
      <trkpt lat="43.07323" lon="5.87172">
        <ele>17</ele>
        <time>2019-10-23T09:20:27Z</time>
      </trkpt>
      <trkpt lat="43.07323" lon="5.87167">
        <ele>18</ele>
        <time>2019-10-23T09:20:28Z</time>
      </trkpt>
      <trkpt lat="43.07324" lon="5.87158">
        <ele>18</ele>
        <time>2019-10-23T09:20:29Z</time>
      </trkpt>
      <trkpt lat="43.07324" lon="5.87154">
        <ele>18</ele>
        <time>2019-10-23T09:20:30Z</time>
      </trkpt>
      <trkpt lat="43.07324" lon="5.8715">
        <ele>19</ele>
        <time>2019-10-23T09:20:31Z</time>
      </trkpt>
      <trkpt lat="43.07324" lon="5.87145">
        <ele>19</ele>
        <time>2019-10-23T09:20:32Z</time>
      </trkpt>
      <trkpt lat="43.07325" lon="5.87141">
        <ele>19</ele>
        <time>2019-10-23T09:20:33Z</time>
      </trkpt>
      <trkpt lat="43.07325" lon="5.87137">
        <ele>19</ele>
        <time>2019-10-23T09:20:35Z</time>
      </trkpt>
      <trkpt lat="43.07325" lon="5.87132">
        <ele>19</ele>
        <time>2019-10-23T09:20:37Z</time>
      </trkpt>
      <trkpt lat="43.07325" lon="5.87128">
        <ele>19</ele>
        <time>2019-10-23T09:20:38Z</time>
      </trkpt>
      <trkpt lat="43.07325" lon="5.87124">
        <ele>20</ele>
        <time>2019-10-23T09:20:39Z</time>
      </trkpt>
      <trkpt lat="43.07325" lon="5.87119">
        <ele>20</ele>
        <time>2019-10-23T09:20:40Z</time>
      </trkpt>
      <trkpt lat="43.07325" lon="5.87115">
        <ele>20</ele>
        <time>2019-10-23T09:20:41Z</time>
      </trkpt>
      <trkpt lat="43.07325" lon="5.87111">
        <ele>21</ele>
        <time>2019-10-23T09:20:42Z</time>
      </trkpt>
      <trkpt lat="43.07326" lon="5.87106">
        <ele>21</ele>
        <time>2019-10-23T09:20:43Z</time>
      </trkpt>
      <trkpt lat="43.07326" lon="5.87102">
        <ele>21</ele>
        <time>2019-10-23T09:20:44Z</time>
      </trkpt>
      <trkpt lat="43.07327" lon="5.87098">
        <ele>21</ele>
        <time>2019-10-23T09:20:45Z</time>
      </trkpt>
      <trkpt lat="43.07327" lon="5.87094">
        <ele>22</ele>
        <time>2019-10-23T09:20:46Z</time>
      </trkpt>
      <trkpt lat="43.07327" lon="5.87089">
        <ele>22</ele>
        <time>2019-10-23T09:20:47Z</time>
      </trkpt>
      <trkpt lat="43.07328" lon="5.87085">
        <ele>22</ele>
        <time>2019-10-23T09:20:48Z</time>
      </trkpt>
      <trkpt lat="43.07329" lon="5.87081">
        <ele>22</ele>
        <time>2019-10-23T09:20:49Z</time>
      </trkpt>
      <trkpt lat="43.0733" lon="5.87078">
        <ele>23</ele>
        <time>2019-10-23T09:20:50Z</time>
      </trkpt>
      <trkpt lat="43.07333" lon="5.87076">
        <ele>23</ele>
        <time>2019-10-23T09:20:51Z</time>
      </trkpt>
      <trkpt lat="43.07337" lon="5.87075">
        <ele>24</ele>
        <time>2019-10-23T09:20:52Z</time>
      </trkpt>
      <trkpt lat="43.07341" lon="5.87073">
        <ele>24</ele>
        <time>2019-10-23T09:20:53Z</time>
      </trkpt>
      <trkpt lat="43.07345" lon="5.8707">
        <ele>24</ele>
        <time>2019-10-23T09:20:54Z</time>
      </trkpt>
      <trkpt lat="43.07348" lon="5.87067">
        <ele>24</ele>
        <time>2019-10-23T09:20:55Z</time>
      </trkpt>
      <trkpt lat="43.07351" lon="5.87063">
        <ele>24</ele>
        <time>2019-10-23T09:20:56Z</time>
      </trkpt>
      <trkpt lat="43.07354" lon="5.87059">
        <ele>24</ele>
        <time>2019-10-23T09:20:57Z</time>
      </trkpt>
      <trkpt lat="43.07357" lon="5.87055">
        <ele>23</ele>
        <time>2019-10-23T09:20:59Z</time>
      </trkpt>
      <trkpt lat="43.0736" lon="5.87051">
        <ele>23</ele>
        <time>2019-10-23T09:21:04Z</time>
      </trkpt>
      <trkpt lat="43.07362" lon="5.87048">
        <ele>23</ele>
        <time>2019-10-23T09:21:07Z</time>
      </trkpt>
      <trkpt lat="43.07365" lon="5.87044">
        <ele>23</ele>
        <time>2019-10-23T09:21:09Z</time>
      </trkpt>
      <trkpt lat="43.07367" lon="5.8704">
        <ele>23</ele>
        <time>2019-10-23T09:21:11Z</time>
      </trkpt>
      <trkpt lat="43.0737" lon="5.87036">
        <ele>23</ele>
        <time>2019-10-23T09:21:13Z</time>
      </trkpt>
      <trkpt lat="43.07372" lon="5.87032">
        <ele>23</ele>
        <time>2019-10-23T09:21:15Z</time>
      </trkpt>
      <trkpt lat="43.07374" lon="5.87027">
        <ele>23</ele>
        <time>2019-10-23T09:21:16Z</time>
      </trkpt>
      <trkpt lat="43.07376" lon="5.87023">
        <ele>23</ele>
        <time>2019-10-23T09:21:17Z</time>
      </trkpt>
      <trkpt lat="43.0738" lon="5.87021">
        <ele>24</ele>
        <time>2019-10-23T09:21:18Z</time>
      </trkpt>
      <trkpt lat="43.07383" lon="5.87022">
        <ele>25</ele>
        <time>2019-10-23T09:21:19Z</time>
      </trkpt>
      <trkpt lat="43.07387" lon="5.87023">
        <ele>25</ele>
        <time>2019-10-23T09:21:20Z</time>
      </trkpt>
      <trkpt lat="43.0739" lon="5.87024">
        <ele>25</ele>
        <time>2019-10-23T09:21:21Z</time>
      </trkpt>
      <trkpt lat="43.07394" lon="5.87025">
        <ele>26</ele>
        <time>2019-10-23T09:21:22Z</time>
      </trkpt>
      <trkpt lat="43.07398" lon="5.87026">
        <ele>26</ele>
        <time>2019-10-23T09:21:23Z</time>
      </trkpt>
      <trkpt lat="43.07402" lon="5.87026">
        <ele>26</ele>
        <time>2019-10-23T09:21:24Z</time>
      </trkpt>
      <trkpt lat="43.07406" lon="5.87027">
        <ele>25</ele>
        <time>2019-10-23T09:21:25Z</time>
      </trkpt>
      <trkpt lat="43.0741" lon="5.87027">
        <ele>25</ele>
        <time>2019-10-23T09:21:26Z</time>
      </trkpt>
      <trkpt lat="43.07414" lon="5.87027">
        <ele>25</ele>
        <time>2019-10-23T09:21:27Z</time>
      </trkpt>
      <trkpt lat="43.07418" lon="5.87027">
        <ele>25</ele>
        <time>2019-10-23T09:21:28Z</time>
      </trkpt>
      <trkpt lat="43.07423" lon="5.87028">
        <ele>24</ele>
        <time>2019-10-23T09:21:29Z</time>
      </trkpt>
      <trkpt lat="43.07427" lon="5.87029">
        <ele>24</ele>
        <time>2019-10-23T09:21:30Z</time>
      </trkpt>
      <trkpt lat="43.07431" lon="5.87031">
        <ele>24</ele>
        <time>2019-10-23T09:21:31Z</time>
      </trkpt>
      <trkpt lat="43.07435" lon="5.87033">
        <ele>24</ele>
        <time>2019-10-23T09:21:32Z</time>
      </trkpt>
      <trkpt lat="43.07439" lon="5.87036">
        <ele>24</ele>
        <time>2019-10-23T09:21:33Z</time>
      </trkpt>
      <trkpt lat="43.07443" lon="5.8704">
        <ele>24</ele>
        <time>2019-10-23T09:21:34Z</time>
      </trkpt>
      <trkpt lat="43.07446" lon="5.87044">
        <ele>24</ele>
        <time>2019-10-23T09:21:35Z</time>
      </trkpt>
      <trkpt lat="43.07449" lon="5.87048">
        <ele>24</ele>
        <time>2019-10-23T09:21:36Z</time>
      </trkpt>
      <trkpt lat="43.07452" lon="5.87052">
        <ele>24</ele>
        <time>2019-10-23T09:21:37Z</time>
      </trkpt>
      <trkpt lat="43.07454" lon="5.87056">
        <ele>24</ele>
        <time>2019-10-23T09:21:38Z</time>
      </trkpt>
      <trkpt lat="43.07457" lon="5.8706">
        <ele>24</ele>
        <time>2019-10-23T09:21:39Z</time>
      </trkpt>
      <trkpt lat="43.07459" lon="5.87062">
        <ele>23</ele>
        <time>2019-10-23T09:21:40Z</time>
      </trkpt>
      <trkpt lat="43.07462" lon="5.87066">
        <ele>23</ele>
        <time>2019-10-23T09:21:41Z</time>
      </trkpt>
      <trkpt lat="43.07466" lon="5.87066">
        <ele>23</ele>
        <time>2019-10-23T09:21:42Z</time>
      </trkpt>
      <trkpt lat="43.07468" lon="5.87062">
        <ele>23</ele>
        <time>2019-10-23T09:21:43Z</time>
      </trkpt>
      <trkpt lat="43.07469" lon="5.87057">
        <ele>23</ele>
        <time>2019-10-23T09:21:44Z</time>
      </trkpt>
      <trkpt lat="43.0747" lon="5.87052">
        <ele>23</ele>
        <time>2019-10-23T09:21:45Z</time>
      </trkpt>
      <trkpt lat="43.0747" lon="5.87048">
        <ele>24</ele>
        <time>2019-10-23T09:21:46Z</time>
      </trkpt>
      <trkpt lat="43.07469" lon="5.87044">
        <ele>24</ele>
        <time>2019-10-23T09:21:47Z</time>
      </trkpt>
      <trkpt lat="43.07469" lon="5.8704">
        <ele>24</ele>
        <time>2019-10-23T09:21:48Z</time>
      </trkpt>
      <trkpt lat="43.0747" lon="5.87035">
        <ele>24</ele>
        <time>2019-10-23T09:21:49Z</time>
      </trkpt>
      <trkpt lat="43.0747" lon="5.8703">
        <ele>25</ele>
        <time>2019-10-23T09:21:50Z</time>
      </trkpt>
      <trkpt lat="43.07471" lon="5.87026">
        <ele>25</ele>
        <time>2019-10-23T09:21:51Z</time>
      </trkpt>
      <trkpt lat="43.07472" lon="5.87021">
        <ele>25</ele>
        <time>2019-10-23T09:21:52Z</time>
      </trkpt>
      <trkpt lat="43.07472" lon="5.87017">
        <ele>26</ele>
        <time>2019-10-23T09:21:53Z</time>
      </trkpt>
      <trkpt lat="43.07472" lon="5.87012">
        <ele>26</ele>
        <time>2019-10-23T09:21:54Z</time>
      </trkpt>
      <trkpt lat="43.07472" lon="5.87008">
        <ele>27</ele>
        <time>2019-10-23T09:21:55Z</time>
      </trkpt>
      <trkpt lat="43.07472" lon="5.87003">
        <ele>27</ele>
        <time>2019-10-23T09:21:56Z</time>
      </trkpt>
      <trkpt lat="43.07471" lon="5.86998">
        <ele>27</ele>
        <time>2019-10-23T09:21:57Z</time>
      </trkpt>
      <trkpt lat="43.07471" lon="5.86994">
        <ele>27</ele>
        <time>2019-10-23T09:21:58Z</time>
      </trkpt>
      <trkpt lat="43.07471" lon="5.86989">
        <ele>27</ele>
        <time>2019-10-23T09:21:59Z</time>
      </trkpt>
      <trkpt lat="43.07471" lon="5.86984">
        <ele>27</ele>
        <time>2019-10-23T09:22:00Z</time>
      </trkpt>
      <trkpt lat="43.07472" lon="5.86979">
        <ele>27</ele>
        <time>2019-10-23T09:22:01Z</time>
      </trkpt>
      <trkpt lat="43.07472" lon="5.86974">
        <ele>27</ele>
        <time>2019-10-23T09:22:02Z</time>
      </trkpt>
      <trkpt lat="43.07473" lon="5.86969">
        <ele>27</ele>
        <time>2019-10-23T09:22:03Z</time>
      </trkpt>
      <trkpt lat="43.07474" lon="5.86965">
        <ele>28</ele>
        <time>2019-10-23T09:22:04Z</time>
      </trkpt>
      <trkpt lat="43.07475" lon="5.86961">
        <ele>28</ele>
        <time>2019-10-23T09:22:05Z</time>
      </trkpt>
      <trkpt lat="43.07477" lon="5.86958">
        <ele>28</ele>
        <time>2019-10-23T09:22:06Z</time>
      </trkpt>
      <trkpt lat="43.0748" lon="5.86956">
        <ele>29</ele>
        <time>2019-10-23T09:22:07Z</time>
      </trkpt>
      <trkpt lat="43.07483" lon="5.86954">
        <ele>29</ele>
        <time>2019-10-23T09:22:08Z</time>
      </trkpt>
      <trkpt lat="43.07487" lon="5.86953">
        <ele>29</ele>
        <time>2019-10-23T09:22:09Z</time>
      </trkpt>
      <trkpt lat="43.07491" lon="5.86953">
        <ele>30</ele>
        <time>2019-10-23T09:22:10Z</time>
      </trkpt>
      <trkpt lat="43.07496" lon="5.86953">
        <ele>30</ele>
        <time>2019-10-23T09:22:11Z</time>
      </trkpt>
      <trkpt lat="43.075" lon="5.86952">
        <ele>30</ele>
        <time>2019-10-23T09:22:12Z</time>
      </trkpt>
      <trkpt lat="43.07505" lon="5.86952">
        <ele>30</ele>
        <time>2019-10-23T09:22:13Z</time>
      </trkpt>
      <trkpt lat="43.07509" lon="5.86952">
        <ele>30</ele>
        <time>2019-10-23T09:22:14Z</time>
      </trkpt>
      <trkpt lat="43.07513" lon="5.86951">
        <ele>30</ele>
        <time>2019-10-23T09:22:15Z</time>
      </trkpt>
      <trkpt lat="43.07517" lon="5.8695">
        <ele>30</ele>
        <time>2019-10-23T09:22:16Z</time>
      </trkpt>
      <trkpt lat="43.07521" lon="5.86949">
        <ele>30</ele>
        <time>2019-10-23T09:22:17Z</time>
      </trkpt>
      <trkpt lat="43.07524" lon="5.86947">
        <ele>30</ele>
        <time>2019-10-23T09:22:18Z</time>
      </trkpt>
      <trkpt lat="43.07529" lon="5.86945">
        <ele>30</ele>
        <time>2019-10-23T09:22:19Z</time>
      </trkpt>
      <trkpt lat="43.07533" lon="5.86943">
        <ele>30</ele>
        <time>2019-10-23T09:22:20Z</time>
      </trkpt>
      <trkpt lat="43.07537" lon="5.86941">
        <ele>31</ele>
        <time>2019-10-23T09:22:21Z</time>
      </trkpt>
      <trkpt lat="43.07541" lon="5.86938">
        <ele>31</ele>
        <time>2019-10-23T09:22:22Z</time>
      </trkpt>
      <trkpt lat="43.07545" lon="5.86935">
        <ele>31</ele>
        <time>2019-10-23T09:22:23Z</time>
      </trkpt>
      <trkpt lat="43.07549" lon="5.86933">
        <ele>31</ele>
        <time>2019-10-23T09:22:24Z</time>
      </trkpt>
      <trkpt lat="43.07553" lon="5.86931">
        <ele>31</ele>
        <time>2019-10-23T09:22:25Z</time>
      </trkpt>
      <trkpt lat="43.07557" lon="5.8693">
        <ele>31</ele>
        <time>2019-10-23T09:22:26Z</time>
      </trkpt>
      <trkpt lat="43.0756" lon="5.86927">
        <ele>31</ele>
        <time>2019-10-23T09:22:27Z</time>
      </trkpt>
      <trkpt lat="43.07564" lon="5.86924">
        <ele>31</ele>
        <time>2019-10-23T09:22:29Z</time>
      </trkpt>
      <trkpt lat="43.07568" lon="5.86921">
        <ele>31</ele>
        <time>2019-10-23T09:22:30Z</time>
      </trkpt>
      <trkpt lat="43.07571" lon="5.86919">
        <ele>31</ele>
        <time>2019-10-23T09:22:31Z</time>
      </trkpt>
      <trkpt lat="43.07575" lon="5.86916">
        <ele>31</ele>
        <time>2019-10-23T09:22:32Z</time>
      </trkpt>
      <trkpt lat="43.07579" lon="5.86914">
        <ele>31</ele>
        <time>2019-10-23T09:22:33Z</time>
      </trkpt>
      <trkpt lat="43.07582" lon="5.86912">
        <ele>31</ele>
        <time>2019-10-23T09:22:34Z</time>
      </trkpt>
      <trkpt lat="43.07586" lon="5.86911">
        <ele>32</ele>
        <time>2019-10-23T09:22:35Z</time>
      </trkpt>
      <trkpt lat="43.0759" lon="5.8691">
        <ele>32</ele>
        <time>2019-10-23T09:22:36Z</time>
      </trkpt>
      <trkpt lat="43.07594" lon="5.86908">
        <ele>32</ele>
        <time>2019-10-23T09:22:37Z</time>
      </trkpt>
      <trkpt lat="43.07598" lon="5.86906">
        <ele>32</ele>
        <time>2019-10-23T09:22:38Z</time>
      </trkpt>
      <trkpt lat="43.07601" lon="5.86903">
        <ele>32</ele>
        <time>2019-10-23T09:22:39Z</time>
      </trkpt>
      <trkpt lat="43.07604" lon="5.86899">
        <ele>32</ele>
        <time>2019-10-23T09:22:40Z</time>
      </trkpt>
      <trkpt lat="43.07608" lon="5.86895">
        <ele>32</ele>
        <time>2019-10-23T09:22:41Z</time>
      </trkpt>
      <trkpt lat="43.07611" lon="5.8689">
        <ele>32</ele>
        <time>2019-10-23T09:22:42Z</time>
      </trkpt>
      <trkpt lat="43.07616" lon="5.86886">
        <ele>32</ele>
        <time>2019-10-23T09:22:43Z</time>
      </trkpt>
      <trkpt lat="43.0762" lon="5.86882">
        <ele>32</ele>
        <time>2019-10-23T09:22:44Z</time>
      </trkpt>
      <trkpt lat="43.07625" lon="5.86877">
        <ele>32</ele>
        <time>2019-10-23T09:22:45Z</time>
      </trkpt>
      <trkpt lat="43.07629" lon="5.86872">
        <ele>32</ele>
        <time>2019-10-23T09:22:46Z</time>
      </trkpt>
      <trkpt lat="43.07632" lon="5.86867">
        <ele>32</ele>
        <time>2019-10-23T09:22:47Z</time>
      </trkpt>
      <trkpt lat="43.07634" lon="5.86862">
        <ele>32</ele>
        <time>2019-10-23T09:22:48Z</time>
      </trkpt>
      <trkpt lat="43.07637" lon="5.86857">
        <ele>32</ele>
        <time>2019-10-23T09:22:49Z</time>
      </trkpt>
      <trkpt lat="43.0764" lon="5.86851">
        <ele>32</ele>
        <time>2019-10-23T09:22:50Z</time>
      </trkpt>
      <trkpt lat="43.07643" lon="5.86846">
        <ele>32</ele>
        <time>2019-10-23T09:22:51Z</time>
      </trkpt>
      <trkpt lat="43.07646" lon="5.86842">
        <ele>32</ele>
        <time>2019-10-23T09:22:52Z</time>
      </trkpt>
      <trkpt lat="43.07649" lon="5.86838">
        <ele>32</ele>
        <time>2019-10-23T09:22:53Z</time>
      </trkpt>
      <trkpt lat="43.07652" lon="5.86835">
        <ele>32</ele>
        <time>2019-10-23T09:22:54Z</time>
      </trkpt>
      <trkpt lat="43.07656" lon="5.86831">
        <ele>32</ele>
        <time>2019-10-23T09:22:55Z</time>
      </trkpt>
      <trkpt lat="43.07659" lon="5.86828">
        <ele>32</ele>
        <time>2019-10-23T09:22:56Z</time>
      </trkpt>
      <trkpt lat="43.07663" lon="5.86824">
        <ele>32</ele>
        <time>2019-10-23T09:22:57Z</time>
      </trkpt>
      <trkpt lat="43.07666" lon="5.86821">
        <ele>33</ele>
        <time>2019-10-23T09:22:58Z</time>
      </trkpt>
      <trkpt lat="43.0767" lon="5.86815">
        <ele>33</ele>
        <time>2019-10-23T09:22:59Z</time>
      </trkpt>
      <trkpt lat="43.07674" lon="5.8681">
        <ele>33</ele>
        <time>2019-10-23T09:23:01Z</time>
      </trkpt>
      <trkpt lat="43.07679" lon="5.86805">
        <ele>33</ele>
        <time>2019-10-23T09:23:02Z</time>
      </trkpt>
      <trkpt lat="43.07683" lon="5.86801">
        <ele>34</ele>
        <time>2019-10-23T09:23:03Z</time>
      </trkpt>
      <trkpt lat="43.07687" lon="5.86797">
        <ele>34</ele>
        <time>2019-10-23T09:23:04Z</time>
      </trkpt>
      <trkpt lat="43.0769" lon="5.86792">
        <ele>34</ele>
        <time>2019-10-23T09:23:05Z</time>
      </trkpt>
      <trkpt lat="43.07694" lon="5.86787">
        <ele>34</ele>
        <time>2019-10-23T09:23:06Z</time>
      </trkpt>
      <trkpt lat="43.07698" lon="5.86783">
        <ele>34</ele>
        <time>2019-10-23T09:23:07Z</time>
      </trkpt>
      <trkpt lat="43.07702" lon="5.86777">
        <ele>34</ele>
        <time>2019-10-23T09:23:08Z</time>
      </trkpt>
      <trkpt lat="43.07705" lon="5.86771">
        <ele>34</ele>
        <time>2019-10-23T09:23:09Z</time>
      </trkpt>
      <trkpt lat="43.07708" lon="5.86766">
        <ele>34</ele>
        <time>2019-10-23T09:23:10Z</time>
      </trkpt>
      <trkpt lat="43.07711" lon="5.86761">
        <ele>34</ele>
        <time>2019-10-23T09:23:11Z</time>
      </trkpt>
      <trkpt lat="43.07716" lon="5.86756">
        <ele>34</ele>
        <time>2019-10-23T09:23:12Z</time>
      </trkpt>
      <trkpt lat="43.0772" lon="5.86752">
        <ele>34</ele>
        <time>2019-10-23T09:23:13Z</time>
      </trkpt>
      <trkpt lat="43.07723" lon="5.86748">
        <ele>34</ele>
        <time>2019-10-23T09:23:14Z</time>
      </trkpt>
      <trkpt lat="43.07727" lon="5.86745">
        <ele>34</ele>
        <time>2019-10-23T09:23:15Z</time>
      </trkpt>
      <trkpt lat="43.0773" lon="5.86741">
        <ele>34</ele>
        <time>2019-10-23T09:23:16Z</time>
      </trkpt>
      <trkpt lat="43.07732" lon="5.86737">
        <ele>34</ele>
        <time>2019-10-23T09:23:17Z</time>
      </trkpt>
      <trkpt lat="43.07734" lon="5.86732">
        <ele>34</ele>
        <time>2019-10-23T09:23:18Z</time>
      </trkpt>
      <trkpt lat="43.07736" lon="5.86728">
        <ele>34</ele>
        <time>2019-10-23T09:23:19Z</time>
      </trkpt>
      <trkpt lat="43.07739" lon="5.86722">
        <ele>34</ele>
        <time>2019-10-23T09:23:20Z</time>
      </trkpt>
      <trkpt lat="43.07743" lon="5.86718">
        <ele>35</ele>
        <time>2019-10-23T09:23:21Z</time>
      </trkpt>
      <trkpt lat="43.07746" lon="5.86714">
        <ele>35</ele>
        <time>2019-10-23T09:23:22Z</time>
      </trkpt>
      <trkpt lat="43.07751" lon="5.86711">
        <ele>35</ele>
        <time>2019-10-23T09:23:23Z</time>
      </trkpt>
      <trkpt lat="43.07755" lon="5.86708">
        <ele>35</ele>
        <time>2019-10-23T09:23:24Z</time>
      </trkpt>
      <trkpt lat="43.07759" lon="5.86705">
        <ele>35</ele>
        <time>2019-10-23T09:23:25Z</time>
      </trkpt>
      <trkpt lat="43.07764" lon="5.86703">
        <ele>35</ele>
        <time>2019-10-23T09:23:26Z</time>
      </trkpt>
      <trkpt lat="43.07768" lon="5.867">
        <ele>35</ele>
        <time>2019-10-23T09:23:27Z</time>
      </trkpt>
      <trkpt lat="43.07772" lon="5.86698">
        <ele>35</ele>
        <time>2019-10-23T09:23:28Z</time>
      </trkpt>
      <trkpt lat="43.07775" lon="5.86695">
        <ele>35</ele>
        <time>2019-10-23T09:23:29Z</time>
      </trkpt>
      <trkpt lat="43.07779" lon="5.86692">
        <ele>36</ele>
        <time>2019-10-23T09:23:30Z</time>
      </trkpt>
      <trkpt lat="43.07786" lon="5.86685">
        <ele>36</ele>
        <time>2019-10-23T09:23:31Z</time>
      </trkpt>
      <trkpt lat="43.07789" lon="5.86682">
        <ele>36</ele>
        <time>2019-10-23T09:23:32Z</time>
      </trkpt>
      <trkpt lat="43.07793" lon="5.86679">
        <ele>36</ele>
        <time>2019-10-23T09:23:33Z</time>
      </trkpt>
      <trkpt lat="43.07797" lon="5.86676">
        <ele>36</ele>
        <time>2019-10-23T09:23:34Z</time>
      </trkpt>
      <trkpt lat="43.07802" lon="5.86674">
        <ele>36</ele>
        <time>2019-10-23T09:23:35Z</time>
      </trkpt>
      <trkpt lat="43.07806" lon="5.86671">
        <ele>36</ele>
        <time>2019-10-23T09:23:36Z</time>
      </trkpt>
      <trkpt lat="43.0781" lon="5.86668">
        <ele>37</ele>
        <time>2019-10-23T09:23:37Z</time>
      </trkpt>
      <trkpt lat="43.07813" lon="5.86665">
        <ele>37</ele>
        <time>2019-10-23T09:23:38Z</time>
      </trkpt>
      <trkpt lat="43.07817" lon="5.86662">
        <ele>37</ele>
        <time>2019-10-23T09:23:39Z</time>
      </trkpt>
      <trkpt lat="43.0782" lon="5.86659">
        <ele>37</ele>
        <time>2019-10-23T09:23:40Z</time>
      </trkpt>
      <trkpt lat="43.07825" lon="5.86655">
        <ele>37</ele>
        <time>2019-10-23T09:23:41Z</time>
      </trkpt>
      <trkpt lat="43.07829" lon="5.86652">
        <ele>37</ele>
        <time>2019-10-23T09:23:42Z</time>
      </trkpt>
      <trkpt lat="43.07833" lon="5.86648">
        <ele>37</ele>
        <time>2019-10-23T09:23:43Z</time>
      </trkpt>
      <trkpt lat="43.07836" lon="5.86645">
        <ele>37</ele>
        <time>2019-10-23T09:23:44Z</time>
      </trkpt>
      <trkpt lat="43.07841" lon="5.8664">
        <ele>37</ele>
        <time>2019-10-23T09:23:45Z</time>
      </trkpt>
      <trkpt lat="43.07845" lon="5.86634">
        <ele>37</ele>
        <time>2019-10-23T09:23:46Z</time>
      </trkpt>
      <trkpt lat="43.07847" lon="5.8663">
        <ele>37</ele>
        <time>2019-10-23T09:23:47Z</time>
      </trkpt>
      <trkpt lat="43.07851" lon="5.86625">
        <ele>37</ele>
        <time>2019-10-23T09:23:48Z</time>
      </trkpt>
      <trkpt lat="43.07854" lon="5.86621">
        <ele>37</ele>
        <time>2019-10-23T09:23:49Z</time>
      </trkpt>
      <trkpt lat="43.07857" lon="5.86616">
        <ele>37</ele>
        <time>2019-10-23T09:23:50Z</time>
      </trkpt>
      <trkpt lat="43.07861" lon="5.86611">
        <ele>37</ele>
        <time>2019-10-23T09:23:51Z</time>
      </trkpt>
      <trkpt lat="43.07866" lon="5.86607">
        <ele>36</ele>
        <time>2019-10-23T09:23:52Z</time>
      </trkpt>
      <trkpt lat="43.07869" lon="5.86602">
        <ele>36</ele>
        <time>2019-10-23T09:23:53Z</time>
      </trkpt>
      <trkpt lat="43.07873" lon="5.86598">
        <ele>37</ele>
        <time>2019-10-23T09:23:54Z</time>
      </trkpt>
      <trkpt lat="43.07875" lon="5.86593">
        <ele>37</ele>
        <time>2019-10-23T09:23:55Z</time>
      </trkpt>
      <trkpt lat="43.07878" lon="5.86587">
        <ele>37</ele>
        <time>2019-10-23T09:23:56Z</time>
      </trkpt>
      <trkpt lat="43.07882" lon="5.86581">
        <ele>37</ele>
        <time>2019-10-23T09:23:57Z</time>
      </trkpt>
      <trkpt lat="43.07886" lon="5.86575">
        <ele>37</ele>
        <time>2019-10-23T09:23:58Z</time>
      </trkpt>
      <trkpt lat="43.07889" lon="5.86569">
        <ele>37</ele>
        <time>2019-10-23T09:23:59Z</time>
      </trkpt>
      <trkpt lat="43.07892" lon="5.86564">
        <ele>38</ele>
        <time>2019-10-23T09:24:00Z</time>
      </trkpt>
      <trkpt lat="43.07894" lon="5.86558">
        <ele>38</ele>
        <time>2019-10-23T09:24:02Z</time>
      </trkpt>
      <trkpt lat="43.07896" lon="5.86551">
        <ele>38</ele>
        <time>2019-10-23T09:24:03Z</time>
      </trkpt>
      <trkpt lat="43.07898" lon="5.86546">
        <ele>38</ele>
        <time>2019-10-23T09:24:04Z</time>
      </trkpt>
      <trkpt lat="43.07901" lon="5.86542">
        <ele>38</ele>
        <time>2019-10-23T09:24:05Z</time>
      </trkpt>
      <trkpt lat="43.07905" lon="5.86536">
        <ele>38</ele>
        <time>2019-10-23T09:24:06Z</time>
      </trkpt>
      <trkpt lat="43.07908" lon="5.86532">
        <ele>38</ele>
        <time>2019-10-23T09:24:07Z</time>
      </trkpt>
      <trkpt lat="43.07911" lon="5.86526">
        <ele>38</ele>
        <time>2019-10-23T09:24:08Z</time>
      </trkpt>
      <trkpt lat="43.07912" lon="5.86522">
        <ele>38</ele>
        <time>2019-10-23T09:24:09Z</time>
      </trkpt>
      <trkpt lat="43.07914" lon="5.86516">
        <ele>38</ele>
        <time>2019-10-23T09:24:10Z</time>
      </trkpt>
      <trkpt lat="43.07917" lon="5.8651">
        <ele>38</ele>
        <time>2019-10-23T09:24:11Z</time>
      </trkpt>
      <trkpt lat="43.07919" lon="5.86504">
        <ele>39</ele>
        <time>2019-10-23T09:24:12Z</time>
      </trkpt>
      <trkpt lat="43.07921" lon="5.86497">
        <ele>39</ele>
        <time>2019-10-23T09:24:13Z</time>
      </trkpt>
      <trkpt lat="43.07923" lon="5.86491">
        <ele>39</ele>
        <time>2019-10-23T09:24:14Z</time>
      </trkpt>
      <trkpt lat="43.07925" lon="5.86486">
        <ele>39</ele>
        <time>2019-10-23T09:24:15Z</time>
      </trkpt>
      <trkpt lat="43.07926" lon="5.86481">
        <ele>39</ele>
        <time>2019-10-23T09:24:16Z</time>
      </trkpt>
      <trkpt lat="43.07929" lon="5.86476">
        <ele>39</ele>
        <time>2019-10-23T09:24:17Z</time>
      </trkpt>
      <trkpt lat="43.07932" lon="5.8647">
        <ele>39</ele>
        <time>2019-10-23T09:24:18Z</time>
      </trkpt>
      <trkpt lat="43.07933" lon="5.86463">
        <ele>39</ele>
        <time>2019-10-23T09:24:19Z</time>
      </trkpt>
      <trkpt lat="43.07934" lon="5.86457">
        <ele>39</ele>
        <time>2019-10-23T09:24:20Z</time>
      </trkpt>
      <trkpt lat="43.07934" lon="5.86451">
        <ele>40</ele>
        <time>2019-10-23T09:24:21Z</time>
      </trkpt>
      <trkpt lat="43.07934" lon="5.86445">
        <ele>40</ele>
        <time>2019-10-23T09:24:22Z</time>
      </trkpt>
      <trkpt lat="43.07934" lon="5.8644">
        <ele>40</ele>
        <time>2019-10-23T09:24:23Z</time>
      </trkpt>
      <trkpt lat="43.07935" lon="5.86435">
        <ele>40</ele>
        <time>2019-10-23T09:24:24Z</time>
      </trkpt>
      <trkpt lat="43.07935" lon="5.86429">
        <ele>40</ele>
        <time>2019-10-23T09:24:25Z</time>
      </trkpt>
      <trkpt lat="43.07934" lon="5.86425">
        <ele>40</ele>
        <time>2019-10-23T09:24:26Z</time>
      </trkpt>
      <trkpt lat="43.07935" lon="5.8642">
        <ele>40</ele>
        <time>2019-10-23T09:24:27Z</time>
      </trkpt>
      <trkpt lat="43.07936" lon="5.86414">
        <ele>40</ele>
        <time>2019-10-23T09:24:28Z</time>
      </trkpt>
      <trkpt lat="43.07935" lon="5.86407">
        <ele>40</ele>
        <time>2019-10-23T09:24:29Z</time>
      </trkpt>
      <trkpt lat="43.07936" lon="5.864">
        <ele>40</ele>
        <time>2019-10-23T09:24:30Z</time>
      </trkpt>
      <trkpt lat="43.07936" lon="5.86394">
        <ele>40</ele>
        <time>2019-10-23T09:24:31Z</time>
      </trkpt>
      <trkpt lat="43.07937" lon="5.86387">
        <ele>40</ele>
        <time>2019-10-23T09:24:32Z</time>
      </trkpt>
      <trkpt lat="43.07937" lon="5.86379">
        <ele>40</ele>
        <time>2019-10-23T09:24:33Z</time>
      </trkpt>
      <trkpt lat="43.07937" lon="5.8637">
        <ele>40</ele>
        <time>2019-10-23T09:24:34Z</time>
      </trkpt>
      <trkpt lat="43.07936" lon="5.86363">
        <ele>40</ele>
        <time>2019-10-23T09:24:35Z</time>
      </trkpt>
      <trkpt lat="43.07936" lon="5.86357">
        <ele>41</ele>
        <time>2019-10-23T09:24:36Z</time>
      </trkpt>
      <trkpt lat="43.07937" lon="5.86351">
        <ele>41</ele>
        <time>2019-10-23T09:24:37Z</time>
      </trkpt>
      <trkpt lat="43.07938" lon="5.86344">
        <ele>41</ele>
        <time>2019-10-23T09:24:38Z</time>
      </trkpt>
      <trkpt lat="43.07938" lon="5.86338">
        <ele>41</ele>
        <time>2019-10-23T09:24:39Z</time>
      </trkpt>
      <trkpt lat="43.07938" lon="5.86332">
        <ele>41</ele>
        <time>2019-10-23T09:24:40Z</time>
      </trkpt>
      <trkpt lat="43.07939" lon="5.86326">
        <ele>41</ele>
        <time>2019-10-23T09:24:41Z</time>
      </trkpt>
      <trkpt lat="43.07939" lon="5.86321">
        <ele>41</ele>
        <time>2019-10-23T09:24:42Z</time>
      </trkpt>
      <trkpt lat="43.07941" lon="5.86316">
        <ele>41</ele>
        <time>2019-10-23T09:24:43Z</time>
      </trkpt>
      <trkpt lat="43.07942" lon="5.8631">
        <ele>41</ele>
        <time>2019-10-23T09:24:44Z</time>
      </trkpt>
      <trkpt lat="43.07943" lon="5.86305">
        <ele>41</ele>
        <time>2019-10-23T09:24:45Z</time>
      </trkpt>
      <trkpt lat="43.07945" lon="5.86299">
        <ele>41</ele>
        <time>2019-10-23T09:24:46Z</time>
      </trkpt>
      <trkpt lat="43.07946" lon="5.86293">
        <ele>41</ele>
        <time>2019-10-23T09:24:48Z</time>
      </trkpt>
      <trkpt lat="43.07946" lon="5.86286">
        <ele>41</ele>
        <time>2019-10-23T09:24:49Z</time>
      </trkpt>
      <trkpt lat="43.07947" lon="5.86279">
        <ele>41</ele>
        <time>2019-10-23T09:24:50Z</time>
      </trkpt>
      <trkpt lat="43.07948" lon="5.86272">
        <ele>40</ele>
        <time>2019-10-23T09:24:52Z</time>
      </trkpt>
      <trkpt lat="43.0795" lon="5.86266">
        <ele>40</ele>
        <time>2019-10-23T09:24:53Z</time>
      </trkpt>
      <trkpt lat="43.07951" lon="5.86258">
        <ele>40</ele>
        <time>2019-10-23T09:24:55Z</time>
      </trkpt>
      <trkpt lat="43.07952" lon="5.86251">
        <ele>40</ele>
        <time>2019-10-23T09:24:58Z</time>
      </trkpt>
      <trkpt lat="43.07954" lon="5.86245">
        <ele>40</ele>
        <time>2019-10-23T09:25:00Z</time>
      </trkpt>
      <trkpt lat="43.07956" lon="5.86239">
        <ele>40</ele>
        <time>2019-10-23T09:25:01Z</time>
      </trkpt>
      <trkpt lat="43.07958" lon="5.86233">
        <ele>40</ele>
        <time>2019-10-23T09:25:02Z</time>
      </trkpt>
      <trkpt lat="43.0796" lon="5.86226">
        <ele>40</ele>
        <time>2019-10-23T09:25:04Z</time>
      </trkpt>
      <trkpt lat="43.07962" lon="5.86219">
        <ele>40</ele>
        <time>2019-10-23T09:25:05Z</time>
      </trkpt>
      <trkpt lat="43.07964" lon="5.86212">
        <ele>40</ele>
        <time>2019-10-23T09:25:06Z</time>
      </trkpt>
      <trkpt lat="43.07966" lon="5.86205">
        <ele>40</ele>
        <time>2019-10-23T09:25:07Z</time>
      </trkpt>
      <trkpt lat="43.07967" lon="5.86198">
        <ele>40</ele>
        <time>2019-10-23T09:25:08Z</time>
      </trkpt>
      <trkpt lat="43.07968" lon="5.86191">
        <ele>40</ele>
        <time>2019-10-23T09:25:10Z</time>
      </trkpt>
      <trkpt lat="43.07969" lon="5.86184">
        <ele>40</ele>
        <time>2019-10-23T09:25:11Z</time>
      </trkpt>
      <trkpt lat="43.0797" lon="5.86178">
        <ele>40</ele>
        <time>2019-10-23T09:25:12Z</time>
      </trkpt>
      <trkpt lat="43.07971" lon="5.86171">
        <ele>40</ele>
        <time>2019-10-23T09:25:13Z</time>
      </trkpt>
      <trkpt lat="43.07971" lon="5.86163">
        <ele>40</ele>
        <time>2019-10-23T09:25:15Z</time>
      </trkpt>
      <trkpt lat="43.07971" lon="5.86155">
        <ele>40</ele>
        <time>2019-10-23T09:25:17Z</time>
      </trkpt>
      <trkpt lat="43.07971" lon="5.86147">
        <ele>40</ele>
        <time>2019-10-23T09:25:19Z</time>
      </trkpt>
      <trkpt lat="43.07969" lon="5.86141">
        <ele>40</ele>
        <time>2019-10-23T09:25:21Z</time>
      </trkpt>
      <trkpt lat="43.07968" lon="5.86134">
        <ele>40</ele>
        <time>2019-10-23T09:25:22Z</time>
      </trkpt>
      <trkpt lat="43.07967" lon="5.86129">
        <ele>40</ele>
        <time>2019-10-23T09:25:23Z</time>
      </trkpt>
      <trkpt lat="43.07965" lon="5.86124">
        <ele>40</ele>
        <time>2019-10-23T09:25:24Z</time>
      </trkpt>
      <trkpt lat="43.07961" lon="5.8612">
        <ele>40</ele>
        <time>2019-10-23T09:25:25Z</time>
      </trkpt>
      <trkpt lat="43.07958" lon="5.86116">
        <ele>40</ele>
        <time>2019-10-23T09:25:27Z</time>
      </trkpt>
      <trkpt lat="43.07955" lon="5.86114">
        <ele>40</ele>
        <time>2019-10-23T09:25:29Z</time>
      </trkpt>
      <trkpt lat="43.07951" lon="5.86113">
        <ele>40</ele>
        <time>2019-10-23T09:25:31Z</time>
      </trkpt>
      <trkpt lat="43.07945" lon="5.86115">
        <ele>41</ele>
        <time>2019-10-23T09:25:32Z</time>
      </trkpt>
      <trkpt lat="43.07942" lon="5.86117">
        <ele>41</ele>
        <time>2019-10-23T09:25:33Z</time>
      </trkpt>
      <trkpt lat="43.0794" lon="5.8612">
        <ele>42</ele>
        <time>2019-10-23T09:25:34Z</time>
      </trkpt>
      <trkpt lat="43.07938" lon="5.86123">
        <ele>43</ele>
        <time>2019-10-23T09:25:35Z</time>
      </trkpt>
      <trkpt lat="43.07936" lon="5.86127">
        <ele>43</ele>
        <time>2019-10-23T09:25:36Z</time>
      </trkpt>
      <trkpt lat="43.07935" lon="5.86132">
        <ele>44</ele>
        <time>2019-10-23T09:25:38Z</time>
      </trkpt>
      <trkpt lat="43.07933" lon="5.86136">
        <ele>45</ele>
        <time>2019-10-23T09:25:40Z</time>
      </trkpt>
      <trkpt lat="43.07931" lon="5.86141">
        <ele>46</ele>
        <time>2019-10-23T09:25:42Z</time>
      </trkpt>
      <trkpt lat="43.07929" lon="5.86145">
        <ele>47</ele>
        <time>2019-10-23T09:25:44Z</time>
      </trkpt>
      <trkpt lat="43.07928" lon="5.86149">
        <ele>47</ele>
        <time>2019-10-23T09:25:46Z</time>
      </trkpt>
      <trkpt lat="43.07927" lon="5.86154">
        <ele>48</ele>
        <time>2019-10-23T09:25:48Z</time>
      </trkpt>
      <trkpt lat="43.07925" lon="5.86158">
        <ele>48</ele>
        <time>2019-10-23T09:25:50Z</time>
      </trkpt>
      <trkpt lat="43.07924" lon="5.86162">
        <ele>48</ele>
        <time>2019-10-23T09:25:52Z</time>
      </trkpt>
      <trkpt lat="43.07923" lon="5.86166">
        <ele>49</ele>
        <time>2019-10-23T09:25:53Z</time>
      </trkpt>
      <trkpt lat="43.07922" lon="5.8617">
        <ele>49</ele>
        <time>2019-10-23T09:25:54Z</time>
      </trkpt>
      <trkpt lat="43.0792" lon="5.86175">
        <ele>50</ele>
        <time>2019-10-23T09:25:55Z</time>
      </trkpt>
      <trkpt lat="43.07919" lon="5.86179">
        <ele>50</ele>
        <time>2019-10-23T09:25:56Z</time>
      </trkpt>
      <trkpt lat="43.07917" lon="5.86183">
        <ele>50</ele>
        <time>2019-10-23T09:25:57Z</time>
      </trkpt>
      <trkpt lat="43.07916" lon="5.86186">
        <ele>51</ele>
        <time>2019-10-23T09:25:58Z</time>
      </trkpt>
      <trkpt lat="43.07914" lon="5.86191">
        <ele>51</ele>
        <time>2019-10-23T09:25:59Z</time>
      </trkpt>
      <trkpt lat="43.07912" lon="5.86197">
        <ele>52</ele>
        <time>2019-10-23T09:26:00Z</time>
      </trkpt>
      <trkpt lat="43.07909" lon="5.86203">
        <ele>52</ele>
        <time>2019-10-23T09:26:01Z</time>
      </trkpt>
      <trkpt lat="43.07907" lon="5.86209">
        <ele>53</ele>
        <time>2019-10-23T09:26:02Z</time>
      </trkpt>
      <trkpt lat="43.07904" lon="5.86213">
        <ele>53</ele>
        <time>2019-10-23T09:26:03Z</time>
      </trkpt>
      <trkpt lat="43.07903" lon="5.86217">
        <ele>54</ele>
        <time>2019-10-23T09:26:04Z</time>
      </trkpt>
      <trkpt lat="43.07901" lon="5.8622">
        <ele>54</ele>
        <time>2019-10-23T09:26:05Z</time>
      </trkpt>
      <trkpt lat="43.07899" lon="5.86223">
        <ele>54</ele>
        <time>2019-10-23T09:26:06Z</time>
      </trkpt>
      <trkpt lat="43.07895" lon="5.86227">
        <ele>54</ele>
        <time>2019-10-23T09:26:07Z</time>
      </trkpt>
      <trkpt lat="43.07891" lon="5.86231">
        <ele>55</ele>
        <time>2019-10-23T09:26:08Z</time>
      </trkpt>
      <trkpt lat="43.07887" lon="5.86235">
        <ele>55</ele>
        <time>2019-10-23T09:26:09Z</time>
      </trkpt>
      <trkpt lat="43.07884" lon="5.86238">
        <ele>56</ele>
        <time>2019-10-23T09:26:10Z</time>
      </trkpt>
      <trkpt lat="43.07882" lon="5.86241">
        <ele>56</ele>
        <time>2019-10-23T09:26:11Z</time>
      </trkpt>
      <trkpt lat="43.07879" lon="5.86243">
        <ele>56</ele>
        <time>2019-10-23T09:26:12Z</time>
      </trkpt>
      <trkpt lat="43.07877" lon="5.86246">
        <ele>56</ele>
        <time>2019-10-23T09:26:13Z</time>
      </trkpt>
      <trkpt lat="43.07874" lon="5.86248">
        <ele>56</ele>
        <time>2019-10-23T09:26:14Z</time>
      </trkpt>
      <trkpt lat="43.07871" lon="5.86251">
        <ele>56</ele>
        <time>2019-10-23T09:26:15Z</time>
      </trkpt>
      <trkpt lat="43.07867" lon="5.86254">
        <ele>57</ele>
        <time>2019-10-23T09:26:16Z</time>
      </trkpt>
      <trkpt lat="43.07863" lon="5.86258">
        <ele>57</ele>
        <time>2019-10-23T09:26:18Z</time>
      </trkpt>
      <trkpt lat="43.07859" lon="5.86262">
        <ele>57</ele>
        <time>2019-10-23T09:26:20Z</time>
      </trkpt>
      <trkpt lat="43.07855" lon="5.86266">
        <ele>58</ele>
        <time>2019-10-23T09:26:22Z</time>
      </trkpt>
      <trkpt lat="43.07851" lon="5.8627">
        <ele>58</ele>
        <time>2019-10-23T09:26:24Z</time>
      </trkpt>
      <trkpt lat="43.07847" lon="5.86274">
        <ele>59</ele>
        <time>2019-10-23T09:26:26Z</time>
      </trkpt>
      <trkpt lat="43.07844" lon="5.86279">
        <ele>60</ele>
        <time>2019-10-23T09:26:50Z</time>
      </trkpt>
      <trkpt lat="43.07841" lon="5.86283">
        <ele>60</ele>
        <time>2019-10-23T09:26:52Z</time>
      </trkpt>
      <trkpt lat="43.0784" lon="5.86287">
        <ele>60</ele>
        <time>2019-10-23T09:26:54Z</time>
      </trkpt>
      <trkpt lat="43.07838" lon="5.86291">
        <ele>60</ele>
        <time>2019-10-23T09:26:56Z</time>
      </trkpt>
      <trkpt lat="43.07837" lon="5.86294">
        <ele>60</ele>
        <time>2019-10-23T09:26:58Z</time>
      </trkpt>
      <trkpt lat="43.07835" lon="5.86298">
        <ele>60</ele>
        <time>2019-10-23T09:27:00Z</time>
      </trkpt>
      <trkpt lat="43.07834" lon="5.86301">
        <ele>61</ele>
        <time>2019-10-23T09:27:01Z</time>
      </trkpt>
      <trkpt lat="43.07832" lon="5.86305">
        <ele>61</ele>
        <time>2019-10-23T09:27:03Z</time>
      </trkpt>
      <trkpt lat="43.0783" lon="5.86309">
        <ele>61</ele>
        <time>2019-10-23T09:27:05Z</time>
      </trkpt>
      <trkpt lat="43.07829" lon="5.86313">
        <ele>61</ele>
        <time>2019-10-23T09:27:07Z</time>
      </trkpt>
      <trkpt lat="43.07827" lon="5.86318">
        <ele>61</ele>
        <time>2019-10-23T09:27:08Z</time>
      </trkpt>
      <trkpt lat="43.07826" lon="5.86322">
        <ele>61</ele>
        <time>2019-10-23T09:27:09Z</time>
      </trkpt>
      <trkpt lat="43.07825" lon="5.86327">
        <ele>61</ele>
        <time>2019-10-23T09:27:10Z</time>
      </trkpt>
      <trkpt lat="43.07823" lon="5.86331">
        <ele>61</ele>
        <time>2019-10-23T09:27:11Z</time>
      </trkpt>
      <trkpt lat="43.07822" lon="5.86335">
        <ele>61</ele>
        <time>2019-10-23T09:27:12Z</time>
      </trkpt>
      <trkpt lat="43.0782" lon="5.8634">
        <ele>61</ele>
        <time>2019-10-23T09:27:13Z</time>
      </trkpt>
      <trkpt lat="43.07818" lon="5.86343">
        <ele>61</ele>
        <time>2019-10-23T09:27:15Z</time>
      </trkpt>
      <trkpt lat="43.07816" lon="5.86346">
        <ele>61</ele>
        <time>2019-10-23T09:27:17Z</time>
      </trkpt>
      <trkpt lat="43.07814" lon="5.8635">
        <ele>61</ele>
        <time>2019-10-23T09:27:19Z</time>
      </trkpt>
      <trkpt lat="43.07812" lon="5.86353">
        <ele>61</ele>
        <time>2019-10-23T09:27:21Z</time>
      </trkpt>
      <trkpt lat="43.0781" lon="5.86356">
        <ele>62</ele>
        <time>2019-10-23T09:27:22Z</time>
      </trkpt>
      <trkpt lat="43.07808" lon="5.86359">
        <ele>62</ele>
        <time>2019-10-23T09:27:24Z</time>
      </trkpt>
      <trkpt lat="43.07806" lon="5.86362">
        <ele>62</ele>
        <time>2019-10-23T09:27:25Z</time>
      </trkpt>
      <trkpt lat="43.07805" lon="5.86366">
        <ele>62</ele>
        <time>2019-10-23T09:27:26Z</time>
      </trkpt>
      <trkpt lat="43.07803" lon="5.86369">
        <ele>62</ele>
        <time>2019-10-23T09:27:27Z</time>
      </trkpt>
      <trkpt lat="43.07801" lon="5.86374">
        <ele>63</ele>
        <time>2019-10-23T09:27:28Z</time>
      </trkpt>
      <trkpt lat="43.07799" lon="5.8638">
        <ele>64</ele>
        <time>2019-10-23T09:27:29Z</time>
      </trkpt>
      <trkpt lat="43.07796" lon="5.86384">
        <ele>65</ele>
        <time>2019-10-23T09:27:30Z</time>
      </trkpt>
      <trkpt lat="43.07793" lon="5.86388">
        <ele>65</ele>
        <time>2019-10-23T09:27:31Z</time>
      </trkpt>
      <trkpt lat="43.0779" lon="5.86391">
        <ele>65</ele>
        <time>2019-10-23T09:27:33Z</time>
      </trkpt>
      <trkpt lat="43.07787" lon="5.86393">
        <ele>66</ele>
        <time>2019-10-23T09:27:34Z</time>
      </trkpt>
      <trkpt lat="43.07785" lon="5.86397">
        <ele>66</ele>
        <time>2019-10-23T09:27:35Z</time>
      </trkpt>
      <trkpt lat="43.07784" lon="5.86401">
        <ele>66</ele>
        <time>2019-10-23T09:27:37Z</time>
      </trkpt>
      <trkpt lat="43.07783" lon="5.86405">
        <ele>67</ele>
        <time>2019-10-23T09:27:38Z</time>
      </trkpt>
      <trkpt lat="43.07781" lon="5.86411">
        <ele>68</ele>
        <time>2019-10-23T09:27:39Z</time>
      </trkpt>
      <trkpt lat="43.07778" lon="5.86416">
        <ele>69</ele>
        <time>2019-10-23T09:27:40Z</time>
      </trkpt>
      <trkpt lat="43.07775" lon="5.8642">
        <ele>69</ele>
        <time>2019-10-23T09:27:41Z</time>
      </trkpt>
      <trkpt lat="43.07772" lon="5.86424">
        <ele>69</ele>
        <time>2019-10-23T09:27:42Z</time>
      </trkpt>
      <trkpt lat="43.07769" lon="5.86429">
        <ele>70</ele>
        <time>2019-10-23T09:27:43Z</time>
      </trkpt>
      <trkpt lat="43.07766" lon="5.86434">
        <ele>70</ele>
        <time>2019-10-23T09:27:44Z</time>
      </trkpt>
      <trkpt lat="43.07764" lon="5.86438">
        <ele>71</ele>
        <time>2019-10-23T09:27:46Z</time>
      </trkpt>
      <trkpt lat="43.07762" lon="5.86442">
        <ele>71</ele>
        <time>2019-10-23T09:27:48Z</time>
      </trkpt>
      <trkpt lat="43.0776" lon="5.86445">
        <ele>71</ele>
        <time>2019-10-23T09:27:49Z</time>
      </trkpt>
      <trkpt lat="43.07759" lon="5.86448">
        <ele>71</ele>
        <time>2019-10-23T09:27:51Z</time>
      </trkpt>
      <trkpt lat="43.07757" lon="5.86451">
        <ele>72</ele>
        <time>2019-10-23T09:27:52Z</time>
      </trkpt>
      <trkpt lat="43.07755" lon="5.86454">
        <ele>72</ele>
        <time>2019-10-23T09:27:53Z</time>
      </trkpt>
      <trkpt lat="43.07752" lon="5.86458">
        <ele>72</ele>
        <time>2019-10-23T09:27:54Z</time>
      </trkpt>
      <trkpt lat="43.07748" lon="5.86462">
        <ele>73</ele>
        <time>2019-10-23T09:27:56Z</time>
      </trkpt>
      <trkpt lat="43.07745" lon="5.86467">
        <ele>74</ele>
        <time>2019-10-23T09:27:57Z</time>
      </trkpt>
      <trkpt lat="43.07742" lon="5.86473">
        <ele>74</ele>
        <time>2019-10-23T09:27:59Z</time>
      </trkpt>
      <trkpt lat="43.0774" lon="5.86477">
        <ele>74</ele>
        <time>2019-10-23T09:28:03Z</time>
      </trkpt>
      <trkpt lat="43.07738" lon="5.86482">
        <ele>74</ele>
        <time>2019-10-23T09:28:05Z</time>
      </trkpt>
      <trkpt lat="43.07735" lon="5.86486">
        <ele>74</ele>
        <time>2019-10-23T09:28:07Z</time>
      </trkpt>
      <trkpt lat="43.07733" lon="5.86489">
        <ele>74</ele>
        <time>2019-10-23T09:28:09Z</time>
      </trkpt>
      <trkpt lat="43.07731" lon="5.86493">
        <ele>73</ele>
        <time>2019-10-23T09:28:10Z</time>
      </trkpt>
      <trkpt lat="43.07729" lon="5.86496">
        <ele>73</ele>
        <time>2019-10-23T09:28:11Z</time>
      </trkpt>
      <trkpt lat="43.07727" lon="5.86499">
        <ele>73</ele>
        <time>2019-10-23T09:28:12Z</time>
      </trkpt>
      <trkpt lat="43.07725" lon="5.86501">
        <ele>72</ele>
        <time>2019-10-23T09:28:13Z</time>
      </trkpt>
      <trkpt lat="43.07723" lon="5.86503">
        <ele>72</ele>
        <time>2019-10-23T09:28:14Z</time>
      </trkpt>
      <trkpt lat="43.07719" lon="5.86506">
        <ele>72</ele>
        <time>2019-10-23T09:28:15Z</time>
      </trkpt>
      <trkpt lat="43.07716" lon="5.86508">
        <ele>72</ele>
        <time>2019-10-23T09:28:16Z</time>
      </trkpt>
      <trkpt lat="43.07713" lon="5.86509">
        <ele>72</ele>
        <time>2019-10-23T09:28:18Z</time>
      </trkpt>
      <trkpt lat="43.07708" lon="5.86511">
        <ele>72</ele>
        <time>2019-10-23T09:28:19Z</time>
      </trkpt>
      <trkpt lat="43.07705" lon="5.86512">
        <ele>72</ele>
        <time>2019-10-23T09:28:21Z</time>
      </trkpt>
      <trkpt lat="43.07701" lon="5.86514">
        <ele>72</ele>
        <time>2019-10-23T09:28:23Z</time>
      </trkpt>
      <trkpt lat="43.07698" lon="5.86515">
        <ele>73</ele>
        <time>2019-10-23T09:28:25Z</time>
      </trkpt>
      <trkpt lat="43.07695" lon="5.86516">
        <ele>73</ele>
        <time>2019-10-23T09:28:27Z</time>
      </trkpt>
      <trkpt lat="43.07692" lon="5.86518">
        <ele>73</ele>
        <time>2019-10-23T09:28:29Z</time>
      </trkpt>
      <trkpt lat="43.07689" lon="5.8652">
        <ele>73</ele>
        <time>2019-10-23T09:28:31Z</time>
      </trkpt>
      <trkpt lat="43.07686" lon="5.86521">
        <ele>73</ele>
        <time>2019-10-23T09:28:33Z</time>
      </trkpt>
      <trkpt lat="43.07682" lon="5.86523">
        <ele>73</ele>
        <time>2019-10-23T09:28:35Z</time>
      </trkpt>
      <trkpt lat="43.07677" lon="5.86526">
        <ele>74</ele>
        <time>2019-10-23T09:28:37Z</time>
      </trkpt>
      <trkpt lat="43.07674" lon="5.86528">
        <ele>74</ele>
        <time>2019-10-23T09:28:39Z</time>
      </trkpt>
      <trkpt lat="43.0767" lon="5.8653">
        <ele>76</ele>
        <time>2019-10-23T09:28:41Z</time>
      </trkpt>
      <trkpt lat="43.07666" lon="5.86532">
        <ele>76</ele>
        <time>2019-10-23T09:28:43Z</time>
      </trkpt>
      <trkpt lat="43.07663" lon="5.86533">
        <ele>77</ele>
        <time>2019-10-23T09:28:45Z</time>
      </trkpt>
      <trkpt lat="43.0766" lon="5.86534">
        <ele>77</ele>
        <time>2019-10-23T09:28:47Z</time>
      </trkpt>
      <trkpt lat="43.07656" lon="5.86536">
        <ele>77</ele>
        <time>2019-10-23T09:28:49Z</time>
      </trkpt>
      <trkpt lat="43.07653" lon="5.86537">
        <ele>77</ele>
        <time>2019-10-23T09:28:50Z</time>
      </trkpt>
      <trkpt lat="43.07649" lon="5.86539">
        <ele>77</ele>
        <time>2019-10-23T09:28:51Z</time>
      </trkpt>
      <trkpt lat="43.07639" lon="5.86543">
        <ele>78</ele>
        <time>2019-10-23T09:28:53Z</time>
      </trkpt>
      <trkpt lat="43.07634" lon="5.86545">
        <ele>79</ele>
        <time>2019-10-23T09:28:54Z</time>
      </trkpt>
      <trkpt lat="43.07629" lon="5.86547">
        <ele>80</ele>
        <time>2019-10-23T09:28:56Z</time>
      </trkpt>
      <trkpt lat="43.07624" lon="5.8655">
        <ele>81</ele>
        <time>2019-10-23T09:28:58Z</time>
      </trkpt>
      <trkpt lat="43.07621" lon="5.86552">
        <ele>82</ele>
        <time>2019-10-23T09:29:00Z</time>
      </trkpt>
      <trkpt lat="43.07617" lon="5.86554">
        <ele>82</ele>
        <time>2019-10-23T09:29:01Z</time>
      </trkpt>
      <trkpt lat="43.07615" lon="5.86555">
        <ele>82</ele>
        <time>2019-10-23T09:29:03Z</time>
      </trkpt>
      <trkpt lat="43.07612" lon="5.86557">
        <ele>82</ele>
        <time>2019-10-23T09:29:04Z</time>
      </trkpt>
      <trkpt lat="43.07609" lon="5.86559">
        <ele>82</ele>
        <time>2019-10-23T09:29:05Z</time>
      </trkpt>
      <trkpt lat="43.07606" lon="5.8656">
        <ele>82</ele>
        <time>2019-10-23T09:29:06Z</time>
      </trkpt>
      <trkpt lat="43.07604" lon="5.86562">
        <ele>82</ele>
        <time>2019-10-23T09:29:07Z</time>
      </trkpt>
      <trkpt lat="43.076" lon="5.86566">
        <ele>83</ele>
        <time>2019-10-23T09:29:08Z</time>
      </trkpt>
      <trkpt lat="43.07597" lon="5.86569">
        <ele>83</ele>
        <time>2019-10-23T09:29:09Z</time>
      </trkpt>
      <trkpt lat="43.07594" lon="5.86571">
        <ele>83</ele>
        <time>2019-10-23T09:29:10Z</time>
      </trkpt>
      <trkpt lat="43.07589" lon="5.86572">
        <ele>84</ele>
        <time>2019-10-23T09:29:11Z</time>
      </trkpt>
      <trkpt lat="43.07584" lon="5.86574">
        <ele>85</ele>
        <time>2019-10-23T09:29:12Z</time>
      </trkpt>
      <trkpt lat="43.0758" lon="5.86576">
        <ele>85</ele>
        <time>2019-10-23T09:29:13Z</time>
      </trkpt>
      <trkpt lat="43.07576" lon="5.86578">
        <ele>86</ele>
        <time>2019-10-23T09:29:14Z</time>
      </trkpt>
      <trkpt lat="43.07572" lon="5.8658">
        <ele>87</ele>
        <time>2019-10-23T09:29:15Z</time>
      </trkpt>
      <trkpt lat="43.07568" lon="5.86583">
        <ele>88</ele>
        <time>2019-10-23T09:29:16Z</time>
      </trkpt>
      <trkpt lat="43.07564" lon="5.86587">
        <ele>88</ele>
        <time>2019-10-23T09:29:17Z</time>
      </trkpt>
      <trkpt lat="43.0756" lon="5.86591">
        <ele>89</ele>
        <time>2019-10-23T09:29:18Z</time>
      </trkpt>
      <trkpt lat="43.07556" lon="5.86594">
        <ele>89</ele>
        <time>2019-10-23T09:29:19Z</time>
      </trkpt>
      <trkpt lat="43.07551" lon="5.86595">
        <ele>90</ele>
        <time>2019-10-23T09:29:20Z</time>
      </trkpt>
      <trkpt lat="43.07545" lon="5.86596">
        <ele>90</ele>
        <time>2019-10-23T09:29:21Z</time>
      </trkpt>
      <trkpt lat="43.07541" lon="5.86597">
        <ele>92</ele>
        <time>2019-10-23T09:29:22Z</time>
      </trkpt>
      <trkpt lat="43.07536" lon="5.866">
        <ele>93</ele>
        <time>2019-10-23T09:29:23Z</time>
      </trkpt>
      <trkpt lat="43.07532" lon="5.86602">
        <ele>94</ele>
        <time>2019-10-23T09:29:24Z</time>
      </trkpt>
      <trkpt lat="43.07528" lon="5.86603">
        <ele>94</ele>
        <time>2019-10-23T09:29:25Z</time>
      </trkpt>
      <trkpt lat="43.07525" lon="5.86604">
        <ele>94</ele>
        <time>2019-10-23T09:29:26Z</time>
      </trkpt>
      <trkpt lat="43.0752" lon="5.86605">
        <ele>94</ele>
        <time>2019-10-23T09:29:27Z</time>
      </trkpt>
      <trkpt lat="43.07517" lon="5.86606">
        <ele>94</ele>
        <time>2019-10-23T09:29:28Z</time>
      </trkpt>
      <trkpt lat="43.07513" lon="5.86607">
        <ele>95</ele>
        <time>2019-10-23T09:29:29Z</time>
      </trkpt>
      <trkpt lat="43.07508" lon="5.86609">
        <ele>96</ele>
        <time>2019-10-23T09:29:30Z</time>
      </trkpt>
      <trkpt lat="43.07504" lon="5.86612">
        <ele>96</ele>
        <time>2019-10-23T09:29:31Z</time>
      </trkpt>
      <trkpt lat="43.075" lon="5.86615">
        <ele>96</ele>
        <time>2019-10-23T09:29:32Z</time>
      </trkpt>
      <trkpt lat="43.07496" lon="5.86618">
        <ele>96</ele>
        <time>2019-10-23T09:29:33Z</time>
      </trkpt>
      <trkpt lat="43.07493" lon="5.8662">
        <ele>96</ele>
        <time>2019-10-23T09:29:34Z</time>
      </trkpt>
      <trkpt lat="43.0749" lon="5.86621">
        <ele>96</ele>
        <time>2019-10-23T09:29:35Z</time>
      </trkpt>
      <trkpt lat="43.07487" lon="5.86622">
        <ele>97</ele>
        <time>2019-10-23T09:29:36Z</time>
      </trkpt>
      <trkpt lat="43.07484" lon="5.86623">
        <ele>97</ele>
        <time>2019-10-23T09:29:37Z</time>
      </trkpt>
      <trkpt lat="43.07481" lon="5.86624">
        <ele>97</ele>
        <time>2019-10-23T09:29:38Z</time>
      </trkpt>
      <trkpt lat="43.07478" lon="5.86624">
        <ele>97</ele>
        <time>2019-10-23T09:29:39Z</time>
      </trkpt>
      <trkpt lat="43.07475" lon="5.86625">
        <ele>98</ele>
        <time>2019-10-23T09:29:40Z</time>
      </trkpt>
      <trkpt lat="43.07471" lon="5.86625">
        <ele>98</ele>
        <time>2019-10-23T09:29:41Z</time>
      </trkpt>
      <trkpt lat="43.07468" lon="5.86626">
        <ele>99</ele>
        <time>2019-10-23T09:29:42Z</time>
      </trkpt>
      <trkpt lat="43.07464" lon="5.86627">
        <ele>99</ele>
        <time>2019-10-23T09:29:43Z</time>
      </trkpt>
      <trkpt lat="43.07461" lon="5.86628">
        <ele>98</ele>
        <time>2019-10-23T09:29:44Z</time>
      </trkpt>
      <trkpt lat="43.07458" lon="5.86628">
        <ele>98</ele>
        <time>2019-10-23T09:29:45Z</time>
      </trkpt>
      <trkpt lat="43.07454" lon="5.86629">
        <ele>98</ele>
        <time>2019-10-23T09:29:46Z</time>
      </trkpt>
      <trkpt lat="43.07451" lon="5.8663">
        <ele>98</ele>
        <time>2019-10-23T09:29:47Z</time>
      </trkpt>
      <trkpt lat="43.07448" lon="5.86631">
        <ele>99</ele>
        <time>2019-10-23T09:29:48Z</time>
      </trkpt>
      <trkpt lat="43.07444" lon="5.86632">
        <ele>99</ele>
        <time>2019-10-23T09:29:49Z</time>
      </trkpt>
      <trkpt lat="43.07441" lon="5.86633">
        <ele>99</ele>
        <time>2019-10-23T09:29:50Z</time>
      </trkpt>
      <trkpt lat="43.07437" lon="5.86634">
        <ele>99</ele>
        <time>2019-10-23T09:29:51Z</time>
      </trkpt>
      <trkpt lat="43.07433" lon="5.86636">
        <ele>99</ele>
        <time>2019-10-23T09:29:52Z</time>
      </trkpt>
      <trkpt lat="43.0743" lon="5.86637">
        <ele>99</ele>
        <time>2019-10-23T09:29:53Z</time>
      </trkpt>
      <trkpt lat="43.07426" lon="5.86639">
        <ele>99</ele>
        <time>2019-10-23T09:29:54Z</time>
      </trkpt>
      <trkpt lat="43.07422" lon="5.8664">
        <ele>99</ele>
        <time>2019-10-23T09:29:55Z</time>
      </trkpt>
      <trkpt lat="43.07417" lon="5.86641">
        <ele>98</ele>
        <time>2019-10-23T09:29:56Z</time>
      </trkpt>
      <trkpt lat="43.07413" lon="5.86642">
        <ele>98</ele>
        <time>2019-10-23T09:29:57Z</time>
      </trkpt>
      <trkpt lat="43.07408" lon="5.86643">
        <ele>97</ele>
        <time>2019-10-23T09:29:58Z</time>
      </trkpt>
      <trkpt lat="43.07404" lon="5.86643">
        <ele>97</ele>
        <time>2019-10-23T09:29:59Z</time>
      </trkpt>
      <trkpt lat="43.074" lon="5.86644">
        <ele>96</ele>
        <time>2019-10-23T09:30:00Z</time>
      </trkpt>
      <trkpt lat="43.07396" lon="5.86644">
        <ele>96</ele>
        <time>2019-10-23T09:30:01Z</time>
      </trkpt>
      <trkpt lat="43.07392" lon="5.86645">
        <ele>96</ele>
        <time>2019-10-23T09:30:02Z</time>
      </trkpt>
      <trkpt lat="43.07388" lon="5.86645">
        <ele>96</ele>
        <time>2019-10-23T09:30:03Z</time>
      </trkpt>
      <trkpt lat="43.07384" lon="5.86645">
        <ele>96</ele>
        <time>2019-10-23T09:30:04Z</time>
      </trkpt>
      <trkpt lat="43.0738" lon="5.86645">
        <ele>96</ele>
        <time>2019-10-23T09:30:05Z</time>
      </trkpt>
      <trkpt lat="43.07375" lon="5.86646">
        <ele>96</ele>
        <time>2019-10-23T09:30:06Z</time>
      </trkpt>
      <trkpt lat="43.0737" lon="5.86646">
        <ele>95</ele>
        <time>2019-10-23T09:30:07Z</time>
      </trkpt>
      <trkpt lat="43.07365" lon="5.86646">
        <ele>95</ele>
        <time>2019-10-23T09:30:08Z</time>
      </trkpt>
      <trkpt lat="43.0736" lon="5.86645">
        <ele>95</ele>
        <time>2019-10-23T09:30:09Z</time>
      </trkpt>
      <trkpt lat="43.07356" lon="5.86643">
        <ele>95</ele>
        <time>2019-10-23T09:30:10Z</time>
      </trkpt>
      <trkpt lat="43.07351" lon="5.86641">
        <ele>95</ele>
        <time>2019-10-23T09:30:11Z</time>
      </trkpt>
      <trkpt lat="43.07346" lon="5.86638">
        <ele>95</ele>
        <time>2019-10-23T09:30:12Z</time>
      </trkpt>
      <trkpt lat="43.0734" lon="5.86636">
        <ele>95</ele>
        <time>2019-10-23T09:30:13Z</time>
      </trkpt>
      <trkpt lat="43.07335" lon="5.86634">
        <ele>95</ele>
        <time>2019-10-23T09:30:14Z</time>
      </trkpt>
      <trkpt lat="43.0733" lon="5.86631">
        <ele>95</ele>
        <time>2019-10-23T09:30:15Z</time>
      </trkpt>
      <trkpt lat="43.07326" lon="5.86628">
        <ele>94</ele>
        <time>2019-10-23T09:30:16Z</time>
      </trkpt>
      <trkpt lat="43.07323" lon="5.86625">
        <ele>94</ele>
        <time>2019-10-23T09:30:17Z</time>
      </trkpt>
      <trkpt lat="43.07319" lon="5.86622">
        <ele>93</ele>
        <time>2019-10-23T09:30:18Z</time>
      </trkpt>
      <trkpt lat="43.07315" lon="5.86621">
        <ele>92</ele>
        <time>2019-10-23T09:30:19Z</time>
      </trkpt>
      <trkpt lat="43.0731" lon="5.86621">
        <ele>92</ele>
        <time>2019-10-23T09:30:21Z</time>
      </trkpt>
      <trkpt lat="43.07305" lon="5.86622">
        <ele>91</ele>
        <time>2019-10-23T09:30:23Z</time>
      </trkpt>
      <trkpt lat="43.07299" lon="5.86622">
        <ele>91</ele>
        <time>2019-10-23T09:30:24Z</time>
      </trkpt>
      <trkpt lat="43.07294" lon="5.86624">
        <ele>91</ele>
        <time>2019-10-23T09:30:25Z</time>
      </trkpt>
      <trkpt lat="43.07288" lon="5.86627">
        <ele>91</ele>
        <time>2019-10-23T09:30:26Z</time>
      </trkpt>
      <trkpt lat="43.07283" lon="5.86632">
        <ele>90</ele>
        <time>2019-10-23T09:30:27Z</time>
      </trkpt>
      <trkpt lat="43.07279" lon="5.86636">
        <ele>89</ele>
        <time>2019-10-23T09:30:28Z</time>
      </trkpt>
      <trkpt lat="43.07275" lon="5.8664">
        <ele>89</ele>
        <time>2019-10-23T09:30:29Z</time>
      </trkpt>
      <trkpt lat="43.07271" lon="5.86644">
        <ele>89</ele>
        <time>2019-10-23T09:30:30Z</time>
      </trkpt>
      <trkpt lat="43.07267" lon="5.86647">
        <ele>88</ele>
        <time>2019-10-23T09:30:31Z</time>
      </trkpt>
      <trkpt lat="43.07262" lon="5.8665">
        <ele>88</ele>
        <time>2019-10-23T09:30:32Z</time>
      </trkpt>
      <trkpt lat="43.07258" lon="5.86652">
        <ele>87</ele>
        <time>2019-10-23T09:30:33Z</time>
      </trkpt>
      <trkpt lat="43.07254" lon="5.86655">
        <ele>86</ele>
        <time>2019-10-23T09:30:34Z</time>
      </trkpt>
      <trkpt lat="43.0725" lon="5.86658">
        <ele>85</ele>
        <time>2019-10-23T09:30:35Z</time>
      </trkpt>
      <trkpt lat="43.07247" lon="5.8666">
        <ele>84</ele>
        <time>2019-10-23T09:30:36Z</time>
      </trkpt>
      <trkpt lat="43.07243" lon="5.86661">
        <ele>83</ele>
        <time>2019-10-23T09:30:37Z</time>
      </trkpt>
      <trkpt lat="43.07239" lon="5.8666">
        <ele>82</ele>
        <time>2019-10-23T09:30:38Z</time>
      </trkpt>
      <trkpt lat="43.07236" lon="5.86658">
        <ele>81</ele>
        <time>2019-10-23T09:30:39Z</time>
      </trkpt>
      <trkpt lat="43.07233" lon="5.86655">
        <ele>80</ele>
        <time>2019-10-23T09:30:41Z</time>
      </trkpt>
      <trkpt lat="43.0723" lon="5.8665">
        <ele>79</ele>
        <time>2019-10-23T09:30:43Z</time>
      </trkpt>
      <trkpt lat="43.07229" lon="5.86645">
        <ele>79</ele>
        <time>2019-10-23T09:30:45Z</time>
      </trkpt>
      <trkpt lat="43.07226" lon="5.8664">
        <ele>78</ele>
        <time>2019-10-23T09:30:47Z</time>
      </trkpt>
      <trkpt lat="43.07222" lon="5.86636">
        <ele>77</ele>
        <time>2019-10-23T09:30:48Z</time>
      </trkpt>
      <trkpt lat="43.07218" lon="5.86633">
        <ele>77</ele>
        <time>2019-10-23T09:30:49Z</time>
      </trkpt>
      <trkpt lat="43.07213" lon="5.86632">
        <ele>77</ele>
        <time>2019-10-23T09:30:50Z</time>
      </trkpt>
      <trkpt lat="43.07207" lon="5.86631">
        <ele>76</ele>
        <time>2019-10-23T09:30:51Z</time>
      </trkpt>
      <trkpt lat="43.07203" lon="5.86629">
        <ele>76</ele>
        <time>2019-10-23T09:30:52Z</time>
      </trkpt>
      <trkpt lat="43.07198" lon="5.86626">
        <ele>76</ele>
        <time>2019-10-23T09:30:54Z</time>
      </trkpt>
      <trkpt lat="43.07195" lon="5.86624">
        <ele>76</ele>
        <time>2019-10-23T09:30:56Z</time>
      </trkpt>
      <trkpt lat="43.07192" lon="5.86621">
        <ele>76</ele>
        <time>2019-10-23T09:30:58Z</time>
      </trkpt>
      <trkpt lat="43.07189" lon="5.86618">
        <ele>74</ele>
        <time>2019-10-23T09:31:00Z</time>
      </trkpt>
      <trkpt lat="43.07185" lon="5.86613">
        <ele>73</ele>
        <time>2019-10-23T09:31:02Z</time>
      </trkpt>
      <trkpt lat="43.07183" lon="5.86609">
        <ele>73</ele>
        <time>2019-10-23T09:31:03Z</time>
      </trkpt>
      <trkpt lat="43.07181" lon="5.86604">
        <ele>72</ele>
        <time>2019-10-23T09:31:04Z</time>
      </trkpt>
      <trkpt lat="43.0718" lon="5.86599">
        <ele>72</ele>
        <time>2019-10-23T09:31:05Z</time>
      </trkpt>
      <trkpt lat="43.07179" lon="5.86595">
        <ele>72</ele>
        <time>2019-10-23T09:31:06Z</time>
      </trkpt>
      <trkpt lat="43.07179" lon="5.86591">
        <ele>72</ele>
        <time>2019-10-23T09:31:07Z</time>
      </trkpt>
      <trkpt lat="43.07178" lon="5.86586">
        <ele>72</ele>
        <time>2019-10-23T09:31:08Z</time>
      </trkpt>
      <trkpt lat="43.07178" lon="5.86582">
        <ele>71</ele>
        <time>2019-10-23T09:31:09Z</time>
      </trkpt>
      <trkpt lat="43.07178" lon="5.86578">
        <ele>70</ele>
        <time>2019-10-23T09:31:10Z</time>
      </trkpt>
      <trkpt lat="43.07179" lon="5.86574">
        <ele>70</ele>
        <time>2019-10-23T09:31:11Z</time>
      </trkpt>
      <trkpt lat="43.0718" lon="5.86569">
        <ele>69</ele>
        <time>2019-10-23T09:31:12Z</time>
      </trkpt>
      <trkpt lat="43.07181" lon="5.86564">
        <ele>69</ele>
        <time>2019-10-23T09:31:13Z</time>
      </trkpt>
      <trkpt lat="43.07182" lon="5.8656">
        <ele>69</ele>
        <time>2019-10-23T09:31:14Z</time>
      </trkpt>
      <trkpt lat="43.07183" lon="5.86556">
        <ele>69</ele>
        <time>2019-10-23T09:31:15Z</time>
      </trkpt>
      <trkpt lat="43.07184" lon="5.86551">
        <ele>70</ele>
        <time>2019-10-23T09:31:16Z</time>
      </trkpt>
      <trkpt lat="43.07186" lon="5.86547">
        <ele>70</ele>
        <time>2019-10-23T09:31:17Z</time>
      </trkpt>
      <trkpt lat="43.07188" lon="5.86544">
        <ele>70</ele>
        <time>2019-10-23T09:31:18Z</time>
      </trkpt>
      <trkpt lat="43.07191" lon="5.8654">
        <ele>71</ele>
        <time>2019-10-23T09:31:19Z</time>
      </trkpt>
      <trkpt lat="43.07194" lon="5.86536">
        <ele>71</ele>
        <time>2019-10-23T09:31:20Z</time>
      </trkpt>
      <trkpt lat="43.07197" lon="5.86531">
        <ele>72</ele>
        <time>2019-10-23T09:31:21Z</time>
      </trkpt>
      <trkpt lat="43.07199" lon="5.86525">
        <ele>72</ele>
        <time>2019-10-23T09:31:22Z</time>
      </trkpt>
      <trkpt lat="43.07201" lon="5.8652">
        <ele>72</ele>
        <time>2019-10-23T09:31:23Z</time>
      </trkpt>
      <trkpt lat="43.07203" lon="5.86516">
        <ele>72</ele>
        <time>2019-10-23T09:31:24Z</time>
      </trkpt>
      <trkpt lat="43.07204" lon="5.86512">
        <ele>72</ele>
        <time>2019-10-23T09:31:25Z</time>
      </trkpt>
      <trkpt lat="43.07206" lon="5.86508">
        <ele>72</ele>
        <time>2019-10-23T09:31:26Z</time>
      </trkpt>
      <trkpt lat="43.07208" lon="5.86504">
        <ele>72</ele>
        <time>2019-10-23T09:31:27Z</time>
      </trkpt>
      <trkpt lat="43.0721" lon="5.86499">
        <ele>72</ele>
        <time>2019-10-23T09:31:28Z</time>
      </trkpt>
      <trkpt lat="43.07213" lon="5.86494">
        <ele>73</ele>
        <time>2019-10-23T09:31:29Z</time>
      </trkpt>
      <trkpt lat="43.07217" lon="5.8649">
        <ele>73</ele>
        <time>2019-10-23T09:31:30Z</time>
      </trkpt>
      <trkpt lat="43.07221" lon="5.86485">
        <ele>74</ele>
        <time>2019-10-23T09:31:31Z</time>
      </trkpt>
      <trkpt lat="43.07224" lon="5.8648">
        <ele>74</ele>
        <time>2019-10-23T09:31:33Z</time>
      </trkpt>
      <trkpt lat="43.07226" lon="5.86474">
        <ele>74</ele>
        <time>2019-10-23T09:31:34Z</time>
      </trkpt>
      <trkpt lat="43.07227" lon="5.86469">
        <ele>74</ele>
        <time>2019-10-23T09:31:35Z</time>
      </trkpt>
      <trkpt lat="43.07227" lon="5.86463">
        <ele>73</ele>
        <time>2019-10-23T09:31:37Z</time>
      </trkpt>
      <trkpt lat="43.07225" lon="5.86459">
        <ele>73</ele>
        <time>2019-10-23T09:31:39Z</time>
      </trkpt>
      <trkpt lat="43.07224" lon="5.86454">
        <ele>73</ele>
        <time>2019-10-23T09:31:42Z</time>
      </trkpt>
      <trkpt lat="43.07221" lon="5.86451">
        <ele>73</ele>
        <time>2019-10-23T09:31:43Z</time>
      </trkpt>
      <trkpt lat="43.07219" lon="5.86448">
        <ele>73</ele>
        <time>2019-10-23T09:31:45Z</time>
      </trkpt>
      <trkpt lat="43.07216" lon="5.86445">
        <ele>73</ele>
        <time>2019-10-23T09:31:46Z</time>
      </trkpt>
      <trkpt lat="43.07214" lon="5.86441">
        <ele>74</ele>
        <time>2019-10-23T09:31:48Z</time>
      </trkpt>
      <trkpt lat="43.07211" lon="5.86438">
        <ele>74</ele>
        <time>2019-10-23T09:31:49Z</time>
      </trkpt>
      <trkpt lat="43.07208" lon="5.86433">
        <ele>74</ele>
        <time>2019-10-23T09:31:51Z</time>
      </trkpt>
      <trkpt lat="43.07204" lon="5.86427">
        <ele>74</ele>
        <time>2019-10-23T09:31:52Z</time>
      </trkpt>
      <trkpt lat="43.072" lon="5.86419">
        <ele>74</ele>
        <time>2019-10-23T09:31:53Z</time>
      </trkpt>
      <trkpt lat="43.07197" lon="5.86411">
        <ele>74</ele>
        <time>2019-10-23T09:31:55Z</time>
      </trkpt>
      <trkpt lat="43.07194" lon="5.86403">
        <ele>73</ele>
        <time>2019-10-23T09:31:56Z</time>
      </trkpt>
      <trkpt lat="43.07192" lon="5.86395">
        <ele>73</ele>
        <time>2019-10-23T09:31:58Z</time>
      </trkpt>
      <trkpt lat="43.07192" lon="5.86388">
        <ele>72</ele>
        <time>2019-10-23T09:31:59Z</time>
      </trkpt>
      <trkpt lat="43.07192" lon="5.86381">
        <ele>71</ele>
        <time>2019-10-23T09:32:00Z</time>
      </trkpt>
      <trkpt lat="43.07192" lon="5.86374">
        <ele>71</ele>
        <time>2019-10-23T09:32:01Z</time>
      </trkpt>
      <trkpt lat="43.07193" lon="5.86367">
        <ele>70</ele>
        <time>2019-10-23T09:32:02Z</time>
      </trkpt>
      <trkpt lat="43.07195" lon="5.8636">
        <ele>70</ele>
        <time>2019-10-23T09:32:03Z</time>
      </trkpt>
      <trkpt lat="43.07196" lon="5.86352">
        <ele>69</ele>
        <time>2019-10-23T09:32:04Z</time>
      </trkpt>
      <trkpt lat="43.07197" lon="5.86344">
        <ele>68</ele>
        <time>2019-10-23T09:32:05Z</time>
      </trkpt>
      <trkpt lat="43.07199" lon="5.86335">
        <ele>68</ele>
        <time>2019-10-23T09:32:06Z</time>
      </trkpt>
      <trkpt lat="43.07201" lon="5.86328">
        <ele>67</ele>
        <time>2019-10-23T09:32:07Z</time>
      </trkpt>
      <trkpt lat="43.07203" lon="5.8632">
        <ele>67</ele>
        <time>2019-10-23T09:32:08Z</time>
      </trkpt>
      <trkpt lat="43.07205" lon="5.86313">
        <ele>66</ele>
        <time>2019-10-23T09:32:09Z</time>
      </trkpt>
      <trkpt lat="43.07208" lon="5.86305">
        <ele>66</ele>
        <time>2019-10-23T09:32:10Z</time>
      </trkpt>
      <trkpt lat="43.07212" lon="5.86299">
        <ele>66</ele>
        <time>2019-10-23T09:32:11Z</time>
      </trkpt>
      <trkpt lat="43.07213" lon="5.86293">
        <ele>66</ele>
        <time>2019-10-23T09:32:12Z</time>
      </trkpt>
      <trkpt lat="43.07214" lon="5.86287">
        <ele>66</ele>
        <time>2019-10-23T09:32:13Z</time>
      </trkpt>
      <trkpt lat="43.07214" lon="5.86281">
        <ele>65</ele>
        <time>2019-10-23T09:32:14Z</time>
      </trkpt>
      <trkpt lat="43.07215" lon="5.86274">
        <ele>65</ele>
        <time>2019-10-23T09:32:15Z</time>
      </trkpt>
      <trkpt lat="43.07218" lon="5.8627">
        <ele>65</ele>
        <time>2019-10-23T09:32:16Z</time>
      </trkpt>
      <trkpt lat="43.07218" lon="5.86266">
        <ele>64</ele>
        <time>2019-10-23T09:32:17Z</time>
      </trkpt>
      <trkpt lat="43.07216" lon="5.86262">
        <ele>64</ele>
        <time>2019-10-23T09:32:18Z</time>
      </trkpt>
      <trkpt lat="43.07217" lon="5.86258">
        <ele>64</ele>
        <time>2019-10-23T09:32:19Z</time>
      </trkpt>
      <trkpt lat="43.07219" lon="5.86253">
        <ele>64</ele>
        <time>2019-10-23T09:32:20Z</time>
      </trkpt>
      <trkpt lat="43.07221" lon="5.86247">
        <ele>64</ele>
        <time>2019-10-23T09:32:21Z</time>
      </trkpt>
      <trkpt lat="43.07222" lon="5.86242">
        <ele>64</ele>
        <time>2019-10-23T09:32:22Z</time>
      </trkpt>
      <trkpt lat="43.07223" lon="5.86237">
        <ele>65</ele>
        <time>2019-10-23T09:32:23Z</time>
      </trkpt>
      <trkpt lat="43.07224" lon="5.86232">
        <ele>65</ele>
        <time>2019-10-23T09:32:24Z</time>
      </trkpt>
      <trkpt lat="43.07225" lon="5.86228">
        <ele>65</ele>
        <time>2019-10-23T09:32:25Z</time>
      </trkpt>
      <trkpt lat="43.07226" lon="5.86222">
        <ele>65</ele>
        <time>2019-10-23T09:32:26Z</time>
      </trkpt>
      <trkpt lat="43.07228" lon="5.86218">
        <ele>65</ele>
        <time>2019-10-23T09:32:27Z</time>
      </trkpt>
      <trkpt lat="43.07229" lon="5.86212">
        <ele>65</ele>
        <time>2019-10-23T09:32:28Z</time>
      </trkpt>
      <trkpt lat="43.07231" lon="5.86208">
        <ele>65</ele>
        <time>2019-10-23T09:32:29Z</time>
      </trkpt>
      <trkpt lat="43.07232" lon="5.86203">
        <ele>64</ele>
        <time>2019-10-23T09:32:30Z</time>
      </trkpt>
      <trkpt lat="43.07234" lon="5.86199">
        <ele>64</ele>
        <time>2019-10-23T09:32:31Z</time>
      </trkpt>
      <trkpt lat="43.07236" lon="5.86194">
        <ele>64</ele>
        <time>2019-10-23T09:32:32Z</time>
      </trkpt>
      <trkpt lat="43.07239" lon="5.86189">
        <ele>64</ele>
        <time>2019-10-23T09:32:33Z</time>
      </trkpt>
      <trkpt lat="43.07241" lon="5.86184">
        <ele>64</ele>
        <time>2019-10-23T09:32:34Z</time>
      </trkpt>
      <trkpt lat="43.07243" lon="5.86178">
        <ele>64</ele>
        <time>2019-10-23T09:32:36Z</time>
      </trkpt>
      <trkpt lat="43.07245" lon="5.86173">
        <ele>64</ele>
        <time>2019-10-23T09:32:38Z</time>
      </trkpt>
      <trkpt lat="43.07246" lon="5.86168">
        <ele>64</ele>
        <time>2019-10-23T09:32:39Z</time>
      </trkpt>
      <trkpt lat="43.07248" lon="5.86163">
        <ele>64</ele>
        <time>2019-10-23T09:32:40Z</time>
      </trkpt>
      <trkpt lat="43.0725" lon="5.86159">
        <ele>64</ele>
        <time>2019-10-23T09:32:41Z</time>
      </trkpt>
      <trkpt lat="43.07252" lon="5.86154">
        <ele>64</ele>
        <time>2019-10-23T09:32:42Z</time>
      </trkpt>
      <trkpt lat="43.07254" lon="5.8615">
        <ele>64</ele>
        <time>2019-10-23T09:32:43Z</time>
      </trkpt>
      <trkpt lat="43.07256" lon="5.86147">
        <ele>64</ele>
        <time>2019-10-23T09:32:44Z</time>
      </trkpt>
      <trkpt lat="43.07259" lon="5.86143">
        <ele>63</ele>
        <time>2019-10-23T09:32:45Z</time>
      </trkpt>
      <trkpt lat="43.07262" lon="5.8614">
        <ele>63</ele>
        <time>2019-10-23T09:32:46Z</time>
      </trkpt>
      <trkpt lat="43.07264" lon="5.86136">
        <ele>63</ele>
        <time>2019-10-23T09:32:47Z</time>
      </trkpt>
      <trkpt lat="43.07268" lon="5.86132">
        <ele>62</ele>
        <time>2019-10-23T09:32:48Z</time>
      </trkpt>
      <trkpt lat="43.0727" lon="5.86127">
        <ele>62</ele>
        <time>2019-10-23T09:32:49Z</time>
      </trkpt>
      <trkpt lat="43.07273" lon="5.86122">
        <ele>62</ele>
        <time>2019-10-23T09:32:50Z</time>
      </trkpt>
      <trkpt lat="43.07277" lon="5.86118">
        <ele>61</ele>
        <time>2019-10-23T09:32:51Z</time>
      </trkpt>
      <trkpt lat="43.07283" lon="5.86112">
        <ele>61</ele>
        <time>2019-10-23T09:32:52Z</time>
      </trkpt>
      <trkpt lat="43.07288" lon="5.86108">
        <ele>61</ele>
        <time>2019-10-23T09:32:53Z</time>
      </trkpt>
      <trkpt lat="43.07293" lon="5.86104">
        <ele>61</ele>
        <time>2019-10-23T09:32:54Z</time>
      </trkpt>
      <trkpt lat="43.07298" lon="5.861">
        <ele>61</ele>
        <time>2019-10-23T09:32:55Z</time>
      </trkpt>
      <trkpt lat="43.07304" lon="5.86097">
        <ele>61</ele>
        <time>2019-10-23T09:32:56Z</time>
      </trkpt>
      <trkpt lat="43.0731" lon="5.86095">
        <ele>61</ele>
        <time>2019-10-23T09:32:57Z</time>
      </trkpt>
      <trkpt lat="43.07317" lon="5.86092">
        <ele>61</ele>
        <time>2019-10-23T09:32:59Z</time>
      </trkpt>
      <trkpt lat="43.07324" lon="5.86089">
        <ele>61</ele>
        <time>2019-10-23T09:33:00Z</time>
      </trkpt>
      <trkpt lat="43.07328" lon="5.86086">
        <ele>61</ele>
        <time>2019-10-23T09:33:01Z</time>
      </trkpt>
      <trkpt lat="43.07331" lon="5.86081">
        <ele>60</ele>
        <time>2019-10-23T09:33:03Z</time>
      </trkpt>
      <trkpt lat="43.07337" lon="5.86078">
        <ele>60</ele>
        <time>2019-10-23T09:33:04Z</time>
      </trkpt>
      <trkpt lat="43.07342" lon="5.86076">
        <ele>60</ele>
        <time>2019-10-23T09:33:05Z</time>
      </trkpt>
      <trkpt lat="43.07346" lon="5.86071">
        <ele>60</ele>
        <time>2019-10-23T09:33:06Z</time>
      </trkpt>
      <trkpt lat="43.07349" lon="5.86067">
        <ele>60</ele>
        <time>2019-10-23T09:33:07Z</time>
      </trkpt>
      <trkpt lat="43.07351" lon="5.86064">
        <ele>60</ele>
        <time>2019-10-23T09:33:08Z</time>
      </trkpt>
      <trkpt lat="43.07352" lon="5.8606">
        <ele>60</ele>
        <time>2019-10-23T09:33:09Z</time>
      </trkpt>
      <trkpt lat="43.0735" lon="5.86055">
        <ele>59</ele>
        <time>2019-10-23T09:33:10Z</time>
      </trkpt>
      <trkpt lat="43.07347" lon="5.86052">
        <ele>59</ele>
        <time>2019-10-23T09:33:12Z</time>
      </trkpt>
      <trkpt lat="43.07344" lon="5.86051">
        <ele>59</ele>
        <time>2019-10-23T09:33:13Z</time>
      </trkpt>
      <trkpt lat="43.07341" lon="5.86049">
        <ele>59</ele>
        <time>2019-10-23T09:33:14Z</time>
      </trkpt>
      <trkpt lat="43.07337" lon="5.86046">
        <ele>59</ele>
        <time>2019-10-23T09:33:15Z</time>
      </trkpt>
      <trkpt lat="43.07334" lon="5.86044">
        <ele>59</ele>
        <time>2019-10-23T09:33:16Z</time>
      </trkpt>
      <trkpt lat="43.0733" lon="5.86042">
        <ele>60</ele>
        <time>2019-10-23T09:33:17Z</time>
      </trkpt>
      <trkpt lat="43.07327" lon="5.8604">
        <ele>60</ele>
        <time>2019-10-23T09:33:18Z</time>
      </trkpt>
      <trkpt lat="43.07325" lon="5.86038">
        <ele>60</ele>
        <time>2019-10-23T09:33:19Z</time>
      </trkpt>
      <trkpt lat="43.07322" lon="5.86036">
        <ele>60</ele>
        <time>2019-10-23T09:33:20Z</time>
      </trkpt>
      <trkpt lat="43.07319" lon="5.86034">
        <ele>60</ele>
        <time>2019-10-23T09:33:21Z</time>
      </trkpt>
      <trkpt lat="43.07316" lon="5.86032">
        <ele>60</ele>
        <time>2019-10-23T09:33:22Z</time>
      </trkpt>
      <trkpt lat="43.07313" lon="5.86031">
        <ele>60</ele>
        <time>2019-10-23T09:33:24Z</time>
      </trkpt>
      <trkpt lat="43.0731" lon="5.86029">
        <ele>60</ele>
        <time>2019-10-23T09:33:25Z</time>
      </trkpt>
      <trkpt lat="43.07307" lon="5.86028">
        <ele>60</ele>
        <time>2019-10-23T09:33:27Z</time>
      </trkpt>
      <trkpt lat="43.07304" lon="5.86026">
        <ele>60</ele>
        <time>2019-10-23T09:33:29Z</time>
      </trkpt>
      <trkpt lat="43.07301" lon="5.86024">
        <ele>60</ele>
        <time>2019-10-23T09:33:30Z</time>
      </trkpt>
      <trkpt lat="43.07298" lon="5.86022">
        <ele>60</ele>
        <time>2019-10-23T09:33:31Z</time>
      </trkpt>
      <trkpt lat="43.07295" lon="5.8602">
        <ele>60</ele>
        <time>2019-10-23T09:33:32Z</time>
      </trkpt>
      <trkpt lat="43.07293" lon="5.86017">
        <ele>60</ele>
        <time>2019-10-23T09:33:33Z</time>
      </trkpt>
      <trkpt lat="43.07291" lon="5.86012">
        <ele>60</ele>
        <time>2019-10-23T09:33:34Z</time>
      </trkpt>
      <trkpt lat="43.0729" lon="5.86008">
        <ele>60</ele>
        <time>2019-10-23T09:33:35Z</time>
      </trkpt>
      <trkpt lat="43.0729" lon="5.86003">
        <ele>60</ele>
        <time>2019-10-23T09:33:36Z</time>
      </trkpt>
      <trkpt lat="43.07289" lon="5.85993">
        <ele>60</ele>
        <time>2019-10-23T09:33:37Z</time>
      </trkpt>
      <trkpt lat="43.0729" lon="5.85988">
        <ele>60</ele>
        <time>2019-10-23T09:33:38Z</time>
      </trkpt>
      <trkpt lat="43.0729" lon="5.85983">
        <ele>60</ele>
        <time>2019-10-23T09:33:39Z</time>
      </trkpt>
      <trkpt lat="43.07292" lon="5.85978">
        <ele>60</ele>
        <time>2019-10-23T09:33:40Z</time>
      </trkpt>
      <trkpt lat="43.07293" lon="5.85974">
        <ele>60</ele>
        <time>2019-10-23T09:33:41Z</time>
      </trkpt>
      <trkpt lat="43.07294" lon="5.8597">
        <ele>60</ele>
        <time>2019-10-23T09:33:42Z</time>
      </trkpt>
      <trkpt lat="43.07296" lon="5.85966">
        <ele>60</ele>
        <time>2019-10-23T09:33:43Z</time>
      </trkpt>
      <trkpt lat="43.07297" lon="5.85962">
        <ele>60</ele>
        <time>2019-10-23T09:33:44Z</time>
      </trkpt>
      <trkpt lat="43.07299" lon="5.85956">
        <ele>61</ele>
        <time>2019-10-23T09:33:45Z</time>
      </trkpt>
      <trkpt lat="43.07299" lon="5.85949">
        <ele>61</ele>
        <time>2019-10-23T09:33:46Z</time>
      </trkpt>
      <trkpt lat="43.07298" lon="5.85944">
        <ele>62</ele>
        <time>2019-10-23T09:33:47Z</time>
      </trkpt>
      <trkpt lat="43.07298" lon="5.85939">
        <ele>62</ele>
        <time>2019-10-23T09:33:49Z</time>
      </trkpt>
      <trkpt lat="43.07299" lon="5.85935">
        <ele>63</ele>
        <time>2019-10-23T09:33:51Z</time>
      </trkpt>
      <trkpt lat="43.073" lon="5.85931">
        <ele>63</ele>
        <time>2019-10-23T09:33:53Z</time>
      </trkpt>
      <trkpt lat="43.07302" lon="5.85927">
        <ele>63</ele>
        <time>2019-10-23T09:33:55Z</time>
      </trkpt>
      <trkpt lat="43.07304" lon="5.85922">
        <ele>63</ele>
        <time>2019-10-23T09:33:56Z</time>
      </trkpt>
      <trkpt lat="43.07306" lon="5.85918">
        <ele>63</ele>
        <time>2019-10-23T09:33:57Z</time>
      </trkpt>
      <trkpt lat="43.07308" lon="5.85913">
        <ele>63</ele>
        <time>2019-10-23T09:33:58Z</time>
      </trkpt>
      <trkpt lat="43.0731" lon="5.85909">
        <ele>63</ele>
        <time>2019-10-23T09:34:00Z</time>
      </trkpt>
      <trkpt lat="43.07312" lon="5.85904">
        <ele>63</ele>
        <time>2019-10-23T09:34:02Z</time>
      </trkpt>
      <trkpt lat="43.07313" lon="5.859">
        <ele>63</ele>
        <time>2019-10-23T09:34:04Z</time>
      </trkpt>
      <trkpt lat="43.07315" lon="5.85894">
        <ele>63</ele>
        <time>2019-10-23T09:34:06Z</time>
      </trkpt>
      <trkpt lat="43.07315" lon="5.85887">
        <ele>63</ele>
        <time>2019-10-23T09:34:08Z</time>
      </trkpt>
      <trkpt lat="43.07316" lon="5.85882">
        <ele>63</ele>
        <time>2019-10-23T09:34:10Z</time>
      </trkpt>
      <trkpt lat="43.07316" lon="5.85878">
        <ele>63</ele>
        <time>2019-10-23T09:34:12Z</time>
      </trkpt>
      <trkpt lat="43.07316" lon="5.85873">
        <ele>63</ele>
        <time>2019-10-23T09:34:14Z</time>
      </trkpt>
      <trkpt lat="43.07317" lon="5.85869">
        <ele>63</ele>
        <time>2019-10-23T09:34:16Z</time>
      </trkpt>
      <trkpt lat="43.07318" lon="5.85865">
        <ele>63</ele>
        <time>2019-10-23T09:34:18Z</time>
      </trkpt>
      <trkpt lat="43.07319" lon="5.8586">
        <ele>63</ele>
        <time>2019-10-23T09:34:20Z</time>
      </trkpt>
      <trkpt lat="43.07319" lon="5.85855">
        <ele>63</ele>
        <time>2019-10-23T09:34:22Z</time>
      </trkpt>
      <trkpt lat="43.07319" lon="5.8585">
        <ele>63</ele>
        <time>2019-10-23T09:34:24Z</time>
      </trkpt>
      <trkpt lat="43.07318" lon="5.85845">
        <ele>63</ele>
        <time>2019-10-23T09:34:26Z</time>
      </trkpt>
      <trkpt lat="43.07317" lon="5.8584">
        <ele>63</ele>
        <time>2019-10-23T09:34:28Z</time>
      </trkpt>
      <trkpt lat="43.07316" lon="5.85834">
        <ele>63</ele>
        <time>2019-10-23T09:34:30Z</time>
      </trkpt>
      <trkpt lat="43.07316" lon="5.85827">
        <ele>62</ele>
        <time>2019-10-23T09:34:32Z</time>
      </trkpt>
      <trkpt lat="43.07316" lon="5.85821">
        <ele>62</ele>
        <time>2019-10-23T09:34:34Z</time>
      </trkpt>
      <trkpt lat="43.07316" lon="5.85815">
        <ele>62</ele>
        <time>2019-10-23T09:34:36Z</time>
      </trkpt>
      <trkpt lat="43.07316" lon="5.8581">
        <ele>61</ele>
        <time>2019-10-23T09:34:38Z</time>
      </trkpt>
      <trkpt lat="43.07317" lon="5.85805">
        <ele>61</ele>
        <time>2019-10-23T09:34:40Z</time>
      </trkpt>
      <trkpt lat="43.07316" lon="5.858">
        <ele>61</ele>
        <time>2019-10-23T09:34:42Z</time>
      </trkpt>
      <trkpt lat="43.07316" lon="5.85796">
        <ele>60</ele>
        <time>2019-10-23T09:34:44Z</time>
      </trkpt>
      <trkpt lat="43.07314" lon="5.8579">
        <ele>59</ele>
        <time>2019-10-23T09:34:46Z</time>
      </trkpt>
      <trkpt lat="43.07311" lon="5.85786">
        <ele>59</ele>
        <time>2019-10-23T09:34:48Z</time>
      </trkpt>
      <trkpt lat="43.07308" lon="5.85782">
        <ele>59</ele>
        <time>2019-10-23T09:34:50Z</time>
      </trkpt>
      <trkpt lat="43.07305" lon="5.8578">
        <ele>59</ele>
        <time>2019-10-23T09:34:51Z</time>
      </trkpt>
      <trkpt lat="43.07302" lon="5.85779">
        <ele>59</ele>
        <time>2019-10-23T09:34:52Z</time>
      </trkpt>
      <trkpt lat="43.07299" lon="5.85778">
        <ele>60</ele>
        <time>2019-10-23T09:34:53Z</time>
      </trkpt>
      <trkpt lat="43.07296" lon="5.85777">
        <ele>60</ele>
        <time>2019-10-23T09:34:55Z</time>
      </trkpt>
      <trkpt lat="43.07293" lon="5.85777">
        <ele>60</ele>
        <time>2019-10-23T09:34:57Z</time>
      </trkpt>
      <trkpt lat="43.07289" lon="5.85777">
        <ele>61</ele>
        <time>2019-10-23T09:34:59Z</time>
      </trkpt>
      <trkpt lat="43.07285" lon="5.85776">
        <ele>62</ele>
        <time>2019-10-23T09:35:01Z</time>
      </trkpt>
      <trkpt lat="43.07281" lon="5.85775">
        <ele>62</ele>
        <time>2019-10-23T09:35:03Z</time>
      </trkpt>
      <trkpt lat="43.07277" lon="5.85774">
        <ele>63</ele>
        <time>2019-10-23T09:35:05Z</time>
      </trkpt>
      <trkpt lat="43.07273" lon="5.85773">
        <ele>64</ele>
        <time>2019-10-23T09:35:06Z</time>
      </trkpt>
      <trkpt lat="43.0727" lon="5.85772">
        <ele>65</ele>
        <time>2019-10-23T09:35:07Z</time>
      </trkpt>
      <trkpt lat="43.07266" lon="5.85771">
        <ele>65</ele>
        <time>2019-10-23T09:35:08Z</time>
      </trkpt>
      <trkpt lat="43.07262" lon="5.85771">
        <ele>65</ele>
        <time>2019-10-23T09:35:09Z</time>
      </trkpt>
      <trkpt lat="43.07259" lon="5.85771">
        <ele>66</ele>
        <time>2019-10-23T09:35:10Z</time>
      </trkpt>
      <trkpt lat="43.07256" lon="5.85771">
        <ele>67</ele>
        <time>2019-10-23T09:35:11Z</time>
      </trkpt>
      <trkpt lat="43.07252" lon="5.8577">
        <ele>67</ele>
        <time>2019-10-23T09:35:12Z</time>
      </trkpt>
      <trkpt lat="43.07248" lon="5.85769">
        <ele>68</ele>
        <time>2019-10-23T09:35:13Z</time>
      </trkpt>
      <trkpt lat="43.07244" lon="5.85767">
        <ele>68</ele>
        <time>2019-10-23T09:35:14Z</time>
      </trkpt>
      <trkpt lat="43.0724" lon="5.85766">
        <ele>68</ele>
        <time>2019-10-23T09:35:15Z</time>
      </trkpt>
      <trkpt lat="43.07236" lon="5.85765">
        <ele>68</ele>
        <time>2019-10-23T09:35:16Z</time>
      </trkpt>
      <trkpt lat="43.07232" lon="5.85765">
        <ele>68</ele>
        <time>2019-10-23T09:35:17Z</time>
      </trkpt>
      <trkpt lat="43.07229" lon="5.85765">
        <ele>68</ele>
        <time>2019-10-23T09:35:18Z</time>
      </trkpt>
      <trkpt lat="43.07225" lon="5.85765">
        <ele>69</ele>
        <time>2019-10-23T09:35:19Z</time>
      </trkpt>
      <trkpt lat="43.07221" lon="5.85765">
        <ele>69</ele>
        <time>2019-10-23T09:35:20Z</time>
      </trkpt>
      <trkpt lat="43.07217" lon="5.85764">
        <ele>69</ele>
        <time>2019-10-23T09:35:21Z</time>
      </trkpt>
      <trkpt lat="43.07213" lon="5.85763">
        <ele>69</ele>
        <time>2019-10-23T09:35:22Z</time>
      </trkpt>
      <trkpt lat="43.07209" lon="5.85761">
        <ele>69</ele>
        <time>2019-10-23T09:35:23Z</time>
      </trkpt>
      <trkpt lat="43.07206" lon="5.85759">
        <ele>70</ele>
        <time>2019-10-23T09:35:24Z</time>
      </trkpt>
      <trkpt lat="43.07202" lon="5.85758">
        <ele>70</ele>
        <time>2019-10-23T09:35:25Z</time>
      </trkpt>
      <trkpt lat="43.07198" lon="5.85757">
        <ele>70</ele>
        <time>2019-10-23T09:35:26Z</time>
      </trkpt>
      <trkpt lat="43.07195" lon="5.85756">
        <ele>70</ele>
        <time>2019-10-23T09:35:27Z</time>
      </trkpt>
      <trkpt lat="43.07192" lon="5.85756">
        <ele>71</ele>
        <time>2019-10-23T09:35:28Z</time>
      </trkpt>
      <trkpt lat="43.07189" lon="5.85755">
        <ele>71</ele>
        <time>2019-10-23T09:35:29Z</time>
      </trkpt>
      <trkpt lat="43.07185" lon="5.85754">
        <ele>72</ele>
        <time>2019-10-23T09:35:30Z</time>
      </trkpt>
      <trkpt lat="43.07181" lon="5.85753">
        <ele>72</ele>
        <time>2019-10-23T09:35:31Z</time>
      </trkpt>
      <trkpt lat="43.07177" lon="5.85751">
        <ele>73</ele>
        <time>2019-10-23T09:35:32Z</time>
      </trkpt>
      <trkpt lat="43.07174" lon="5.85749">
        <ele>73</ele>
        <time>2019-10-23T09:35:33Z</time>
      </trkpt>
      <trkpt lat="43.0717" lon="5.85751">
        <ele>73</ele>
        <time>2019-10-23T09:35:34Z</time>
      </trkpt>
      <trkpt lat="43.07168" lon="5.8575">
        <ele>74</ele>
        <time>2019-10-23T09:35:35Z</time>
      </trkpt>
      <trkpt lat="43.07166" lon="5.85748">
        <ele>74</ele>
        <time>2019-10-23T09:35:36Z</time>
      </trkpt>
      <trkpt lat="43.07166" lon="5.85743">
        <ele>75</ele>
        <time>2019-10-23T09:35:37Z</time>
      </trkpt>
      <trkpt lat="43.07166" lon="5.85739">
        <ele>75</ele>
        <time>2019-10-23T09:35:38Z</time>
      </trkpt>
      <trkpt lat="43.07167" lon="5.85734">
        <ele>76</ele>
        <time>2019-10-23T09:35:39Z</time>
      </trkpt>
      <trkpt lat="43.07168" lon="5.85728">
        <ele>76</ele>
        <time>2019-10-23T09:35:40Z</time>
      </trkpt>
      <trkpt lat="43.07169" lon="5.85722">
        <ele>76</ele>
        <time>2019-10-23T09:35:41Z</time>
      </trkpt>
      <trkpt lat="43.07171" lon="5.85717">
        <ele>75</ele>
        <time>2019-10-23T09:35:42Z</time>
      </trkpt>
      <trkpt lat="43.07173" lon="5.85712">
        <ele>75</ele>
        <time>2019-10-23T09:35:43Z</time>
      </trkpt>
      <trkpt lat="43.07174" lon="5.85707">
        <ele>75</ele>
        <time>2019-10-23T09:35:44Z</time>
      </trkpt>
      <trkpt lat="43.07175" lon="5.85702">
        <ele>75</ele>
        <time>2019-10-23T09:35:45Z</time>
      </trkpt>
      <trkpt lat="43.07176" lon="5.85698">
        <ele>74</ele>
        <time>2019-10-23T09:35:46Z</time>
      </trkpt>
      <trkpt lat="43.07176" lon="5.85693">
        <ele>74</ele>
        <time>2019-10-23T09:35:47Z</time>
      </trkpt>
      <trkpt lat="43.07174" lon="5.85687">
        <ele>74</ele>
        <time>2019-10-23T09:35:48Z</time>
      </trkpt>
      <trkpt lat="43.07172" lon="5.8568">
        <ele>74</ele>
        <time>2019-10-23T09:35:49Z</time>
      </trkpt>
      <trkpt lat="43.07173" lon="5.85674">
        <ele>74</ele>
        <time>2019-10-23T09:35:50Z</time>
      </trkpt>
      <trkpt lat="43.07174" lon="5.85667">
        <ele>74</ele>
        <time>2019-10-23T09:35:51Z</time>
      </trkpt>
      <trkpt lat="43.07175" lon="5.8566">
        <ele>74</ele>
        <time>2019-10-23T09:35:52Z</time>
      </trkpt>
      <trkpt lat="43.07175" lon="5.85652">
        <ele>73</ele>
        <time>2019-10-23T09:35:53Z</time>
      </trkpt>
      <trkpt lat="43.07176" lon="5.85644">
        <ele>73</ele>
        <time>2019-10-23T09:35:54Z</time>
      </trkpt>
      <trkpt lat="43.07175" lon="5.85636">
        <ele>73</ele>
        <time>2019-10-23T09:35:55Z</time>
      </trkpt>
      <trkpt lat="43.07174" lon="5.85629">
        <ele>73</ele>
        <time>2019-10-23T09:35:56Z</time>
      </trkpt>
      <trkpt lat="43.07171" lon="5.85621">
        <ele>73</ele>
        <time>2019-10-23T09:35:57Z</time>
      </trkpt>
      <trkpt lat="43.07168" lon="5.85613">
        <ele>73</ele>
        <time>2019-10-23T09:35:58Z</time>
      </trkpt>
      <trkpt lat="43.07171" lon="5.85609">
        <ele>73</ele>
        <time>2019-10-23T09:36:00Z</time>
      </trkpt>
      <trkpt lat="43.07168" lon="5.85603">
        <ele>73</ele>
        <time>2019-10-23T09:36:02Z</time>
      </trkpt>
      <trkpt lat="43.07165" lon="5.85597">
        <ele>73</ele>
        <time>2019-10-23T09:36:04Z</time>
      </trkpt>
      <trkpt lat="43.07163" lon="5.85592">
        <ele>72</ele>
        <time>2019-10-23T09:36:06Z</time>
      </trkpt>
      <trkpt lat="43.0716" lon="5.85587">
        <ele>72</ele>
        <time>2019-10-23T09:36:08Z</time>
      </trkpt>
      <trkpt lat="43.07156" lon="5.85582">
        <ele>73</ele>
        <time>2019-10-23T09:36:10Z</time>
      </trkpt>
      <trkpt lat="43.07152" lon="5.85577">
        <ele>73</ele>
        <time>2019-10-23T09:36:12Z</time>
      </trkpt>
      <trkpt lat="43.07148" lon="5.85574">
        <ele>74</ele>
        <time>2019-10-23T09:36:14Z</time>
      </trkpt>
      <trkpt lat="43.07145" lon="5.8557">
        <ele>74</ele>
        <time>2019-10-23T09:36:16Z</time>
      </trkpt>
      <trkpt lat="43.07142" lon="5.85567">
        <ele>75</ele>
        <time>2019-10-23T09:36:17Z</time>
      </trkpt>
      <trkpt lat="43.07138" lon="5.85563">
        <ele>75</ele>
        <time>2019-10-23T09:36:18Z</time>
      </trkpt>
      <trkpt lat="43.07136" lon="5.85559">
        <ele>76</ele>
        <time>2019-10-23T09:36:19Z</time>
      </trkpt>
      <trkpt lat="43.07133" lon="5.85555">
        <ele>76</ele>
        <time>2019-10-23T09:36:20Z</time>
      </trkpt>
      <trkpt lat="43.07133" lon="5.8555">
        <ele>76</ele>
        <time>2019-10-23T09:36:22Z</time>
      </trkpt>
      <trkpt lat="43.07133" lon="5.85546">
        <ele>76</ele>
        <time>2019-10-23T09:36:23Z</time>
      </trkpt>
      <trkpt lat="43.07132" lon="5.85541">
        <ele>76</ele>
        <time>2019-10-23T09:36:24Z</time>
      </trkpt>
      <trkpt lat="43.07132" lon="5.85536">
        <ele>77</ele>
        <time>2019-10-23T09:36:25Z</time>
      </trkpt>
      <trkpt lat="43.07131" lon="5.85531">
        <ele>77</ele>
        <time>2019-10-23T09:36:26Z</time>
      </trkpt>
      <trkpt lat="43.07131" lon="5.85526">
        <ele>77</ele>
        <time>2019-10-23T09:36:27Z</time>
      </trkpt>
      <trkpt lat="43.07132" lon="5.85521">
        <ele>77</ele>
        <time>2019-10-23T09:36:28Z</time>
      </trkpt>
      <trkpt lat="43.07132" lon="5.85515">
        <ele>77</ele>
        <time>2019-10-23T09:36:29Z</time>
      </trkpt>
      <trkpt lat="43.07132" lon="5.8551">
        <ele>76</ele>
        <time>2019-10-23T09:36:30Z</time>
      </trkpt>
      <trkpt lat="43.07132" lon="5.85504">
        <ele>76</ele>
        <time>2019-10-23T09:36:31Z</time>
      </trkpt>
      <trkpt lat="43.07133" lon="5.85498">
        <ele>76</ele>
        <time>2019-10-23T09:36:32Z</time>
      </trkpt>
      <trkpt lat="43.07133" lon="5.85492">
        <ele>76</ele>
        <time>2019-10-23T09:36:33Z</time>
      </trkpt>
      <trkpt lat="43.07134" lon="5.85486">
        <ele>76</ele>
        <time>2019-10-23T09:36:34Z</time>
      </trkpt>
      <trkpt lat="43.07135" lon="5.85481">
        <ele>76</ele>
        <time>2019-10-23T09:36:35Z</time>
      </trkpt>
      <trkpt lat="43.07135" lon="5.85476">
        <ele>76</ele>
        <time>2019-10-23T09:36:36Z</time>
      </trkpt>
      <trkpt lat="43.07136" lon="5.85472">
        <ele>76</ele>
        <time>2019-10-23T09:36:37Z</time>
      </trkpt>
      <trkpt lat="43.07136" lon="5.85468">
        <ele>75</ele>
        <time>2019-10-23T09:36:38Z</time>
      </trkpt>
      <trkpt lat="43.07135" lon="5.85463">
        <ele>75</ele>
        <time>2019-10-23T09:36:39Z</time>
      </trkpt>
      <trkpt lat="43.07136" lon="5.85458">
        <ele>75</ele>
        <time>2019-10-23T09:36:40Z</time>
      </trkpt>
      <trkpt lat="43.07136" lon="5.85454">
        <ele>74</ele>
        <time>2019-10-23T09:36:41Z</time>
      </trkpt>
      <trkpt lat="43.07137" lon="5.85449">
        <ele>73</ele>
        <time>2019-10-23T09:36:42Z</time>
      </trkpt>
      <trkpt lat="43.07139" lon="5.85445">
        <ele>72</ele>
        <time>2019-10-23T09:36:43Z</time>
      </trkpt>
      <trkpt lat="43.07141" lon="5.8544">
        <ele>71</ele>
        <time>2019-10-23T09:36:44Z</time>
      </trkpt>
      <trkpt lat="43.07143" lon="5.85434">
        <ele>69</ele>
        <time>2019-10-23T09:36:45Z</time>
      </trkpt>
      <trkpt lat="43.07145" lon="5.85428">
        <ele>68</ele>
        <time>2019-10-23T09:36:46Z</time>
      </trkpt>
      <trkpt lat="43.07145" lon="5.85422">
        <ele>67</ele>
        <time>2019-10-23T09:36:47Z</time>
      </trkpt>
      <trkpt lat="43.07145" lon="5.85417">
        <ele>67</ele>
        <time>2019-10-23T09:36:48Z</time>
      </trkpt>
      <trkpt lat="43.07145" lon="5.85412">
        <ele>66</ele>
        <time>2019-10-23T09:36:49Z</time>
      </trkpt>
      <trkpt lat="43.07145" lon="5.85407">
        <ele>66</ele>
        <time>2019-10-23T09:36:51Z</time>
      </trkpt>
      <trkpt lat="43.07144" lon="5.85402">
        <ele>66</ele>
        <time>2019-10-23T09:36:53Z</time>
      </trkpt>
      <trkpt lat="43.07144" lon="5.85396">
        <ele>66</ele>
        <time>2019-10-23T09:36:55Z</time>
      </trkpt>
      <trkpt lat="43.07144" lon="5.85391">
        <ele>66</ele>
        <time>2019-10-23T09:36:56Z</time>
      </trkpt>
      <trkpt lat="43.07144" lon="5.85385">
        <ele>66</ele>
        <time>2019-10-23T09:36:58Z</time>
      </trkpt>
      <trkpt lat="43.07145" lon="5.85381">
        <ele>66</ele>
        <time>2019-10-23T09:36:59Z</time>
      </trkpt>
      <trkpt lat="43.07146" lon="5.85378">
        <ele>66</ele>
        <time>2019-10-23T09:37:00Z</time>
      </trkpt>
      <trkpt lat="43.07148" lon="5.85374">
        <ele>66</ele>
        <time>2019-10-23T09:37:02Z</time>
      </trkpt>
      <trkpt lat="43.0715" lon="5.85371">
        <ele>66</ele>
        <time>2019-10-23T09:37:04Z</time>
      </trkpt>
      <trkpt lat="43.07152" lon="5.85366">
        <ele>66</ele>
        <time>2019-10-23T09:37:06Z</time>
      </trkpt>
      <trkpt lat="43.07154" lon="5.85362">
        <ele>66</ele>
        <time>2019-10-23T09:37:08Z</time>
      </trkpt>
      <trkpt lat="43.07155" lon="5.85357">
        <ele>66</ele>
        <time>2019-10-23T09:37:09Z</time>
      </trkpt>
      <trkpt lat="43.07155" lon="5.85352">
        <ele>66</ele>
        <time>2019-10-23T09:37:10Z</time>
      </trkpt>
      <trkpt lat="43.07156" lon="5.85347">
        <ele>67</ele>
        <time>2019-10-23T09:37:11Z</time>
      </trkpt>
      <trkpt lat="43.07156" lon="5.85342">
        <ele>67</ele>
        <time>2019-10-23T09:37:12Z</time>
      </trkpt>
      <trkpt lat="43.07157" lon="5.85337">
        <ele>67</ele>
        <time>2019-10-23T09:37:13Z</time>
      </trkpt>
      <trkpt lat="43.07159" lon="5.85333">
        <ele>67</ele>
        <time>2019-10-23T09:37:14Z</time>
      </trkpt>
      <trkpt lat="43.0716" lon="5.85329">
        <ele>67</ele>
        <time>2019-10-23T09:37:15Z</time>
      </trkpt>
      <trkpt lat="43.07163" lon="5.85326">
        <ele>67</ele>
        <time>2019-10-23T09:37:16Z</time>
      </trkpt>
      <trkpt lat="43.07165" lon="5.85322">
        <ele>68</ele>
        <time>2019-10-23T09:37:18Z</time>
      </trkpt>
      <trkpt lat="43.07168" lon="5.85319">
        <ele>68</ele>
        <time>2019-10-23T09:37:20Z</time>
      </trkpt>
      <trkpt lat="43.0717" lon="5.85317">
        <ele>68</ele>
        <time>2019-10-23T09:37:22Z</time>
      </trkpt>
      <trkpt lat="43.07173" lon="5.85314">
        <ele>68</ele>
        <time>2019-10-23T09:37:23Z</time>
      </trkpt>
      <trkpt lat="43.07176" lon="5.85313">
        <ele>69</ele>
        <time>2019-10-23T09:37:25Z</time>
      </trkpt>
      <trkpt lat="43.0718" lon="5.85312">
        <ele>69</ele>
        <time>2019-10-23T09:37:27Z</time>
      </trkpt>
      <trkpt lat="43.07183" lon="5.85312">
        <ele>69</ele>
        <time>2019-10-23T09:37:29Z</time>
      </trkpt>
      <trkpt lat="43.07186" lon="5.85311">
        <ele>70</ele>
        <time>2019-10-23T09:37:31Z</time>
      </trkpt>
      <trkpt lat="43.07189" lon="5.85311">
        <ele>70</ele>
        <time>2019-10-23T09:37:33Z</time>
      </trkpt>
      <trkpt lat="43.07192" lon="5.8531">
        <ele>70</ele>
        <time>2019-10-23T09:37:35Z</time>
      </trkpt>
      <trkpt lat="43.07195" lon="5.85309">
        <ele>70</ele>
        <time>2019-10-23T09:37:36Z</time>
      </trkpt>
      <trkpt lat="43.07199" lon="5.85307">
        <ele>70</ele>
        <time>2019-10-23T09:37:38Z</time>
      </trkpt>
      <trkpt lat="43.07204" lon="5.85306">
        <ele>71</ele>
        <time>2019-10-23T09:37:40Z</time>
      </trkpt>
      <trkpt lat="43.07209" lon="5.85306">
        <ele>71</ele>
        <time>2019-10-23T09:37:41Z</time>
      </trkpt>
      <trkpt lat="43.07213" lon="5.85307">
        <ele>72</ele>
        <time>2019-10-23T09:37:42Z</time>
      </trkpt>
      <trkpt lat="43.07217" lon="5.85309">
        <ele>72</ele>
        <time>2019-10-23T09:37:44Z</time>
      </trkpt>
      <trkpt lat="43.07221" lon="5.8531">
        <ele>73</ele>
        <time>2019-10-23T09:37:45Z</time>
      </trkpt>
      <trkpt lat="43.07224" lon="5.85312">
        <ele>73</ele>
        <time>2019-10-23T09:37:47Z</time>
      </trkpt>
      <trkpt lat="43.07228" lon="5.85314">
        <ele>74</ele>
        <time>2019-10-23T09:37:49Z</time>
      </trkpt>
      <trkpt lat="43.07232" lon="5.85316">
        <ele>74</ele>
        <time>2019-10-23T09:37:50Z</time>
      </trkpt>
      <trkpt lat="43.07236" lon="5.85316">
        <ele>75</ele>
        <time>2019-10-23T09:37:52Z</time>
      </trkpt>
      <trkpt lat="43.07241" lon="5.85315">
        <ele>75</ele>
        <time>2019-10-23T09:37:54Z</time>
      </trkpt>
      <trkpt lat="43.07244" lon="5.85314">
        <ele>75</ele>
        <time>2019-10-23T09:37:56Z</time>
      </trkpt>
      <trkpt lat="43.07247" lon="5.85312">
        <ele>76</ele>
        <time>2019-10-23T09:37:58Z</time>
      </trkpt>
      <trkpt lat="43.0725" lon="5.8531">
        <ele>76</ele>
        <time>2019-10-23T09:38:00Z</time>
      </trkpt>
      <trkpt lat="43.07253" lon="5.85309">
        <ele>76</ele>
        <time>2019-10-23T09:38:01Z</time>
      </trkpt>
      <trkpt lat="43.07255" lon="5.85307">
        <ele>76</ele>
        <time>2019-10-23T09:38:02Z</time>
      </trkpt>
      <trkpt lat="43.07258" lon="5.85305">
        <ele>76</ele>
        <time>2019-10-23T09:38:04Z</time>
      </trkpt>
      <trkpt lat="43.0726" lon="5.85302">
        <ele>77</ele>
        <time>2019-10-23T09:38:06Z</time>
      </trkpt>
      <trkpt lat="43.07262" lon="5.853">
        <ele>77</ele>
        <time>2019-10-23T09:38:07Z</time>
      </trkpt>
      <trkpt lat="43.07265" lon="5.85297">
        <ele>77</ele>
        <time>2019-10-23T09:38:08Z</time>
      </trkpt>
      <trkpt lat="43.07268" lon="5.85292">
        <ele>77</ele>
        <time>2019-10-23T09:38:09Z</time>
      </trkpt>
      <trkpt lat="43.07272" lon="5.85287">
        <ele>77</ele>
        <time>2019-10-23T09:38:10Z</time>
      </trkpt>
      <trkpt lat="43.07274" lon="5.85284">
        <ele>77</ele>
        <time>2019-10-23T09:38:11Z</time>
      </trkpt>
      <trkpt lat="43.07277" lon="5.85279">
        <ele>78</ele>
        <time>2019-10-23T09:38:12Z</time>
      </trkpt>
      <trkpt lat="43.07281" lon="5.85275">
        <ele>78</ele>
        <time>2019-10-23T09:38:13Z</time>
      </trkpt>
      <trkpt lat="43.07284" lon="5.85271">
        <ele>79</ele>
        <time>2019-10-23T09:38:14Z</time>
      </trkpt>
      <trkpt lat="43.07287" lon="5.85266">
        <ele>80</ele>
        <time>2019-10-23T09:38:15Z</time>
      </trkpt>
      <trkpt lat="43.0729" lon="5.85262">
        <ele>80</ele>
        <time>2019-10-23T09:38:16Z</time>
      </trkpt>
      <trkpt lat="43.07294" lon="5.85257">
        <ele>80</ele>
        <time>2019-10-23T09:38:17Z</time>
      </trkpt>
      <trkpt lat="43.07296" lon="5.85254">
        <ele>81</ele>
        <time>2019-10-23T09:38:18Z</time>
      </trkpt>
      <trkpt lat="43.073" lon="5.8525">
        <ele>81</ele>
        <time>2019-10-23T09:38:19Z</time>
      </trkpt>
      <trkpt lat="43.07304" lon="5.85246">
        <ele>81</ele>
        <time>2019-10-23T09:38:20Z</time>
      </trkpt>
      <trkpt lat="43.07307" lon="5.85243">
        <ele>82</ele>
        <time>2019-10-23T09:38:21Z</time>
      </trkpt>
      <trkpt lat="43.0731" lon="5.85241">
        <ele>82</ele>
        <time>2019-10-23T09:38:22Z</time>
      </trkpt>
      <trkpt lat="43.07314" lon="5.8524">
        <ele>82</ele>
        <time>2019-10-23T09:38:23Z</time>
      </trkpt>
      <trkpt lat="43.07318" lon="5.85239">
        <ele>83</ele>
        <time>2019-10-23T09:38:24Z</time>
      </trkpt>
      <trkpt lat="43.07322" lon="5.85238">
        <ele>83</ele>
        <time>2019-10-23T09:38:25Z</time>
      </trkpt>
      <trkpt lat="43.07327" lon="5.85236">
        <ele>84</ele>
        <time>2019-10-23T09:38:26Z</time>
      </trkpt>
      <trkpt lat="43.0733" lon="5.85235">
        <ele>84</ele>
        <time>2019-10-23T09:38:27Z</time>
      </trkpt>
      <trkpt lat="43.07335" lon="5.85233">
        <ele>84</ele>
        <time>2019-10-23T09:38:28Z</time>
      </trkpt>
      <trkpt lat="43.07339" lon="5.8523">
        <ele>85</ele>
        <time>2019-10-23T09:38:29Z</time>
      </trkpt>
      <trkpt lat="43.07343" lon="5.85226">
        <ele>85</ele>
        <time>2019-10-23T09:38:30Z</time>
      </trkpt>
      <trkpt lat="43.07346" lon="5.85221">
        <ele>86</ele>
        <time>2019-10-23T09:38:31Z</time>
      </trkpt>
      <trkpt lat="43.07349" lon="5.85215">
        <ele>86</ele>
        <time>2019-10-23T09:38:32Z</time>
      </trkpt>
      <trkpt lat="43.0735" lon="5.8521">
        <ele>86</ele>
        <time>2019-10-23T09:38:33Z</time>
      </trkpt>
      <trkpt lat="43.07352" lon="5.85206">
        <ele>86</ele>
        <time>2019-10-23T09:38:34Z</time>
      </trkpt>
      <trkpt lat="43.07354" lon="5.85198">
        <ele>87</ele>
        <time>2019-10-23T09:38:35Z</time>
      </trkpt>
      <trkpt lat="43.07356" lon="5.85193">
        <ele>87</ele>
        <time>2019-10-23T09:38:36Z</time>
      </trkpt>
      <trkpt lat="43.07357" lon="5.85188">
        <ele>88</ele>
        <time>2019-10-23T09:38:37Z</time>
      </trkpt>
      <trkpt lat="43.07359" lon="5.85183">
        <ele>88</ele>
        <time>2019-10-23T09:38:38Z</time>
      </trkpt>
      <trkpt lat="43.07359" lon="5.85179">
        <ele>88</ele>
        <time>2019-10-23T09:38:39Z</time>
      </trkpt>
      <trkpt lat="43.0736" lon="5.85174">
        <ele>88</ele>
        <time>2019-10-23T09:38:40Z</time>
      </trkpt>
      <trkpt lat="43.0736" lon="5.85169">
        <ele>88</ele>
        <time>2019-10-23T09:38:41Z</time>
      </trkpt>
      <trkpt lat="43.07359" lon="5.85164">
        <ele>88</ele>
        <time>2019-10-23T09:38:42Z</time>
      </trkpt>
      <trkpt lat="43.07359" lon="5.85158">
        <ele>88</ele>
        <time>2019-10-23T09:38:43Z</time>
      </trkpt>
      <trkpt lat="43.0736" lon="5.85153">
        <ele>88</ele>
        <time>2019-10-23T09:38:44Z</time>
      </trkpt>
      <trkpt lat="43.07363" lon="5.85148">
        <ele>88</ele>
        <time>2019-10-23T09:38:45Z</time>
      </trkpt>
      <trkpt lat="43.07365" lon="5.85143">
        <ele>88</ele>
        <time>2019-10-23T09:38:46Z</time>
      </trkpt>
      <trkpt lat="43.07368" lon="5.85138">
        <ele>88</ele>
        <time>2019-10-23T09:38:47Z</time>
      </trkpt>
      <trkpt lat="43.07371" lon="5.85133">
        <ele>88</ele>
        <time>2019-10-23T09:38:48Z</time>
      </trkpt>
      <trkpt lat="43.07374" lon="5.85128">
        <ele>88</ele>
        <time>2019-10-23T09:38:49Z</time>
      </trkpt>
      <trkpt lat="43.07377" lon="5.85122">
        <ele>88</ele>
        <time>2019-10-23T09:38:50Z</time>
      </trkpt>
      <trkpt lat="43.07379" lon="5.85118">
        <ele>88</ele>
        <time>2019-10-23T09:38:51Z</time>
      </trkpt>
      <trkpt lat="43.07381" lon="5.85114">
        <ele>89</ele>
        <time>2019-10-23T09:38:52Z</time>
      </trkpt>
      <trkpt lat="43.07383" lon="5.8511">
        <ele>89</ele>
        <time>2019-10-23T09:38:53Z</time>
      </trkpt>
      <trkpt lat="43.07384" lon="5.85105">
        <ele>89</ele>
        <time>2019-10-23T09:38:54Z</time>
      </trkpt>
      <trkpt lat="43.07386" lon="5.851">
        <ele>90</ele>
        <time>2019-10-23T09:38:55Z</time>
      </trkpt>
      <trkpt lat="43.07387" lon="5.85095">
        <ele>90</ele>
        <time>2019-10-23T09:38:56Z</time>
      </trkpt>
      <trkpt lat="43.0739" lon="5.85091">
        <ele>91</ele>
        <time>2019-10-23T09:38:57Z</time>
      </trkpt>
      <trkpt lat="43.07392" lon="5.85087">
        <ele>91</ele>
        <time>2019-10-23T09:38:58Z</time>
      </trkpt>
      <trkpt lat="43.07393" lon="5.85082">
        <ele>91</ele>
        <time>2019-10-23T09:38:59Z</time>
      </trkpt>
      <trkpt lat="43.07395" lon="5.85077">
        <ele>91</ele>
        <time>2019-10-23T09:39:00Z</time>
      </trkpt>
      <trkpt lat="43.07396" lon="5.85073">
        <ele>91</ele>
        <time>2019-10-23T09:39:01Z</time>
      </trkpt>
      <trkpt lat="43.07397" lon="5.85068">
        <ele>91</ele>
        <time>2019-10-23T09:39:02Z</time>
      </trkpt>
      <trkpt lat="43.07398" lon="5.85063">
        <ele>90</ele>
        <time>2019-10-23T09:39:03Z</time>
      </trkpt>
      <trkpt lat="43.07398" lon="5.85057">
        <ele>90</ele>
        <time>2019-10-23T09:39:04Z</time>
      </trkpt>
      <trkpt lat="43.07399" lon="5.85051">
        <ele>90</ele>
        <time>2019-10-23T09:39:05Z</time>
      </trkpt>
      <trkpt lat="43.074" lon="5.85045">
        <ele>90</ele>
        <time>2019-10-23T09:39:06Z</time>
      </trkpt>
      <trkpt lat="43.07401" lon="5.85039">
        <ele>90</ele>
        <time>2019-10-23T09:39:07Z</time>
      </trkpt>
      <trkpt lat="43.07403" lon="5.85035">
        <ele>90</ele>
        <time>2019-10-23T09:39:08Z</time>
      </trkpt>
      <trkpt lat="43.07405" lon="5.8503">
        <ele>91</ele>
        <time>2019-10-23T09:39:09Z</time>
      </trkpt>
      <trkpt lat="43.07406" lon="5.85026">
        <ele>91</ele>
        <time>2019-10-23T09:39:10Z</time>
      </trkpt>
      <trkpt lat="43.07408" lon="5.85022">
        <ele>91</ele>
        <time>2019-10-23T09:39:11Z</time>
      </trkpt>
      <trkpt lat="43.07409" lon="5.85018">
        <ele>91</ele>
        <time>2019-10-23T09:39:12Z</time>
      </trkpt>
      <trkpt lat="43.0741" lon="5.85013">
        <ele>91</ele>
        <time>2019-10-23T09:39:13Z</time>
      </trkpt>
      <trkpt lat="43.07412" lon="5.85009">
        <ele>92</ele>
        <time>2019-10-23T09:39:14Z</time>
      </trkpt>
      <trkpt lat="43.07413" lon="5.85004">
        <ele>92</ele>
        <time>2019-10-23T09:39:15Z</time>
      </trkpt>
      <trkpt lat="43.07414" lon="5.85">
        <ele>92</ele>
        <time>2019-10-23T09:39:16Z</time>
      </trkpt>
      <trkpt lat="43.07415" lon="5.84995">
        <ele>93</ele>
        <time>2019-10-23T09:39:17Z</time>
      </trkpt>
      <trkpt lat="43.07415" lon="5.8499">
        <ele>93</ele>
        <time>2019-10-23T09:39:18Z</time>
      </trkpt>
      <trkpt lat="43.07416" lon="5.84985">
        <ele>93</ele>
        <time>2019-10-23T09:39:19Z</time>
      </trkpt>
      <trkpt lat="43.07417" lon="5.84981">
        <ele>93</ele>
        <time>2019-10-23T09:39:20Z</time>
      </trkpt>
      <trkpt lat="43.07418" lon="5.84976">
        <ele>94</ele>
        <time>2019-10-23T09:39:21Z</time>
      </trkpt>
      <trkpt lat="43.07419" lon="5.84971">
        <ele>94</ele>
        <time>2019-10-23T09:39:22Z</time>
      </trkpt>
      <trkpt lat="43.0742" lon="5.84966">
        <ele>94</ele>
        <time>2019-10-23T09:39:23Z</time>
      </trkpt>
      <trkpt lat="43.07422" lon="5.8496">
        <ele>94</ele>
        <time>2019-10-23T09:39:24Z</time>
      </trkpt>
      <trkpt lat="43.07423" lon="5.84955">
        <ele>94</ele>
        <time>2019-10-23T09:39:25Z</time>
      </trkpt>
      <trkpt lat="43.07424" lon="5.8495">
        <ele>94</ele>
        <time>2019-10-23T09:39:26Z</time>
      </trkpt>
      <trkpt lat="43.07425" lon="5.84944">
        <ele>94</ele>
        <time>2019-10-23T09:39:27Z</time>
      </trkpt>
      <trkpt lat="43.07425" lon="5.84939">
        <ele>94</ele>
        <time>2019-10-23T09:39:28Z</time>
      </trkpt>
      <trkpt lat="43.07426" lon="5.84935">
        <ele>95</ele>
        <time>2019-10-23T09:39:29Z</time>
      </trkpt>
      <trkpt lat="43.07426" lon="5.8493">
        <ele>95</ele>
        <time>2019-10-23T09:39:30Z</time>
      </trkpt>
      <trkpt lat="43.07427" lon="5.84925">
        <ele>95</ele>
        <time>2019-10-23T09:39:31Z</time>
      </trkpt>
      <trkpt lat="43.07427" lon="5.84921">
        <ele>95</ele>
        <time>2019-10-23T09:39:32Z</time>
      </trkpt>
      <trkpt lat="43.07427" lon="5.84916">
        <ele>96</ele>
        <time>2019-10-23T09:39:33Z</time>
      </trkpt>
      <trkpt lat="43.07427" lon="5.84912">
        <ele>96</ele>
        <time>2019-10-23T09:39:34Z</time>
      </trkpt>
      <trkpt lat="43.07426" lon="5.84907">
        <ele>96</ele>
        <time>2019-10-23T09:39:35Z</time>
      </trkpt>
      <trkpt lat="43.07425" lon="5.84902">
        <ele>97</ele>
        <time>2019-10-23T09:39:37Z</time>
      </trkpt>
      <trkpt lat="43.07424" lon="5.84898">
        <ele>97</ele>
        <time>2019-10-23T09:39:38Z</time>
      </trkpt>
      <trkpt lat="43.07422" lon="5.84893">
        <ele>97</ele>
        <time>2019-10-23T09:39:39Z</time>
      </trkpt>
      <trkpt lat="43.0742" lon="5.84889">
        <ele>97</ele>
        <time>2019-10-23T09:39:41Z</time>
      </trkpt>
      <trkpt lat="43.07418" lon="5.84886">
        <ele>97</ele>
        <time>2019-10-23T09:39:42Z</time>
      </trkpt>
      <trkpt lat="43.07415" lon="5.84882">
        <ele>97</ele>
        <time>2019-10-23T09:39:43Z</time>
      </trkpt>
      <trkpt lat="43.07412" lon="5.84878">
        <ele>97</ele>
        <time>2019-10-23T09:39:44Z</time>
      </trkpt>
      <trkpt lat="43.07409" lon="5.84874">
        <ele>97</ele>
        <time>2019-10-23T09:39:45Z</time>
      </trkpt>
      <trkpt lat="43.07406" lon="5.8487">
        <ele>97</ele>
        <time>2019-10-23T09:39:46Z</time>
      </trkpt>
      <trkpt lat="43.07404" lon="5.84866">
        <ele>97</ele>
        <time>2019-10-23T09:39:47Z</time>
      </trkpt>
      <trkpt lat="43.07401" lon="5.84862">
        <ele>97</ele>
        <time>2019-10-23T09:39:48Z</time>
      </trkpt>
      <trkpt lat="43.074" lon="5.84858">
        <ele>97</ele>
        <time>2019-10-23T09:39:49Z</time>
      </trkpt>
      <trkpt lat="43.07398" lon="5.84854">
        <ele>98</ele>
        <time>2019-10-23T09:39:50Z</time>
      </trkpt>
      <trkpt lat="43.07397" lon="5.8485">
        <ele>98</ele>
        <time>2019-10-23T09:39:51Z</time>
      </trkpt>
      <trkpt lat="43.07397" lon="5.84845">
        <ele>98</ele>
        <time>2019-10-23T09:39:52Z</time>
      </trkpt>
      <trkpt lat="43.07396" lon="5.8484">
        <ele>98</ele>
        <time>2019-10-23T09:39:53Z</time>
      </trkpt>
      <trkpt lat="43.07397" lon="5.84835">
        <ele>98</ele>
        <time>2019-10-23T09:39:54Z</time>
      </trkpt>
      <trkpt lat="43.07398" lon="5.84831">
        <ele>99</ele>
        <time>2019-10-23T09:39:55Z</time>
      </trkpt>
      <trkpt lat="43.07399" lon="5.84827">
        <ele>99</ele>
        <time>2019-10-23T09:39:56Z</time>
      </trkpt>
      <trkpt lat="43.07401" lon="5.84825">
        <ele>99</ele>
        <time>2019-10-23T09:39:57Z</time>
      </trkpt>
      <trkpt lat="43.07404" lon="5.84822">
        <ele>100</ele>
        <time>2019-10-23T09:39:58Z</time>
      </trkpt>
      <trkpt lat="43.07406" lon="5.84819">
        <ele>100</ele>
        <time>2019-10-23T09:39:59Z</time>
      </trkpt>
      <trkpt lat="43.07408" lon="5.84817">
        <ele>100</ele>
        <time>2019-10-23T09:40:00Z</time>
      </trkpt>
      <trkpt lat="43.0741" lon="5.84814">
        <ele>100</ele>
        <time>2019-10-23T09:40:02Z</time>
      </trkpt>
      <trkpt lat="43.07413" lon="5.84812">
        <ele>100</ele>
        <time>2019-10-23T09:40:03Z</time>
      </trkpt>
      <trkpt lat="43.07415" lon="5.8481">
        <ele>100</ele>
        <time>2019-10-23T09:40:04Z</time>
      </trkpt>
      <trkpt lat="43.07418" lon="5.84807">
        <ele>101</ele>
        <time>2019-10-23T09:40:05Z</time>
      </trkpt>
      <trkpt lat="43.0742" lon="5.84805">
        <ele>101</ele>
        <time>2019-10-23T09:40:06Z</time>
      </trkpt>
      <trkpt lat="43.07422" lon="5.84802">
        <ele>101</ele>
        <time>2019-10-23T09:40:07Z</time>
      </trkpt>
      <trkpt lat="43.07423" lon="5.84799">
        <ele>101</ele>
        <time>2019-10-23T09:40:08Z</time>
      </trkpt>
      <trkpt lat="43.07426" lon="5.84795">
        <ele>102</ele>
        <time>2019-10-23T09:40:10Z</time>
      </trkpt>
      <trkpt lat="43.07429" lon="5.84792">
        <ele>102</ele>
        <time>2019-10-23T09:40:12Z</time>
      </trkpt>
      <trkpt lat="43.07431" lon="5.84789">
        <ele>103</ele>
        <time>2019-10-23T09:40:14Z</time>
      </trkpt>
      <trkpt lat="43.07434" lon="5.84786">
        <ele>104</ele>
        <time>2019-10-23T09:40:15Z</time>
      </trkpt>
      <trkpt lat="43.07437" lon="5.84783">
        <ele>104</ele>
        <time>2019-10-23T09:40:17Z</time>
      </trkpt>
      <trkpt lat="43.0744" lon="5.8478">
        <ele>104</ele>
        <time>2019-10-23T09:40:19Z</time>
      </trkpt>
      <trkpt lat="43.07442" lon="5.84778">
        <ele>104</ele>
        <time>2019-10-23T09:40:21Z</time>
      </trkpt>
      <trkpt lat="43.07445" lon="5.84776">
        <ele>105</ele>
        <time>2019-10-23T09:40:23Z</time>
      </trkpt>
      <trkpt lat="43.07448" lon="5.84775">
        <ele>105</ele>
        <time>2019-10-23T09:40:24Z</time>
      </trkpt>
      <trkpt lat="43.07451" lon="5.84776">
        <ele>105</ele>
        <time>2019-10-23T09:40:25Z</time>
      </trkpt>
      <trkpt lat="43.07454" lon="5.84776">
        <ele>105</ele>
        <time>2019-10-23T09:40:26Z</time>
      </trkpt>
      <trkpt lat="43.07457" lon="5.84777">
        <ele>105</ele>
        <time>2019-10-23T09:40:27Z</time>
      </trkpt>
      <trkpt lat="43.0746" lon="5.84778">
        <ele>106</ele>
        <time>2019-10-23T09:40:28Z</time>
      </trkpt>
      <trkpt lat="43.07463" lon="5.84778">
        <ele>106</ele>
        <time>2019-10-23T09:40:29Z</time>
      </trkpt>
      <trkpt lat="43.07466" lon="5.84778">
        <ele>106</ele>
        <time>2019-10-23T09:40:30Z</time>
      </trkpt>
      <trkpt lat="43.07469" lon="5.84779">
        <ele>106</ele>
        <time>2019-10-23T09:40:32Z</time>
      </trkpt>
      <trkpt lat="43.07472" lon="5.84779">
        <ele>106</ele>
        <time>2019-10-23T09:40:33Z</time>
      </trkpt>
      <trkpt lat="43.07475" lon="5.8478">
        <ele>106</ele>
        <time>2019-10-23T09:40:34Z</time>
      </trkpt>
      <trkpt lat="43.07479" lon="5.8478">
        <ele>106</ele>
        <time>2019-10-23T09:40:35Z</time>
      </trkpt>
      <trkpt lat="43.07483" lon="5.84781">
        <ele>106</ele>
        <time>2019-10-23T09:40:36Z</time>
      </trkpt>
      <trkpt lat="43.07486" lon="5.8478">
        <ele>106</ele>
        <time>2019-10-23T09:40:37Z</time>
      </trkpt>
      <trkpt lat="43.0749" lon="5.84779">
        <ele>107</ele>
        <time>2019-10-23T09:40:38Z</time>
      </trkpt>
      <trkpt lat="43.07493" lon="5.84776">
        <ele>107</ele>
        <time>2019-10-23T09:40:39Z</time>
      </trkpt>
      <trkpt lat="43.07495" lon="5.84772">
        <ele>107</ele>
        <time>2019-10-23T09:40:40Z</time>
      </trkpt>
      <trkpt lat="43.07494" lon="5.84768">
        <ele>107</ele>
        <time>2019-10-23T09:40:41Z</time>
      </trkpt>
      <trkpt lat="43.07492" lon="5.84765">
        <ele>107</ele>
        <time>2019-10-23T09:40:42Z</time>
      </trkpt>
      <trkpt lat="43.0749" lon="5.84763">
        <ele>107</ele>
        <time>2019-10-23T09:40:43Z</time>
      </trkpt>
      <trkpt lat="43.07487" lon="5.84762">
        <ele>107</ele>
        <time>2019-10-23T09:40:44Z</time>
      </trkpt>
      <trkpt lat="43.07485" lon="5.8476">
        <ele>107</ele>
        <time>2019-10-23T09:40:45Z</time>
      </trkpt>
      <trkpt lat="43.07482" lon="5.84758">
        <ele>108</ele>
        <time>2019-10-23T09:40:46Z</time>
      </trkpt>
      <trkpt lat="43.07479" lon="5.84755">
        <ele>110</ele>
        <time>2019-10-23T09:40:47Z</time>
      </trkpt>
      <trkpt lat="43.07477" lon="5.84751">
        <ele>111</ele>
        <time>2019-10-23T09:40:48Z</time>
      </trkpt>
      <trkpt lat="43.07475" lon="5.84746">
        <ele>111</ele>
        <time>2019-10-23T09:40:49Z</time>
      </trkpt>
      <trkpt lat="43.07474" lon="5.84742">
        <ele>111</ele>
        <time>2019-10-23T09:40:50Z</time>
      </trkpt>
      <trkpt lat="43.07474" lon="5.84736">
        <ele>112</ele>
        <time>2019-10-23T09:40:51Z</time>
      </trkpt>
      <trkpt lat="43.07475" lon="5.8473">
        <ele>113</ele>
        <time>2019-10-23T09:40:52Z</time>
      </trkpt>
      <trkpt lat="43.07477" lon="5.84724">
        <ele>113</ele>
        <time>2019-10-23T09:40:53Z</time>
      </trkpt>
      <trkpt lat="43.07479" lon="5.8472">
        <ele>114</ele>
        <time>2019-10-23T09:40:54Z</time>
      </trkpt>
      <trkpt lat="43.07482" lon="5.84716">
        <ele>114</ele>
        <time>2019-10-23T09:40:55Z</time>
      </trkpt>
      <trkpt lat="43.07484" lon="5.84713">
        <ele>114</ele>
        <time>2019-10-23T09:40:56Z</time>
      </trkpt>
      <trkpt lat="43.07486" lon="5.8471">
        <ele>114</ele>
        <time>2019-10-23T09:40:57Z</time>
      </trkpt>
      <trkpt lat="43.07488" lon="5.84707">
        <ele>114</ele>
        <time>2019-10-23T09:40:58Z</time>
      </trkpt>
      <trkpt lat="43.07489" lon="5.84704">
        <ele>114</ele>
        <time>2019-10-23T09:40:59Z</time>
      </trkpt>
      <trkpt lat="43.07492" lon="5.847">
        <ele>114</ele>
        <time>2019-10-23T09:41:00Z</time>
      </trkpt>
      <trkpt lat="43.07495" lon="5.84697">
        <ele>114</ele>
        <time>2019-10-23T09:41:01Z</time>
      </trkpt>
      <trkpt lat="43.07498" lon="5.84694">
        <ele>114</ele>
        <time>2019-10-23T09:41:02Z</time>
      </trkpt>
      <trkpt lat="43.07501" lon="5.84691">
        <ele>115</ele>
        <time>2019-10-23T09:41:03Z</time>
      </trkpt>
      <trkpt lat="43.07504" lon="5.84688">
        <ele>115</ele>
        <time>2019-10-23T09:41:04Z</time>
      </trkpt>
      <trkpt lat="43.07508" lon="5.84684">
        <ele>115</ele>
        <time>2019-10-23T09:41:05Z</time>
      </trkpt>
      <trkpt lat="43.07514" lon="5.84682">
        <ele>115</ele>
        <time>2019-10-23T09:41:06Z</time>
      </trkpt>
      <trkpt lat="43.07519" lon="5.8468">
        <ele>114</ele>
        <time>2019-10-23T09:41:07Z</time>
      </trkpt>
      <trkpt lat="43.07525" lon="5.84678">
        <ele>114</ele>
        <time>2019-10-23T09:41:08Z</time>
      </trkpt>
      <trkpt lat="43.07531" lon="5.84677">
        <ele>113</ele>
        <time>2019-10-23T09:41:09Z</time>
      </trkpt>
      <trkpt lat="43.07536" lon="5.84675">
        <ele>113</ele>
        <time>2019-10-23T09:41:10Z</time>
      </trkpt>
      <trkpt lat="43.07541" lon="5.84673">
        <ele>112</ele>
        <time>2019-10-23T09:41:11Z</time>
      </trkpt>
      <trkpt lat="43.07547" lon="5.8467">
        <ele>112</ele>
        <time>2019-10-23T09:41:12Z</time>
      </trkpt>
      <trkpt lat="43.07551" lon="5.84666">
        <ele>111</ele>
        <time>2019-10-23T09:41:13Z</time>
      </trkpt>
      <trkpt lat="43.07557" lon="5.84661">
        <ele>111</ele>
        <time>2019-10-23T09:41:14Z</time>
      </trkpt>
      <trkpt lat="43.07562" lon="5.84654">
        <ele>110</ele>
        <time>2019-10-23T09:41:15Z</time>
      </trkpt>
      <trkpt lat="43.07567" lon="5.84646">
        <ele>110</ele>
        <time>2019-10-23T09:41:16Z</time>
      </trkpt>
      <trkpt lat="43.0757" lon="5.84636">
        <ele>110</ele>
        <time>2019-10-23T09:41:17Z</time>
      </trkpt>
      <trkpt lat="43.07573" lon="5.84627">
        <ele>109</ele>
        <time>2019-10-23T09:41:18Z</time>
      </trkpt>
      <trkpt lat="43.07577" lon="5.8462">
        <ele>109</ele>
        <time>2019-10-23T09:41:19Z</time>
      </trkpt>
      <trkpt lat="43.07581" lon="5.84612">
        <ele>108</ele>
        <time>2019-10-23T09:41:20Z</time>
      </trkpt>
      <trkpt lat="43.07585" lon="5.84605">
        <ele>108</ele>
        <time>2019-10-23T09:41:21Z</time>
      </trkpt>
      <trkpt lat="43.0759" lon="5.84598">
        <ele>108</ele>
        <time>2019-10-23T09:41:22Z</time>
      </trkpt>
      <trkpt lat="43.07595" lon="5.84591">
        <ele>107</ele>
        <time>2019-10-23T09:41:23Z</time>
      </trkpt>
      <trkpt lat="43.07599" lon="5.84582">
        <ele>107</ele>
        <time>2019-10-23T09:41:24Z</time>
      </trkpt>
      <trkpt lat="43.07603" lon="5.84574">
        <ele>107</ele>
        <time>2019-10-23T09:41:25Z</time>
      </trkpt>
      <trkpt lat="43.07607" lon="5.84565">
        <ele>106</ele>
        <time>2019-10-23T09:41:26Z</time>
      </trkpt>
      <trkpt lat="43.0761" lon="5.84556">
        <ele>106</ele>
        <time>2019-10-23T09:41:27Z</time>
      </trkpt>
      <trkpt lat="43.07612" lon="5.84545">
        <ele>105</ele>
        <time>2019-10-23T09:41:28Z</time>
      </trkpt>
      <trkpt lat="43.07613" lon="5.84534">
        <ele>104</ele>
        <time>2019-10-23T09:41:29Z</time>
      </trkpt>
      <trkpt lat="43.07614" lon="5.84523">
        <ele>104</ele>
        <time>2019-10-23T09:41:30Z</time>
      </trkpt>
      <trkpt lat="43.07615" lon="5.84513">
        <ele>104</ele>
        <time>2019-10-23T09:41:31Z</time>
      </trkpt>
      <trkpt lat="43.07616" lon="5.84502">
        <ele>103</ele>
        <time>2019-10-23T09:41:32Z</time>
      </trkpt>
      <trkpt lat="43.07618" lon="5.84492">
        <ele>103</ele>
        <time>2019-10-23T09:41:33Z</time>
      </trkpt>
      <trkpt lat="43.0762" lon="5.84482">
        <ele>102</ele>
        <time>2019-10-23T09:41:34Z</time>
      </trkpt>
      <trkpt lat="43.07623" lon="5.84472">
        <ele>102</ele>
        <time>2019-10-23T09:41:35Z</time>
      </trkpt>
      <trkpt lat="43.07627" lon="5.84465">
        <ele>101</ele>
        <time>2019-10-23T09:41:36Z</time>
      </trkpt>
      <trkpt lat="43.07632" lon="5.84458">
        <ele>100</ele>
        <time>2019-10-23T09:41:37Z</time>
      </trkpt>
      <trkpt lat="43.07637" lon="5.84452">
        <ele>99</ele>
        <time>2019-10-23T09:41:38Z</time>
      </trkpt>
      <trkpt lat="43.07643" lon="5.84445">
        <ele>98</ele>
        <time>2019-10-23T09:41:39Z</time>
      </trkpt>
      <trkpt lat="43.07649" lon="5.84437">
        <ele>97</ele>
        <time>2019-10-23T09:41:40Z</time>
      </trkpt>
      <trkpt lat="43.07655" lon="5.84429">
        <ele>97</ele>
        <time>2019-10-23T09:41:41Z</time>
      </trkpt>
      <trkpt lat="43.0766" lon="5.84419">
        <ele>96</ele>
        <time>2019-10-23T09:41:42Z</time>
      </trkpt>
      <trkpt lat="43.07665" lon="5.8441">
        <ele>96</ele>
        <time>2019-10-23T09:41:43Z</time>
      </trkpt>
      <trkpt lat="43.07671" lon="5.84404">
        <ele>95</ele>
        <time>2019-10-23T09:41:44Z</time>
      </trkpt>
      <trkpt lat="43.07677" lon="5.84399">
        <ele>95</ele>
        <time>2019-10-23T09:41:45Z</time>
      </trkpt>
      <trkpt lat="43.07683" lon="5.84394">
        <ele>93</ele>
        <time>2019-10-23T09:41:46Z</time>
      </trkpt>
      <trkpt lat="43.07689" lon="5.8439">
        <ele>93</ele>
        <time>2019-10-23T09:41:47Z</time>
      </trkpt>
      <trkpt lat="43.07695" lon="5.84386">
        <ele>92</ele>
        <time>2019-10-23T09:41:48Z</time>
      </trkpt>
      <trkpt lat="43.077" lon="5.84383">
        <ele>91</ele>
        <time>2019-10-23T09:41:49Z</time>
      </trkpt>
      <trkpt lat="43.07703" lon="5.84378">
        <ele>90</ele>
        <time>2019-10-23T09:41:50Z</time>
      </trkpt>
      <trkpt lat="43.07705" lon="5.84374">
        <ele>89</ele>
        <time>2019-10-23T09:41:51Z</time>
      </trkpt>
      <trkpt lat="43.07704" lon="5.84369">
        <ele>88</ele>
        <time>2019-10-23T09:41:52Z</time>
      </trkpt>
      <trkpt lat="43.077" lon="5.84365">
        <ele>88</ele>
        <time>2019-10-23T09:41:53Z</time>
      </trkpt>
      <trkpt lat="43.07695" lon="5.84363">
        <ele>87</ele>
        <time>2019-10-23T09:41:54Z</time>
      </trkpt>
      <trkpt lat="43.07689" lon="5.84361">
        <ele>86</ele>
        <time>2019-10-23T09:41:55Z</time>
      </trkpt>
      <trkpt lat="43.07682" lon="5.8436">
        <ele>86</ele>
        <time>2019-10-23T09:41:56Z</time>
      </trkpt>
      <trkpt lat="43.07675" lon="5.84358">
        <ele>85</ele>
        <time>2019-10-23T09:41:57Z</time>
      </trkpt>
      <trkpt lat="43.07668" lon="5.84357">
        <ele>85</ele>
        <time>2019-10-23T09:41:58Z</time>
      </trkpt>
      <trkpt lat="43.07661" lon="5.84357">
        <ele>85</ele>
        <time>2019-10-23T09:41:59Z</time>
      </trkpt>
      <trkpt lat="43.07654" lon="5.84357">
        <ele>84</ele>
        <time>2019-10-23T09:42:00Z</time>
      </trkpt>
      <trkpt lat="43.07646" lon="5.84358">
        <ele>84</ele>
        <time>2019-10-23T09:42:01Z</time>
      </trkpt>
      <trkpt lat="43.07639" lon="5.84358">
        <ele>84</ele>
        <time>2019-10-23T09:42:02Z</time>
      </trkpt>
      <trkpt lat="43.07633" lon="5.84358">
        <ele>84</ele>
        <time>2019-10-23T09:42:03Z</time>
      </trkpt>
      <trkpt lat="43.07628" lon="5.84356">
        <ele>83</ele>
        <time>2019-10-23T09:42:04Z</time>
      </trkpt>
      <trkpt lat="43.07624" lon="5.84354">
        <ele>83</ele>
        <time>2019-10-23T09:42:05Z</time>
      </trkpt>
      <trkpt lat="43.07621" lon="5.84351">
        <ele>82</ele>
        <time>2019-10-23T09:42:06Z</time>
      </trkpt>
      <trkpt lat="43.07619" lon="5.84346">
        <ele>81</ele>
        <time>2019-10-23T09:42:07Z</time>
      </trkpt>
      <trkpt lat="43.07619" lon="5.84339">
        <ele>80</ele>
        <time>2019-10-23T09:42:08Z</time>
      </trkpt>
      <trkpt lat="43.0762" lon="5.84331">
        <ele>80</ele>
        <time>2019-10-23T09:42:09Z</time>
      </trkpt>
      <trkpt lat="43.07622" lon="5.84324">
        <ele>79</ele>
        <time>2019-10-23T09:42:10Z</time>
      </trkpt>
      <trkpt lat="43.07625" lon="5.84318">
        <ele>79</ele>
        <time>2019-10-23T09:42:11Z</time>
      </trkpt>
      <trkpt lat="43.07629" lon="5.84312">
        <ele>78</ele>
        <time>2019-10-23T09:42:12Z</time>
      </trkpt>
      <trkpt lat="43.07633" lon="5.84306">
        <ele>78</ele>
        <time>2019-10-23T09:42:13Z</time>
      </trkpt>
      <trkpt lat="43.07638" lon="5.84299">
        <ele>78</ele>
        <time>2019-10-23T09:42:14Z</time>
      </trkpt>
      <trkpt lat="43.07642" lon="5.84291">
        <ele>77</ele>
        <time>2019-10-23T09:42:15Z</time>
      </trkpt>
      <trkpt lat="43.07645" lon="5.84283">
        <ele>76</ele>
        <time>2019-10-23T09:42:16Z</time>
      </trkpt>
      <trkpt lat="43.07649" lon="5.84274">
        <ele>76</ele>
        <time>2019-10-23T09:42:17Z</time>
      </trkpt>
      <trkpt lat="43.07654" lon="5.84267">
        <ele>75</ele>
        <time>2019-10-23T09:42:18Z</time>
      </trkpt>
      <trkpt lat="43.07659" lon="5.8426">
        <ele>74</ele>
        <time>2019-10-23T09:42:19Z</time>
      </trkpt>
      <trkpt lat="43.07667" lon="5.84256">
        <ele>73</ele>
        <time>2019-10-23T09:42:20Z</time>
      </trkpt>
      <trkpt lat="43.07675" lon="5.84252">
        <ele>73</ele>
        <time>2019-10-23T09:42:21Z</time>
      </trkpt>
      <trkpt lat="43.07682" lon="5.84248">
        <ele>72</ele>
        <time>2019-10-23T09:42:22Z</time>
      </trkpt>
      <trkpt lat="43.0769" lon="5.84244">
        <ele>72</ele>
        <time>2019-10-23T09:42:23Z</time>
      </trkpt>
      <trkpt lat="43.07696" lon="5.84239">
        <ele>71</ele>
        <time>2019-10-23T09:42:24Z</time>
      </trkpt>
      <trkpt lat="43.07702" lon="5.84232">
        <ele>71</ele>
        <time>2019-10-23T09:42:25Z</time>
      </trkpt>
      <trkpt lat="43.07707" lon="5.84224">
        <ele>70</ele>
        <time>2019-10-23T09:42:26Z</time>
      </trkpt>
      <trkpt lat="43.0771" lon="5.84216">
        <ele>70</ele>
        <time>2019-10-23T09:42:27Z</time>
      </trkpt>
      <trkpt lat="43.07712" lon="5.84206">
        <ele>70</ele>
        <time>2019-10-23T09:42:28Z</time>
      </trkpt>
      <trkpt lat="43.07714" lon="5.84197">
        <ele>69</ele>
        <time>2019-10-23T09:42:29Z</time>
      </trkpt>
      <trkpt lat="43.07716" lon="5.84188">
        <ele>69</ele>
        <time>2019-10-23T09:42:30Z</time>
      </trkpt>
      <trkpt lat="43.07719" lon="5.8418">
        <ele>69</ele>
        <time>2019-10-23T09:42:31Z</time>
      </trkpt>
      <trkpt lat="43.07721" lon="5.84172">
        <ele>69</ele>
        <time>2019-10-23T09:42:32Z</time>
      </trkpt>
      <trkpt lat="43.07723" lon="5.84166">
        <ele>69</ele>
        <time>2019-10-23T09:42:33Z</time>
      </trkpt>
      <trkpt lat="43.07724" lon="5.8416">
        <ele>69</ele>
        <time>2019-10-23T09:42:34Z</time>
      </trkpt>
      <trkpt lat="43.07725" lon="5.84154">
        <ele>69</ele>
        <time>2019-10-23T09:42:35Z</time>
      </trkpt>
      <trkpt lat="43.07726" lon="5.84148">
        <ele>69</ele>
        <time>2019-10-23T09:42:36Z</time>
      </trkpt>
      <trkpt lat="43.07726" lon="5.84142">
        <ele>69</ele>
        <time>2019-10-23T09:42:37Z</time>
      </trkpt>
      <trkpt lat="43.07726" lon="5.84137">
        <ele>69</ele>
        <time>2019-10-23T09:42:38Z</time>
      </trkpt>
      <trkpt lat="43.07726" lon="5.84132">
        <ele>69</ele>
        <time>2019-10-23T09:42:39Z</time>
      </trkpt>
      <trkpt lat="43.07727" lon="5.84126">
        <ele>68</ele>
        <time>2019-10-23T09:42:40Z</time>
      </trkpt>
      <trkpt lat="43.07726" lon="5.84121">
        <ele>68</ele>
        <time>2019-10-23T09:42:41Z</time>
      </trkpt>
      <trkpt lat="43.07726" lon="5.84114">
        <ele>68</ele>
        <time>2019-10-23T09:42:42Z</time>
      </trkpt>
      <trkpt lat="43.07726" lon="5.84109">
        <ele>68</ele>
        <time>2019-10-23T09:42:43Z</time>
      </trkpt>
      <trkpt lat="43.07725" lon="5.84102">
        <ele>68</ele>
        <time>2019-10-23T09:42:44Z</time>
      </trkpt>
      <trkpt lat="43.07725" lon="5.84095">
        <ele>68</ele>
        <time>2019-10-23T09:42:46Z</time>
      </trkpt>
      <trkpt lat="43.07726" lon="5.84089">
        <ele>68</ele>
        <time>2019-10-23T09:42:47Z</time>
      </trkpt>
      <trkpt lat="43.07728" lon="5.84083">
        <ele>68</ele>
        <time>2019-10-23T09:42:48Z</time>
      </trkpt>
      <trkpt lat="43.0773" lon="5.84077">
        <ele>68</ele>
        <time>2019-10-23T09:42:50Z</time>
      </trkpt>
      <trkpt lat="43.07733" lon="5.84072">
        <ele>68</ele>
        <time>2019-10-23T09:42:51Z</time>
      </trkpt>
      <trkpt lat="43.07735" lon="5.84067">
        <ele>68</ele>
        <time>2019-10-23T09:42:53Z</time>
      </trkpt>
      <trkpt lat="43.07739" lon="5.84062">
        <ele>68</ele>
        <time>2019-10-23T09:42:54Z</time>
      </trkpt>
      <trkpt lat="43.07743" lon="5.84056">
        <ele>68</ele>
        <time>2019-10-23T09:42:56Z</time>
      </trkpt>
      <trkpt lat="43.07746" lon="5.84049">
        <ele>68</ele>
        <time>2019-10-23T09:42:58Z</time>
      </trkpt>
      <trkpt lat="43.07749" lon="5.84041">
        <ele>67</ele>
        <time>2019-10-23T09:43:00Z</time>
      </trkpt>
      <trkpt lat="43.07752" lon="5.84035">
        <ele>67</ele>
        <time>2019-10-23T09:43:01Z</time>
      </trkpt>
      <trkpt lat="43.07755" lon="5.8403">
        <ele>67</ele>
        <time>2019-10-23T09:43:02Z</time>
      </trkpt>
      <trkpt lat="43.07758" lon="5.84025">
        <ele>67</ele>
        <time>2019-10-23T09:43:03Z</time>
      </trkpt>
      <trkpt lat="43.0776" lon="5.84019">
        <ele>67</ele>
        <time>2019-10-23T09:43:07Z</time>
      </trkpt>
      <trkpt lat="43.07762" lon="5.84014">
        <ele>67</ele>
        <time>2019-10-23T09:43:09Z</time>
      </trkpt>
      <trkpt lat="43.07764" lon="5.84009">
        <ele>67</ele>
        <time>2019-10-23T09:43:11Z</time>
      </trkpt>
      <trkpt lat="43.07766" lon="5.84005">
        <ele>67</ele>
        <time>2019-10-23T09:43:13Z</time>
      </trkpt>
      <trkpt lat="43.07769" lon="5.83999">
        <ele>67</ele>
        <time>2019-10-23T09:43:14Z</time>
      </trkpt>
      <trkpt lat="43.07771" lon="5.83993">
        <ele>67</ele>
        <time>2019-10-23T09:43:15Z</time>
      </trkpt>
      <trkpt lat="43.07774" lon="5.83987">
        <ele>67</ele>
        <time>2019-10-23T09:43:16Z</time>
      </trkpt>
      <trkpt lat="43.07776" lon="5.83981">
        <ele>66</ele>
        <time>2019-10-23T09:43:17Z</time>
      </trkpt>
      <trkpt lat="43.07778" lon="5.83975">
        <ele>66</ele>
        <time>2019-10-23T09:43:18Z</time>
      </trkpt>
      <trkpt lat="43.07781" lon="5.83969">
        <ele>66</ele>
        <time>2019-10-23T09:43:19Z</time>
      </trkpt>
      <trkpt lat="43.07783" lon="5.83963">
        <ele>66</ele>
        <time>2019-10-23T09:43:20Z</time>
      </trkpt>
      <trkpt lat="43.07786" lon="5.83956">
        <ele>66</ele>
        <time>2019-10-23T09:43:21Z</time>
      </trkpt>
      <trkpt lat="43.07789" lon="5.8395">
        <ele>66</ele>
        <time>2019-10-23T09:43:23Z</time>
      </trkpt>
      <trkpt lat="43.07792" lon="5.83943">
        <ele>66</ele>
        <time>2019-10-23T09:43:25Z</time>
      </trkpt>
      <trkpt lat="43.07794" lon="5.83938">
        <ele>66</ele>
        <time>2019-10-23T09:43:26Z</time>
      </trkpt>
      <trkpt lat="43.07797" lon="5.83933">
        <ele>65</ele>
        <time>2019-10-23T09:43:27Z</time>
      </trkpt>
      <trkpt lat="43.07799" lon="5.83927">
        <ele>65</ele>
        <time>2019-10-23T09:43:28Z</time>
      </trkpt>
      <trkpt lat="43.07802" lon="5.83921">
        <ele>65</ele>
        <time>2019-10-23T09:43:29Z</time>
      </trkpt>
      <trkpt lat="43.07804" lon="5.83916">
        <ele>66</ele>
        <time>2019-10-23T09:43:30Z</time>
      </trkpt>
      <trkpt lat="43.07806" lon="5.83913">
        <ele>66</ele>
        <time>2019-10-23T09:43:31Z</time>
      </trkpt>
      <trkpt lat="43.07808" lon="5.83908">
        <ele>67</ele>
        <time>2019-10-23T09:43:32Z</time>
      </trkpt>
      <trkpt lat="43.07809" lon="5.83904">
        <ele>67</ele>
        <time>2019-10-23T09:43:33Z</time>
      </trkpt>
      <trkpt lat="43.0781" lon="5.83898">
        <ele>67</ele>
        <time>2019-10-23T09:43:34Z</time>
      </trkpt>
      <trkpt lat="43.07811" lon="5.83894">
        <ele>67</ele>
        <time>2019-10-23T09:43:35Z</time>
      </trkpt>
      <trkpt lat="43.07813" lon="5.83888">
        <ele>67</ele>
        <time>2019-10-23T09:43:36Z</time>
      </trkpt>
      <trkpt lat="43.07814" lon="5.83882">
        <ele>68</ele>
        <time>2019-10-23T09:43:37Z</time>
      </trkpt>
      <trkpt lat="43.07816" lon="5.83875">
        <ele>68</ele>
        <time>2019-10-23T09:43:38Z</time>
      </trkpt>
      <trkpt lat="43.07817" lon="5.8387">
        <ele>69</ele>
        <time>2019-10-23T09:43:39Z</time>
      </trkpt>
      <trkpt lat="43.07818" lon="5.83865">
        <ele>69</ele>
        <time>2019-10-23T09:43:40Z</time>
      </trkpt>
      <trkpt lat="43.07819" lon="5.83861">
        <ele>69</ele>
        <time>2019-10-23T09:43:41Z</time>
      </trkpt>
      <trkpt lat="43.07823" lon="5.83851">
        <ele>70</ele>
        <time>2019-10-23T09:43:42Z</time>
      </trkpt>
      <trkpt lat="43.07825" lon="5.83845">
        <ele>71</ele>
        <time>2019-10-23T09:43:43Z</time>
      </trkpt>
      <trkpt lat="43.07827" lon="5.83838">
        <ele>71</ele>
        <time>2019-10-23T09:43:44Z</time>
      </trkpt>
      <trkpt lat="43.07828" lon="5.83831">
        <ele>72</ele>
        <time>2019-10-23T09:43:45Z</time>
      </trkpt>
      <trkpt lat="43.07829" lon="5.83827">
        <ele>72</ele>
        <time>2019-10-23T09:43:46Z</time>
      </trkpt>
      <trkpt lat="43.0783" lon="5.83822">
        <ele>73</ele>
        <time>2019-10-23T09:43:47Z</time>
      </trkpt>
      <trkpt lat="43.07831" lon="5.83818">
        <ele>73</ele>
        <time>2019-10-23T09:43:48Z</time>
      </trkpt>
      <trkpt lat="43.07832" lon="5.83815">
        <ele>73</ele>
        <time>2019-10-23T09:43:49Z</time>
      </trkpt>
      <trkpt lat="43.07833" lon="5.83811">
        <ele>73</ele>
        <time>2019-10-23T09:43:50Z</time>
      </trkpt>
      <trkpt lat="43.07835" lon="5.83808">
        <ele>74</ele>
        <time>2019-10-23T09:43:51Z</time>
      </trkpt>
      <trkpt lat="43.07836" lon="5.83804">
        <ele>74</ele>
        <time>2019-10-23T09:43:52Z</time>
      </trkpt>
      <trkpt lat="43.07836" lon="5.838">
        <ele>74</ele>
        <time>2019-10-23T09:43:53Z</time>
      </trkpt>
      <trkpt lat="43.07837" lon="5.83795">
        <ele>75</ele>
        <time>2019-10-23T09:43:54Z</time>
      </trkpt>
      <trkpt lat="43.07838" lon="5.83788">
        <ele>76</ele>
        <time>2019-10-23T09:43:55Z</time>
      </trkpt>
      <trkpt lat="43.07839" lon="5.83783">
        <ele>76</ele>
        <time>2019-10-23T09:43:56Z</time>
      </trkpt>
      <trkpt lat="43.07839" lon="5.83779">
        <ele>76</ele>
        <time>2019-10-23T09:43:57Z</time>
      </trkpt>
      <trkpt lat="43.0784" lon="5.83775">
        <ele>77</ele>
        <time>2019-10-23T09:43:58Z</time>
      </trkpt>
      <trkpt lat="43.0784" lon="5.83771">
        <ele>77</ele>
        <time>2019-10-23T09:43:59Z</time>
      </trkpt>
      <trkpt lat="43.07841" lon="5.83767">
        <ele>77</ele>
        <time>2019-10-23T09:44:00Z</time>
      </trkpt>
      <trkpt lat="43.07841" lon="5.83762">
        <ele>77</ele>
        <time>2019-10-23T09:44:01Z</time>
      </trkpt>
      <trkpt lat="43.0784" lon="5.83758">
        <ele>77</ele>
        <time>2019-10-23T09:44:02Z</time>
      </trkpt>
      <trkpt lat="43.07839" lon="5.83753">
        <ele>77</ele>
        <time>2019-10-23T09:44:03Z</time>
      </trkpt>
      <trkpt lat="43.07837" lon="5.83747">
        <ele>77</ele>
        <time>2019-10-23T09:44:04Z</time>
      </trkpt>
      <trkpt lat="43.07834" lon="5.83741">
        <ele>77</ele>
        <time>2019-10-23T09:44:05Z</time>
      </trkpt>
      <trkpt lat="43.07832" lon="5.83734">
        <ele>77</ele>
        <time>2019-10-23T09:44:06Z</time>
      </trkpt>
      <trkpt lat="43.0783" lon="5.83726">
        <ele>77</ele>
        <time>2019-10-23T09:44:07Z</time>
      </trkpt>
      <trkpt lat="43.07828" lon="5.83717">
        <ele>76</ele>
        <time>2019-10-23T09:44:08Z</time>
      </trkpt>
      <trkpt lat="43.07827" lon="5.83708">
        <ele>76</ele>
        <time>2019-10-23T09:44:09Z</time>
      </trkpt>
      <trkpt lat="43.07826" lon="5.83698">
        <ele>76</ele>
        <time>2019-10-23T09:44:10Z</time>
      </trkpt>
      <trkpt lat="43.07826" lon="5.83688">
        <ele>75</ele>
        <time>2019-10-23T09:44:11Z</time>
      </trkpt>
      <trkpt lat="43.07825" lon="5.83678">
        <ele>75</ele>
        <time>2019-10-23T09:44:12Z</time>
      </trkpt>
      <trkpt lat="43.07823" lon="5.83669">
        <ele>75</ele>
        <time>2019-10-23T09:44:13Z</time>
      </trkpt>
      <trkpt lat="43.07821" lon="5.83662">
        <ele>74</ele>
        <time>2019-10-23T09:44:14Z</time>
      </trkpt>
      <trkpt lat="43.07818" lon="5.83656">
        <ele>74</ele>
        <time>2019-10-23T09:44:15Z</time>
      </trkpt>
      <trkpt lat="43.07813" lon="5.83651">
        <ele>73</ele>
        <time>2019-10-23T09:44:16Z</time>
      </trkpt>
      <trkpt lat="43.07807" lon="5.83647">
        <ele>73</ele>
        <time>2019-10-23T09:44:17Z</time>
      </trkpt>
      <trkpt lat="43.07801" lon="5.83645">
        <ele>72</ele>
        <time>2019-10-23T09:44:18Z</time>
      </trkpt>
      <trkpt lat="43.07795" lon="5.83644">
        <ele>71</ele>
        <time>2019-10-23T09:44:19Z</time>
      </trkpt>
      <trkpt lat="43.07788" lon="5.83644">
        <ele>71</ele>
        <time>2019-10-23T09:44:20Z</time>
      </trkpt>
      <trkpt lat="43.07781" lon="5.83643">
        <ele>71</ele>
        <time>2019-10-23T09:44:21Z</time>
      </trkpt>
      <trkpt lat="43.07773" lon="5.8364">
        <ele>70</ele>
        <time>2019-10-23T09:44:22Z</time>
      </trkpt>
      <trkpt lat="43.07767" lon="5.83636">
        <ele>70</ele>
        <time>2019-10-23T09:44:23Z</time>
      </trkpt>
      <trkpt lat="43.07761" lon="5.83631">
        <ele>69</ele>
        <time>2019-10-23T09:44:24Z</time>
      </trkpt>
      <trkpt lat="43.07757" lon="5.83626">
        <ele>69</ele>
        <time>2019-10-23T09:44:25Z</time>
      </trkpt>
      <trkpt lat="43.07753" lon="5.83621">
        <ele>68</ele>
        <time>2019-10-23T09:44:26Z</time>
      </trkpt>
      <trkpt lat="43.07749" lon="5.83616">
        <ele>68</ele>
        <time>2019-10-23T09:44:27Z</time>
      </trkpt>
      <trkpt lat="43.07744" lon="5.8361">
        <ele>67</ele>
        <time>2019-10-23T09:44:28Z</time>
      </trkpt>
      <trkpt lat="43.07739" lon="5.83604">
        <ele>67</ele>
        <time>2019-10-23T09:44:29Z</time>
      </trkpt>
      <trkpt lat="43.07735" lon="5.83597">
        <ele>66</ele>
        <time>2019-10-23T09:44:30Z</time>
      </trkpt>
      <trkpt lat="43.0773" lon="5.83589">
        <ele>66</ele>
        <time>2019-10-23T09:44:31Z</time>
      </trkpt>
      <trkpt lat="43.07723" lon="5.83581">
        <ele>65</ele>
        <time>2019-10-23T09:44:32Z</time>
      </trkpt>
      <trkpt lat="43.07718" lon="5.83573">
        <ele>65</ele>
        <time>2019-10-23T09:44:33Z</time>
      </trkpt>
      <trkpt lat="43.07714" lon="5.83565">
        <ele>64</ele>
        <time>2019-10-23T09:44:34Z</time>
      </trkpt>
      <trkpt lat="43.07709" lon="5.83558">
        <ele>64</ele>
        <time>2019-10-23T09:44:35Z</time>
      </trkpt>
      <trkpt lat="43.07705" lon="5.8355">
        <ele>63</ele>
        <time>2019-10-23T09:44:36Z</time>
      </trkpt>
      <trkpt lat="43.07703" lon="5.83543">
        <ele>62</ele>
        <time>2019-10-23T09:44:37Z</time>
      </trkpt>
      <trkpt lat="43.07701" lon="5.83535">
        <ele>61</ele>
        <time>2019-10-23T09:44:39Z</time>
      </trkpt>
      <trkpt lat="43.077" lon="5.83526">
        <ele>60</ele>
        <time>2019-10-23T09:44:40Z</time>
      </trkpt>
      <trkpt lat="43.077" lon="5.83517">
        <ele>59</ele>
        <time>2019-10-23T09:44:41Z</time>
      </trkpt>
      <trkpt lat="43.07701" lon="5.83509">
        <ele>59</ele>
        <time>2019-10-23T09:44:42Z</time>
      </trkpt>
      <trkpt lat="43.07702" lon="5.835">
        <ele>58</ele>
        <time>2019-10-23T09:44:43Z</time>
      </trkpt>
      <trkpt lat="43.07702" lon="5.83492">
        <ele>58</ele>
        <time>2019-10-23T09:44:44Z</time>
      </trkpt>
      <trkpt lat="43.07703" lon="5.83485">
        <ele>57</ele>
        <time>2019-10-23T09:44:46Z</time>
      </trkpt>
      <trkpt lat="43.07704" lon="5.83478">
        <ele>57</ele>
        <time>2019-10-23T09:44:47Z</time>
      </trkpt>
      <trkpt lat="43.07706" lon="5.83473">
        <ele>56</ele>
        <time>2019-10-23T09:44:49Z</time>
      </trkpt>
      <trkpt lat="43.07708" lon="5.83467">
        <ele>56</ele>
        <time>2019-10-23T09:44:50Z</time>
      </trkpt>
      <trkpt lat="43.07711" lon="5.83464">
        <ele>56</ele>
        <time>2019-10-23T09:44:51Z</time>
      </trkpt>
      <trkpt lat="43.07713" lon="5.8346">
        <ele>57</ele>
        <time>2019-10-23T09:44:52Z</time>
      </trkpt>
      <trkpt lat="43.07715" lon="5.83456">
        <ele>57</ele>
        <time>2019-10-23T09:44:54Z</time>
      </trkpt>
      <trkpt lat="43.07718" lon="5.83454">
        <ele>58</ele>
        <time>2019-10-23T09:44:56Z</time>
      </trkpt>
      <trkpt lat="43.07721" lon="5.83452">
        <ele>58</ele>
        <time>2019-10-23T09:44:58Z</time>
      </trkpt>
      <trkpt lat="43.07725" lon="5.83449">
        <ele>58</ele>
        <time>2019-10-23T09:44:59Z</time>
      </trkpt>
      <trkpt lat="43.07728" lon="5.83447">
        <ele>58</ele>
        <time>2019-10-23T09:45:00Z</time>
      </trkpt>
      <trkpt lat="43.07731" lon="5.83445">
        <ele>58</ele>
        <time>2019-10-23T09:45:01Z</time>
      </trkpt>
      <trkpt lat="43.07733" lon="5.83442">
        <ele>58</ele>
        <time>2019-10-23T09:45:03Z</time>
      </trkpt>
      <trkpt lat="43.07736" lon="5.8344">
        <ele>59</ele>
        <time>2019-10-23T09:45:04Z</time>
      </trkpt>
      <trkpt lat="43.07739" lon="5.83437">
        <ele>59</ele>
        <time>2019-10-23T09:45:05Z</time>
      </trkpt>
      <trkpt lat="43.07741" lon="5.83434">
        <ele>59</ele>
        <time>2019-10-23T09:45:06Z</time>
      </trkpt>
      <trkpt lat="43.07743" lon="5.83431">
        <ele>59</ele>
        <time>2019-10-23T09:45:07Z</time>
      </trkpt>
      <trkpt lat="43.07745" lon="5.83428">
        <ele>59</ele>
        <time>2019-10-23T09:45:08Z</time>
      </trkpt>
      <trkpt lat="43.07747" lon="5.83425">
        <ele>59</ele>
        <time>2019-10-23T09:45:09Z</time>
      </trkpt>
      <trkpt lat="43.07749" lon="5.83422">
        <ele>60</ele>
        <time>2019-10-23T09:45:10Z</time>
      </trkpt>
      <trkpt lat="43.07751" lon="5.83419">
        <ele>60</ele>
        <time>2019-10-23T09:45:11Z</time>
      </trkpt>
      <trkpt lat="43.07753" lon="5.83416">
        <ele>60</ele>
        <time>2019-10-23T09:45:12Z</time>
      </trkpt>
      <trkpt lat="43.07754" lon="5.83412">
        <ele>60</ele>
        <time>2019-10-23T09:45:13Z</time>
      </trkpt>
      <trkpt lat="43.07756" lon="5.83409">
        <ele>61</ele>
        <time>2019-10-23T09:45:14Z</time>
      </trkpt>
      <trkpt lat="43.07757" lon="5.83403">
        <ele>61</ele>
        <time>2019-10-23T09:45:15Z</time>
      </trkpt>
      <trkpt lat="43.07758" lon="5.83399">
        <ele>62</ele>
        <time>2019-10-23T09:45:16Z</time>
      </trkpt>
      <trkpt lat="43.07759" lon="5.83395">
        <ele>62</ele>
        <time>2019-10-23T09:45:17Z</time>
      </trkpt>
      <trkpt lat="43.0776" lon="5.83392">
        <ele>62</ele>
        <time>2019-10-23T09:45:18Z</time>
      </trkpt>
      <trkpt lat="43.0776" lon="5.83388">
        <ele>63</ele>
        <time>2019-10-23T09:45:19Z</time>
      </trkpt>
      <trkpt lat="43.07761" lon="5.83384">
        <ele>63</ele>
        <time>2019-10-23T09:45:20Z</time>
      </trkpt>
      <trkpt lat="43.07761" lon="5.83378">
        <ele>64</ele>
        <time>2019-10-23T09:45:21Z</time>
      </trkpt>
      <trkpt lat="43.07762" lon="5.83373">
        <ele>64</ele>
        <time>2019-10-23T09:45:22Z</time>
      </trkpt>
      <trkpt lat="43.07763" lon="5.83367">
        <ele>65</ele>
        <time>2019-10-23T09:45:23Z</time>
      </trkpt>
      <trkpt lat="43.07764" lon="5.83363">
        <ele>65</ele>
        <time>2019-10-23T09:45:24Z</time>
      </trkpt>
      <trkpt lat="43.07765" lon="5.83359">
        <ele>66</ele>
        <time>2019-10-23T09:45:25Z</time>
      </trkpt>
      <trkpt lat="43.07766" lon="5.83355">
        <ele>66</ele>
        <time>2019-10-23T09:45:26Z</time>
      </trkpt>
      <trkpt lat="43.07768" lon="5.83349">
        <ele>66</ele>
        <time>2019-10-23T09:45:27Z</time>
      </trkpt>
      <trkpt lat="43.07769" lon="5.83343">
        <ele>67</ele>
        <time>2019-10-23T09:45:28Z</time>
      </trkpt>
      <trkpt lat="43.07771" lon="5.83337">
        <ele>67</ele>
        <time>2019-10-23T09:45:29Z</time>
      </trkpt>
      <trkpt lat="43.07773" lon="5.83333">
        <ele>68</ele>
        <time>2019-10-23T09:45:30Z</time>
      </trkpt>
      <trkpt lat="43.07775" lon="5.83329">
        <ele>68</ele>
        <time>2019-10-23T09:45:31Z</time>
      </trkpt>
      <trkpt lat="43.07777" lon="5.83326">
        <ele>68</ele>
        <time>2019-10-23T09:45:32Z</time>
      </trkpt>
      <trkpt lat="43.0778" lon="5.83321">
        <ele>69</ele>
        <time>2019-10-23T09:45:33Z</time>
      </trkpt>
      <trkpt lat="43.07781" lon="5.83317">
        <ele>69</ele>
        <time>2019-10-23T09:45:34Z</time>
      </trkpt>
      <trkpt lat="43.07782" lon="5.83313">
        <ele>69</ele>
        <time>2019-10-23T09:45:35Z</time>
      </trkpt>
      <trkpt lat="43.07783" lon="5.83309">
        <ele>69</ele>
        <time>2019-10-23T09:45:36Z</time>
      </trkpt>
      <trkpt lat="43.07783" lon="5.83305">
        <ele>70</ele>
        <time>2019-10-23T09:45:37Z</time>
      </trkpt>
      <trkpt lat="43.07784" lon="5.83301">
        <ele>70</ele>
        <time>2019-10-23T09:45:38Z</time>
      </trkpt>
      <trkpt lat="43.07784" lon="5.83297">
        <ele>70</ele>
        <time>2019-10-23T09:45:39Z</time>
      </trkpt>
      <trkpt lat="43.07785" lon="5.83292">
        <ele>70</ele>
        <time>2019-10-23T09:45:40Z</time>
      </trkpt>
      <trkpt lat="43.07785" lon="5.83288">
        <ele>71</ele>
        <time>2019-10-23T09:45:41Z</time>
      </trkpt>
      <trkpt lat="43.07786" lon="5.83283">
        <ele>71</ele>
        <time>2019-10-23T09:45:42Z</time>
      </trkpt>
      <trkpt lat="43.07786" lon="5.83279">
        <ele>71</ele>
        <time>2019-10-23T09:45:43Z</time>
      </trkpt>
      <trkpt lat="43.07785" lon="5.83274">
        <ele>71</ele>
        <time>2019-10-23T09:45:44Z</time>
      </trkpt>
      <trkpt lat="43.07784" lon="5.83269">
        <ele>71</ele>
        <time>2019-10-23T09:45:45Z</time>
      </trkpt>
      <trkpt lat="43.07783" lon="5.83264">
        <ele>71</ele>
        <time>2019-10-23T09:45:46Z</time>
      </trkpt>
      <trkpt lat="43.07781" lon="5.83259">
        <ele>71</ele>
        <time>2019-10-23T09:45:47Z</time>
      </trkpt>
      <trkpt lat="43.07779" lon="5.83254">
        <ele>71</ele>
        <time>2019-10-23T09:45:48Z</time>
      </trkpt>
      <trkpt lat="43.07776" lon="5.8325">
        <ele>71</ele>
        <time>2019-10-23T09:45:49Z</time>
      </trkpt>
      <trkpt lat="43.07772" lon="5.83245">
        <ele>71</ele>
        <time>2019-10-23T09:45:50Z</time>
      </trkpt>
      <trkpt lat="43.07769" lon="5.8324">
        <ele>70</ele>
        <time>2019-10-23T09:45:51Z</time>
      </trkpt>
      <trkpt lat="43.07764" lon="5.83234">
        <ele>70</ele>
        <time>2019-10-23T09:45:52Z</time>
      </trkpt>
      <trkpt lat="43.0776" lon="5.83228">
        <ele>70</ele>
        <time>2019-10-23T09:45:53Z</time>
      </trkpt>
      <trkpt lat="43.07755" lon="5.83222">
        <ele>69</ele>
        <time>2019-10-23T09:45:54Z</time>
      </trkpt>
      <trkpt lat="43.07748" lon="5.83215">
        <ele>69</ele>
        <time>2019-10-23T09:45:55Z</time>
      </trkpt>
      <trkpt lat="43.07743" lon="5.83207">
        <ele>69</ele>
        <time>2019-10-23T09:45:56Z</time>
      </trkpt>
      <trkpt lat="43.07738" lon="5.83201">
        <ele>68</ele>
        <time>2019-10-23T09:45:57Z</time>
      </trkpt>
      <trkpt lat="43.07733" lon="5.83195">
        <ele>67</ele>
        <time>2019-10-23T09:45:58Z</time>
      </trkpt>
      <trkpt lat="43.07728" lon="5.83188">
        <ele>67</ele>
        <time>2019-10-23T09:45:59Z</time>
      </trkpt>
      <trkpt lat="43.07724" lon="5.83182">
        <ele>66</ele>
        <time>2019-10-23T09:46:00Z</time>
      </trkpt>
      <trkpt lat="43.07718" lon="5.83175">
        <ele>65</ele>
        <time>2019-10-23T09:46:01Z</time>
      </trkpt>
      <trkpt lat="43.07714" lon="5.83169">
        <ele>64</ele>
        <time>2019-10-23T09:46:02Z</time>
      </trkpt>
      <trkpt lat="43.07709" lon="5.83162">
        <ele>63</ele>
        <time>2019-10-23T09:46:03Z</time>
      </trkpt>
      <trkpt lat="43.07704" lon="5.83155">
        <ele>63</ele>
        <time>2019-10-23T09:46:04Z</time>
      </trkpt>
      <trkpt lat="43.07699" lon="5.8315">
        <ele>62</ele>
        <time>2019-10-23T09:46:05Z</time>
      </trkpt>
      <trkpt lat="43.07694" lon="5.83144">
        <ele>62</ele>
        <time>2019-10-23T09:46:06Z</time>
      </trkpt>
      <trkpt lat="43.0769" lon="5.83139">
        <ele>61</ele>
        <time>2019-10-23T09:46:07Z</time>
      </trkpt>
      <trkpt lat="43.07686" lon="5.83134">
        <ele>61</ele>
        <time>2019-10-23T09:46:08Z</time>
      </trkpt>
      <trkpt lat="43.07682" lon="5.8313">
        <ele>61</ele>
        <time>2019-10-23T09:46:09Z</time>
      </trkpt>
      <trkpt lat="43.07678" lon="5.83128">
        <ele>61</ele>
        <time>2019-10-23T09:46:10Z</time>
      </trkpt>
      <trkpt lat="43.07675" lon="5.83125">
        <ele>60</ele>
        <time>2019-10-23T09:46:11Z</time>
      </trkpt>
      <trkpt lat="43.07671" lon="5.83123">
        <ele>60</ele>
        <time>2019-10-23T09:46:12Z</time>
      </trkpt>
      <trkpt lat="43.07667" lon="5.83121">
        <ele>60</ele>
        <time>2019-10-23T09:46:13Z</time>
      </trkpt>
      <trkpt lat="43.07662" lon="5.83118">
        <ele>59</ele>
        <time>2019-10-23T09:46:14Z</time>
      </trkpt>
      <trkpt lat="43.07658" lon="5.83114">
        <ele>59</ele>
        <time>2019-10-23T09:46:15Z</time>
      </trkpt>
      <trkpt lat="43.07653" lon="5.8311">
        <ele>59</ele>
        <time>2019-10-23T09:46:16Z</time>
      </trkpt>
      <trkpt lat="43.07648" lon="5.83107">
        <ele>58</ele>
        <time>2019-10-23T09:46:17Z</time>
      </trkpt>
      <trkpt lat="43.07643" lon="5.83105">
        <ele>58</ele>
        <time>2019-10-23T09:46:18Z</time>
      </trkpt>
      <trkpt lat="43.07638" lon="5.83102">
        <ele>58</ele>
        <time>2019-10-23T09:46:19Z</time>
      </trkpt>
      <trkpt lat="43.07633" lon="5.83099">
        <ele>58</ele>
        <time>2019-10-23T09:46:20Z</time>
      </trkpt>
      <trkpt lat="43.07629" lon="5.83097">
        <ele>58</ele>
        <time>2019-10-23T09:46:21Z</time>
      </trkpt>
      <trkpt lat="43.07625" lon="5.83095">
        <ele>58</ele>
        <time>2019-10-23T09:46:22Z</time>
      </trkpt>
      <trkpt lat="43.07621" lon="5.83094">
        <ele>58</ele>
        <time>2019-10-23T09:46:23Z</time>
      </trkpt>
      <trkpt lat="43.07617" lon="5.83091">
        <ele>58</ele>
        <time>2019-10-23T09:46:24Z</time>
      </trkpt>
      <trkpt lat="43.07613" lon="5.83088">
        <ele>58</ele>
        <time>2019-10-23T09:46:25Z</time>
      </trkpt>
      <trkpt lat="43.07609" lon="5.83085">
        <ele>58</ele>
        <time>2019-10-23T09:46:26Z</time>
      </trkpt>
      <trkpt lat="43.07604" lon="5.83081">
        <ele>58</ele>
        <time>2019-10-23T09:46:27Z</time>
      </trkpt>
      <trkpt lat="43.076" lon="5.83079">
        <ele>58</ele>
        <time>2019-10-23T09:46:28Z</time>
      </trkpt>
      <trkpt lat="43.07596" lon="5.83076">
        <ele>59</ele>
        <time>2019-10-23T09:46:29Z</time>
      </trkpt>
      <trkpt lat="43.07592" lon="5.83073">
        <ele>59</ele>
        <time>2019-10-23T09:46:30Z</time>
      </trkpt>
      <trkpt lat="43.07588" lon="5.8307">
        <ele>59</ele>
        <time>2019-10-23T09:46:31Z</time>
      </trkpt>
      <trkpt lat="43.07584" lon="5.83067">
        <ele>59</ele>
        <time>2019-10-23T09:46:32Z</time>
      </trkpt>
      <trkpt lat="43.0758" lon="5.83064">
        <ele>59</ele>
        <time>2019-10-23T09:46:33Z</time>
      </trkpt>
      <trkpt lat="43.07576" lon="5.83062">
        <ele>59</ele>
        <time>2019-10-23T09:46:34Z</time>
      </trkpt>
      <trkpt lat="43.07572" lon="5.83059">
        <ele>59</ele>
        <time>2019-10-23T09:46:35Z</time>
      </trkpt>
      <trkpt lat="43.07568" lon="5.83056">
        <ele>59</ele>
        <time>2019-10-23T09:46:36Z</time>
      </trkpt>
      <trkpt lat="43.07564" lon="5.83053">
        <ele>59</ele>
        <time>2019-10-23T09:46:37Z</time>
      </trkpt>
      <trkpt lat="43.0756" lon="5.8305">
        <ele>59</ele>
        <time>2019-10-23T09:46:38Z</time>
      </trkpt>
      <trkpt lat="43.07556" lon="5.83046">
        <ele>59</ele>
        <time>2019-10-23T09:46:39Z</time>
      </trkpt>
      <trkpt lat="43.07552" lon="5.83044">
        <ele>59</ele>
        <time>2019-10-23T09:46:40Z</time>
      </trkpt>
      <trkpt lat="43.07548" lon="5.83041">
        <ele>60</ele>
        <time>2019-10-23T09:46:41Z</time>
      </trkpt>
      <trkpt lat="43.07543" lon="5.83037">
        <ele>60</ele>
        <time>2019-10-23T09:46:42Z</time>
      </trkpt>
      <trkpt lat="43.07538" lon="5.83034">
        <ele>60</ele>
        <time>2019-10-23T09:46:43Z</time>
      </trkpt>
      <trkpt lat="43.07534" lon="5.8303">
        <ele>60</ele>
        <time>2019-10-23T09:46:44Z</time>
      </trkpt>
      <trkpt lat="43.07529" lon="5.83026">
        <ele>60</ele>
        <time>2019-10-23T09:46:45Z</time>
      </trkpt>
      <trkpt lat="43.07524" lon="5.83023">
        <ele>60</ele>
        <time>2019-10-23T09:46:46Z</time>
      </trkpt>
      <trkpt lat="43.07519" lon="5.83019">
        <ele>60</ele>
        <time>2019-10-23T09:46:47Z</time>
      </trkpt>
      <trkpt lat="43.07513" lon="5.83016">
        <ele>60</ele>
        <time>2019-10-23T09:46:48Z</time>
      </trkpt>
      <trkpt lat="43.07507" lon="5.83013">
        <ele>59</ele>
        <time>2019-10-23T09:46:49Z</time>
      </trkpt>
      <trkpt lat="43.07501" lon="5.8301">
        <ele>59</ele>
        <time>2019-10-23T09:46:50Z</time>
      </trkpt>
      <trkpt lat="43.07494" lon="5.83007">
        <ele>59</ele>
        <time>2019-10-23T09:46:51Z</time>
      </trkpt>
      <trkpt lat="43.07488" lon="5.83006">
        <ele>59</ele>
        <time>2019-10-23T09:46:52Z</time>
      </trkpt>
      <trkpt lat="43.07482" lon="5.83005">
        <ele>58</ele>
        <time>2019-10-23T09:46:53Z</time>
      </trkpt>
      <trkpt lat="43.07476" lon="5.83006">
        <ele>58</ele>
        <time>2019-10-23T09:46:54Z</time>
      </trkpt>
      <trkpt lat="43.07471" lon="5.83008">
        <ele>58</ele>
        <time>2019-10-23T09:46:55Z</time>
      </trkpt>
      <trkpt lat="43.07466" lon="5.83009">
        <ele>58</ele>
        <time>2019-10-23T09:46:56Z</time>
      </trkpt>
      <trkpt lat="43.07462" lon="5.83011">
        <ele>58</ele>
        <time>2019-10-23T09:46:57Z</time>
      </trkpt>
      <trkpt lat="43.07458" lon="5.83014">
        <ele>58</ele>
        <time>2019-10-23T09:46:58Z</time>
      </trkpt>
      <trkpt lat="43.07454" lon="5.83016">
        <ele>58</ele>
        <time>2019-10-23T09:46:59Z</time>
      </trkpt>
      <trkpt lat="43.0745" lon="5.83019">
        <ele>59</ele>
        <time>2019-10-23T09:47:00Z</time>
      </trkpt>
      <trkpt lat="43.07447" lon="5.83021">
        <ele>59</ele>
        <time>2019-10-23T09:47:01Z</time>
      </trkpt>
      <trkpt lat="43.07443" lon="5.83024">
        <ele>59</ele>
        <time>2019-10-23T09:47:03Z</time>
      </trkpt>
      <trkpt lat="43.0744" lon="5.83027">
        <ele>60</ele>
        <time>2019-10-23T09:47:04Z</time>
      </trkpt>
      <trkpt lat="43.07437" lon="5.8303">
        <ele>60</ele>
        <time>2019-10-23T09:47:05Z</time>
      </trkpt>
      <trkpt lat="43.07434" lon="5.83031">
        <ele>60</ele>
        <time>2019-10-23T09:47:06Z</time>
      </trkpt>
      <trkpt lat="43.0743" lon="5.83033">
        <ele>60</ele>
        <time>2019-10-23T09:47:07Z</time>
      </trkpt>
      <trkpt lat="43.07427" lon="5.83035">
        <ele>60</ele>
        <time>2019-10-23T09:47:08Z</time>
      </trkpt>
      <trkpt lat="43.07423" lon="5.83037">
        <ele>60</ele>
        <time>2019-10-23T09:47:09Z</time>
      </trkpt>
      <trkpt lat="43.0742" lon="5.83038">
        <ele>60</ele>
        <time>2019-10-23T09:47:10Z</time>
      </trkpt>
      <trkpt lat="43.07416" lon="5.83039">
        <ele>60</ele>
        <time>2019-10-23T09:47:11Z</time>
      </trkpt>
      <trkpt lat="43.07413" lon="5.8304">
        <ele>61</ele>
        <time>2019-10-23T09:47:12Z</time>
      </trkpt>
      <trkpt lat="43.07409" lon="5.83041">
        <ele>61</ele>
        <time>2019-10-23T09:47:13Z</time>
      </trkpt>
      <trkpt lat="43.07406" lon="5.83043">
        <ele>61</ele>
        <time>2019-10-23T09:47:14Z</time>
      </trkpt>
      <trkpt lat="43.07403" lon="5.83044">
        <ele>61</ele>
        <time>2019-10-23T09:47:15Z</time>
      </trkpt>
      <trkpt lat="43.07399" lon="5.83045">
        <ele>61</ele>
        <time>2019-10-23T09:47:16Z</time>
      </trkpt>
      <trkpt lat="43.07396" lon="5.83046">
        <ele>62</ele>
        <time>2019-10-23T09:47:17Z</time>
      </trkpt>
      <trkpt lat="43.07392" lon="5.83048">
        <ele>62</ele>
        <time>2019-10-23T09:47:18Z</time>
      </trkpt>
      <trkpt lat="43.07388" lon="5.83049">
        <ele>62</ele>
        <time>2019-10-23T09:47:19Z</time>
      </trkpt>
      <trkpt lat="43.07385" lon="5.83051">
        <ele>62</ele>
        <time>2019-10-23T09:47:20Z</time>
      </trkpt>
      <trkpt lat="43.07381" lon="5.83052">
        <ele>62</ele>
        <time>2019-10-23T09:47:21Z</time>
      </trkpt>
      <trkpt lat="43.07378" lon="5.83052">
        <ele>62</ele>
        <time>2019-10-23T09:47:22Z</time>
      </trkpt>
      <trkpt lat="43.07375" lon="5.83053">
        <ele>62</ele>
        <time>2019-10-23T09:47:24Z</time>
      </trkpt>
      <trkpt lat="43.07372" lon="5.83053">
        <ele>63</ele>
        <time>2019-10-23T09:47:25Z</time>
      </trkpt>
      <trkpt lat="43.07368" lon="5.83053">
        <ele>63</ele>
        <time>2019-10-23T09:47:26Z</time>
      </trkpt>
      <trkpt lat="43.07365" lon="5.83053">
        <ele>63</ele>
        <time>2019-10-23T09:47:27Z</time>
      </trkpt>
      <trkpt lat="43.07362" lon="5.83052">
        <ele>63</ele>
        <time>2019-10-23T09:47:28Z</time>
      </trkpt>
      <trkpt lat="43.07358" lon="5.83052">
        <ele>64</ele>
        <time>2019-10-23T09:47:29Z</time>
      </trkpt>
      <trkpt lat="43.07355" lon="5.83053">
        <ele>64</ele>
        <time>2019-10-23T09:47:30Z</time>
      </trkpt>
      <trkpt lat="43.07352" lon="5.83054">
        <ele>64</ele>
        <time>2019-10-23T09:47:31Z</time>
      </trkpt>
      <trkpt lat="43.07349" lon="5.83056">
        <ele>64</ele>
        <time>2019-10-23T09:47:32Z</time>
      </trkpt>
      <trkpt lat="43.07346" lon="5.83057">
        <ele>65</ele>
        <time>2019-10-23T09:47:33Z</time>
      </trkpt>
      <trkpt lat="43.07342" lon="5.83059">
        <ele>65</ele>
        <time>2019-10-23T09:47:34Z</time>
      </trkpt>
      <trkpt lat="43.07339" lon="5.83061">
        <ele>66</ele>
        <time>2019-10-23T09:47:35Z</time>
      </trkpt>
      <trkpt lat="43.07336" lon="5.83063">
        <ele>66</ele>
        <time>2019-10-23T09:47:36Z</time>
      </trkpt>
      <trkpt lat="43.07333" lon="5.83065">
        <ele>66</ele>
        <time>2019-10-23T09:47:37Z</time>
      </trkpt>
      <trkpt lat="43.0733" lon="5.83067">
        <ele>66</ele>
        <time>2019-10-23T09:47:38Z</time>
      </trkpt>
      <trkpt lat="43.07328" lon="5.83069">
        <ele>66</ele>
        <time>2019-10-23T09:47:39Z</time>
      </trkpt>
      <trkpt lat="43.07325" lon="5.83071">
        <ele>67</ele>
        <time>2019-10-23T09:47:41Z</time>
      </trkpt>
      <trkpt lat="43.07322" lon="5.83073">
        <ele>67</ele>
        <time>2019-10-23T09:47:42Z</time>
      </trkpt>
      <trkpt lat="43.0732" lon="5.83075">
        <ele>67</ele>
        <time>2019-10-23T09:47:43Z</time>
      </trkpt>
      <trkpt lat="43.07317" lon="5.83077">
        <ele>67</ele>
        <time>2019-10-23T09:47:45Z</time>
      </trkpt>
      <trkpt lat="43.07314" lon="5.83079">
        <ele>68</ele>
        <time>2019-10-23T09:47:47Z</time>
      </trkpt>
      <trkpt lat="43.07312" lon="5.83082">
        <ele>68</ele>
        <time>2019-10-23T09:47:49Z</time>
      </trkpt>
      <trkpt lat="43.07309" lon="5.83084">
        <ele>68</ele>
        <time>2019-10-23T09:47:51Z</time>
      </trkpt>
      <trkpt lat="43.07306" lon="5.83086">
        <ele>68</ele>
        <time>2019-10-23T09:47:52Z</time>
      </trkpt>
      <trkpt lat="43.07303" lon="5.83088">
        <ele>68</ele>
        <time>2019-10-23T09:47:53Z</time>
      </trkpt>
      <trkpt lat="43.07301" lon="5.8309">
        <ele>68</ele>
        <time>2019-10-23T09:47:54Z</time>
      </trkpt>
      <trkpt lat="43.07298" lon="5.83093">
        <ele>69</ele>
        <time>2019-10-23T09:47:55Z</time>
      </trkpt>
      <trkpt lat="43.07295" lon="5.83095">
        <ele>69</ele>
        <time>2019-10-23T09:47:57Z</time>
      </trkpt>
      <trkpt lat="43.07293" lon="5.83098">
        <ele>69</ele>
        <time>2019-10-23T09:47:59Z</time>
      </trkpt>
      <trkpt lat="43.07291" lon="5.83101">
        <ele>69</ele>
        <time>2019-10-23T09:48:00Z</time>
      </trkpt>
      <trkpt lat="43.07287" lon="5.83104">
        <ele>69</ele>
        <time>2019-10-23T09:48:01Z</time>
      </trkpt>
      <trkpt lat="43.07283" lon="5.83106">
        <ele>69</ele>
        <time>2019-10-23T09:48:02Z</time>
      </trkpt>
      <trkpt lat="43.0728" lon="5.83108">
        <ele>70</ele>
        <time>2019-10-23T09:48:03Z</time>
      </trkpt>
      <trkpt lat="43.07277" lon="5.83109">
        <ele>70</ele>
        <time>2019-10-23T09:48:04Z</time>
      </trkpt>
      <trkpt lat="43.07274" lon="5.83111">
        <ele>70</ele>
        <time>2019-10-23T09:48:05Z</time>
      </trkpt>
      <trkpt lat="43.07271" lon="5.83112">
        <ele>70</ele>
        <time>2019-10-23T09:48:08Z</time>
      </trkpt>
      <trkpt lat="43.07268" lon="5.83114">
        <ele>70</ele>
        <time>2019-10-23T09:48:10Z</time>
      </trkpt>
      <trkpt lat="43.07265" lon="5.83115">
        <ele>70</ele>
        <time>2019-10-23T09:48:12Z</time>
      </trkpt>
      <trkpt lat="43.07262" lon="5.83116">
        <ele>70</ele>
        <time>2019-10-23T09:48:14Z</time>
      </trkpt>
      <trkpt lat="43.07259" lon="5.83117">
        <ele>70</ele>
        <time>2019-10-23T09:48:15Z</time>
      </trkpt>
      <trkpt lat="43.07255" lon="5.83118">
        <ele>71</ele>
        <time>2019-10-23T09:48:16Z</time>
      </trkpt>
      <trkpt lat="43.07252" lon="5.83119">
        <ele>71</ele>
        <time>2019-10-23T09:48:17Z</time>
      </trkpt>
      <trkpt lat="43.07249" lon="5.8312">
        <ele>71</ele>
        <time>2019-10-23T09:48:18Z</time>
      </trkpt>
      <trkpt lat="43.07246" lon="5.83121">
        <ele>71</ele>
        <time>2019-10-23T09:48:19Z</time>
      </trkpt>
      <trkpt lat="43.07243" lon="5.83122">
        <ele>71</ele>
        <time>2019-10-23T09:48:21Z</time>
      </trkpt>
      <trkpt lat="43.0724" lon="5.83123">
        <ele>72</ele>
        <time>2019-10-23T09:48:22Z</time>
      </trkpt>
      <trkpt lat="43.07236" lon="5.83124">
        <ele>72</ele>
        <time>2019-10-23T09:48:24Z</time>
      </trkpt>
      <trkpt lat="43.07233" lon="5.83125">
        <ele>72</ele>
        <time>2019-10-23T09:48:26Z</time>
      </trkpt>
      <trkpt lat="43.0723" lon="5.83126">
        <ele>73</ele>
        <time>2019-10-23T09:48:27Z</time>
      </trkpt>
      <trkpt lat="43.07226" lon="5.83128">
        <ele>73</ele>
        <time>2019-10-23T09:48:29Z</time>
      </trkpt>
      <trkpt lat="43.07221" lon="5.8313">
        <ele>74</ele>
        <time>2019-10-23T09:48:30Z</time>
      </trkpt>
      <trkpt lat="43.07217" lon="5.83132">
        <ele>75</ele>
        <time>2019-10-23T09:48:31Z</time>
      </trkpt>
      <trkpt lat="43.07212" lon="5.83134">
        <ele>75</ele>
        <time>2019-10-23T09:48:32Z</time>
      </trkpt>
      <trkpt lat="43.07208" lon="5.83135">
        <ele>75</ele>
        <time>2019-10-23T09:48:33Z</time>
      </trkpt>
      <trkpt lat="43.07205" lon="5.83136">
        <ele>76</ele>
        <time>2019-10-23T09:48:35Z</time>
      </trkpt>
      <trkpt lat="43.07202" lon="5.83137">
        <ele>76</ele>
        <time>2019-10-23T09:48:37Z</time>
      </trkpt>
      <trkpt lat="43.07199" lon="5.83138">
        <ele>76</ele>
        <time>2019-10-23T09:48:39Z</time>
      </trkpt>
      <trkpt lat="43.07195" lon="5.83139">
        <ele>77</ele>
        <time>2019-10-23T09:48:41Z</time>
      </trkpt>
      <trkpt lat="43.0719" lon="5.8314">
        <ele>77</ele>
        <time>2019-10-23T09:48:43Z</time>
      </trkpt>
      <trkpt lat="43.07187" lon="5.8314">
        <ele>77</ele>
        <time>2019-10-23T09:48:45Z</time>
      </trkpt>
      <trkpt lat="43.07183" lon="5.83139">
        <ele>78</ele>
        <time>2019-10-23T09:48:47Z</time>
      </trkpt>
      <trkpt lat="43.0718" lon="5.83139">
        <ele>78</ele>
        <time>2019-10-23T09:48:49Z</time>
      </trkpt>
      <trkpt lat="43.07177" lon="5.83138">
        <ele>78</ele>
        <time>2019-10-23T09:48:51Z</time>
      </trkpt>
      <trkpt lat="43.07174" lon="5.83137">
        <ele>78</ele>
        <time>2019-10-23T09:48:53Z</time>
      </trkpt>
      <trkpt lat="43.07171" lon="5.83136">
        <ele>79</ele>
        <time>2019-10-23T09:48:55Z</time>
      </trkpt>
      <trkpt lat="43.07164" lon="5.83134">
        <ele>79</ele>
        <time>2019-10-23T09:48:56Z</time>
      </trkpt>
      <trkpt lat="43.07159" lon="5.83133">
        <ele>79</ele>
        <time>2019-10-23T09:48:58Z</time>
      </trkpt>
      <trkpt lat="43.07155" lon="5.83132">
        <ele>80</ele>
        <time>2019-10-23T09:48:59Z</time>
      </trkpt>
      <trkpt lat="43.07149" lon="5.83132">
        <ele>80</ele>
        <time>2019-10-23T09:49:01Z</time>
      </trkpt>
      <trkpt lat="43.07146" lon="5.83131">
        <ele>81</ele>
        <time>2019-10-23T09:49:02Z</time>
      </trkpt>
      <trkpt lat="43.07142" lon="5.83132">
        <ele>81</ele>
        <time>2019-10-23T09:49:03Z</time>
      </trkpt>
      <trkpt lat="43.07139" lon="5.83132">
        <ele>81</ele>
        <time>2019-10-23T09:49:04Z</time>
      </trkpt>
      <trkpt lat="43.07136" lon="5.83132">
        <ele>82</ele>
        <time>2019-10-23T09:49:05Z</time>
      </trkpt>
      <trkpt lat="43.07133" lon="5.83133">
        <ele>82</ele>
        <time>2019-10-23T09:49:06Z</time>
      </trkpt>
      <trkpt lat="43.07129" lon="5.83133">
        <ele>83</ele>
        <time>2019-10-23T09:49:07Z</time>
      </trkpt>
      <trkpt lat="43.07125" lon="5.83134">
        <ele>83</ele>
        <time>2019-10-23T09:49:08Z</time>
      </trkpt>
      <trkpt lat="43.07121" lon="5.83135">
        <ele>83</ele>
        <time>2019-10-23T09:49:09Z</time>
      </trkpt>
      <trkpt lat="43.07116" lon="5.83135">
        <ele>83</ele>
        <time>2019-10-23T09:49:10Z</time>
      </trkpt>
      <trkpt lat="43.07112" lon="5.83136">
        <ele>84</ele>
        <time>2019-10-23T09:49:11Z</time>
      </trkpt>
      <trkpt lat="43.07108" lon="5.83137">
        <ele>84</ele>
        <time>2019-10-23T09:49:12Z</time>
      </trkpt>
      <trkpt lat="43.07104" lon="5.83138">
        <ele>84</ele>
        <time>2019-10-23T09:49:13Z</time>
      </trkpt>
      <trkpt lat="43.07101" lon="5.83139">
        <ele>84</ele>
        <time>2019-10-23T09:49:14Z</time>
      </trkpt>
      <trkpt lat="43.07098" lon="5.8314">
        <ele>84</ele>
        <time>2019-10-23T09:49:15Z</time>
      </trkpt>
      <trkpt lat="43.07095" lon="5.83141">
        <ele>85</ele>
        <time>2019-10-23T09:49:16Z</time>
      </trkpt>
      <trkpt lat="43.07091" lon="5.83141">
        <ele>85</ele>
        <time>2019-10-23T09:49:17Z</time>
      </trkpt>
      <trkpt lat="43.07087" lon="5.83143">
        <ele>86</ele>
        <time>2019-10-23T09:49:18Z</time>
      </trkpt>
      <trkpt lat="43.07082" lon="5.83143">
        <ele>86</ele>
        <time>2019-10-23T09:49:19Z</time>
      </trkpt>
      <trkpt lat="43.07078" lon="5.83144">
        <ele>87</ele>
        <time>2019-10-23T09:49:20Z</time>
      </trkpt>
      <trkpt lat="43.07074" lon="5.83144">
        <ele>88</ele>
        <time>2019-10-23T09:49:21Z</time>
      </trkpt>
      <trkpt lat="43.07069" lon="5.83143">
        <ele>88</ele>
        <time>2019-10-23T09:49:22Z</time>
      </trkpt>
      <trkpt lat="43.07065" lon="5.83141">
        <ele>89</ele>
        <time>2019-10-23T09:49:23Z</time>
      </trkpt>
      <trkpt lat="43.07061" lon="5.8314">
        <ele>90</ele>
        <time>2019-10-23T09:49:24Z</time>
      </trkpt>
      <trkpt lat="43.07058" lon="5.83138">
        <ele>90</ele>
        <time>2019-10-23T09:49:25Z</time>
      </trkpt>
      <trkpt lat="43.07054" lon="5.83136">
        <ele>91</ele>
        <time>2019-10-23T09:49:26Z</time>
      </trkpt>
      <trkpt lat="43.07049" lon="5.83134">
        <ele>91</ele>
        <time>2019-10-23T09:49:27Z</time>
      </trkpt>
      <trkpt lat="43.07046" lon="5.83133">
        <ele>91</ele>
        <time>2019-10-23T09:49:28Z</time>
      </trkpt>
      <trkpt lat="43.07042" lon="5.83132">
        <ele>91</ele>
        <time>2019-10-23T09:49:29Z</time>
      </trkpt>
      <trkpt lat="43.07038" lon="5.83133">
        <ele>91</ele>
        <time>2019-10-23T09:49:30Z</time>
      </trkpt>
      <trkpt lat="43.07034" lon="5.83135">
        <ele>91</ele>
        <time>2019-10-23T09:49:31Z</time>
      </trkpt>
      <trkpt lat="43.07031" lon="5.83136">
        <ele>91</ele>
        <time>2019-10-23T09:49:32Z</time>
      </trkpt>
      <trkpt lat="43.07028" lon="5.83137">
        <ele>91</ele>
        <time>2019-10-23T09:49:33Z</time>
      </trkpt>
      <trkpt lat="43.07024" lon="5.83138">
        <ele>91</ele>
        <time>2019-10-23T09:49:34Z</time>
      </trkpt>
      <trkpt lat="43.07021" lon="5.83139">
        <ele>91</ele>
        <time>2019-10-23T09:49:35Z</time>
      </trkpt>
      <trkpt lat="43.07018" lon="5.83141">
        <ele>91</ele>
        <time>2019-10-23T09:49:36Z</time>
      </trkpt>
      <trkpt lat="43.07014" lon="5.83142">
        <ele>91</ele>
        <time>2019-10-23T09:49:37Z</time>
      </trkpt>
      <trkpt lat="43.07011" lon="5.83144">
        <ele>91</ele>
        <time>2019-10-23T09:49:38Z</time>
      </trkpt>
      <trkpt lat="43.07008" lon="5.83145">
        <ele>92</ele>
        <time>2019-10-23T09:49:39Z</time>
      </trkpt>
      <trkpt lat="43.07004" lon="5.83145">
        <ele>92</ele>
        <time>2019-10-23T09:49:40Z</time>
      </trkpt>
      <trkpt lat="43.07001" lon="5.83146">
        <ele>92</ele>
        <time>2019-10-23T09:49:41Z</time>
      </trkpt>
      <trkpt lat="43.06997" lon="5.83147">
        <ele>92</ele>
        <time>2019-10-23T09:49:42Z</time>
      </trkpt>
      <trkpt lat="43.06993" lon="5.83147">
        <ele>92</ele>
        <time>2019-10-23T09:49:43Z</time>
      </trkpt>
      <trkpt lat="43.0699" lon="5.83149">
        <ele>92</ele>
        <time>2019-10-23T09:49:44Z</time>
      </trkpt>
      <trkpt lat="43.06986" lon="5.8315">
        <ele>93</ele>
        <time>2019-10-23T09:49:45Z</time>
      </trkpt>
      <trkpt lat="43.06982" lon="5.83152">
        <ele>93</ele>
        <time>2019-10-23T09:49:46Z</time>
      </trkpt>
      <trkpt lat="43.06979" lon="5.83154">
        <ele>93</ele>
        <time>2019-10-23T09:49:47Z</time>
      </trkpt>
      <trkpt lat="43.06975" lon="5.83155">
        <ele>93</ele>
        <time>2019-10-23T09:49:48Z</time>
      </trkpt>
      <trkpt lat="43.06971" lon="5.83157">
        <ele>93</ele>
        <time>2019-10-23T09:49:49Z</time>
      </trkpt>
      <trkpt lat="43.06968" lon="5.83158">
        <ele>93</ele>
        <time>2019-10-23T09:49:50Z</time>
      </trkpt>
      <trkpt lat="43.06965" lon="5.83159">
        <ele>93</ele>
        <time>2019-10-23T09:49:51Z</time>
      </trkpt>
      <trkpt lat="43.06961" lon="5.8316">
        <ele>93</ele>
        <time>2019-10-23T09:49:52Z</time>
      </trkpt>
      <trkpt lat="43.06958" lon="5.83161">
        <ele>93</ele>
        <time>2019-10-23T09:49:53Z</time>
      </trkpt>
      <trkpt lat="43.06954" lon="5.83163">
        <ele>93</ele>
        <time>2019-10-23T09:49:54Z</time>
      </trkpt>
      <trkpt lat="43.06951" lon="5.83165">
        <ele>93</ele>
        <time>2019-10-23T09:49:55Z</time>
      </trkpt>
      <trkpt lat="43.06947" lon="5.83167">
        <ele>93</ele>
        <time>2019-10-23T09:49:56Z</time>
      </trkpt>
      <trkpt lat="43.06944" lon="5.83169">
        <ele>93</ele>
        <time>2019-10-23T09:49:57Z</time>
      </trkpt>
      <trkpt lat="43.06941" lon="5.83172">
        <ele>93</ele>
        <time>2019-10-23T09:49:58Z</time>
      </trkpt>
      <trkpt lat="43.06938" lon="5.83175">
        <ele>93</ele>
        <time>2019-10-23T09:50:00Z</time>
      </trkpt>
      <trkpt lat="43.06936" lon="5.83178">
        <ele>94</ele>
        <time>2019-10-23T09:50:01Z</time>
      </trkpt>
      <trkpt lat="43.06933" lon="5.83181">
        <ele>94</ele>
        <time>2019-10-23T09:50:02Z</time>
      </trkpt>
      <trkpt lat="43.06931" lon="5.83185">
        <ele>94</ele>
        <time>2019-10-23T09:50:03Z</time>
      </trkpt>
      <trkpt lat="43.06928" lon="5.83189">
        <ele>94</ele>
        <time>2019-10-23T09:50:05Z</time>
      </trkpt>
      <trkpt lat="43.06926" lon="5.83193">
        <ele>94</ele>
        <time>2019-10-23T09:50:06Z</time>
      </trkpt>
      <trkpt lat="43.06923" lon="5.83197">
        <ele>94</ele>
        <time>2019-10-23T09:50:07Z</time>
      </trkpt>
      <trkpt lat="43.06921" lon="5.83202">
        <ele>94</ele>
        <time>2019-10-23T09:50:08Z</time>
      </trkpt>
      <trkpt lat="43.06919" lon="5.83206">
        <ele>95</ele>
        <time>2019-10-23T09:50:09Z</time>
      </trkpt>
      <trkpt lat="43.06916" lon="5.83211">
        <ele>95</ele>
        <time>2019-10-23T09:50:11Z</time>
      </trkpt>
      <trkpt lat="43.06913" lon="5.83215">
        <ele>95</ele>
        <time>2019-10-23T09:50:13Z</time>
      </trkpt>
      <trkpt lat="43.06911" lon="5.8322">
        <ele>95</ele>
        <time>2019-10-23T09:50:15Z</time>
      </trkpt>
      <trkpt lat="43.06908" lon="5.83224">
        <ele>95</ele>
        <time>2019-10-23T09:50:17Z</time>
      </trkpt>
      <trkpt lat="43.06906" lon="5.83229">
        <ele>95</ele>
        <time>2019-10-23T09:50:19Z</time>
      </trkpt>
      <trkpt lat="43.06904" lon="5.83233">
        <ele>95</ele>
        <time>2019-10-23T09:50:21Z</time>
      </trkpt>
      <trkpt lat="43.06901" lon="5.83238">
        <ele>95</ele>
        <time>2019-10-23T09:50:22Z</time>
      </trkpt>
      <trkpt lat="43.06899" lon="5.83242">
        <ele>95</ele>
        <time>2019-10-23T09:50:24Z</time>
      </trkpt>
      <trkpt lat="43.06897" lon="5.83246">
        <ele>95</ele>
        <time>2019-10-23T09:50:26Z</time>
      </trkpt>
      <trkpt lat="43.06895" lon="5.83251">
        <ele>95</ele>
        <time>2019-10-23T09:50:28Z</time>
      </trkpt>
      <trkpt lat="43.06894" lon="5.83256">
        <ele>95</ele>
        <time>2019-10-23T09:50:30Z</time>
      </trkpt>
      <trkpt lat="43.06893" lon="5.83261">
        <ele>95</ele>
        <time>2019-10-23T09:50:32Z</time>
      </trkpt>
      <trkpt lat="43.06892" lon="5.83266">
        <ele>95</ele>
        <time>2019-10-23T09:50:34Z</time>
      </trkpt>
      <trkpt lat="43.06892" lon="5.83271">
        <ele>95</ele>
        <time>2019-10-23T09:50:35Z</time>
      </trkpt>
      <trkpt lat="43.06891" lon="5.83276">
        <ele>95</ele>
        <time>2019-10-23T09:50:36Z</time>
      </trkpt>
      <trkpt lat="43.06891" lon="5.83281">
        <ele>95</ele>
        <time>2019-10-23T09:50:37Z</time>
      </trkpt>
      <trkpt lat="43.06892" lon="5.83286">
        <ele>95</ele>
        <time>2019-10-23T09:50:38Z</time>
      </trkpt>
      <trkpt lat="43.06892" lon="5.83291">
        <ele>96</ele>
        <time>2019-10-23T09:50:40Z</time>
      </trkpt>
      <trkpt lat="43.06891" lon="5.83296">
        <ele>96</ele>
        <time>2019-10-23T09:50:41Z</time>
      </trkpt>
      <trkpt lat="43.06891" lon="5.833">
        <ele>96</ele>
        <time>2019-10-23T09:50:43Z</time>
      </trkpt>
      <trkpt lat="43.06889" lon="5.83304">
        <ele>96</ele>
        <time>2019-10-23T09:50:44Z</time>
      </trkpt>
      <trkpt lat="43.06887" lon="5.83307">
        <ele>96</ele>
        <time>2019-10-23T09:50:45Z</time>
      </trkpt>
      <trkpt lat="43.06884" lon="5.83307">
        <ele>97</ele>
        <time>2019-10-23T09:50:46Z</time>
      </trkpt>
      <trkpt lat="43.06881" lon="5.83306">
        <ele>97</ele>
        <time>2019-10-23T09:50:47Z</time>
      </trkpt>
      <trkpt lat="43.06878" lon="5.83304">
        <ele>97</ele>
        <time>2019-10-23T09:50:48Z</time>
      </trkpt>
      <trkpt lat="43.06875" lon="5.833">
        <ele>98</ele>
        <time>2019-10-23T09:50:50Z</time>
      </trkpt>
      <trkpt lat="43.06872" lon="5.83296">
        <ele>98</ele>
        <time>2019-10-23T09:50:51Z</time>
      </trkpt>
      <trkpt lat="43.0687" lon="5.83293">
        <ele>98</ele>
        <time>2019-10-23T09:50:52Z</time>
      </trkpt>
      <trkpt lat="43.06867" lon="5.8329">
        <ele>98</ele>
        <time>2019-10-23T09:50:53Z</time>
      </trkpt>
      <trkpt lat="43.06865" lon="5.83288">
        <ele>98</ele>
        <time>2019-10-23T09:50:54Z</time>
      </trkpt>
      <trkpt lat="43.06861" lon="5.83285">
        <ele>99</ele>
        <time>2019-10-23T09:50:55Z</time>
      </trkpt>
      <trkpt lat="43.06857" lon="5.83282">
        <ele>99</ele>
        <time>2019-10-23T09:50:56Z</time>
      </trkpt>
      <trkpt lat="43.06853" lon="5.83279">
        <ele>99</ele>
        <time>2019-10-23T09:50:57Z</time>
      </trkpt>
      <trkpt lat="43.06848" lon="5.83277">
        <ele>100</ele>
        <time>2019-10-23T09:50:58Z</time>
      </trkpt>
      <trkpt lat="43.06843" lon="5.83276">
        <ele>100</ele>
        <time>2019-10-23T09:50:59Z</time>
      </trkpt>
      <trkpt lat="43.06838" lon="5.83277">
        <ele>101</ele>
        <time>2019-10-23T09:51:00Z</time>
      </trkpt>
      <trkpt lat="43.06834" lon="5.83278">
        <ele>102</ele>
        <time>2019-10-23T09:51:01Z</time>
      </trkpt>
      <trkpt lat="43.0683" lon="5.8328">
        <ele>103</ele>
        <time>2019-10-23T09:51:02Z</time>
      </trkpt>
      <trkpt lat="43.06826" lon="5.83283">
        <ele>104</ele>
        <time>2019-10-23T09:51:03Z</time>
      </trkpt>
      <trkpt lat="43.06823" lon="5.83287">
        <ele>104</ele>
        <time>2019-10-23T09:51:04Z</time>
      </trkpt>
      <trkpt lat="43.06819" lon="5.83292">
        <ele>105</ele>
        <time>2019-10-23T09:51:05Z</time>
      </trkpt>
      <trkpt lat="43.06815" lon="5.83296">
        <ele>106</ele>
        <time>2019-10-23T09:51:06Z</time>
      </trkpt>
      <trkpt lat="43.06811" lon="5.833">
        <ele>107</ele>
        <time>2019-10-23T09:51:07Z</time>
      </trkpt>
      <trkpt lat="43.06809" lon="5.83304">
        <ele>108</ele>
        <time>2019-10-23T09:51:09Z</time>
      </trkpt>
      <trkpt lat="43.06806" lon="5.83306">
        <ele>108</ele>
        <time>2019-10-23T09:51:10Z</time>
      </trkpt>
      <trkpt lat="43.06804" lon="5.83309">
        <ele>108</ele>
        <time>2019-10-23T09:51:11Z</time>
      </trkpt>
      <trkpt lat="43.06802" lon="5.83312">
        <ele>108</ele>
        <time>2019-10-23T09:51:12Z</time>
      </trkpt>
      <trkpt lat="43.06799" lon="5.83316">
        <ele>109</ele>
        <time>2019-10-23T09:51:13Z</time>
      </trkpt>
      <trkpt lat="43.06797" lon="5.8332">
        <ele>109</ele>
        <time>2019-10-23T09:51:14Z</time>
      </trkpt>
      <trkpt lat="43.06794" lon="5.83325">
        <ele>109</ele>
        <time>2019-10-23T09:51:15Z</time>
      </trkpt>
      <trkpt lat="43.06792" lon="5.83329">
        <ele>109</ele>
        <time>2019-10-23T09:51:16Z</time>
      </trkpt>
      <trkpt lat="43.0679" lon="5.83332">
        <ele>109</ele>
        <time>2019-10-23T09:51:17Z</time>
      </trkpt>
      <trkpt lat="43.06788" lon="5.83335">
        <ele>109</ele>
        <time>2019-10-23T09:51:18Z</time>
      </trkpt>
      <trkpt lat="43.06785" lon="5.83339">
        <ele>109</ele>
        <time>2019-10-23T09:51:19Z</time>
      </trkpt>
      <trkpt lat="43.06783" lon="5.83342">
        <ele>109</ele>
        <time>2019-10-23T09:51:20Z</time>
      </trkpt>
      <trkpt lat="43.0678" lon="5.83345">
        <ele>109</ele>
        <time>2019-10-23T09:51:21Z</time>
      </trkpt>
      <trkpt lat="43.06777" lon="5.83349">
        <ele>109</ele>
        <time>2019-10-23T09:51:22Z</time>
      </trkpt>
      <trkpt lat="43.06774" lon="5.83353">
        <ele>109</ele>
        <time>2019-10-23T09:51:23Z</time>
      </trkpt>
      <trkpt lat="43.06771" lon="5.83356">
        <ele>109</ele>
        <time>2019-10-23T09:51:24Z</time>
      </trkpt>
      <trkpt lat="43.06768" lon="5.83361">
        <ele>109</ele>
        <time>2019-10-23T09:51:25Z</time>
      </trkpt>
      <trkpt lat="43.06765" lon="5.83365">
        <ele>109</ele>
        <time>2019-10-23T09:51:26Z</time>
      </trkpt>
      <trkpt lat="43.06761" lon="5.83369">
        <ele>109</ele>
        <time>2019-10-23T09:51:27Z</time>
      </trkpt>
      <trkpt lat="43.06758" lon="5.83374">
        <ele>109</ele>
        <time>2019-10-23T09:51:28Z</time>
      </trkpt>
      <trkpt lat="43.06755" lon="5.83379">
        <ele>109</ele>
        <time>2019-10-23T09:51:29Z</time>
      </trkpt>
      <trkpt lat="43.06752" lon="5.83383">
        <ele>109</ele>
        <time>2019-10-23T09:51:30Z</time>
      </trkpt>
      <trkpt lat="43.06747" lon="5.83388">
        <ele>109</ele>
        <time>2019-10-23T09:51:31Z</time>
      </trkpt>
      <trkpt lat="43.06743" lon="5.83393">
        <ele>109</ele>
        <time>2019-10-23T09:51:32Z</time>
      </trkpt>
      <trkpt lat="43.06738" lon="5.83397">
        <ele>109</ele>
        <time>2019-10-23T09:51:33Z</time>
      </trkpt>
      <trkpt lat="43.06733" lon="5.834">
        <ele>109</ele>
        <time>2019-10-23T09:51:34Z</time>
      </trkpt>
      <trkpt lat="43.06728" lon="5.83401">
        <ele>108</ele>
        <time>2019-10-23T09:51:35Z</time>
      </trkpt>
      <trkpt lat="43.06723" lon="5.834">
        <ele>108</ele>
        <time>2019-10-23T09:51:36Z</time>
      </trkpt>
      <trkpt lat="43.06719" lon="5.834">
        <ele>108</ele>
        <time>2019-10-23T09:51:37Z</time>
      </trkpt>
      <trkpt lat="43.06715" lon="5.83398">
        <ele>108</ele>
        <time>2019-10-23T09:51:38Z</time>
      </trkpt>
      <trkpt lat="43.06711" lon="5.83394">
        <ele>108</ele>
        <time>2019-10-23T09:51:39Z</time>
      </trkpt>
      <trkpt lat="43.06708" lon="5.83391">
        <ele>108</ele>
        <time>2019-10-23T09:51:40Z</time>
      </trkpt>
      <trkpt lat="43.06706" lon="5.83388">
        <ele>107</ele>
        <time>2019-10-23T09:51:41Z</time>
      </trkpt>
      <trkpt lat="43.06704" lon="5.83384">
        <ele>107</ele>
        <time>2019-10-23T09:51:42Z</time>
      </trkpt>
      <trkpt lat="43.06701" lon="5.83381">
        <ele>106</ele>
        <time>2019-10-23T09:51:43Z</time>
      </trkpt>
      <trkpt lat="43.06699" lon="5.83378">
        <ele>106</ele>
        <time>2019-10-23T09:51:44Z</time>
      </trkpt>
      <trkpt lat="43.06696" lon="5.83375">
        <ele>106</ele>
        <time>2019-10-23T09:51:45Z</time>
      </trkpt>
      <trkpt lat="43.06693" lon="5.83373">
        <ele>106</ele>
        <time>2019-10-23T09:51:46Z</time>
      </trkpt>
      <trkpt lat="43.06689" lon="5.83372">
        <ele>106</ele>
        <time>2019-10-23T09:51:47Z</time>
      </trkpt>
      <trkpt lat="43.06685" lon="5.83371">
        <ele>106</ele>
        <time>2019-10-23T09:51:48Z</time>
      </trkpt>
      <trkpt lat="43.0668" lon="5.8337">
        <ele>106</ele>
        <time>2019-10-23T09:51:49Z</time>
      </trkpt>
      <trkpt lat="43.06675" lon="5.83371">
        <ele>106</ele>
        <time>2019-10-23T09:51:50Z</time>
      </trkpt>
      <trkpt lat="43.0667" lon="5.83374">
        <ele>105</ele>
        <time>2019-10-23T09:51:51Z</time>
      </trkpt>
      <trkpt lat="43.06665" lon="5.83377">
        <ele>105</ele>
        <time>2019-10-23T09:51:52Z</time>
      </trkpt>
      <trkpt lat="43.06659" lon="5.8338">
        <ele>105</ele>
        <time>2019-10-23T09:51:53Z</time>
      </trkpt>
      <trkpt lat="43.06654" lon="5.83384">
        <ele>105</ele>
        <time>2019-10-23T09:51:54Z</time>
      </trkpt>
      <trkpt lat="43.06649" lon="5.83389">
        <ele>105</ele>
        <time>2019-10-23T09:51:55Z</time>
      </trkpt>
      <trkpt lat="43.06645" lon="5.83396">
        <ele>105</ele>
        <time>2019-10-23T09:51:56Z</time>
      </trkpt>
      <trkpt lat="43.06641" lon="5.83402">
        <ele>105</ele>
        <time>2019-10-23T09:51:57Z</time>
      </trkpt>
      <trkpt lat="43.06637" lon="5.83409">
        <ele>105</ele>
        <time>2019-10-23T09:51:58Z</time>
      </trkpt>
      <trkpt lat="43.06633" lon="5.83415">
        <ele>105</ele>
        <time>2019-10-23T09:51:59Z</time>
      </trkpt>
      <trkpt lat="43.0663" lon="5.83421">
        <ele>105</ele>
        <time>2019-10-23T09:52:00Z</time>
      </trkpt>
      <trkpt lat="43.06626" lon="5.83427">
        <ele>105</ele>
        <time>2019-10-23T09:52:01Z</time>
      </trkpt>
      <trkpt lat="43.06624" lon="5.83434">
        <ele>105</ele>
        <time>2019-10-23T09:52:02Z</time>
      </trkpt>
      <trkpt lat="43.0662" lon="5.8344">
        <ele>105</ele>
        <time>2019-10-23T09:52:03Z</time>
      </trkpt>
      <trkpt lat="43.06617" lon="5.83444">
        <ele>105</ele>
        <time>2019-10-23T09:52:04Z</time>
      </trkpt>
      <trkpt lat="43.06613" lon="5.83445">
        <ele>104</ele>
        <time>2019-10-23T09:52:05Z</time>
      </trkpt>
      <trkpt lat="43.06609" lon="5.83442">
        <ele>104</ele>
        <time>2019-10-23T09:52:06Z</time>
      </trkpt>
      <trkpt lat="43.06607" lon="5.83438">
        <ele>104</ele>
        <time>2019-10-23T09:52:07Z</time>
      </trkpt>
      <trkpt lat="43.06605" lon="5.83433">
        <ele>104</ele>
        <time>2019-10-23T09:52:08Z</time>
      </trkpt>
      <trkpt lat="43.06604" lon="5.83427">
        <ele>104</ele>
        <time>2019-10-23T09:52:09Z</time>
      </trkpt>
      <trkpt lat="43.06602" lon="5.8342">
        <ele>104</ele>
        <time>2019-10-23T09:52:10Z</time>
      </trkpt>
      <trkpt lat="43.06601" lon="5.83414">
        <ele>104</ele>
        <time>2019-10-23T09:52:11Z</time>
      </trkpt>
      <trkpt lat="43.06601" lon="5.83407">
        <ele>105</ele>
        <time>2019-10-23T09:52:12Z</time>
      </trkpt>
      <trkpt lat="43.066" lon="5.83402">
        <ele>105</ele>
        <time>2019-10-23T09:52:13Z</time>
      </trkpt>
      <trkpt lat="43.066" lon="5.83397">
        <ele>105</ele>
        <time>2019-10-23T09:52:14Z</time>
      </trkpt>
      <trkpt lat="43.06599" lon="5.83392">
        <ele>105</ele>
        <time>2019-10-23T09:52:15Z</time>
      </trkpt>
      <trkpt lat="43.06599" lon="5.83387">
        <ele>105</ele>
        <time>2019-10-23T09:52:16Z</time>
      </trkpt>
      <trkpt lat="43.06598" lon="5.83383">
        <ele>105</ele>
        <time>2019-10-23T09:52:17Z</time>
      </trkpt>
      <trkpt lat="43.06597" lon="5.83378">
        <ele>105</ele>
        <time>2019-10-23T09:52:18Z</time>
      </trkpt>
      <trkpt lat="43.06596" lon="5.83373">
        <ele>105</ele>
        <time>2019-10-23T09:52:19Z</time>
      </trkpt>
      <trkpt lat="43.06594" lon="5.83367">
        <ele>105</ele>
        <time>2019-10-23T09:52:20Z</time>
      </trkpt>
      <trkpt lat="43.06591" lon="5.83361">
        <ele>105</ele>
        <time>2019-10-23T09:52:21Z</time>
      </trkpt>
      <trkpt lat="43.06588" lon="5.83356">
        <ele>105</ele>
        <time>2019-10-23T09:52:22Z</time>
      </trkpt>
      <trkpt lat="43.06586" lon="5.8335">
        <ele>105</ele>
        <time>2019-10-23T09:52:23Z</time>
      </trkpt>
      <trkpt lat="43.06584" lon="5.83344">
        <ele>105</ele>
        <time>2019-10-23T09:52:24Z</time>
      </trkpt>
      <trkpt lat="43.06582" lon="5.83339">
        <ele>104</ele>
        <time>2019-10-23T09:52:25Z</time>
      </trkpt>
      <trkpt lat="43.06581" lon="5.83333">
        <ele>104</ele>
        <time>2019-10-23T09:52:26Z</time>
      </trkpt>
      <trkpt lat="43.06579" lon="5.83328">
        <ele>103</ele>
        <time>2019-10-23T09:52:27Z</time>
      </trkpt>
      <trkpt lat="43.06577" lon="5.83323">
        <ele>103</ele>
        <time>2019-10-23T09:52:28Z</time>
      </trkpt>
      <trkpt lat="43.06575" lon="5.83318">
        <ele>103</ele>
        <time>2019-10-23T09:52:29Z</time>
      </trkpt>
      <trkpt lat="43.06573" lon="5.83313">
        <ele>103</ele>
        <time>2019-10-23T09:52:30Z</time>
      </trkpt>
      <trkpt lat="43.0657" lon="5.8331">
        <ele>103</ele>
        <time>2019-10-23T09:52:31Z</time>
      </trkpt>
      <trkpt lat="43.06567" lon="5.83307">
        <ele>103</ele>
        <time>2019-10-23T09:52:32Z</time>
      </trkpt>
      <trkpt lat="43.06563" lon="5.83306">
        <ele>103</ele>
        <time>2019-10-23T09:52:33Z</time>
      </trkpt>
      <trkpt lat="43.06559" lon="5.83305">
        <ele>103</ele>
        <time>2019-10-23T09:52:34Z</time>
      </trkpt>
      <trkpt lat="43.06555" lon="5.83306">
        <ele>103</ele>
        <time>2019-10-23T09:52:35Z</time>
      </trkpt>
      <trkpt lat="43.06551" lon="5.83307">
        <ele>103</ele>
        <time>2019-10-23T09:52:36Z</time>
      </trkpt>
      <trkpt lat="43.06546" lon="5.83309">
        <ele>103</ele>
        <time>2019-10-23T09:52:37Z</time>
      </trkpt>
      <trkpt lat="43.06541" lon="5.83311">
        <ele>103</ele>
        <time>2019-10-23T09:52:38Z</time>
      </trkpt>
      <trkpt lat="43.06536" lon="5.83313">
        <ele>103</ele>
        <time>2019-10-23T09:52:39Z</time>
      </trkpt>
      <trkpt lat="43.06531" lon="5.83316">
        <ele>103</ele>
        <time>2019-10-23T09:52:40Z</time>
      </trkpt>
      <trkpt lat="43.06525" lon="5.83318">
        <ele>103</ele>
        <time>2019-10-23T09:52:41Z</time>
      </trkpt>
      <trkpt lat="43.06519" lon="5.83321">
        <ele>102</ele>
        <time>2019-10-23T09:52:42Z</time>
      </trkpt>
      <trkpt lat="43.06513" lon="5.83325">
        <ele>102</ele>
        <time>2019-10-23T09:52:43Z</time>
      </trkpt>
      <trkpt lat="43.06507" lon="5.83328">
        <ele>102</ele>
        <time>2019-10-23T09:52:44Z</time>
      </trkpt>
      <trkpt lat="43.065" lon="5.83331">
        <ele>101</ele>
        <time>2019-10-23T09:52:45Z</time>
      </trkpt>
      <trkpt lat="43.06494" lon="5.83334">
        <ele>101</ele>
        <time>2019-10-23T09:52:46Z</time>
      </trkpt>
      <trkpt lat="43.06488" lon="5.83336">
        <ele>100</ele>
        <time>2019-10-23T09:52:47Z</time>
      </trkpt>
      <trkpt lat="43.06481" lon="5.83337">
        <ele>100</ele>
        <time>2019-10-23T09:52:48Z</time>
      </trkpt>
      <trkpt lat="43.06474" lon="5.83338">
        <ele>100</ele>
        <time>2019-10-23T09:52:49Z</time>
      </trkpt>
      <trkpt lat="43.06468" lon="5.83339">
        <ele>100</ele>
        <time>2019-10-23T09:52:50Z</time>
      </trkpt>
      <trkpt lat="43.06461" lon="5.83339">
        <ele>100</ele>
        <time>2019-10-23T09:52:51Z</time>
      </trkpt>
      <trkpt lat="43.06456" lon="5.8334">
        <ele>100</ele>
        <time>2019-10-23T09:52:52Z</time>
      </trkpt>
      <trkpt lat="43.06451" lon="5.83341">
        <ele>100</ele>
        <time>2019-10-23T09:52:53Z</time>
      </trkpt>
      <trkpt lat="43.06446" lon="5.83344">
        <ele>100</ele>
        <time>2019-10-23T09:52:54Z</time>
      </trkpt>
      <trkpt lat="43.06442" lon="5.83346">
        <ele>100</ele>
        <time>2019-10-23T09:52:55Z</time>
      </trkpt>
      <trkpt lat="43.06437" lon="5.8335">
        <ele>100</ele>
        <time>2019-10-23T09:52:56Z</time>
      </trkpt>
      <trkpt lat="43.06433" lon="5.83354">
        <ele>101</ele>
        <time>2019-10-23T09:52:57Z</time>
      </trkpt>
      <trkpt lat="43.0643" lon="5.83359">
        <ele>101</ele>
        <time>2019-10-23T09:52:58Z</time>
      </trkpt>
      <trkpt lat="43.06426" lon="5.83366">
        <ele>101</ele>
        <time>2019-10-23T09:52:59Z</time>
      </trkpt>
      <trkpt lat="43.06424" lon="5.83372">
        <ele>101</ele>
        <time>2019-10-23T09:53:00Z</time>
      </trkpt>
      <trkpt lat="43.06421" lon="5.83378">
        <ele>101</ele>
        <time>2019-10-23T09:53:01Z</time>
      </trkpt>
      <trkpt lat="43.06419" lon="5.83384">
        <ele>101</ele>
        <time>2019-10-23T09:53:02Z</time>
      </trkpt>
      <trkpt lat="43.06417" lon="5.8339">
        <ele>101</ele>
        <time>2019-10-23T09:53:03Z</time>
      </trkpt>
      <trkpt lat="43.06413" lon="5.83395">
        <ele>101</ele>
        <time>2019-10-23T09:53:04Z</time>
      </trkpt>
      <trkpt lat="43.06409" lon="5.83399">
        <ele>101</ele>
        <time>2019-10-23T09:53:05Z</time>
      </trkpt>
      <trkpt lat="43.06405" lon="5.83401">
        <ele>101</ele>
        <time>2019-10-23T09:53:06Z</time>
      </trkpt>
      <trkpt lat="43.06401" lon="5.83402">
        <ele>101</ele>
        <time>2019-10-23T09:53:07Z</time>
      </trkpt>
      <trkpt lat="43.06398" lon="5.83403">
        <ele>101</ele>
        <time>2019-10-23T09:53:09Z</time>
      </trkpt>
      <trkpt lat="43.06394" lon="5.83403">
        <ele>101</ele>
        <time>2019-10-23T09:53:10Z</time>
      </trkpt>
      <trkpt lat="43.06391" lon="5.83403">
        <ele>101</ele>
        <time>2019-10-23T09:53:11Z</time>
      </trkpt>
      <trkpt lat="43.06386" lon="5.83403">
        <ele>101</ele>
        <time>2019-10-23T09:53:12Z</time>
      </trkpt>
      <trkpt lat="43.06383" lon="5.83403">
        <ele>101</ele>
        <time>2019-10-23T09:53:13Z</time>
      </trkpt>
      <trkpt lat="43.06379" lon="5.83404">
        <ele>102</ele>
        <time>2019-10-23T09:53:14Z</time>
      </trkpt>
      <trkpt lat="43.06375" lon="5.83404">
        <ele>102</ele>
        <time>2019-10-23T09:53:15Z</time>
      </trkpt>
      <trkpt lat="43.06371" lon="5.83405">
        <ele>102</ele>
        <time>2019-10-23T09:53:16Z</time>
      </trkpt>
      <trkpt lat="43.06368" lon="5.83407">
        <ele>102</ele>
        <time>2019-10-23T09:53:17Z</time>
      </trkpt>
      <trkpt lat="43.06364" lon="5.83409">
        <ele>102</ele>
        <time>2019-10-23T09:53:18Z</time>
      </trkpt>
      <trkpt lat="43.0636" lon="5.83411">
        <ele>102</ele>
        <time>2019-10-23T09:53:19Z</time>
      </trkpt>
      <trkpt lat="43.06355" lon="5.83413">
        <ele>102</ele>
        <time>2019-10-23T09:53:20Z</time>
      </trkpt>
      <trkpt lat="43.06351" lon="5.83415">
        <ele>102</ele>
        <time>2019-10-23T09:53:21Z</time>
      </trkpt>
      <trkpt lat="43.06348" lon="5.83416">
        <ele>102</ele>
        <time>2019-10-23T09:53:22Z</time>
      </trkpt>
      <trkpt lat="43.06344" lon="5.83418">
        <ele>103</ele>
        <time>2019-10-23T09:53:23Z</time>
      </trkpt>
      <trkpt lat="43.0634" lon="5.8342">
        <ele>103</ele>
        <time>2019-10-23T09:53:24Z</time>
      </trkpt>
      <trkpt lat="43.06336" lon="5.83422">
        <ele>103</ele>
        <time>2019-10-23T09:53:25Z</time>
      </trkpt>
      <trkpt lat="43.06332" lon="5.83423">
        <ele>103</ele>
        <time>2019-10-23T09:53:26Z</time>
      </trkpt>
      <trkpt lat="43.06329" lon="5.83425">
        <ele>103</ele>
        <time>2019-10-23T09:53:27Z</time>
      </trkpt>
      <trkpt lat="43.06325" lon="5.83426">
        <ele>103</ele>
        <time>2019-10-23T09:53:28Z</time>
      </trkpt>
      <trkpt lat="43.06321" lon="5.83428">
        <ele>103</ele>
        <time>2019-10-23T09:53:29Z</time>
      </trkpt>
      <trkpt lat="43.06317" lon="5.83431">
        <ele>103</ele>
        <time>2019-10-23T09:53:30Z</time>
      </trkpt>
      <trkpt lat="43.06313" lon="5.83433">
        <ele>103</ele>
        <time>2019-10-23T09:53:31Z</time>
      </trkpt>
      <trkpt lat="43.06308" lon="5.83435">
        <ele>103</ele>
        <time>2019-10-23T09:53:32Z</time>
      </trkpt>
      <trkpt lat="43.06304" lon="5.83437">
        <ele>103</ele>
        <time>2019-10-23T09:53:33Z</time>
      </trkpt>
      <trkpt lat="43.063" lon="5.83438">
        <ele>103</ele>
        <time>2019-10-23T09:53:34Z</time>
      </trkpt>
      <trkpt lat="43.06296" lon="5.83441">
        <ele>103</ele>
        <time>2019-10-23T09:53:35Z</time>
      </trkpt>
      <trkpt lat="43.06292" lon="5.83443">
        <ele>103</ele>
        <time>2019-10-23T09:53:36Z</time>
      </trkpt>
      <trkpt lat="43.06288" lon="5.83445">
        <ele>103</ele>
        <time>2019-10-23T09:53:38Z</time>
      </trkpt>
      <trkpt lat="43.06284" lon="5.83447">
        <ele>103</ele>
        <time>2019-10-23T09:53:39Z</time>
      </trkpt>
      <trkpt lat="43.06274" lon="5.83449">
        <ele>103</ele>
        <time>2019-10-23T09:53:40Z</time>
      </trkpt>
      <trkpt lat="43.06269" lon="5.83451">
        <ele>103</ele>
        <time>2019-10-23T09:53:41Z</time>
      </trkpt>
      <trkpt lat="43.06265" lon="5.83452">
        <ele>104</ele>
        <time>2019-10-23T09:53:42Z</time>
      </trkpt>
      <trkpt lat="43.06261" lon="5.83454">
        <ele>104</ele>
        <time>2019-10-23T09:53:43Z</time>
      </trkpt>
      <trkpt lat="43.06258" lon="5.83456">
        <ele>104</ele>
        <time>2019-10-23T09:53:44Z</time>
      </trkpt>
      <trkpt lat="43.06253" lon="5.83459">
        <ele>104</ele>
        <time>2019-10-23T09:53:45Z</time>
      </trkpt>
      <trkpt lat="43.06249" lon="5.83461">
        <ele>105</ele>
        <time>2019-10-23T09:53:46Z</time>
      </trkpt>
      <trkpt lat="43.06245" lon="5.83465">
        <ele>105</ele>
        <time>2019-10-23T09:53:47Z</time>
      </trkpt>
      <trkpt lat="43.06242" lon="5.83469">
        <ele>105</ele>
        <time>2019-10-23T09:53:48Z</time>
      </trkpt>
      <trkpt lat="43.06239" lon="5.83473">
        <ele>105</ele>
        <time>2019-10-23T09:53:49Z</time>
      </trkpt>
      <trkpt lat="43.06236" lon="5.83478">
        <ele>105</ele>
        <time>2019-10-23T09:53:50Z</time>
      </trkpt>
      <trkpt lat="43.06233" lon="5.83483">
        <ele>105</ele>
        <time>2019-10-23T09:53:51Z</time>
      </trkpt>
      <trkpt lat="43.0623" lon="5.83488">
        <ele>105</ele>
        <time>2019-10-23T09:53:52Z</time>
      </trkpt>
      <trkpt lat="43.06227" lon="5.83494">
        <ele>105</ele>
        <time>2019-10-23T09:53:53Z</time>
      </trkpt>
      <trkpt lat="43.06224" lon="5.835">
        <ele>105</ele>
        <time>2019-10-23T09:53:54Z</time>
      </trkpt>
      <trkpt lat="43.06219" lon="5.83507">
        <ele>105</ele>
        <time>2019-10-23T09:53:55Z</time>
      </trkpt>
      <trkpt lat="43.06216" lon="5.83513">
        <ele>105</ele>
        <time>2019-10-23T09:53:56Z</time>
      </trkpt>
      <trkpt lat="43.06211" lon="5.83519">
        <ele>106</ele>
        <time>2019-10-23T09:53:57Z</time>
      </trkpt>
      <trkpt lat="43.06206" lon="5.83522">
        <ele>106</ele>
        <time>2019-10-23T09:53:58Z</time>
      </trkpt>
      <trkpt lat="43.06202" lon="5.83522">
        <ele>106</ele>
        <time>2019-10-23T09:53:59Z</time>
      </trkpt>
      <trkpt lat="43.06198" lon="5.8352">
        <ele>106</ele>
        <time>2019-10-23T09:54:00Z</time>
      </trkpt>
      <trkpt lat="43.06194" lon="5.83517">
        <ele>106</ele>
        <time>2019-10-23T09:54:01Z</time>
      </trkpt>
      <trkpt lat="43.06191" lon="5.83516">
        <ele>106</ele>
        <time>2019-10-23T09:54:02Z</time>
      </trkpt>
      <trkpt lat="43.06187" lon="5.83514">
        <ele>106</ele>
        <time>2019-10-23T09:54:03Z</time>
      </trkpt>
      <trkpt lat="43.06183" lon="5.83512">
        <ele>107</ele>
        <time>2019-10-23T09:54:04Z</time>
      </trkpt>
      <trkpt lat="43.06179" lon="5.8351">
        <ele>107</ele>
        <time>2019-10-23T09:54:05Z</time>
      </trkpt>
      <trkpt lat="43.06175" lon="5.83509">
        <ele>108</ele>
        <time>2019-10-23T09:54:06Z</time>
      </trkpt>
      <trkpt lat="43.06171" lon="5.83507">
        <ele>108</ele>
        <time>2019-10-23T09:54:07Z</time>
      </trkpt>
      <trkpt lat="43.06166" lon="5.83507">
        <ele>108</ele>
        <time>2019-10-23T09:54:08Z</time>
      </trkpt>
      <trkpt lat="43.06162" lon="5.83506">
        <ele>108</ele>
        <time>2019-10-23T09:54:09Z</time>
      </trkpt>
      <trkpt lat="43.06158" lon="5.83506">
        <ele>108</ele>
        <time>2019-10-23T09:54:10Z</time>
      </trkpt>
      <trkpt lat="43.06154" lon="5.83505">
        <ele>108</ele>
        <time>2019-10-23T09:54:11Z</time>
      </trkpt>
      <trkpt lat="43.0615" lon="5.83504">
        <ele>108</ele>
        <time>2019-10-23T09:54:12Z</time>
      </trkpt>
      <trkpt lat="43.06145" lon="5.83503">
        <ele>108</ele>
        <time>2019-10-23T09:54:13Z</time>
      </trkpt>
      <trkpt lat="43.0614" lon="5.83503">
        <ele>108</ele>
        <time>2019-10-23T09:54:14Z</time>
      </trkpt>
      <trkpt lat="43.06135" lon="5.83505">
        <ele>108</ele>
        <time>2019-10-23T09:54:15Z</time>
      </trkpt>
      <trkpt lat="43.06131" lon="5.83507">
        <ele>108</ele>
        <time>2019-10-23T09:54:16Z</time>
      </trkpt>
      <trkpt lat="43.06126" lon="5.8351">
        <ele>108</ele>
        <time>2019-10-23T09:54:17Z</time>
      </trkpt>
      <trkpt lat="43.0612" lon="5.83514">
        <ele>108</ele>
        <time>2019-10-23T09:54:18Z</time>
      </trkpt>
      <trkpt lat="43.06115" lon="5.83518">
        <ele>108</ele>
        <time>2019-10-23T09:54:19Z</time>
      </trkpt>
      <trkpt lat="43.06109" lon="5.83521">
        <ele>108</ele>
        <time>2019-10-23T09:54:20Z</time>
      </trkpt>
      <trkpt lat="43.06102" lon="5.83522">
        <ele>107</ele>
        <time>2019-10-23T09:54:21Z</time>
      </trkpt>
      <trkpt lat="43.06096" lon="5.83524">
        <ele>107</ele>
        <time>2019-10-23T09:54:22Z</time>
      </trkpt>
      <trkpt lat="43.0609" lon="5.83524">
        <ele>107</ele>
        <time>2019-10-23T09:54:23Z</time>
      </trkpt>
      <trkpt lat="43.06085" lon="5.83525">
        <ele>106</ele>
        <time>2019-10-23T09:54:24Z</time>
      </trkpt>
      <trkpt lat="43.0608" lon="5.83525">
        <ele>106</ele>
        <time>2019-10-23T09:54:25Z</time>
      </trkpt>
      <trkpt lat="43.06077" lon="5.83525">
        <ele>106</ele>
        <time>2019-10-23T09:54:26Z</time>
      </trkpt>
      <trkpt lat="43.06073" lon="5.83526">
        <ele>106</ele>
        <time>2019-10-23T09:54:27Z</time>
      </trkpt>
      <trkpt lat="43.06069" lon="5.83527">
        <ele>106</ele>
        <time>2019-10-23T09:54:29Z</time>
      </trkpt>
      <trkpt lat="43.06065" lon="5.83528">
        <ele>106</ele>
        <time>2019-10-23T09:54:30Z</time>
      </trkpt>
      <trkpt lat="43.06061" lon="5.8353">
        <ele>106</ele>
        <time>2019-10-23T09:54:31Z</time>
      </trkpt>
      <trkpt lat="43.06057" lon="5.83531">
        <ele>106</ele>
        <time>2019-10-23T09:54:32Z</time>
      </trkpt>
      <trkpt lat="43.06053" lon="5.83534">
        <ele>106</ele>
        <time>2019-10-23T09:54:33Z</time>
      </trkpt>
      <trkpt lat="43.0605" lon="5.83537">
        <ele>106</ele>
        <time>2019-10-23T09:54:34Z</time>
      </trkpt>
      <trkpt lat="43.06047" lon="5.8354">
        <ele>106</ele>
        <time>2019-10-23T09:54:35Z</time>
      </trkpt>
      <trkpt lat="43.06043" lon="5.83542">
        <ele>106</ele>
        <time>2019-10-23T09:54:36Z</time>
      </trkpt>
      <trkpt lat="43.0604" lon="5.83545">
        <ele>106</ele>
        <time>2019-10-23T09:54:37Z</time>
      </trkpt>
      <trkpt lat="43.06036" lon="5.83548">
        <ele>106</ele>
        <time>2019-10-23T09:54:38Z</time>
      </trkpt>
      <trkpt lat="43.06033" lon="5.8355">
        <ele>106</ele>
        <time>2019-10-23T09:54:39Z</time>
      </trkpt>
      <trkpt lat="43.06029" lon="5.83552">
        <ele>106</ele>
        <time>2019-10-23T09:54:40Z</time>
      </trkpt>
      <trkpt lat="43.06026" lon="5.83553">
        <ele>106</ele>
        <time>2019-10-23T09:54:41Z</time>
      </trkpt>
      <trkpt lat="43.06022" lon="5.83554">
        <ele>107</ele>
        <time>2019-10-23T09:54:42Z</time>
      </trkpt>
      <trkpt lat="43.06018" lon="5.83554">
        <ele>107</ele>
        <time>2019-10-23T09:54:43Z</time>
      </trkpt>
      <trkpt lat="43.06015" lon="5.83552">
        <ele>108</ele>
        <time>2019-10-23T09:54:44Z</time>
      </trkpt>
      <trkpt lat="43.06013" lon="5.83548">
        <ele>108</ele>
        <time>2019-10-23T09:54:45Z</time>
      </trkpt>
      <trkpt lat="43.06013" lon="5.83543">
        <ele>109</ele>
        <time>2019-10-23T09:54:46Z</time>
      </trkpt>
      <trkpt lat="43.06014" lon="5.83539">
        <ele>109</ele>
        <time>2019-10-23T09:54:47Z</time>
      </trkpt>
      <trkpt lat="43.06016" lon="5.83534">
        <ele>110</ele>
        <time>2019-10-23T09:54:48Z</time>
      </trkpt>
      <trkpt lat="43.06019" lon="5.83529">
        <ele>110</ele>
        <time>2019-10-23T09:54:49Z</time>
      </trkpt>
      <trkpt lat="43.06021" lon="5.83525">
        <ele>110</ele>
        <time>2019-10-23T09:54:50Z</time>
      </trkpt>
      <trkpt lat="43.06024" lon="5.8352">
        <ele>110</ele>
        <time>2019-10-23T09:54:51Z</time>
      </trkpt>
      <trkpt lat="43.06026" lon="5.83516">
        <ele>111</ele>
        <time>2019-10-23T09:54:52Z</time>
      </trkpt>
      <trkpt lat="43.06029" lon="5.83512">
        <ele>111</ele>
        <time>2019-10-23T09:54:53Z</time>
      </trkpt>
      <trkpt lat="43.06031" lon="5.83508">
        <ele>111</ele>
        <time>2019-10-23T09:54:54Z</time>
      </trkpt>
      <trkpt lat="43.06034" lon="5.83504">
        <ele>111</ele>
        <time>2019-10-23T09:54:55Z</time>
      </trkpt>
      <trkpt lat="43.06036" lon="5.835">
        <ele>111</ele>
        <time>2019-10-23T09:54:56Z</time>
      </trkpt>
      <trkpt lat="43.06038" lon="5.83497">
        <ele>112</ele>
        <time>2019-10-23T09:54:57Z</time>
      </trkpt>
      <trkpt lat="43.06039" lon="5.83494">
        <ele>112</ele>
        <time>2019-10-23T09:54:58Z</time>
      </trkpt>
      <trkpt lat="43.06042" lon="5.83489">
        <ele>112</ele>
        <time>2019-10-23T09:54:59Z</time>
      </trkpt>
      <trkpt lat="43.06044" lon="5.83485">
        <ele>112</ele>
        <time>2019-10-23T09:55:00Z</time>
      </trkpt>
      <trkpt lat="43.06046" lon="5.83482">
        <ele>113</ele>
        <time>2019-10-23T09:55:01Z</time>
      </trkpt>
      <trkpt lat="43.06047" lon="5.83479">
        <ele>113</ele>
        <time>2019-10-23T09:55:02Z</time>
      </trkpt>
      <trkpt lat="43.06049" lon="5.83476">
        <ele>113</ele>
        <time>2019-10-23T09:55:03Z</time>
      </trkpt>
      <trkpt lat="43.0605" lon="5.83472">
        <ele>113</ele>
        <time>2019-10-23T09:55:04Z</time>
      </trkpt>
      <trkpt lat="43.06051" lon="5.83468">
        <ele>113</ele>
        <time>2019-10-23T09:55:05Z</time>
      </trkpt>
      <trkpt lat="43.06052" lon="5.83464">
        <ele>113</ele>
        <time>2019-10-23T09:55:06Z</time>
      </trkpt>
      <trkpt lat="43.06052" lon="5.8346">
        <ele>113</ele>
        <time>2019-10-23T09:55:07Z</time>
      </trkpt>
      <trkpt lat="43.06051" lon="5.83455">
        <ele>113</ele>
        <time>2019-10-23T09:55:08Z</time>
      </trkpt>
      <trkpt lat="43.0605" lon="5.8345">
        <ele>112</ele>
        <time>2019-10-23T09:55:09Z</time>
      </trkpt>
      <trkpt lat="43.06049" lon="5.83445">
        <ele>112</ele>
        <time>2019-10-23T09:55:10Z</time>
      </trkpt>
      <trkpt lat="43.06048" lon="5.8344">
        <ele>112</ele>
        <time>2019-10-23T09:55:11Z</time>
      </trkpt>
      <trkpt lat="43.06047" lon="5.83435">
        <ele>112</ele>
        <time>2019-10-23T09:55:12Z</time>
      </trkpt>
      <trkpt lat="43.06045" lon="5.83429">
        <ele>112</ele>
        <time>2019-10-23T09:55:13Z</time>
      </trkpt>
      <trkpt lat="43.06043" lon="5.83425">
        <ele>112</ele>
        <time>2019-10-23T09:55:14Z</time>
      </trkpt>
      <trkpt lat="43.06041" lon="5.83421">
        <ele>112</ele>
        <time>2019-10-23T09:55:15Z</time>
      </trkpt>
      <trkpt lat="43.06039" lon="5.83415">
        <ele>112</ele>
        <time>2019-10-23T09:55:16Z</time>
      </trkpt>
      <trkpt lat="43.06038" lon="5.8341">
        <ele>112</ele>
        <time>2019-10-23T09:55:17Z</time>
      </trkpt>
      <trkpt lat="43.06036" lon="5.83406">
        <ele>112</ele>
        <time>2019-10-23T09:55:18Z</time>
      </trkpt>
      <trkpt lat="43.06034" lon="5.834">
        <ele>113</ele>
        <time>2019-10-23T09:55:19Z</time>
      </trkpt>
      <trkpt lat="43.06033" lon="5.83394">
        <ele>113</ele>
        <time>2019-10-23T09:55:20Z</time>
      </trkpt>
      <trkpt lat="43.06032" lon="5.83388">
        <ele>113</ele>
        <time>2019-10-23T09:55:21Z</time>
      </trkpt>
      <trkpt lat="43.06033" lon="5.83382">
        <ele>113</ele>
        <time>2019-10-23T09:55:22Z</time>
      </trkpt>
      <trkpt lat="43.06034" lon="5.83377">
        <ele>113</ele>
        <time>2019-10-23T09:55:23Z</time>
      </trkpt>
      <trkpt lat="43.06036" lon="5.83372">
        <ele>113</ele>
        <time>2019-10-23T09:55:24Z</time>
      </trkpt>
      <trkpt lat="43.06039" lon="5.83368">
        <ele>113</ele>
        <time>2019-10-23T09:55:25Z</time>
      </trkpt>
      <trkpt lat="43.06042" lon="5.83365">
        <ele>113</ele>
        <time>2019-10-23T09:55:26Z</time>
      </trkpt>
      <trkpt lat="43.06046" lon="5.83362">
        <ele>113</ele>
        <time>2019-10-23T09:55:27Z</time>
      </trkpt>
      <trkpt lat="43.06049" lon="5.8336">
        <ele>113</ele>
        <time>2019-10-23T09:55:29Z</time>
      </trkpt>
      <trkpt lat="43.06052" lon="5.83358">
        <ele>114</ele>
        <time>2019-10-23T09:55:31Z</time>
      </trkpt>
      <trkpt lat="43.06055" lon="5.83356">
        <ele>114</ele>
        <time>2019-10-23T09:55:32Z</time>
      </trkpt>
      <trkpt lat="43.06057" lon="5.83353">
        <ele>114</ele>
        <time>2019-10-23T09:55:33Z</time>
      </trkpt>
      <trkpt lat="43.06059" lon="5.8335">
        <ele>115</ele>
        <time>2019-10-23T09:55:34Z</time>
      </trkpt>
      <trkpt lat="43.0606" lon="5.83347">
        <ele>115</ele>
        <time>2019-10-23T09:55:35Z</time>
      </trkpt>
      <trkpt lat="43.06061" lon="5.83343">
        <ele>115</ele>
        <time>2019-10-23T09:55:36Z</time>
      </trkpt>
      <trkpt lat="43.06061" lon="5.83338">
        <ele>115</ele>
        <time>2019-10-23T09:55:37Z</time>
      </trkpt>
      <trkpt lat="43.06062" lon="5.83333">
        <ele>115</ele>
        <time>2019-10-23T09:55:38Z</time>
      </trkpt>
      <trkpt lat="43.06062" lon="5.83329">
        <ele>115</ele>
        <time>2019-10-23T09:55:39Z</time>
      </trkpt>
      <trkpt lat="43.06063" lon="5.83324">
        <ele>115</ele>
        <time>2019-10-23T09:55:40Z</time>
      </trkpt>
      <trkpt lat="43.06063" lon="5.8332">
        <ele>115</ele>
        <time>2019-10-23T09:55:41Z</time>
      </trkpt>
      <trkpt lat="43.06064" lon="5.83316">
        <ele>116</ele>
        <time>2019-10-23T09:55:42Z</time>
      </trkpt>
      <trkpt lat="43.06064" lon="5.83312">
        <ele>116</ele>
        <time>2019-10-23T09:55:43Z</time>
      </trkpt>
      <trkpt lat="43.06065" lon="5.83308">
        <ele>116</ele>
        <time>2019-10-23T09:55:44Z</time>
      </trkpt>
      <trkpt lat="43.06065" lon="5.83303">
        <ele>116</ele>
        <time>2019-10-23T09:55:45Z</time>
      </trkpt>
      <trkpt lat="43.06066" lon="5.83299">
        <ele>116</ele>
        <time>2019-10-23T09:55:46Z</time>
      </trkpt>
      <trkpt lat="43.06067" lon="5.83295">
        <ele>116</ele>
        <time>2019-10-23T09:55:47Z</time>
      </trkpt>
      <trkpt lat="43.06067" lon="5.8329">
        <ele>116</ele>
        <time>2019-10-23T09:55:48Z</time>
      </trkpt>
      <trkpt lat="43.06068" lon="5.83286">
        <ele>116</ele>
        <time>2019-10-23T09:55:49Z</time>
      </trkpt>
      <trkpt lat="43.06068" lon="5.83282">
        <ele>117</ele>
        <time>2019-10-23T09:55:50Z</time>
      </trkpt>
      <trkpt lat="43.06069" lon="5.83277">
        <ele>117</ele>
        <time>2019-10-23T09:55:51Z</time>
      </trkpt>
      <trkpt lat="43.06069" lon="5.83273">
        <ele>117</ele>
        <time>2019-10-23T09:55:52Z</time>
      </trkpt>
      <trkpt lat="43.0607" lon="5.83268">
        <ele>117</ele>
        <time>2019-10-23T09:55:53Z</time>
      </trkpt>
      <trkpt lat="43.0607" lon="5.83264">
        <ele>117</ele>
        <time>2019-10-23T09:55:54Z</time>
      </trkpt>
      <trkpt lat="43.0607" lon="5.83259">
        <ele>117</ele>
        <time>2019-10-23T09:55:55Z</time>
      </trkpt>
      <trkpt lat="43.06071" lon="5.83255">
        <ele>117</ele>
        <time>2019-10-23T09:55:56Z</time>
      </trkpt>
      <trkpt lat="43.06071" lon="5.83251">
        <ele>117</ele>
        <time>2019-10-23T09:55:57Z</time>
      </trkpt>
      <trkpt lat="43.06072" lon="5.83247">
        <ele>118</ele>
        <time>2019-10-23T09:55:58Z</time>
      </trkpt>
      <trkpt lat="43.06073" lon="5.83243">
        <ele>118</ele>
        <time>2019-10-23T09:55:59Z</time>
      </trkpt>
      <trkpt lat="43.06071" lon="5.83237">
        <ele>118</ele>
        <time>2019-10-23T09:56:00Z</time>
      </trkpt>
      <trkpt lat="43.06068" lon="5.83235">
        <ele>118</ele>
        <time>2019-10-23T09:56:02Z</time>
      </trkpt>
      <trkpt lat="43.06065" lon="5.83237">
        <ele>118</ele>
        <time>2019-10-23T09:56:03Z</time>
      </trkpt>
      <trkpt lat="43.06063" lon="5.8324">
        <ele>118</ele>
        <time>2019-10-23T09:56:04Z</time>
      </trkpt>
      <trkpt lat="43.06061" lon="5.83244">
        <ele>118</ele>
        <time>2019-10-23T09:56:05Z</time>
      </trkpt>
      <trkpt lat="43.0606" lon="5.83249">
        <ele>119</ele>
        <time>2019-10-23T09:56:06Z</time>
      </trkpt>
      <trkpt lat="43.06058" lon="5.83253">
        <ele>119</ele>
        <time>2019-10-23T09:56:07Z</time>
      </trkpt>
      <trkpt lat="43.06057" lon="5.83258">
        <ele>120</ele>
        <time>2019-10-23T09:56:08Z</time>
      </trkpt>
      <trkpt lat="43.06055" lon="5.83262">
        <ele>120</ele>
        <time>2019-10-23T09:56:09Z</time>
      </trkpt>
      <trkpt lat="43.06054" lon="5.83266">
        <ele>120</ele>
        <time>2019-10-23T09:56:10Z</time>
      </trkpt>
      <trkpt lat="43.06051" lon="5.8327">
        <ele>121</ele>
        <time>2019-10-23T09:56:11Z</time>
      </trkpt>
      <trkpt lat="43.06049" lon="5.83275">
        <ele>121</ele>
        <time>2019-10-23T09:56:12Z</time>
      </trkpt>
      <trkpt lat="43.06047" lon="5.83279">
        <ele>121</ele>
        <time>2019-10-23T09:56:13Z</time>
      </trkpt>
      <trkpt lat="43.06045" lon="5.83282">
        <ele>121</ele>
        <time>2019-10-23T09:56:14Z</time>
      </trkpt>
      <trkpt lat="43.06043" lon="5.83285">
        <ele>121</ele>
        <time>2019-10-23T09:56:15Z</time>
      </trkpt>
      <trkpt lat="43.06039" lon="5.83288">
        <ele>121</ele>
        <time>2019-10-23T09:56:16Z</time>
      </trkpt>
      <trkpt lat="43.06036" lon="5.8329">
        <ele>121</ele>
        <time>2019-10-23T09:56:17Z</time>
      </trkpt>
      <trkpt lat="43.06032" lon="5.83291">
        <ele>122</ele>
        <time>2019-10-23T09:56:18Z</time>
      </trkpt>
      <trkpt lat="43.06029" lon="5.83292">
        <ele>122</ele>
        <time>2019-10-23T09:56:19Z</time>
      </trkpt>
      <trkpt lat="43.06025" lon="5.83292">
        <ele>122</ele>
        <time>2019-10-23T09:56:20Z</time>
      </trkpt>
      <trkpt lat="43.06021" lon="5.83292">
        <ele>122</ele>
        <time>2019-10-23T09:56:21Z</time>
      </trkpt>
      <trkpt lat="43.06018" lon="5.83291">
        <ele>123</ele>
        <time>2019-10-23T09:56:22Z</time>
      </trkpt>
      <trkpt lat="43.06014" lon="5.83289">
        <ele>123</ele>
        <time>2019-10-23T09:56:23Z</time>
      </trkpt>
      <trkpt lat="43.06011" lon="5.83287">
        <ele>123</ele>
        <time>2019-10-23T09:56:24Z</time>
      </trkpt>
      <trkpt lat="43.06008" lon="5.83285">
        <ele>123</ele>
        <time>2019-10-23T09:56:25Z</time>
      </trkpt>
      <trkpt lat="43.06005" lon="5.83282">
        <ele>123</ele>
        <time>2019-10-23T09:56:26Z</time>
      </trkpt>
      <trkpt lat="43.06002" lon="5.8328">
        <ele>124</ele>
        <time>2019-10-23T09:56:27Z</time>
      </trkpt>
      <trkpt lat="43.05998" lon="5.83278">
        <ele>124</ele>
        <time>2019-10-23T09:56:28Z</time>
      </trkpt>
      <trkpt lat="43.05994" lon="5.83277">
        <ele>124</ele>
        <time>2019-10-23T09:56:29Z</time>
      </trkpt>
      <trkpt lat="43.0599" lon="5.83279">
        <ele>124</ele>
        <time>2019-10-23T09:56:30Z</time>
      </trkpt>
      <trkpt lat="43.05986" lon="5.8328">
        <ele>124</ele>
        <time>2019-10-23T09:56:31Z</time>
      </trkpt>
      <trkpt lat="43.05983" lon="5.83285">
        <ele>124</ele>
        <time>2019-10-23T09:56:32Z</time>
      </trkpt>
      <trkpt lat="43.0598" lon="5.83288">
        <ele>124</ele>
        <time>2019-10-23T09:56:33Z</time>
      </trkpt>
      <trkpt lat="43.05978" lon="5.83293">
        <ele>125</ele>
        <time>2019-10-23T09:56:34Z</time>
      </trkpt>
      <trkpt lat="43.05976" lon="5.83297">
        <ele>125</ele>
        <time>2019-10-23T09:56:35Z</time>
      </trkpt>
      <trkpt lat="43.05975" lon="5.83302">
        <ele>125</ele>
        <time>2019-10-23T09:56:36Z</time>
      </trkpt>
      <trkpt lat="43.05974" lon="5.83308">
        <ele>125</ele>
        <time>2019-10-23T09:56:37Z</time>
      </trkpt>
      <trkpt lat="43.05974" lon="5.83314">
        <ele>125</ele>
        <time>2019-10-23T09:56:38Z</time>
      </trkpt>
      <trkpt lat="43.05973" lon="5.83318">
        <ele>125</ele>
        <time>2019-10-23T09:56:39Z</time>
      </trkpt>
      <trkpt lat="43.05971" lon="5.83323">
        <ele>125</ele>
        <time>2019-10-23T09:56:40Z</time>
      </trkpt>
      <trkpt lat="43.0597" lon="5.83328">
        <ele>125</ele>
        <time>2019-10-23T09:56:41Z</time>
      </trkpt>
      <trkpt lat="43.05969" lon="5.83333">
        <ele>125</ele>
        <time>2019-10-23T09:56:42Z</time>
      </trkpt>
      <trkpt lat="43.05968" lon="5.83338">
        <ele>125</ele>
        <time>2019-10-23T09:56:43Z</time>
      </trkpt>
      <trkpt lat="43.05967" lon="5.83343">
        <ele>126</ele>
        <time>2019-10-23T09:56:44Z</time>
      </trkpt>
      <trkpt lat="43.05966" lon="5.83347">
        <ele>126</ele>
        <time>2019-10-23T09:56:45Z</time>
      </trkpt>
      <trkpt lat="43.05965" lon="5.83353">
        <ele>125</ele>
        <time>2019-10-23T09:56:46Z</time>
      </trkpt>
      <trkpt lat="43.05963" lon="5.83358">
        <ele>125</ele>
        <time>2019-10-23T09:56:47Z</time>
      </trkpt>
      <trkpt lat="43.05962" lon="5.83364">
        <ele>125</ele>
        <time>2019-10-23T09:56:48Z</time>
      </trkpt>
      <trkpt lat="43.05961" lon="5.8337">
        <ele>125</ele>
        <time>2019-10-23T09:56:49Z</time>
      </trkpt>
      <trkpt lat="43.05959" lon="5.83375">
        <ele>125</ele>
        <time>2019-10-23T09:56:50Z</time>
      </trkpt>
      <trkpt lat="43.05957" lon="5.8338">
        <ele>125</ele>
        <time>2019-10-23T09:56:51Z</time>
      </trkpt>
      <trkpt lat="43.05956" lon="5.83385">
        <ele>125</ele>
        <time>2019-10-23T09:56:52Z</time>
      </trkpt>
      <trkpt lat="43.05953" lon="5.8339">
        <ele>126</ele>
        <time>2019-10-23T09:56:53Z</time>
      </trkpt>
      <trkpt lat="43.05951" lon="5.83393">
        <ele>126</ele>
        <time>2019-10-23T09:56:54Z</time>
      </trkpt>
      <trkpt lat="43.05948" lon="5.83397">
        <ele>126</ele>
        <time>2019-10-23T09:56:55Z</time>
      </trkpt>
      <trkpt lat="43.05945" lon="5.83401">
        <ele>126</ele>
        <time>2019-10-23T09:56:56Z</time>
      </trkpt>
      <trkpt lat="43.05942" lon="5.83405">
        <ele>126</ele>
        <time>2019-10-23T09:56:57Z</time>
      </trkpt>
      <trkpt lat="43.05939" lon="5.83409">
        <ele>126</ele>
        <time>2019-10-23T09:56:58Z</time>
      </trkpt>
      <trkpt lat="43.05936" lon="5.83413">
        <ele>126</ele>
        <time>2019-10-23T09:56:59Z</time>
      </trkpt>
      <trkpt lat="43.05933" lon="5.83417">
        <ele>127</ele>
        <time>2019-10-23T09:57:00Z</time>
      </trkpt>
      <trkpt lat="43.05931" lon="5.83421">
        <ele>127</ele>
        <time>2019-10-23T09:57:01Z</time>
      </trkpt>
      <trkpt lat="43.05929" lon="5.83425">
        <ele>127</ele>
        <time>2019-10-23T09:57:02Z</time>
      </trkpt>
      <trkpt lat="43.05926" lon="5.83429">
        <ele>127</ele>
        <time>2019-10-23T09:57:03Z</time>
      </trkpt>
      <trkpt lat="43.05923" lon="5.83433">
        <ele>127</ele>
        <time>2019-10-23T09:57:04Z</time>
      </trkpt>
      <trkpt lat="43.0592" lon="5.83437">
        <ele>127</ele>
        <time>2019-10-23T09:57:05Z</time>
      </trkpt>
      <trkpt lat="43.05917" lon="5.83441">
        <ele>127</ele>
        <time>2019-10-23T09:57:06Z</time>
      </trkpt>
      <trkpt lat="43.05914" lon="5.83445">
        <ele>127</ele>
        <time>2019-10-23T09:57:07Z</time>
      </trkpt>
      <trkpt lat="43.05912" lon="5.83449">
        <ele>127</ele>
        <time>2019-10-23T09:57:08Z</time>
      </trkpt>
      <trkpt lat="43.05909" lon="5.83453">
        <ele>128</ele>
        <time>2019-10-23T09:57:09Z</time>
      </trkpt>
      <trkpt lat="43.05907" lon="5.83458">
        <ele>128</ele>
        <time>2019-10-23T09:57:10Z</time>
      </trkpt>
      <trkpt lat="43.05904" lon="5.83462">
        <ele>128</ele>
        <time>2019-10-23T09:57:11Z</time>
      </trkpt>
      <trkpt lat="43.05901" lon="5.83467">
        <ele>128</ele>
        <time>2019-10-23T09:57:12Z</time>
      </trkpt>
      <trkpt lat="43.05898" lon="5.83471">
        <ele>129</ele>
        <time>2019-10-23T09:57:13Z</time>
      </trkpt>
      <trkpt lat="43.05896" lon="5.83476">
        <ele>129</ele>
        <time>2019-10-23T09:57:14Z</time>
      </trkpt>
      <trkpt lat="43.05893" lon="5.83481">
        <ele>129</ele>
        <time>2019-10-23T09:57:15Z</time>
      </trkpt>
      <trkpt lat="43.05891" lon="5.83486">
        <ele>129</ele>
        <time>2019-10-23T09:57:16Z</time>
      </trkpt>
      <trkpt lat="43.05889" lon="5.83491">
        <ele>129</ele>
        <time>2019-10-23T09:57:17Z</time>
      </trkpt>
      <trkpt lat="43.05887" lon="5.83496">
        <ele>129</ele>
        <time>2019-10-23T09:57:18Z</time>
      </trkpt>
      <trkpt lat="43.05885" lon="5.83501">
        <ele>129</ele>
        <time>2019-10-23T09:57:19Z</time>
      </trkpt>
      <trkpt lat="43.05882" lon="5.83505">
        <ele>129</ele>
        <time>2019-10-23T09:57:20Z</time>
      </trkpt>
      <trkpt lat="43.05878" lon="5.83508">
        <ele>129</ele>
        <time>2019-10-23T09:57:21Z</time>
      </trkpt>
      <trkpt lat="43.05875" lon="5.83511">
        <ele>129</ele>
        <time>2019-10-23T09:57:22Z</time>
      </trkpt>
      <trkpt lat="43.05871" lon="5.83513">
        <ele>129</ele>
        <time>2019-10-23T09:57:23Z</time>
      </trkpt>
      <trkpt lat="43.05868" lon="5.83515">
        <ele>129</ele>
        <time>2019-10-23T09:57:24Z</time>
      </trkpt>
      <trkpt lat="43.05864" lon="5.83517">
        <ele>129</ele>
        <time>2019-10-23T09:57:25Z</time>
      </trkpt>
      <trkpt lat="43.0586" lon="5.83518">
        <ele>129</ele>
        <time>2019-10-23T09:57:26Z</time>
      </trkpt>
      <trkpt lat="43.05857" lon="5.83519">
        <ele>129</ele>
        <time>2019-10-23T09:57:27Z</time>
      </trkpt>
      <trkpt lat="43.05853" lon="5.8352">
        <ele>129</ele>
        <time>2019-10-23T09:57:28Z</time>
      </trkpt>
      <trkpt lat="43.05849" lon="5.83521">
        <ele>130</ele>
        <time>2019-10-23T09:57:29Z</time>
      </trkpt>
      <trkpt lat="43.05846" lon="5.83522">
        <ele>130</ele>
        <time>2019-10-23T09:57:30Z</time>
      </trkpt>
      <trkpt lat="43.05842" lon="5.83523">
        <ele>130</ele>
        <time>2019-10-23T09:57:31Z</time>
      </trkpt>
      <trkpt lat="43.05838" lon="5.83524">
        <ele>130</ele>
        <time>2019-10-23T09:57:32Z</time>
      </trkpt>
      <trkpt lat="43.05834" lon="5.83525">
        <ele>130</ele>
        <time>2019-10-23T09:57:33Z</time>
      </trkpt>
      <trkpt lat="43.05831" lon="5.83526">
        <ele>131</ele>
        <time>2019-10-23T09:57:34Z</time>
      </trkpt>
      <trkpt lat="43.05827" lon="5.83528">
        <ele>131</ele>
        <time>2019-10-23T09:57:35Z</time>
      </trkpt>
      <trkpt lat="43.05824" lon="5.83529">
        <ele>131</ele>
        <time>2019-10-23T09:57:36Z</time>
      </trkpt>
      <trkpt lat="43.0582" lon="5.83529">
        <ele>131</ele>
        <time>2019-10-23T09:57:37Z</time>
      </trkpt>
      <trkpt lat="43.05816" lon="5.83529">
        <ele>132</ele>
        <time>2019-10-23T09:57:38Z</time>
      </trkpt>
      <trkpt lat="43.05812" lon="5.83529">
        <ele>132</ele>
        <time>2019-10-23T09:57:39Z</time>
      </trkpt>
      <trkpt lat="43.05808" lon="5.83528">
        <ele>133</ele>
        <time>2019-10-23T09:57:40Z</time>
      </trkpt>
      <trkpt lat="43.05805" lon="5.83527">
        <ele>133</ele>
        <time>2019-10-23T09:57:41Z</time>
      </trkpt>
      <trkpt lat="43.05801" lon="5.83525">
        <ele>134</ele>
        <time>2019-10-23T09:57:42Z</time>
      </trkpt>
      <trkpt lat="43.05797" lon="5.83524">
        <ele>134</ele>
        <time>2019-10-23T09:57:43Z</time>
      </trkpt>
      <trkpt lat="43.05794" lon="5.83522">
        <ele>134</ele>
        <time>2019-10-23T09:57:44Z</time>
      </trkpt>
      <trkpt lat="43.0579" lon="5.83521">
        <ele>134</ele>
        <time>2019-10-23T09:57:45Z</time>
      </trkpt>
      <trkpt lat="43.05786" lon="5.8352">
        <ele>134</ele>
        <time>2019-10-23T09:57:46Z</time>
      </trkpt>
      <trkpt lat="43.05782" lon="5.83519">
        <ele>134</ele>
        <time>2019-10-23T09:57:47Z</time>
      </trkpt>
      <trkpt lat="43.05778" lon="5.83519">
        <ele>134</ele>
        <time>2019-10-23T09:57:48Z</time>
      </trkpt>
      <trkpt lat="43.05775" lon="5.83519">
        <ele>134</ele>
        <time>2019-10-23T09:57:49Z</time>
      </trkpt>
      <trkpt lat="43.05771" lon="5.83519">
        <ele>135</ele>
        <time>2019-10-23T09:57:50Z</time>
      </trkpt>
      <trkpt lat="43.05767" lon="5.8352">
        <ele>135</ele>
        <time>2019-10-23T09:57:51Z</time>
      </trkpt>
      <trkpt lat="43.05763" lon="5.83521">
        <ele>134</ele>
        <time>2019-10-23T09:57:52Z</time>
      </trkpt>
      <trkpt lat="43.0576" lon="5.83524">
        <ele>134</ele>
        <time>2019-10-23T09:57:53Z</time>
      </trkpt>
      <trkpt lat="43.05756" lon="5.83527">
        <ele>134</ele>
        <time>2019-10-23T09:57:54Z</time>
      </trkpt>
      <trkpt lat="43.05753" lon="5.83531">
        <ele>134</ele>
        <time>2019-10-23T09:57:55Z</time>
      </trkpt>
      <trkpt lat="43.0575" lon="5.83536">
        <ele>134</ele>
        <time>2019-10-23T09:57:56Z</time>
      </trkpt>
      <trkpt lat="43.05749" lon="5.83541">
        <ele>133</ele>
        <time>2019-10-23T09:57:57Z</time>
      </trkpt>
      <trkpt lat="43.05748" lon="5.83546">
        <ele>133</ele>
        <time>2019-10-23T09:57:58Z</time>
      </trkpt>
      <trkpt lat="43.05748" lon="5.83552">
        <ele>134</ele>
        <time>2019-10-23T09:57:59Z</time>
      </trkpt>
      <trkpt lat="43.05749" lon="5.83557">
        <ele>134</ele>
        <time>2019-10-23T09:58:00Z</time>
      </trkpt>
      <trkpt lat="43.0575" lon="5.83562">
        <ele>134</ele>
        <time>2019-10-23T09:58:01Z</time>
      </trkpt>
      <trkpt lat="43.05751" lon="5.83568">
        <ele>134</ele>
        <time>2019-10-23T09:58:02Z</time>
      </trkpt>
      <trkpt lat="43.05752" lon="5.83573">
        <ele>134</ele>
        <time>2019-10-23T09:58:03Z</time>
      </trkpt>
      <trkpt lat="43.05752" lon="5.83579">
        <ele>134</ele>
        <time>2019-10-23T09:58:04Z</time>
      </trkpt>
      <trkpt lat="43.05753" lon="5.83585">
        <ele>134</ele>
        <time>2019-10-23T09:58:05Z</time>
      </trkpt>
      <trkpt lat="43.05753" lon="5.8359">
        <ele>134</ele>
        <time>2019-10-23T09:58:06Z</time>
      </trkpt>
      <trkpt lat="43.05752" lon="5.83595">
        <ele>134</ele>
        <time>2019-10-23T09:58:07Z</time>
      </trkpt>
      <trkpt lat="43.05751" lon="5.836">
        <ele>134</ele>
        <time>2019-10-23T09:58:08Z</time>
      </trkpt>
      <trkpt lat="43.0575" lon="5.83605">
        <ele>134</ele>
        <time>2019-10-23T09:58:10Z</time>
      </trkpt>
      <trkpt lat="43.05749" lon="5.83609">
        <ele>135</ele>
        <time>2019-10-23T09:58:11Z</time>
      </trkpt>
      <trkpt lat="43.05747" lon="5.83613">
        <ele>135</ele>
        <time>2019-10-23T09:58:12Z</time>
      </trkpt>
      <trkpt lat="43.05744" lon="5.83617">
        <ele>135</ele>
        <time>2019-10-23T09:58:13Z</time>
      </trkpt>
      <trkpt lat="43.05742" lon="5.83621">
        <ele>135</ele>
        <time>2019-10-23T09:58:14Z</time>
      </trkpt>
      <trkpt lat="43.0574" lon="5.83624">
        <ele>136</ele>
        <time>2019-10-23T09:58:15Z</time>
      </trkpt>
      <trkpt lat="43.05737" lon="5.83627">
        <ele>136</ele>
        <time>2019-10-23T09:58:16Z</time>
      </trkpt>
      <trkpt lat="43.05733" lon="5.83631">
        <ele>136</ele>
        <time>2019-10-23T09:58:17Z</time>
      </trkpt>
      <trkpt lat="43.0573" lon="5.83634">
        <ele>137</ele>
        <time>2019-10-23T09:58:18Z</time>
      </trkpt>
      <trkpt lat="43.05727" lon="5.83636">
        <ele>137</ele>
        <time>2019-10-23T09:58:19Z</time>
      </trkpt>
      <trkpt lat="43.05724" lon="5.83639">
        <ele>137</ele>
        <time>2019-10-23T09:58:20Z</time>
      </trkpt>
      <trkpt lat="43.05721" lon="5.83642">
        <ele>138</ele>
        <time>2019-10-23T09:58:21Z</time>
      </trkpt>
      <trkpt lat="43.05718" lon="5.83644">
        <ele>138</ele>
        <time>2019-10-23T09:58:22Z</time>
      </trkpt>
      <trkpt lat="43.05714" lon="5.83646">
        <ele>138</ele>
        <time>2019-10-23T09:58:23Z</time>
      </trkpt>
      <trkpt lat="43.05711" lon="5.83648">
        <ele>138</ele>
        <time>2019-10-23T09:58:24Z</time>
      </trkpt>
      <trkpt lat="43.05707" lon="5.83649">
        <ele>139</ele>
        <time>2019-10-23T09:58:25Z</time>
      </trkpt>
      <trkpt lat="43.05703" lon="5.83648">
        <ele>139</ele>
        <time>2019-10-23T09:58:26Z</time>
      </trkpt>
      <trkpt lat="43.057" lon="5.83647">
        <ele>139</ele>
        <time>2019-10-23T09:58:27Z</time>
      </trkpt>
      <trkpt lat="43.05696" lon="5.83645">
        <ele>138</ele>
        <time>2019-10-23T09:58:28Z</time>
      </trkpt>
      <trkpt lat="43.05693" lon="5.83641">
        <ele>138</ele>
        <time>2019-10-23T09:58:29Z</time>
      </trkpt>
      <trkpt lat="43.05691" lon="5.83638">
        <ele>138</ele>
        <time>2019-10-23T09:58:30Z</time>
      </trkpt>
      <trkpt lat="43.05689" lon="5.83634">
        <ele>137</ele>
        <time>2019-10-23T09:58:31Z</time>
      </trkpt>
      <trkpt lat="43.05687" lon="5.83629">
        <ele>136</ele>
        <time>2019-10-23T09:58:32Z</time>
      </trkpt>
      <trkpt lat="43.05685" lon="5.83625">
        <ele>136</ele>
        <time>2019-10-23T09:58:33Z</time>
      </trkpt>
      <trkpt lat="43.05683" lon="5.8362">
        <ele>136</ele>
        <time>2019-10-23T09:58:34Z</time>
      </trkpt>
      <trkpt lat="43.05682" lon="5.83616">
        <ele>136</ele>
        <time>2019-10-23T09:58:35Z</time>
      </trkpt>
      <trkpt lat="43.0568" lon="5.83611">
        <ele>135</ele>
        <time>2019-10-23T09:58:36Z</time>
      </trkpt>
      <trkpt lat="43.05678" lon="5.83606">
        <ele>135</ele>
        <time>2019-10-23T09:58:37Z</time>
      </trkpt>
      <trkpt lat="43.05676" lon="5.83602">
        <ele>135</ele>
        <time>2019-10-23T09:58:38Z</time>
      </trkpt>
      <trkpt lat="43.05674" lon="5.83597">
        <ele>134</ele>
        <time>2019-10-23T09:58:39Z</time>
      </trkpt>
      <trkpt lat="43.0567" lon="5.83589">
        <ele>133</ele>
        <time>2019-10-23T09:58:40Z</time>
      </trkpt>
      <trkpt lat="43.05667" lon="5.83585">
        <ele>133</ele>
        <time>2019-10-23T09:58:41Z</time>
      </trkpt>
      <trkpt lat="43.05665" lon="5.83581">
        <ele>133</ele>
        <time>2019-10-23T09:58:42Z</time>
      </trkpt>
      <trkpt lat="43.05661" lon="5.83579">
        <ele>133</ele>
        <time>2019-10-23T09:58:43Z</time>
      </trkpt>
      <trkpt lat="43.05656" lon="5.8358">
        <ele>133</ele>
        <time>2019-10-23T09:58:44Z</time>
      </trkpt>
      <trkpt lat="43.05652" lon="5.83582">
        <ele>133</ele>
        <time>2019-10-23T09:58:45Z</time>
      </trkpt>
      <trkpt lat="43.05648" lon="5.83585">
        <ele>133</ele>
        <time>2019-10-23T09:58:46Z</time>
      </trkpt>
      <trkpt lat="43.05647" lon="5.8359">
        <ele>133</ele>
        <time>2019-10-23T09:58:47Z</time>
      </trkpt>
      <trkpt lat="43.05645" lon="5.83595">
        <ele>133</ele>
        <time>2019-10-23T09:58:48Z</time>
      </trkpt>
      <trkpt lat="43.05645" lon="5.836">
        <ele>134</ele>
        <time>2019-10-23T09:58:49Z</time>
      </trkpt>
      <trkpt lat="43.05644" lon="5.83605">
        <ele>134</ele>
        <time>2019-10-23T09:58:50Z</time>
      </trkpt>
      <trkpt lat="43.05644" lon="5.83609">
        <ele>134</ele>
        <time>2019-10-23T09:58:51Z</time>
      </trkpt>
      <trkpt lat="43.05643" lon="5.83615">
        <ele>135</ele>
        <time>2019-10-23T09:58:52Z</time>
      </trkpt>
      <trkpt lat="43.05641" lon="5.8362">
        <ele>135</ele>
        <time>2019-10-23T09:58:53Z</time>
      </trkpt>
      <trkpt lat="43.0564" lon="5.83624">
        <ele>136</ele>
        <time>2019-10-23T09:58:54Z</time>
      </trkpt>
      <trkpt lat="43.05637" lon="5.83629">
        <ele>136</ele>
        <time>2019-10-23T09:58:55Z</time>
      </trkpt>
      <trkpt lat="43.05635" lon="5.83634">
        <ele>136</ele>
        <time>2019-10-23T09:58:56Z</time>
      </trkpt>
      <trkpt lat="43.05632" lon="5.83638">
        <ele>137</ele>
        <time>2019-10-23T09:58:57Z</time>
      </trkpt>
      <trkpt lat="43.05629" lon="5.83642">
        <ele>137</ele>
        <time>2019-10-23T09:58:58Z</time>
      </trkpt>
      <trkpt lat="43.05627" lon="5.83645">
        <ele>138</ele>
        <time>2019-10-23T09:58:59Z</time>
      </trkpt>
      <trkpt lat="43.05624" lon="5.83648">
        <ele>139</ele>
        <time>2019-10-23T09:59:00Z</time>
      </trkpt>
      <trkpt lat="43.05622" lon="5.83651">
        <ele>139</ele>
        <time>2019-10-23T09:59:01Z</time>
      </trkpt>
      <trkpt lat="43.0562" lon="5.83654">
        <ele>139</ele>
        <time>2019-10-23T09:59:02Z</time>
      </trkpt>
      <trkpt lat="43.05617" lon="5.83658">
        <ele>140</ele>
        <time>2019-10-23T09:59:03Z</time>
      </trkpt>
      <trkpt lat="43.05614" lon="5.83662">
        <ele>140</ele>
        <time>2019-10-23T09:59:04Z</time>
      </trkpt>
      <trkpt lat="43.05612" lon="5.83665">
        <ele>140</ele>
        <time>2019-10-23T09:59:05Z</time>
      </trkpt>
      <trkpt lat="43.0561" lon="5.83669">
        <ele>140</ele>
        <time>2019-10-23T09:59:06Z</time>
      </trkpt>
      <trkpt lat="43.05608" lon="5.83673">
        <ele>140</ele>
        <time>2019-10-23T09:59:07Z</time>
      </trkpt>
      <trkpt lat="43.05606" lon="5.83677">
        <ele>140</ele>
        <time>2019-10-23T09:59:08Z</time>
      </trkpt>
      <trkpt lat="43.05605" lon="5.83682">
        <ele>140</ele>
        <time>2019-10-23T09:59:09Z</time>
      </trkpt>
      <trkpt lat="43.05605" lon="5.83687">
        <ele>140</ele>
        <time>2019-10-23T09:59:10Z</time>
      </trkpt>
      <trkpt lat="43.05606" lon="5.83693">
        <ele>140</ele>
        <time>2019-10-23T09:59:11Z</time>
      </trkpt>
      <trkpt lat="43.05607" lon="5.83698">
        <ele>141</ele>
        <time>2019-10-23T09:59:12Z</time>
      </trkpt>
      <trkpt lat="43.05609" lon="5.83703">
        <ele>141</ele>
        <time>2019-10-23T09:59:13Z</time>
      </trkpt>
      <trkpt lat="43.0561" lon="5.83708">
        <ele>142</ele>
        <time>2019-10-23T09:59:14Z</time>
      </trkpt>
      <trkpt lat="43.05611" lon="5.83713">
        <ele>142</ele>
        <time>2019-10-23T09:59:15Z</time>
      </trkpt>
      <trkpt lat="43.05611" lon="5.83719">
        <ele>143</ele>
        <time>2019-10-23T09:59:16Z</time>
      </trkpt>
      <trkpt lat="43.05612" lon="5.83724">
        <ele>143</ele>
        <time>2019-10-23T09:59:17Z</time>
      </trkpt>
      <trkpt lat="43.05612" lon="5.83729">
        <ele>143</ele>
        <time>2019-10-23T09:59:18Z</time>
      </trkpt>
      <trkpt lat="43.05611" lon="5.83734">
        <ele>143</ele>
        <time>2019-10-23T09:59:19Z</time>
      </trkpt>
      <trkpt lat="43.0561" lon="5.8374">
        <ele>143</ele>
        <time>2019-10-23T09:59:20Z</time>
      </trkpt>
      <trkpt lat="43.05609" lon="5.83745">
        <ele>143</ele>
        <time>2019-10-23T09:59:21Z</time>
      </trkpt>
      <trkpt lat="43.05608" lon="5.8375">
        <ele>142</ele>
        <time>2019-10-23T09:59:22Z</time>
      </trkpt>
      <trkpt lat="43.05607" lon="5.83756">
        <ele>142</ele>
        <time>2019-10-23T09:59:23Z</time>
      </trkpt>
      <trkpt lat="43.05606" lon="5.83761">
        <ele>142</ele>
        <time>2019-10-23T09:59:24Z</time>
      </trkpt>
      <trkpt lat="43.05606" lon="5.83767">
        <ele>142</ele>
        <time>2019-10-23T09:59:25Z</time>
      </trkpt>
      <trkpt lat="43.05606" lon="5.83773">
        <ele>142</ele>
        <time>2019-10-23T09:59:26Z</time>
      </trkpt>
      <trkpt lat="43.05606" lon="5.83778">
        <ele>142</ele>
        <time>2019-10-23T09:59:27Z</time>
      </trkpt>
      <trkpt lat="43.05606" lon="5.83784">
        <ele>143</ele>
        <time>2019-10-23T09:59:28Z</time>
      </trkpt>
      <trkpt lat="43.05607" lon="5.8379">
        <ele>144</ele>
        <time>2019-10-23T09:59:29Z</time>
      </trkpt>
      <trkpt lat="43.05608" lon="5.83795">
        <ele>144</ele>
        <time>2019-10-23T09:59:30Z</time>
      </trkpt>
      <trkpt lat="43.05608" lon="5.83801">
        <ele>145</ele>
        <time>2019-10-23T09:59:31Z</time>
      </trkpt>
      <trkpt lat="43.05609" lon="5.83807">
        <ele>146</ele>
        <time>2019-10-23T09:59:32Z</time>
      </trkpt>
      <trkpt lat="43.05609" lon="5.83812">
        <ele>147</ele>
        <time>2019-10-23T09:59:33Z</time>
      </trkpt>
      <trkpt lat="43.0561" lon="5.83818">
        <ele>147</ele>
        <time>2019-10-23T09:59:34Z</time>
      </trkpt>
      <trkpt lat="43.05611" lon="5.83823">
        <ele>148</ele>
        <time>2019-10-23T09:59:35Z</time>
      </trkpt>
      <trkpt lat="43.05611" lon="5.83828">
        <ele>148</ele>
        <time>2019-10-23T09:59:36Z</time>
      </trkpt>
      <trkpt lat="43.05611" lon="5.83833">
        <ele>149</ele>
        <time>2019-10-23T09:59:37Z</time>
      </trkpt>
      <trkpt lat="43.05611" lon="5.83837">
        <ele>149</ele>
        <time>2019-10-23T09:59:38Z</time>
      </trkpt>
      <trkpt lat="43.05612" lon="5.83842">
        <ele>149</ele>
        <time>2019-10-23T09:59:39Z</time>
      </trkpt>
      <trkpt lat="43.05613" lon="5.83847">
        <ele>149</ele>
        <time>2019-10-23T09:59:40Z</time>
      </trkpt>
      <trkpt lat="43.05614" lon="5.83852">
        <ele>149</ele>
        <time>2019-10-23T09:59:41Z</time>
      </trkpt>
      <trkpt lat="43.05615" lon="5.83857">
        <ele>149</ele>
        <time>2019-10-23T09:59:42Z</time>
      </trkpt>
      <trkpt lat="43.05616" lon="5.83862">
        <ele>149</ele>
        <time>2019-10-23T09:59:43Z</time>
      </trkpt>
      <trkpt lat="43.05617" lon="5.83867">
        <ele>149</ele>
        <time>2019-10-23T09:59:44Z</time>
      </trkpt>
      <trkpt lat="43.05618" lon="5.83872">
        <ele>149</ele>
        <time>2019-10-23T09:59:45Z</time>
      </trkpt>
      <trkpt lat="43.05619" lon="5.83877">
        <ele>149</ele>
        <time>2019-10-23T09:59:46Z</time>
      </trkpt>
      <trkpt lat="43.0562" lon="5.83881">
        <ele>149</ele>
        <time>2019-10-23T09:59:47Z</time>
      </trkpt>
      <trkpt lat="43.05621" lon="5.83886">
        <ele>150</ele>
        <time>2019-10-23T09:59:48Z</time>
      </trkpt>
      <trkpt lat="43.05622" lon="5.83891">
        <ele>150</ele>
        <time>2019-10-23T09:59:49Z</time>
      </trkpt>
      <trkpt lat="43.05623" lon="5.83895">
        <ele>151</ele>
        <time>2019-10-23T09:59:50Z</time>
      </trkpt>
      <trkpt lat="43.05623" lon="5.839">
        <ele>151</ele>
        <time>2019-10-23T09:59:51Z</time>
      </trkpt>
      <trkpt lat="43.05623" lon="5.83904">
        <ele>151</ele>
        <time>2019-10-23T09:59:52Z</time>
      </trkpt>
      <trkpt lat="43.05623" lon="5.83909">
        <ele>152</ele>
        <time>2019-10-23T09:59:53Z</time>
      </trkpt>
      <trkpt lat="43.05622" lon="5.83913">
        <ele>152</ele>
        <time>2019-10-23T09:59:54Z</time>
      </trkpt>
      <trkpt lat="43.05621" lon="5.83918">
        <ele>152</ele>
        <time>2019-10-23T09:59:55Z</time>
      </trkpt>
      <trkpt lat="43.05621" lon="5.83922">
        <ele>152</ele>
        <time>2019-10-23T09:59:56Z</time>
      </trkpt>
      <trkpt lat="43.0562" lon="5.83927">
        <ele>152</ele>
        <time>2019-10-23T09:59:57Z</time>
      </trkpt>
      <trkpt lat="43.05619" lon="5.83931">
        <ele>152</ele>
        <time>2019-10-23T09:59:58Z</time>
      </trkpt>
      <trkpt lat="43.05618" lon="5.83936">
        <ele>153</ele>
        <time>2019-10-23T09:59:59Z</time>
      </trkpt>
      <trkpt lat="43.05617" lon="5.8394">
        <ele>153</ele>
        <time>2019-10-23T10:00:00Z</time>
      </trkpt>
      <trkpt lat="43.05616" lon="5.83945">
        <ele>153</ele>
        <time>2019-10-23T10:00:01Z</time>
      </trkpt>
      <trkpt lat="43.05616" lon="5.83949">
        <ele>154</ele>
        <time>2019-10-23T10:00:02Z</time>
      </trkpt>
      <trkpt lat="43.05615" lon="5.83954">
        <ele>154</ele>
        <time>2019-10-23T10:00:03Z</time>
      </trkpt>
      <trkpt lat="43.05615" lon="5.83958">
        <ele>155</ele>
        <time>2019-10-23T10:00:04Z</time>
      </trkpt>
      <trkpt lat="43.05614" lon="5.83963">
        <ele>155</ele>
        <time>2019-10-23T10:00:05Z</time>
      </trkpt>
      <trkpt lat="43.05613" lon="5.83967">
        <ele>156</ele>
        <time>2019-10-23T10:00:06Z</time>
      </trkpt>
      <trkpt lat="43.05613" lon="5.83971">
        <ele>156</ele>
        <time>2019-10-23T10:00:07Z</time>
      </trkpt>
      <trkpt lat="43.05613" lon="5.83975">
        <ele>156</ele>
        <time>2019-10-23T10:00:08Z</time>
      </trkpt>
      <trkpt lat="43.05613" lon="5.8398">
        <ele>157</ele>
        <time>2019-10-23T10:00:09Z</time>
      </trkpt>
      <trkpt lat="43.05613" lon="5.83984">
        <ele>157</ele>
        <time>2019-10-23T10:00:10Z</time>
      </trkpt>
      <trkpt lat="43.05613" lon="5.83989">
        <ele>157</ele>
        <time>2019-10-23T10:00:11Z</time>
      </trkpt>
      <trkpt lat="43.05613" lon="5.83993">
        <ele>157</ele>
        <time>2019-10-23T10:00:12Z</time>
      </trkpt>
      <trkpt lat="43.05613" lon="5.83998">
        <ele>156</ele>
        <time>2019-10-23T10:00:13Z</time>
      </trkpt>
      <trkpt lat="43.05614" lon="5.84003">
        <ele>156</ele>
        <time>2019-10-23T10:00:14Z</time>
      </trkpt>
      <trkpt lat="43.05615" lon="5.84007">
        <ele>156</ele>
        <time>2019-10-23T10:00:15Z</time>
      </trkpt>
      <trkpt lat="43.05617" lon="5.84011">
        <ele>155</ele>
        <time>2019-10-23T10:00:16Z</time>
      </trkpt>
      <trkpt lat="43.0562" lon="5.84015">
        <ele>155</ele>
        <time>2019-10-23T10:00:17Z</time>
      </trkpt>
      <trkpt lat="43.05623" lon="5.84017">
        <ele>154</ele>
        <time>2019-10-23T10:00:18Z</time>
      </trkpt>
      <trkpt lat="43.05626" lon="5.84018">
        <ele>154</ele>
        <time>2019-10-23T10:00:19Z</time>
      </trkpt>
      <trkpt lat="43.0563" lon="5.84018">
        <ele>154</ele>
        <time>2019-10-23T10:00:20Z</time>
      </trkpt>
      <trkpt lat="43.05633" lon="5.84016">
        <ele>153</ele>
        <time>2019-10-23T10:00:21Z</time>
      </trkpt>
      <trkpt lat="43.05637" lon="5.84013">
        <ele>153</ele>
        <time>2019-10-23T10:00:22Z</time>
      </trkpt>
      <trkpt lat="43.0564" lon="5.84009">
        <ele>153</ele>
        <time>2019-10-23T10:00:23Z</time>
      </trkpt>
      <trkpt lat="43.05642" lon="5.84006">
        <ele>153</ele>
        <time>2019-10-23T10:00:24Z</time>
      </trkpt>
      <trkpt lat="43.05645" lon="5.84002">
        <ele>153</ele>
        <time>2019-10-23T10:00:25Z</time>
      </trkpt>
      <trkpt lat="43.05647" lon="5.83999">
        <ele>153</ele>
        <time>2019-10-23T10:00:26Z</time>
      </trkpt>
      <trkpt lat="43.0565" lon="5.83996">
        <ele>153</ele>
        <time>2019-10-23T10:00:27Z</time>
      </trkpt>
      <trkpt lat="43.05653" lon="5.83994">
        <ele>154</ele>
        <time>2019-10-23T10:00:28Z</time>
      </trkpt>
      <trkpt lat="43.05656" lon="5.83992">
        <ele>154</ele>
        <time>2019-10-23T10:00:29Z</time>
      </trkpt>
      <trkpt lat="43.05659" lon="5.83991">
        <ele>154</ele>
        <time>2019-10-23T10:00:30Z</time>
      </trkpt>
      <trkpt lat="43.05663" lon="5.83992">
        <ele>155</ele>
        <time>2019-10-23T10:00:31Z</time>
      </trkpt>
      <trkpt lat="43.05666" lon="5.83993">
        <ele>155</ele>
        <time>2019-10-23T10:00:32Z</time>
      </trkpt>
      <trkpt lat="43.0567" lon="5.83994">
        <ele>155</ele>
        <time>2019-10-23T10:00:33Z</time>
      </trkpt>
      <trkpt lat="43.05674" lon="5.83995">
        <ele>156</ele>
        <time>2019-10-23T10:00:34Z</time>
      </trkpt>
      <trkpt lat="43.05678" lon="5.83997">
        <ele>156</ele>
        <time>2019-10-23T10:00:35Z</time>
      </trkpt>
      <trkpt lat="43.05681" lon="5.83999">
        <ele>156</ele>
        <time>2019-10-23T10:00:36Z</time>
      </trkpt>
      <trkpt lat="43.05685" lon="5.84001">
        <ele>156</ele>
        <time>2019-10-23T10:00:37Z</time>
      </trkpt>
      <trkpt lat="43.05688" lon="5.84002">
        <ele>156</ele>
        <time>2019-10-23T10:00:38Z</time>
      </trkpt>
      <trkpt lat="43.05691" lon="5.84004">
        <ele>157</ele>
        <time>2019-10-23T10:00:39Z</time>
      </trkpt>
      <trkpt lat="43.05695" lon="5.84006">
        <ele>157</ele>
        <time>2019-10-23T10:00:40Z</time>
      </trkpt>
      <trkpt lat="43.05698" lon="5.84008">
        <ele>157</ele>
        <time>2019-10-23T10:00:41Z</time>
      </trkpt>
      <trkpt lat="43.05701" lon="5.84011">
        <ele>157</ele>
        <time>2019-10-23T10:00:42Z</time>
      </trkpt>
      <trkpt lat="43.05704" lon="5.84013">
        <ele>157</ele>
        <time>2019-10-23T10:00:43Z</time>
      </trkpt>
      <trkpt lat="43.05707" lon="5.84016">
        <ele>158</ele>
        <time>2019-10-23T10:00:44Z</time>
      </trkpt>
      <trkpt lat="43.0571" lon="5.84019">
        <ele>158</ele>
        <time>2019-10-23T10:00:45Z</time>
      </trkpt>
      <trkpt lat="43.05713" lon="5.84022">
        <ele>158</ele>
        <time>2019-10-23T10:00:46Z</time>
      </trkpt>
      <trkpt lat="43.05716" lon="5.84024">
        <ele>158</ele>
        <time>2019-10-23T10:00:47Z</time>
      </trkpt>
      <trkpt lat="43.05719" lon="5.84027">
        <ele>158</ele>
        <time>2019-10-23T10:00:48Z</time>
      </trkpt>
      <trkpt lat="43.05722" lon="5.8403">
        <ele>158</ele>
        <time>2019-10-23T10:00:49Z</time>
      </trkpt>
      <trkpt lat="43.05725" lon="5.84033">
        <ele>159</ele>
        <time>2019-10-23T10:00:50Z</time>
      </trkpt>
      <trkpt lat="43.05728" lon="5.84035">
        <ele>159</ele>
        <time>2019-10-23T10:00:51Z</time>
      </trkpt>
      <trkpt lat="43.05732" lon="5.84036">
        <ele>159</ele>
        <time>2019-10-23T10:00:52Z</time>
      </trkpt>
      <trkpt lat="43.05736" lon="5.84037">
        <ele>159</ele>
        <time>2019-10-23T10:00:53Z</time>
      </trkpt>
      <trkpt lat="43.0574" lon="5.84036">
        <ele>159</ele>
        <time>2019-10-23T10:00:54Z</time>
      </trkpt>
      <trkpt lat="43.05744" lon="5.84034">
        <ele>160</ele>
        <time>2019-10-23T10:00:55Z</time>
      </trkpt>
      <trkpt lat="43.05747" lon="5.8403">
        <ele>160</ele>
        <time>2019-10-23T10:00:56Z</time>
      </trkpt>
      <trkpt lat="43.05749" lon="5.84025">
        <ele>160</ele>
        <time>2019-10-23T10:00:57Z</time>
      </trkpt>
      <trkpt lat="43.0575" lon="5.8402">
        <ele>161</ele>
        <time>2019-10-23T10:00:58Z</time>
      </trkpt>
      <trkpt lat="43.0575" lon="5.84014">
        <ele>162</ele>
        <time>2019-10-23T10:00:59Z</time>
      </trkpt>
      <trkpt lat="43.0575" lon="5.84008">
        <ele>163</ele>
        <time>2019-10-23T10:01:00Z</time>
      </trkpt>
      <trkpt lat="43.05749" lon="5.84002">
        <ele>163</ele>
        <time>2019-10-23T10:01:01Z</time>
      </trkpt>
      <trkpt lat="43.05749" lon="5.83997">
        <ele>164</ele>
        <time>2019-10-23T10:01:02Z</time>
      </trkpt>
      <trkpt lat="43.05748" lon="5.83992">
        <ele>164</ele>
        <time>2019-10-23T10:01:03Z</time>
      </trkpt>
      <trkpt lat="43.05747" lon="5.83987">
        <ele>164</ele>
        <time>2019-10-23T10:01:04Z</time>
      </trkpt>
      <trkpt lat="43.05747" lon="5.83982">
        <ele>164</ele>
        <time>2019-10-23T10:01:05Z</time>
      </trkpt>
      <trkpt lat="43.05746" lon="5.83977">
        <ele>164</ele>
        <time>2019-10-23T10:01:06Z</time>
      </trkpt>
      <trkpt lat="43.05746" lon="5.83972">
        <ele>163</ele>
        <time>2019-10-23T10:01:07Z</time>
      </trkpt>
      <trkpt lat="43.05746" lon="5.83967">
        <ele>163</ele>
        <time>2019-10-23T10:01:08Z</time>
      </trkpt>
      <trkpt lat="43.05745" lon="5.83962">
        <ele>163</ele>
        <time>2019-10-23T10:01:09Z</time>
      </trkpt>
      <trkpt lat="43.05745" lon="5.83957">
        <ele>163</ele>
        <time>2019-10-23T10:01:10Z</time>
      </trkpt>
      <trkpt lat="43.05745" lon="5.83952">
        <ele>163</ele>
        <time>2019-10-23T10:01:11Z</time>
      </trkpt>
      <trkpt lat="43.05744" lon="5.83947">
        <ele>163</ele>
        <time>2019-10-23T10:01:12Z</time>
      </trkpt>
      <trkpt lat="43.05745" lon="5.83942">
        <ele>163</ele>
        <time>2019-10-23T10:01:13Z</time>
      </trkpt>
      <trkpt lat="43.05745" lon="5.83937">
        <ele>163</ele>
        <time>2019-10-23T10:01:14Z</time>
      </trkpt>
      <trkpt lat="43.05745" lon="5.83932">
        <ele>163</ele>
        <time>2019-10-23T10:01:15Z</time>
      </trkpt>
      <trkpt lat="43.05745" lon="5.83927">
        <ele>163</ele>
        <time>2019-10-23T10:01:16Z</time>
      </trkpt>
      <trkpt lat="43.05745" lon="5.83922">
        <ele>163</ele>
        <time>2019-10-23T10:01:17Z</time>
      </trkpt>
      <trkpt lat="43.05745" lon="5.83917">
        <ele>164</ele>
        <time>2019-10-23T10:01:18Z</time>
      </trkpt>
      <trkpt lat="43.05746" lon="5.83912">
        <ele>164</ele>
        <time>2019-10-23T10:01:19Z</time>
      </trkpt>
      <trkpt lat="43.05746" lon="5.83908">
        <ele>165</ele>
        <time>2019-10-23T10:01:20Z</time>
      </trkpt>
      <trkpt lat="43.05747" lon="5.83903">
        <ele>165</ele>
        <time>2019-10-23T10:01:21Z</time>
      </trkpt>
      <trkpt lat="43.05748" lon="5.83898">
        <ele>165</ele>
        <time>2019-10-23T10:01:22Z</time>
      </trkpt>
      <trkpt lat="43.05749" lon="5.83893">
        <ele>165</ele>
        <time>2019-10-23T10:01:23Z</time>
      </trkpt>
      <trkpt lat="43.05751" lon="5.83889">
        <ele>165</ele>
        <time>2019-10-23T10:01:24Z</time>
      </trkpt>
      <trkpt lat="43.05753" lon="5.83885">
        <ele>164</ele>
        <time>2019-10-23T10:01:25Z</time>
      </trkpt>
      <trkpt lat="43.05756" lon="5.83881">
        <ele>164</ele>
        <time>2019-10-23T10:01:26Z</time>
      </trkpt>
      <trkpt lat="43.05759" lon="5.83879">
        <ele>164</ele>
        <time>2019-10-23T10:01:27Z</time>
      </trkpt>
      <trkpt lat="43.05763" lon="5.83877">
        <ele>164</ele>
        <time>2019-10-23T10:01:28Z</time>
      </trkpt>
      <trkpt lat="43.05767" lon="5.83877">
        <ele>165</ele>
        <time>2019-10-23T10:01:29Z</time>
      </trkpt>
      <trkpt lat="43.05771" lon="5.83877">
        <ele>165</ele>
        <time>2019-10-23T10:01:30Z</time>
      </trkpt>
      <trkpt lat="43.05775" lon="5.83877">
        <ele>165</ele>
        <time>2019-10-23T10:01:31Z</time>
      </trkpt>
      <trkpt lat="43.05778" lon="5.83877">
        <ele>165</ele>
        <time>2019-10-23T10:01:32Z</time>
      </trkpt>
      <trkpt lat="43.05782" lon="5.83877">
        <ele>165</ele>
        <time>2019-10-23T10:01:33Z</time>
      </trkpt>
      <trkpt lat="43.05785" lon="5.83878">
        <ele>165</ele>
        <time>2019-10-23T10:01:34Z</time>
      </trkpt>
      <trkpt lat="43.05789" lon="5.8388">
        <ele>166</ele>
        <time>2019-10-23T10:01:35Z</time>
      </trkpt>
      <trkpt lat="43.05792" lon="5.83881">
        <ele>166</ele>
        <time>2019-10-23T10:01:36Z</time>
      </trkpt>
      <trkpt lat="43.05796" lon="5.83883">
        <ele>166</ele>
        <time>2019-10-23T10:01:37Z</time>
      </trkpt>
      <trkpt lat="43.058" lon="5.83885">
        <ele>166</ele>
        <time>2019-10-23T10:01:38Z</time>
      </trkpt>
      <trkpt lat="43.05804" lon="5.83888">
        <ele>166</ele>
        <time>2019-10-23T10:01:39Z</time>
      </trkpt>
      <trkpt lat="43.05807" lon="5.8389">
        <ele>166</ele>
        <time>2019-10-23T10:01:40Z</time>
      </trkpt>
      <trkpt lat="43.05811" lon="5.83892">
        <ele>166</ele>
        <time>2019-10-23T10:01:41Z</time>
      </trkpt>
      <trkpt lat="43.05815" lon="5.83894">
        <ele>166</ele>
        <time>2019-10-23T10:01:42Z</time>
      </trkpt>
      <trkpt lat="43.05818" lon="5.83896">
        <ele>166</ele>
        <time>2019-10-23T10:01:43Z</time>
      </trkpt>
      <trkpt lat="43.05822" lon="5.83898">
        <ele>166</ele>
        <time>2019-10-23T10:01:44Z</time>
      </trkpt>
      <trkpt lat="43.05826" lon="5.839">
        <ele>166</ele>
        <time>2019-10-23T10:01:45Z</time>
      </trkpt>
      <trkpt lat="43.05829" lon="5.83903">
        <ele>166</ele>
        <time>2019-10-23T10:01:46Z</time>
      </trkpt>
      <trkpt lat="43.05832" lon="5.83905">
        <ele>166</ele>
        <time>2019-10-23T10:01:47Z</time>
      </trkpt>
      <trkpt lat="43.05835" lon="5.83907">
        <ele>166</ele>
        <time>2019-10-23T10:01:48Z</time>
      </trkpt>
      <trkpt lat="43.05839" lon="5.8391">
        <ele>166</ele>
        <time>2019-10-23T10:01:49Z</time>
      </trkpt>
      <trkpt lat="43.05842" lon="5.83912">
        <ele>166</ele>
        <time>2019-10-23T10:01:50Z</time>
      </trkpt>
      <trkpt lat="43.05845" lon="5.83915">
        <ele>166</ele>
        <time>2019-10-23T10:01:51Z</time>
      </trkpt>
      <trkpt lat="43.05848" lon="5.83918">
        <ele>166</ele>
        <time>2019-10-23T10:01:52Z</time>
      </trkpt>
      <trkpt lat="43.05851" lon="5.83921">
        <ele>166</ele>
        <time>2019-10-23T10:01:53Z</time>
      </trkpt>
      <trkpt lat="43.05854" lon="5.83924">
        <ele>167</ele>
        <time>2019-10-23T10:01:54Z</time>
      </trkpt>
      <trkpt lat="43.05857" lon="5.83927">
        <ele>167</ele>
        <time>2019-10-23T10:01:55Z</time>
      </trkpt>
      <trkpt lat="43.05861" lon="5.83929">
        <ele>168</ele>
        <time>2019-10-23T10:01:56Z</time>
      </trkpt>
      <trkpt lat="43.05864" lon="5.83931">
        <ele>168</ele>
        <time>2019-10-23T10:01:57Z</time>
      </trkpt>
      <trkpt lat="43.05868" lon="5.83931">
        <ele>169</ele>
        <time>2019-10-23T10:01:58Z</time>
      </trkpt>
      <trkpt lat="43.05872" lon="5.83932">
        <ele>169</ele>
        <time>2019-10-23T10:01:59Z</time>
      </trkpt>
      <trkpt lat="43.05875" lon="5.83931">
        <ele>169</ele>
        <time>2019-10-23T10:02:00Z</time>
      </trkpt>
      <trkpt lat="43.05879" lon="5.8393">
        <ele>170</ele>
        <time>2019-10-23T10:02:01Z</time>
      </trkpt>
      <trkpt lat="43.05882" lon="5.83928">
        <ele>170</ele>
        <time>2019-10-23T10:02:02Z</time>
      </trkpt>
      <trkpt lat="43.05886" lon="5.83926">
        <ele>170</ele>
        <time>2019-10-23T10:02:03Z</time>
      </trkpt>
      <trkpt lat="43.05889" lon="5.83923">
        <ele>170</ele>
        <time>2019-10-23T10:02:04Z</time>
      </trkpt>
      <trkpt lat="43.05892" lon="5.83921">
        <ele>171</ele>
        <time>2019-10-23T10:02:05Z</time>
      </trkpt>
      <trkpt lat="43.05895" lon="5.83919">
        <ele>171</ele>
        <time>2019-10-23T10:02:06Z</time>
      </trkpt>
      <trkpt lat="43.05898" lon="5.83917">
        <ele>171</ele>
        <time>2019-10-23T10:02:07Z</time>
      </trkpt>
      <trkpt lat="43.05901" lon="5.83915">
        <ele>171</ele>
        <time>2019-10-23T10:02:08Z</time>
      </trkpt>
      <trkpt lat="43.05905" lon="5.83913">
        <ele>171</ele>
        <time>2019-10-23T10:02:09Z</time>
      </trkpt>
      <trkpt lat="43.05909" lon="5.83912">
        <ele>171</ele>
        <time>2019-10-23T10:02:10Z</time>
      </trkpt>
      <trkpt lat="43.05912" lon="5.83911">
        <ele>171</ele>
        <time>2019-10-23T10:02:11Z</time>
      </trkpt>
      <trkpt lat="43.05916" lon="5.83912">
        <ele>171</ele>
        <time>2019-10-23T10:02:12Z</time>
      </trkpt>
      <trkpt lat="43.0592" lon="5.83913">
        <ele>172</ele>
        <time>2019-10-23T10:02:13Z</time>
      </trkpt>
      <trkpt lat="43.05924" lon="5.83915">
        <ele>172</ele>
        <time>2019-10-23T10:02:14Z</time>
      </trkpt>
      <trkpt lat="43.05927" lon="5.83919">
        <ele>172</ele>
        <time>2019-10-23T10:02:15Z</time>
      </trkpt>
      <trkpt lat="43.05929" lon="5.83923">
        <ele>173</ele>
        <time>2019-10-23T10:02:16Z</time>
      </trkpt>
      <trkpt lat="43.05932" lon="5.83928">
        <ele>173</ele>
        <time>2019-10-23T10:02:17Z</time>
      </trkpt>
      <trkpt lat="43.05933" lon="5.83932">
        <ele>174</ele>
        <time>2019-10-23T10:02:18Z</time>
      </trkpt>
      <trkpt lat="43.05935" lon="5.83937">
        <ele>174</ele>
        <time>2019-10-23T10:02:19Z</time>
      </trkpt>
      <trkpt lat="43.05936" lon="5.83942">
        <ele>174</ele>
        <time>2019-10-23T10:02:20Z</time>
      </trkpt>
      <trkpt lat="43.05937" lon="5.83947">
        <ele>174</ele>
        <time>2019-10-23T10:02:21Z</time>
      </trkpt>
      <trkpt lat="43.05938" lon="5.83951">
        <ele>174</ele>
        <time>2019-10-23T10:02:23Z</time>
      </trkpt>
      <trkpt lat="43.05939" lon="5.83956">
        <ele>175</ele>
        <time>2019-10-23T10:02:24Z</time>
      </trkpt>
      <trkpt lat="43.0594" lon="5.8396">
        <ele>175</ele>
        <time>2019-10-23T10:02:25Z</time>
      </trkpt>
      <trkpt lat="43.05941" lon="5.83964">
        <ele>175</ele>
        <time>2019-10-23T10:02:26Z</time>
      </trkpt>
      <trkpt lat="43.05942" lon="5.83968">
        <ele>175</ele>
        <time>2019-10-23T10:02:27Z</time>
      </trkpt>
      <trkpt lat="43.05941" lon="5.83972">
        <ele>175</ele>
        <time>2019-10-23T10:02:28Z</time>
      </trkpt>
      <trkpt lat="43.05941" lon="5.83976">
        <ele>175</ele>
        <time>2019-10-23T10:02:29Z</time>
      </trkpt>
      <trkpt lat="43.0594" lon="5.83981">
        <ele>175</ele>
        <time>2019-10-23T10:02:30Z</time>
      </trkpt>
      <trkpt lat="43.0594" lon="5.83985">
        <ele>175</ele>
        <time>2019-10-23T10:02:31Z</time>
      </trkpt>
      <trkpt lat="43.05939" lon="5.8399">
        <ele>175</ele>
        <time>2019-10-23T10:02:32Z</time>
      </trkpt>
      <trkpt lat="43.05938" lon="5.83994">
        <ele>175</ele>
        <time>2019-10-23T10:02:33Z</time>
      </trkpt>
      <trkpt lat="43.05937" lon="5.83997">
        <ele>176</ele>
        <time>2019-10-23T10:02:34Z</time>
      </trkpt>
      <trkpt lat="43.05936" lon="5.84001">
        <ele>176</ele>
        <time>2019-10-23T10:02:35Z</time>
      </trkpt>
      <trkpt lat="43.05934" lon="5.84005">
        <ele>176</ele>
        <time>2019-10-23T10:02:36Z</time>
      </trkpt>
      <trkpt lat="43.05933" lon="5.8401">
        <ele>177</ele>
        <time>2019-10-23T10:02:37Z</time>
      </trkpt>
      <trkpt lat="43.05932" lon="5.84014">
        <ele>177</ele>
        <time>2019-10-23T10:02:38Z</time>
      </trkpt>
      <trkpt lat="43.05931" lon="5.84019">
        <ele>178</ele>
        <time>2019-10-23T10:02:39Z</time>
      </trkpt>
      <trkpt lat="43.05931" lon="5.84023">
        <ele>178</ele>
        <time>2019-10-23T10:02:40Z</time>
      </trkpt>
      <trkpt lat="43.0593" lon="5.84028">
        <ele>179</ele>
        <time>2019-10-23T10:02:41Z</time>
      </trkpt>
      <trkpt lat="43.05929" lon="5.84032">
        <ele>179</ele>
        <time>2019-10-23T10:02:42Z</time>
      </trkpt>
      <trkpt lat="43.05929" lon="5.84037">
        <ele>179</ele>
        <time>2019-10-23T10:02:43Z</time>
      </trkpt>
      <trkpt lat="43.05928" lon="5.84041">
        <ele>180</ele>
        <time>2019-10-23T10:02:44Z</time>
      </trkpt>
      <trkpt lat="43.05928" lon="5.84045">
        <ele>180</ele>
        <time>2019-10-23T10:02:45Z</time>
      </trkpt>
      <trkpt lat="43.05927" lon="5.8405">
        <ele>180</ele>
        <time>2019-10-23T10:02:46Z</time>
      </trkpt>
      <trkpt lat="43.05927" lon="5.84055">
        <ele>179</ele>
        <time>2019-10-23T10:02:47Z</time>
      </trkpt>
      <trkpt lat="43.05927" lon="5.84059">
        <ele>179</ele>
        <time>2019-10-23T10:02:48Z</time>
      </trkpt>
      <trkpt lat="43.05927" lon="5.84063">
        <ele>179</ele>
        <time>2019-10-23T10:02:49Z</time>
      </trkpt>
      <trkpt lat="43.05927" lon="5.84068">
        <ele>179</ele>
        <time>2019-10-23T10:02:50Z</time>
      </trkpt>
      <trkpt lat="43.05927" lon="5.84072">
        <ele>179</ele>
        <time>2019-10-23T10:02:51Z</time>
      </trkpt>
      <trkpt lat="43.05927" lon="5.84076">
        <ele>180</ele>
        <time>2019-10-23T10:02:52Z</time>
      </trkpt>
      <trkpt lat="43.05927" lon="5.84082">
        <ele>180</ele>
        <time>2019-10-23T10:02:53Z</time>
      </trkpt>
      <trkpt lat="43.05926" lon="5.84087">
        <ele>180</ele>
        <time>2019-10-23T10:02:54Z</time>
      </trkpt>
      <trkpt lat="43.05926" lon="5.84092">
        <ele>180</ele>
        <time>2019-10-23T10:02:55Z</time>
      </trkpt>
      <trkpt lat="43.05925" lon="5.84096">
        <ele>181</ele>
        <time>2019-10-23T10:02:56Z</time>
      </trkpt>
      <trkpt lat="43.05925" lon="5.84101">
        <ele>181</ele>
        <time>2019-10-23T10:02:57Z</time>
      </trkpt>
      <trkpt lat="43.05924" lon="5.84105">
        <ele>182</ele>
        <time>2019-10-23T10:02:58Z</time>
      </trkpt>
      <trkpt lat="43.05924" lon="5.84109">
        <ele>183</ele>
        <time>2019-10-23T10:02:59Z</time>
      </trkpt>
      <trkpt lat="43.05924" lon="5.84114">
        <ele>183</ele>
        <time>2019-10-23T10:03:00Z</time>
      </trkpt>
      <trkpt lat="43.05924" lon="5.84118">
        <ele>184</ele>
        <time>2019-10-23T10:03:01Z</time>
      </trkpt>
      <trkpt lat="43.05924" lon="5.84123">
        <ele>184</ele>
        <time>2019-10-23T10:03:02Z</time>
      </trkpt>
      <trkpt lat="43.05924" lon="5.84127">
        <ele>185</ele>
        <time>2019-10-23T10:03:03Z</time>
      </trkpt>
      <trkpt lat="43.05924" lon="5.84132">
        <ele>185</ele>
        <time>2019-10-23T10:03:04Z</time>
      </trkpt>
      <trkpt lat="43.05925" lon="5.84136">
        <ele>185</ele>
        <time>2019-10-23T10:03:06Z</time>
      </trkpt>
      <trkpt lat="43.05926" lon="5.84141">
        <ele>185</ele>
        <time>2019-10-23T10:03:07Z</time>
      </trkpt>
      <trkpt lat="43.05928" lon="5.84144">
        <ele>185</ele>
        <time>2019-10-23T10:03:08Z</time>
      </trkpt>
      <trkpt lat="43.05931" lon="5.84148">
        <ele>186</ele>
        <time>2019-10-23T10:03:09Z</time>
      </trkpt>
      <trkpt lat="43.05933" lon="5.84151">
        <ele>186</ele>
        <time>2019-10-23T10:03:11Z</time>
      </trkpt>
      <trkpt lat="43.05937" lon="5.84153">
        <ele>186</ele>
        <time>2019-10-23T10:03:12Z</time>
      </trkpt>
      <trkpt lat="43.0594" lon="5.84155">
        <ele>187</ele>
        <time>2019-10-23T10:03:13Z</time>
      </trkpt>
      <trkpt lat="43.05943" lon="5.84156">
        <ele>187</ele>
        <time>2019-10-23T10:03:14Z</time>
      </trkpt>
      <trkpt lat="43.05947" lon="5.84157">
        <ele>188</ele>
        <time>2019-10-23T10:03:15Z</time>
      </trkpt>
      <trkpt lat="43.0595" lon="5.84158">
        <ele>189</ele>
        <time>2019-10-23T10:03:16Z</time>
      </trkpt>
      <trkpt lat="43.05954" lon="5.84158">
        <ele>189</ele>
        <time>2019-10-23T10:03:17Z</time>
      </trkpt>
      <trkpt lat="43.05957" lon="5.84159">
        <ele>189</ele>
        <time>2019-10-23T10:03:18Z</time>
      </trkpt>
      <trkpt lat="43.0596" lon="5.8416">
        <ele>189</ele>
        <time>2019-10-23T10:03:19Z</time>
      </trkpt>
      <trkpt lat="43.05963" lon="5.84162">
        <ele>189</ele>
        <time>2019-10-23T10:03:21Z</time>
      </trkpt>
      <trkpt lat="43.05965" lon="5.84163">
        <ele>189</ele>
        <time>2019-10-23T10:03:23Z</time>
      </trkpt>
      <trkpt lat="43.05967" lon="5.84166">
        <ele>190</ele>
        <time>2019-10-23T10:03:24Z</time>
      </trkpt>
      <trkpt lat="43.05969" lon="5.84169">
        <ele>190</ele>
        <time>2019-10-23T10:03:25Z</time>
      </trkpt>
      <trkpt lat="43.05971" lon="5.84172">
        <ele>190</ele>
        <time>2019-10-23T10:03:26Z</time>
      </trkpt>
      <trkpt lat="43.05971" lon="5.84176">
        <ele>190</ele>
        <time>2019-10-23T10:03:27Z</time>
      </trkpt>
      <trkpt lat="43.05972" lon="5.84179">
        <ele>190</ele>
        <time>2019-10-23T10:03:28Z</time>
      </trkpt>
      <trkpt lat="43.05972" lon="5.84183">
        <ele>190</ele>
        <time>2019-10-23T10:03:29Z</time>
      </trkpt>
      <trkpt lat="43.05971" lon="5.84187">
        <ele>191</ele>
        <time>2019-10-23T10:03:30Z</time>
      </trkpt>
      <trkpt lat="43.05969" lon="5.84191">
        <ele>191</ele>
        <time>2019-10-23T10:03:31Z</time>
      </trkpt>
      <trkpt lat="43.05967" lon="5.84195">
        <ele>191</ele>
        <time>2019-10-23T10:03:32Z</time>
      </trkpt>
      <trkpt lat="43.05965" lon="5.84198">
        <ele>191</ele>
        <time>2019-10-23T10:03:33Z</time>
      </trkpt>
      <trkpt lat="43.05963" lon="5.84201">
        <ele>192</ele>
        <time>2019-10-23T10:03:34Z</time>
      </trkpt>
      <trkpt lat="43.05961" lon="5.84204">
        <ele>192</ele>
        <time>2019-10-23T10:03:35Z</time>
      </trkpt>
      <trkpt lat="43.0596" lon="5.84208">
        <ele>192</ele>
        <time>2019-10-23T10:03:36Z</time>
      </trkpt>
      <trkpt lat="43.05958" lon="5.84211">
        <ele>192</ele>
        <time>2019-10-23T10:03:37Z</time>
      </trkpt>
      <trkpt lat="43.05957" lon="5.84215">
        <ele>192</ele>
        <time>2019-10-23T10:03:38Z</time>
      </trkpt>
      <trkpt lat="43.05955" lon="5.84221">
        <ele>192</ele>
        <time>2019-10-23T10:03:39Z</time>
      </trkpt>
      <trkpt lat="43.05954" lon="5.84225">
        <ele>192</ele>
        <time>2019-10-23T10:03:40Z</time>
      </trkpt>
      <trkpt lat="43.05953" lon="5.84229">
        <ele>193</ele>
        <time>2019-10-23T10:03:41Z</time>
      </trkpt>
      <trkpt lat="43.05953" lon="5.84234">
        <ele>193</ele>
        <time>2019-10-23T10:03:42Z</time>
      </trkpt>
      <trkpt lat="43.05952" lon="5.84242">
        <ele>194</ele>
        <time>2019-10-23T10:03:43Z</time>
      </trkpt>
      <trkpt lat="43.05952" lon="5.84246">
        <ele>194</ele>
        <time>2019-10-23T10:03:44Z</time>
      </trkpt>
      <trkpt lat="43.05952" lon="5.8425">
        <ele>195</ele>
        <time>2019-10-23T10:03:45Z</time>
      </trkpt>
      <trkpt lat="43.05953" lon="5.84254">
        <ele>195</ele>
        <time>2019-10-23T10:03:46Z</time>
      </trkpt>
      <trkpt lat="43.05953" lon="5.84258">
        <ele>196</ele>
        <time>2019-10-23T10:03:47Z</time>
      </trkpt>
      <trkpt lat="43.05954" lon="5.84262">
        <ele>196</ele>
        <time>2019-10-23T10:03:48Z</time>
      </trkpt>
      <trkpt lat="43.05955" lon="5.84266">
        <ele>197</ele>
        <time>2019-10-23T10:03:49Z</time>
      </trkpt>
      <trkpt lat="43.05956" lon="5.8427">
        <ele>197</ele>
        <time>2019-10-23T10:03:50Z</time>
      </trkpt>
      <trkpt lat="43.05957" lon="5.84274">
        <ele>198</ele>
        <time>2019-10-23T10:03:51Z</time>
      </trkpt>
      <trkpt lat="43.05959" lon="5.8428">
        <ele>198</ele>
        <time>2019-10-23T10:03:52Z</time>
      </trkpt>
      <trkpt lat="43.05962" lon="5.84286">
        <ele>198</ele>
        <time>2019-10-23T10:03:53Z</time>
      </trkpt>
      <trkpt lat="43.05964" lon="5.8429">
        <ele>198</ele>
        <time>2019-10-23T10:03:54Z</time>
      </trkpt>
      <trkpt lat="43.05966" lon="5.84294">
        <ele>198</ele>
        <time>2019-10-23T10:03:55Z</time>
      </trkpt>
      <trkpt lat="43.05967" lon="5.84298">
        <ele>198</ele>
        <time>2019-10-23T10:03:56Z</time>
      </trkpt>
      <trkpt lat="43.05968" lon="5.84302">
        <ele>199</ele>
        <time>2019-10-23T10:03:57Z</time>
      </trkpt>
      <trkpt lat="43.05968" lon="5.84306">
        <ele>199</ele>
        <time>2019-10-23T10:03:58Z</time>
      </trkpt>
      <trkpt lat="43.05968" lon="5.8431">
        <ele>200</ele>
        <time>2019-10-23T10:03:59Z</time>
      </trkpt>
      <trkpt lat="43.05967" lon="5.84315">
        <ele>200</ele>
        <time>2019-10-23T10:04:00Z</time>
      </trkpt>
      <trkpt lat="43.05967" lon="5.84319">
        <ele>200</ele>
        <time>2019-10-23T10:04:01Z</time>
      </trkpt>
      <trkpt lat="43.05967" lon="5.84323">
        <ele>201</ele>
        <time>2019-10-23T10:04:02Z</time>
      </trkpt>
      <trkpt lat="43.05966" lon="5.84328">
        <ele>201</ele>
        <time>2019-10-23T10:04:03Z</time>
      </trkpt>
      <trkpt lat="43.05965" lon="5.84332">
        <ele>202</ele>
        <time>2019-10-23T10:04:04Z</time>
      </trkpt>
      <trkpt lat="43.05965" lon="5.84336">
        <ele>202</ele>
        <time>2019-10-23T10:04:05Z</time>
      </trkpt>
      <trkpt lat="43.05964" lon="5.84341">
        <ele>203</ele>
        <time>2019-10-23T10:04:06Z</time>
      </trkpt>
      <trkpt lat="43.05964" lon="5.84345">
        <ele>203</ele>
        <time>2019-10-23T10:04:07Z</time>
      </trkpt>
      <trkpt lat="43.05963" lon="5.84349">
        <ele>204</ele>
        <time>2019-10-23T10:04:08Z</time>
      </trkpt>
      <trkpt lat="43.05963" lon="5.84353">
        <ele>204</ele>
        <time>2019-10-23T10:04:09Z</time>
      </trkpt>
      <trkpt lat="43.05963" lon="5.84357">
        <ele>204</ele>
        <time>2019-10-23T10:04:11Z</time>
      </trkpt>
      <trkpt lat="43.05962" lon="5.84361">
        <ele>204</ele>
        <time>2019-10-23T10:04:12Z</time>
      </trkpt>
      <trkpt lat="43.05962" lon="5.84365">
        <ele>204</ele>
        <time>2019-10-23T10:04:13Z</time>
      </trkpt>
      <trkpt lat="43.05961" lon="5.84369">
        <ele>204</ele>
        <time>2019-10-23T10:04:14Z</time>
      </trkpt>
      <trkpt lat="43.0596" lon="5.84372">
        <ele>205</ele>
        <time>2019-10-23T10:04:15Z</time>
      </trkpt>
      <trkpt lat="43.0596" lon="5.84376">
        <ele>205</ele>
        <time>2019-10-23T10:04:16Z</time>
      </trkpt>
      <trkpt lat="43.0596" lon="5.8438">
        <ele>205</ele>
        <time>2019-10-23T10:04:17Z</time>
      </trkpt>
      <trkpt lat="43.0596" lon="5.84384">
        <ele>205</ele>
        <time>2019-10-23T10:04:18Z</time>
      </trkpt>
      <trkpt lat="43.05961" lon="5.84388">
        <ele>205</ele>
        <time>2019-10-23T10:04:19Z</time>
      </trkpt>
      <trkpt lat="43.05962" lon="5.84391">
        <ele>205</ele>
        <time>2019-10-23T10:04:20Z</time>
      </trkpt>
      <trkpt lat="43.05964" lon="5.84394">
        <ele>205</ele>
        <time>2019-10-23T10:04:21Z</time>
      </trkpt>
      <trkpt lat="43.05966" lon="5.84397">
        <ele>206</ele>
        <time>2019-10-23T10:04:23Z</time>
      </trkpt>
      <trkpt lat="43.05968" lon="5.844">
        <ele>206</ele>
        <time>2019-10-23T10:04:24Z</time>
      </trkpt>
      <trkpt lat="43.05971" lon="5.84402">
        <ele>206</ele>
        <time>2019-10-23T10:04:26Z</time>
      </trkpt>
      <trkpt lat="43.05974" lon="5.84403">
        <ele>206</ele>
        <time>2019-10-23T10:04:27Z</time>
      </trkpt>
      <trkpt lat="43.05977" lon="5.84404">
        <ele>206</ele>
        <time>2019-10-23T10:04:28Z</time>
      </trkpt>
      <trkpt lat="43.05981" lon="5.84405">
        <ele>207</ele>
        <time>2019-10-23T10:04:29Z</time>
      </trkpt>
      <trkpt lat="43.05984" lon="5.84405">
        <ele>207</ele>
        <time>2019-10-23T10:04:31Z</time>
      </trkpt>
      <trkpt lat="43.05987" lon="5.84405">
        <ele>207</ele>
        <time>2019-10-23T10:04:32Z</time>
      </trkpt>
      <trkpt lat="43.0599" lon="5.84404">
        <ele>207</ele>
        <time>2019-10-23T10:04:33Z</time>
      </trkpt>
      <trkpt lat="43.05993" lon="5.84404">
        <ele>207</ele>
        <time>2019-10-23T10:04:34Z</time>
      </trkpt>
      <trkpt lat="43.05996" lon="5.84403">
        <ele>208</ele>
        <time>2019-10-23T10:04:35Z</time>
      </trkpt>
      <trkpt lat="43.05999" lon="5.84402">
        <ele>208</ele>
        <time>2019-10-23T10:04:37Z</time>
      </trkpt>
      <trkpt lat="43.06002" lon="5.84402">
        <ele>208</ele>
        <time>2019-10-23T10:04:39Z</time>
      </trkpt>
      <trkpt lat="43.06005" lon="5.84402">
        <ele>208</ele>
        <time>2019-10-23T10:04:41Z</time>
      </trkpt>
      <trkpt lat="43.06009" lon="5.84401">
        <ele>208</ele>
        <time>2019-10-23T10:04:42Z</time>
      </trkpt>
      <trkpt lat="43.06012" lon="5.84401">
        <ele>208</ele>
        <time>2019-10-23T10:04:43Z</time>
      </trkpt>
      <trkpt lat="43.06015" lon="5.844">
        <ele>208</ele>
        <time>2019-10-23T10:04:44Z</time>
      </trkpt>
      <trkpt lat="43.06018" lon="5.84399">
        <ele>209</ele>
        <time>2019-10-23T10:04:45Z</time>
      </trkpt>
      <trkpt lat="43.0602" lon="5.84398">
        <ele>210</ele>
        <time>2019-10-23T10:04:46Z</time>
      </trkpt>
      <trkpt lat="43.06025" lon="5.84396">
        <ele>211</ele>
        <time>2019-10-23T10:04:47Z</time>
      </trkpt>
      <trkpt lat="43.06028" lon="5.84395">
        <ele>211</ele>
        <time>2019-10-23T10:04:48Z</time>
      </trkpt>
      <trkpt lat="43.06031" lon="5.84394">
        <ele>211</ele>
        <time>2019-10-23T10:04:49Z</time>
      </trkpt>
      <trkpt lat="43.06034" lon="5.84394">
        <ele>212</ele>
        <time>2019-10-23T10:04:50Z</time>
      </trkpt>
      <trkpt lat="43.06038" lon="5.84394">
        <ele>212</ele>
        <time>2019-10-23T10:04:51Z</time>
      </trkpt>
      <trkpt lat="43.06041" lon="5.84395">
        <ele>212</ele>
        <time>2019-10-23T10:04:53Z</time>
      </trkpt>
      <trkpt lat="43.06044" lon="5.84396">
        <ele>212</ele>
        <time>2019-10-23T10:04:54Z</time>
      </trkpt>
      <trkpt lat="43.06046" lon="5.84397">
        <ele>212</ele>
        <time>2019-10-23T10:04:55Z</time>
      </trkpt>
      <trkpt lat="43.06049" lon="5.84399">
        <ele>212</ele>
        <time>2019-10-23T10:04:56Z</time>
      </trkpt>
      <trkpt lat="43.06051" lon="5.84401">
        <ele>212</ele>
        <time>2019-10-23T10:04:57Z</time>
      </trkpt>
      <trkpt lat="43.06053" lon="5.84403">
        <ele>212</ele>
        <time>2019-10-23T10:04:58Z</time>
      </trkpt>
      <trkpt lat="43.06055" lon="5.84409">
        <ele>212</ele>
        <time>2019-10-23T10:04:59Z</time>
      </trkpt>
      <trkpt lat="43.06056" lon="5.84413">
        <ele>212</ele>
        <time>2019-10-23T10:05:00Z</time>
      </trkpt>
      <trkpt lat="43.06056" lon="5.84419">
        <ele>213</ele>
        <time>2019-10-23T10:05:01Z</time>
      </trkpt>
      <trkpt lat="43.06056" lon="5.84424">
        <ele>213</ele>
        <time>2019-10-23T10:05:02Z</time>
      </trkpt>
      <trkpt lat="43.06056" lon="5.84428">
        <ele>213</ele>
        <time>2019-10-23T10:05:03Z</time>
      </trkpt>
      <trkpt lat="43.06056" lon="5.84432">
        <ele>213</ele>
        <time>2019-10-23T10:05:04Z</time>
      </trkpt>
      <trkpt lat="43.06056" lon="5.84437">
        <ele>213</ele>
        <time>2019-10-23T10:05:05Z</time>
      </trkpt>
      <trkpt lat="43.06057" lon="5.84442">
        <ele>213</ele>
        <time>2019-10-23T10:05:06Z</time>
      </trkpt>
      <trkpt lat="43.06057" lon="5.84446">
        <ele>213</ele>
        <time>2019-10-23T10:05:07Z</time>
      </trkpt>
      <trkpt lat="43.06058" lon="5.84451">
        <ele>213</ele>
        <time>2019-10-23T10:05:08Z</time>
      </trkpt>
      <trkpt lat="43.06059" lon="5.84454">
        <ele>213</ele>
        <time>2019-10-23T10:05:09Z</time>
      </trkpt>
      <trkpt lat="43.0606" lon="5.8446">
        <ele>215</ele>
        <time>2019-10-23T10:05:11Z</time>
      </trkpt>
      <trkpt lat="43.06062" lon="5.84466">
        <ele>216</ele>
        <time>2019-10-23T10:05:13Z</time>
      </trkpt>
      <trkpt lat="43.06066" lon="5.84471">
        <ele>217</ele>
        <time>2019-10-23T10:05:15Z</time>
      </trkpt>
      <trkpt lat="43.06069" lon="5.84475">
        <ele>217</ele>
        <time>2019-10-23T10:05:17Z</time>
      </trkpt>
      <trkpt lat="43.06071" lon="5.84478">
        <ele>217</ele>
        <time>2019-10-23T10:05:19Z</time>
      </trkpt>
      <trkpt lat="43.06073" lon="5.8448">
        <ele>217</ele>
        <time>2019-10-23T10:05:21Z</time>
      </trkpt>
      <trkpt lat="43.06076" lon="5.84483">
        <ele>217</ele>
        <time>2019-10-23T10:05:23Z</time>
      </trkpt>
      <trkpt lat="43.06078" lon="5.84486">
        <ele>217</ele>
        <time>2019-10-23T10:05:25Z</time>
      </trkpt>
      <trkpt lat="43.0608" lon="5.84489">
        <ele>217</ele>
        <time>2019-10-23T10:05:27Z</time>
      </trkpt>
      <trkpt lat="43.06082" lon="5.84492">
        <ele>217</ele>
        <time>2019-10-23T10:05:29Z</time>
      </trkpt>
      <trkpt lat="43.06084" lon="5.84495">
        <ele>218</ele>
        <time>2019-10-23T10:05:31Z</time>
      </trkpt>
      <trkpt lat="43.06085" lon="5.84499">
        <ele>219</ele>
        <time>2019-10-23T10:05:33Z</time>
      </trkpt>
      <trkpt lat="43.06086" lon="5.84503">
        <ele>219</ele>
        <time>2019-10-23T10:05:35Z</time>
      </trkpt>
      <trkpt lat="43.06087" lon="5.84508">
        <ele>220</ele>
        <time>2019-10-23T10:05:37Z</time>
      </trkpt>
      <trkpt lat="43.06089" lon="5.84513">
        <ele>220</ele>
        <time>2019-10-23T10:05:39Z</time>
      </trkpt>
      <trkpt lat="43.0609" lon="5.84516">
        <ele>220</ele>
        <time>2019-10-23T10:05:41Z</time>
      </trkpt>
      <trkpt lat="43.06092" lon="5.8452">
        <ele>220</ele>
        <time>2019-10-23T10:05:43Z</time>
      </trkpt>
      <trkpt lat="43.06094" lon="5.84522">
        <ele>220</ele>
        <time>2019-10-23T10:05:45Z</time>
      </trkpt>
      <trkpt lat="43.06096" lon="5.84525">
        <ele>221</ele>
        <time>2019-10-23T10:05:47Z</time>
      </trkpt>
      <trkpt lat="43.06098" lon="5.84528">
        <ele>221</ele>
        <time>2019-10-23T10:05:49Z</time>
      </trkpt>
      <trkpt lat="43.061" lon="5.84531">
        <ele>222</ele>
        <time>2019-10-23T10:05:51Z</time>
      </trkpt>
      <trkpt lat="43.06102" lon="5.84533">
        <ele>222</ele>
        <time>2019-10-23T10:05:53Z</time>
      </trkpt>
      <trkpt lat="43.06105" lon="5.84536">
        <ele>222</ele>
        <time>2019-10-23T10:05:55Z</time>
      </trkpt>
      <trkpt lat="43.06107" lon="5.84539">
        <ele>223</ele>
        <time>2019-10-23T10:05:57Z</time>
      </trkpt>
      <trkpt lat="43.06109" lon="5.84542">
        <ele>223</ele>
        <time>2019-10-23T10:05:59Z</time>
      </trkpt>
      <trkpt lat="43.06112" lon="5.84545">
        <ele>223</ele>
        <time>2019-10-23T10:06:00Z</time>
      </trkpt>
      <trkpt lat="43.06114" lon="5.84548">
        <ele>223</ele>
        <time>2019-10-23T10:06:02Z</time>
      </trkpt>
      <trkpt lat="43.06116" lon="5.84551">
        <ele>224</ele>
        <time>2019-10-23T10:06:04Z</time>
      </trkpt>
      <trkpt lat="43.06117" lon="5.84555">
        <ele>224</ele>
        <time>2019-10-23T10:06:05Z</time>
      </trkpt>
      <trkpt lat="43.06117" lon="5.84559">
        <ele>224</ele>
        <time>2019-10-23T10:06:07Z</time>
      </trkpt>
      <trkpt lat="43.06116" lon="5.84564">
        <ele>224</ele>
        <time>2019-10-23T10:06:09Z</time>
      </trkpt>
      <trkpt lat="43.06113" lon="5.84568">
        <ele>223</ele>
        <time>2019-10-23T10:06:11Z</time>
      </trkpt>
      <trkpt lat="43.0611" lon="5.84572">
        <ele>222</ele>
        <time>2019-10-23T10:06:13Z</time>
      </trkpt>
      <trkpt lat="43.06108" lon="5.84576">
        <ele>223</ele>
        <time>2019-10-23T10:06:15Z</time>
      </trkpt>
      <trkpt lat="43.06106" lon="5.84582">
        <ele>224</ele>
        <time>2019-10-23T10:06:17Z</time>
      </trkpt>
      <trkpt lat="43.06104" lon="5.84586">
        <ele>226</ele>
        <time>2019-10-23T10:06:19Z</time>
      </trkpt>
      <trkpt lat="43.061" lon="5.84589">
        <ele>226</ele>
        <time>2019-10-23T10:06:21Z</time>
      </trkpt>
      <trkpt lat="43.06097" lon="5.8459">
        <ele>227</ele>
        <time>2019-10-23T10:06:23Z</time>
      </trkpt>
      <trkpt lat="43.06094" lon="5.8459">
        <ele>227</ele>
        <time>2019-10-23T10:06:25Z</time>
      </trkpt>
      <trkpt lat="43.0609" lon="5.84591">
        <ele>226</ele>
        <time>2019-10-23T10:06:27Z</time>
      </trkpt>
      <trkpt lat="43.06086" lon="5.84593">
        <ele>226</ele>
        <time>2019-10-23T10:06:29Z</time>
      </trkpt>
      <trkpt lat="43.06081" lon="5.84595">
        <ele>226</ele>
        <time>2019-10-23T10:06:31Z</time>
      </trkpt>
      <trkpt lat="43.06077" lon="5.84597">
        <ele>226</ele>
        <time>2019-10-23T10:06:33Z</time>
      </trkpt>
      <trkpt lat="43.06073" lon="5.84599">
        <ele>227</ele>
        <time>2019-10-23T10:06:35Z</time>
      </trkpt>
      <trkpt lat="43.06069" lon="5.84601">
        <ele>227</ele>
        <time>2019-10-23T10:06:37Z</time>
      </trkpt>
      <trkpt lat="43.06064" lon="5.84603">
        <ele>229</ele>
        <time>2019-10-23T10:06:39Z</time>
      </trkpt>
      <trkpt lat="43.0606" lon="5.84604">
        <ele>229</ele>
        <time>2019-10-23T10:06:41Z</time>
      </trkpt>
      <trkpt lat="43.06055" lon="5.84603">
        <ele>230</ele>
        <time>2019-10-23T10:06:42Z</time>
      </trkpt>
      <trkpt lat="43.06051" lon="5.84603">
        <ele>230</ele>
        <time>2019-10-23T10:06:43Z</time>
      </trkpt>
      <trkpt lat="43.06047" lon="5.84602">
        <ele>230</ele>
        <time>2019-10-23T10:06:44Z</time>
      </trkpt>
      <trkpt lat="43.06043" lon="5.846">
        <ele>230</ele>
        <time>2019-10-23T10:06:45Z</time>
      </trkpt>
      <trkpt lat="43.0604" lon="5.84597">
        <ele>231</ele>
        <time>2019-10-23T10:06:46Z</time>
      </trkpt>
      <trkpt lat="43.06037" lon="5.84592">
        <ele>231</ele>
        <time>2019-10-23T10:06:47Z</time>
      </trkpt>
      <trkpt lat="43.06034" lon="5.84586">
        <ele>232</ele>
        <time>2019-10-23T10:06:48Z</time>
      </trkpt>
      <trkpt lat="43.06031" lon="5.84582">
        <ele>232</ele>
        <time>2019-10-23T10:06:49Z</time>
      </trkpt>
      <trkpt lat="43.06029" lon="5.84578">
        <ele>232</ele>
        <time>2019-10-23T10:06:50Z</time>
      </trkpt>
      <trkpt lat="43.06028" lon="5.84573">
        <ele>234</ele>
        <time>2019-10-23T10:06:51Z</time>
      </trkpt>
      <trkpt lat="43.06025" lon="5.84567">
        <ele>235</ele>
        <time>2019-10-23T10:06:52Z</time>
      </trkpt>
      <trkpt lat="43.06023" lon="5.84564">
        <ele>236</ele>
        <time>2019-10-23T10:06:53Z</time>
      </trkpt>
      <trkpt lat="43.06019" lon="5.84561">
        <ele>237</ele>
        <time>2019-10-23T10:06:54Z</time>
      </trkpt>
      <trkpt lat="43.06015" lon="5.84557">
        <ele>238</ele>
        <time>2019-10-23T10:06:55Z</time>
      </trkpt>
      <trkpt lat="43.06011" lon="5.84555">
        <ele>239</ele>
        <time>2019-10-23T10:06:56Z</time>
      </trkpt>
      <trkpt lat="43.06007" lon="5.84554">
        <ele>239</ele>
        <time>2019-10-23T10:06:57Z</time>
      </trkpt>
      <trkpt lat="43.06003" lon="5.84554">
        <ele>241</ele>
        <time>2019-10-23T10:06:58Z</time>
      </trkpt>
      <trkpt lat="43.05999" lon="5.84553">
        <ele>243</ele>
        <time>2019-10-23T10:06:59Z</time>
      </trkpt>
      <trkpt lat="43.05995" lon="5.84553">
        <ele>243</ele>
        <time>2019-10-23T10:07:00Z</time>
      </trkpt>
      <trkpt lat="43.0599" lon="5.84552">
        <ele>243</ele>
        <time>2019-10-23T10:07:02Z</time>
      </trkpt>
      <trkpt lat="43.05987" lon="5.84552">
        <ele>244</ele>
        <time>2019-10-23T10:07:04Z</time>
      </trkpt>
      <trkpt lat="43.05983" lon="5.84552">
        <ele>244</ele>
        <time>2019-10-23T10:07:06Z</time>
      </trkpt>
      <trkpt lat="43.0598" lon="5.84552">
        <ele>243</ele>
        <time>2019-10-23T10:07:08Z</time>
      </trkpt>
      <trkpt lat="43.05976" lon="5.84551">
        <ele>243</ele>
        <time>2019-10-23T10:07:10Z</time>
      </trkpt>
      <trkpt lat="43.05971" lon="5.8455">
        <ele>244</ele>
        <time>2019-10-23T10:07:12Z</time>
      </trkpt>
      <trkpt lat="43.05967" lon="5.84548">
        <ele>245</ele>
        <time>2019-10-23T10:07:14Z</time>
      </trkpt>
      <trkpt lat="43.05962" lon="5.84546">
        <ele>245</ele>
        <time>2019-10-23T10:07:16Z</time>
      </trkpt>
      <trkpt lat="43.05957" lon="5.84544">
        <ele>245</ele>
        <time>2019-10-23T10:07:18Z</time>
      </trkpt>
      <trkpt lat="43.05953" lon="5.84542">
        <ele>245</ele>
        <time>2019-10-23T10:07:20Z</time>
      </trkpt>
      <trkpt lat="43.05947" lon="5.8454">
        <ele>246</ele>
        <time>2019-10-23T10:07:22Z</time>
      </trkpt>
      <trkpt lat="43.05942" lon="5.84539">
        <ele>246</ele>
        <time>2019-10-23T10:07:24Z</time>
      </trkpt>
      <trkpt lat="43.05938" lon="5.84538">
        <ele>246</ele>
        <time>2019-10-23T10:07:26Z</time>
      </trkpt>
      <trkpt lat="43.05934" lon="5.84537">
        <ele>247</ele>
        <time>2019-10-23T10:07:28Z</time>
      </trkpt>
      <trkpt lat="43.05931" lon="5.84535">
        <ele>247</ele>
        <time>2019-10-23T10:07:30Z</time>
      </trkpt>
      <trkpt lat="43.05928" lon="5.84534">
        <ele>248</ele>
        <time>2019-10-23T10:07:32Z</time>
      </trkpt>
      <trkpt lat="43.05925" lon="5.84532">
        <ele>249</ele>
        <time>2019-10-23T10:07:34Z</time>
      </trkpt>
      <trkpt lat="43.05921" lon="5.8453">
        <ele>250</ele>
        <time>2019-10-23T10:07:36Z</time>
      </trkpt>
      <trkpt lat="43.05918" lon="5.84528">
        <ele>251</ele>
        <time>2019-10-23T10:07:38Z</time>
      </trkpt>
      <trkpt lat="43.05915" lon="5.84525">
        <ele>251</ele>
        <time>2019-10-23T10:07:40Z</time>
      </trkpt>
      <trkpt lat="43.05911" lon="5.84523">
        <ele>251</ele>
        <time>2019-10-23T10:07:42Z</time>
      </trkpt>
      <trkpt lat="43.05908" lon="5.84519">
        <ele>251</ele>
        <time>2019-10-23T10:07:44Z</time>
      </trkpt>
      <trkpt lat="43.05905" lon="5.84515">
        <ele>252</ele>
        <time>2019-10-23T10:07:46Z</time>
      </trkpt>
      <trkpt lat="43.05903" lon="5.84511">
        <ele>252</ele>
        <time>2019-10-23T10:07:48Z</time>
      </trkpt>
      <trkpt lat="43.05901" lon="5.84507">
        <ele>253</ele>
        <time>2019-10-23T10:07:50Z</time>
      </trkpt>
      <trkpt lat="43.05899" lon="5.84504">
        <ele>254</ele>
        <time>2019-10-23T10:07:52Z</time>
      </trkpt>
      <trkpt lat="43.05896" lon="5.84501">
        <ele>255</ele>
        <time>2019-10-23T10:07:54Z</time>
      </trkpt>
      <trkpt lat="43.05893" lon="5.84499">
        <ele>256</ele>
        <time>2019-10-23T10:07:56Z</time>
      </trkpt>
      <trkpt lat="43.0589" lon="5.84497">
        <ele>256</ele>
        <time>2019-10-23T10:07:58Z</time>
      </trkpt>
      <trkpt lat="43.05888" lon="5.84496">
        <ele>257</ele>
        <time>2019-10-23T10:07:59Z</time>
      </trkpt>
      <trkpt lat="43.05883" lon="5.84496">
        <ele>258</ele>
        <time>2019-10-23T10:08:00Z</time>
      </trkpt>
      <trkpt lat="43.05879" lon="5.84497">
        <ele>258</ele>
        <time>2019-10-23T10:08:01Z</time>
      </trkpt>
      <trkpt lat="43.05875" lon="5.84499">
        <ele>259</ele>
        <time>2019-10-23T10:08:02Z</time>
      </trkpt>
      <trkpt lat="43.05872" lon="5.84501">
        <ele>259</ele>
        <time>2019-10-23T10:08:03Z</time>
      </trkpt>
      <trkpt lat="43.05868" lon="5.84502">
        <ele>259</ele>
        <time>2019-10-23T10:08:04Z</time>
      </trkpt>
      <trkpt lat="43.05865" lon="5.84504">
        <ele>260</ele>
        <time>2019-10-23T10:08:05Z</time>
      </trkpt>
      <trkpt lat="43.05861" lon="5.84505">
        <ele>261</ele>
        <time>2019-10-23T10:08:06Z</time>
      </trkpt>
      <trkpt lat="43.05857" lon="5.84505">
        <ele>261</ele>
        <time>2019-10-23T10:08:07Z</time>
      </trkpt>
      <trkpt lat="43.05853" lon="5.84505">
        <ele>261</ele>
        <time>2019-10-23T10:08:08Z</time>
      </trkpt>
      <trkpt lat="43.0585" lon="5.84505">
        <ele>261</ele>
        <time>2019-10-23T10:08:09Z</time>
      </trkpt>
      <trkpt lat="43.05846" lon="5.84504">
        <ele>262</ele>
        <time>2019-10-23T10:08:10Z</time>
      </trkpt>
      <trkpt lat="43.05842" lon="5.84503">
        <ele>264</ele>
        <time>2019-10-23T10:08:12Z</time>
      </trkpt>
      <trkpt lat="43.05838" lon="5.84502">
        <ele>265</ele>
        <time>2019-10-23T10:08:13Z</time>
      </trkpt>
      <trkpt lat="43.05833" lon="5.84501">
        <ele>265</ele>
        <time>2019-10-23T10:08:14Z</time>
      </trkpt>
      <trkpt lat="43.05829" lon="5.845">
        <ele>265</ele>
        <time>2019-10-23T10:08:15Z</time>
      </trkpt>
      <trkpt lat="43.05825" lon="5.845">
        <ele>265</ele>
        <time>2019-10-23T10:08:16Z</time>
      </trkpt>
      <trkpt lat="43.05822" lon="5.84501">
        <ele>264</ele>
        <time>2019-10-23T10:08:17Z</time>
      </trkpt>
      <trkpt lat="43.05818" lon="5.84501">
        <ele>264</ele>
        <time>2019-10-23T10:08:18Z</time>
      </trkpt>
      <trkpt lat="43.05815" lon="5.84501">
        <ele>264</ele>
        <time>2019-10-23T10:08:20Z</time>
      </trkpt>
      <trkpt lat="43.05811" lon="5.84501">
        <ele>265</ele>
        <time>2019-10-23T10:08:21Z</time>
      </trkpt>
      <trkpt lat="43.05807" lon="5.84501">
        <ele>265</ele>
        <time>2019-10-23T10:08:22Z</time>
      </trkpt>
      <trkpt lat="43.05804" lon="5.84501">
        <ele>266</ele>
        <time>2019-10-23T10:08:23Z</time>
      </trkpt>
      <trkpt lat="43.058" lon="5.84501">
        <ele>268</ele>
        <time>2019-10-23T10:08:25Z</time>
      </trkpt>
      <trkpt lat="43.05797" lon="5.84501">
        <ele>270</ele>
        <time>2019-10-23T10:08:27Z</time>
      </trkpt>
      <trkpt lat="43.05794" lon="5.845">
        <ele>272</ele>
        <time>2019-10-23T10:08:28Z</time>
      </trkpt>
      <trkpt lat="43.0579" lon="5.845">
        <ele>274</ele>
        <time>2019-10-23T10:08:29Z</time>
      </trkpt>
      <trkpt lat="43.05787" lon="5.845">
        <ele>274</ele>
        <time>2019-10-23T10:08:30Z</time>
      </trkpt>
      <trkpt lat="43.05783" lon="5.84501">
        <ele>275</ele>
        <time>2019-10-23T10:08:31Z</time>
      </trkpt>
      <trkpt lat="43.05779" lon="5.84503">
        <ele>275</ele>
        <time>2019-10-23T10:08:32Z</time>
      </trkpt>
      <trkpt lat="43.05776" lon="5.84504">
        <ele>275</ele>
        <time>2019-10-23T10:08:33Z</time>
      </trkpt>
      <trkpt lat="43.05773" lon="5.84505">
        <ele>275</ele>
        <time>2019-10-23T10:08:34Z</time>
      </trkpt>
      <trkpt lat="43.0577" lon="5.84506">
        <ele>275</ele>
        <time>2019-10-23T10:08:35Z</time>
      </trkpt>
      <trkpt lat="43.05767" lon="5.84507">
        <ele>276</ele>
        <time>2019-10-23T10:08:36Z</time>
      </trkpt>
      <trkpt lat="43.05763" lon="5.84508">
        <ele>277</ele>
        <time>2019-10-23T10:08:37Z</time>
      </trkpt>
      <trkpt lat="43.05759" lon="5.84509">
        <ele>279</ele>
        <time>2019-10-23T10:08:38Z</time>
      </trkpt>
      <trkpt lat="43.05756" lon="5.84509">
        <ele>279</ele>
        <time>2019-10-23T10:08:39Z</time>
      </trkpt>
      <trkpt lat="43.05752" lon="5.8451">
        <ele>280</ele>
        <time>2019-10-23T10:08:40Z</time>
      </trkpt>
      <trkpt lat="43.05749" lon="5.8451">
        <ele>280</ele>
        <time>2019-10-23T10:08:41Z</time>
      </trkpt>
      <trkpt lat="43.05746" lon="5.8451">
        <ele>281</ele>
        <time>2019-10-23T10:08:42Z</time>
      </trkpt>
      <trkpt lat="43.05742" lon="5.8451">
        <ele>281</ele>
        <time>2019-10-23T10:08:43Z</time>
      </trkpt>
      <trkpt lat="43.05738" lon="5.8451">
        <ele>281</ele>
        <time>2019-10-23T10:08:44Z</time>
      </trkpt>
      <trkpt lat="43.05732" lon="5.8451">
        <ele>282</ele>
        <time>2019-10-23T10:08:45Z</time>
      </trkpt>
      <trkpt lat="43.05729" lon="5.8451">
        <ele>283</ele>
        <time>2019-10-23T10:08:46Z</time>
      </trkpt>
      <trkpt lat="43.05726" lon="5.84511">
        <ele>283</ele>
        <time>2019-10-23T10:08:47Z</time>
      </trkpt>
      <trkpt lat="43.05723" lon="5.84512">
        <ele>284</ele>
        <time>2019-10-23T10:08:48Z</time>
      </trkpt>
      <trkpt lat="43.0572" lon="5.84512">
        <ele>284</ele>
        <time>2019-10-23T10:08:49Z</time>
      </trkpt>
      <trkpt lat="43.05717" lon="5.84513">
        <ele>284</ele>
        <time>2019-10-23T10:08:50Z</time>
      </trkpt>
      <trkpt lat="43.05714" lon="5.84514">
        <ele>285</ele>
        <time>2019-10-23T10:08:51Z</time>
      </trkpt>
      <trkpt lat="43.0571" lon="5.84514">
        <ele>285</ele>
        <time>2019-10-23T10:08:52Z</time>
      </trkpt>
      <trkpt lat="43.05707" lon="5.84514">
        <ele>286</ele>
        <time>2019-10-23T10:08:53Z</time>
      </trkpt>
      <trkpt lat="43.05704" lon="5.84513">
        <ele>286</ele>
        <time>2019-10-23T10:08:54Z</time>
      </trkpt>
      <trkpt lat="43.05701" lon="5.84512">
        <ele>287</ele>
        <time>2019-10-23T10:08:55Z</time>
      </trkpt>
      <trkpt lat="43.05697" lon="5.84511">
        <ele>287</ele>
        <time>2019-10-23T10:08:56Z</time>
      </trkpt>
      <trkpt lat="43.05692" lon="5.8451">
        <ele>288</ele>
        <time>2019-10-23T10:08:57Z</time>
      </trkpt>
      <trkpt lat="43.05688" lon="5.84509">
        <ele>289</ele>
        <time>2019-10-23T10:08:58Z</time>
      </trkpt>
      <trkpt lat="43.05685" lon="5.84508">
        <ele>289</ele>
        <time>2019-10-23T10:08:59Z</time>
      </trkpt>
      <trkpt lat="43.05681" lon="5.84507">
        <ele>289</ele>
        <time>2019-10-23T10:09:01Z</time>
      </trkpt>
      <trkpt lat="43.05678" lon="5.84504">
        <ele>289</ele>
        <time>2019-10-23T10:09:02Z</time>
      </trkpt>
      <trkpt lat="43.05674" lon="5.84503">
        <ele>289</ele>
        <time>2019-10-23T10:09:03Z</time>
      </trkpt>
      <trkpt lat="43.05671" lon="5.84501">
        <ele>289</ele>
        <time>2019-10-23T10:09:04Z</time>
      </trkpt>
      <trkpt lat="43.05668" lon="5.84501">
        <ele>288</ele>
        <time>2019-10-23T10:09:05Z</time>
      </trkpt>
      <trkpt lat="43.05664" lon="5.845">
        <ele>288</ele>
        <time>2019-10-23T10:09:06Z</time>
      </trkpt>
      <trkpt lat="43.05661" lon="5.845">
        <ele>289</ele>
        <time>2019-10-23T10:09:07Z</time>
      </trkpt>
      <trkpt lat="43.05658" lon="5.845">
        <ele>289</ele>
        <time>2019-10-23T10:09:08Z</time>
      </trkpt>
      <trkpt lat="43.05654" lon="5.84499">
        <ele>290</ele>
        <time>2019-10-23T10:09:09Z</time>
      </trkpt>
      <trkpt lat="43.05651" lon="5.84499">
        <ele>290</ele>
        <time>2019-10-23T10:09:10Z</time>
      </trkpt>
      <trkpt lat="43.05648" lon="5.84499">
        <ele>291</ele>
        <time>2019-10-23T10:09:11Z</time>
      </trkpt>
      <trkpt lat="43.05645" lon="5.84498">
        <ele>292</ele>
        <time>2019-10-23T10:09:12Z</time>
      </trkpt>
      <trkpt lat="43.05642" lon="5.84498">
        <ele>292</ele>
        <time>2019-10-23T10:09:13Z</time>
      </trkpt>
      <trkpt lat="43.05638" lon="5.84497">
        <ele>292</ele>
        <time>2019-10-23T10:09:14Z</time>
      </trkpt>
      <trkpt lat="43.05634" lon="5.84496">
        <ele>292</ele>
        <time>2019-10-23T10:09:15Z</time>
      </trkpt>
      <trkpt lat="43.0563" lon="5.84495">
        <ele>291</ele>
        <time>2019-10-23T10:09:16Z</time>
      </trkpt>
      <trkpt lat="43.05627" lon="5.84494">
        <ele>291</ele>
        <time>2019-10-23T10:09:17Z</time>
      </trkpt>
      <trkpt lat="43.05623" lon="5.84494">
        <ele>290</ele>
        <time>2019-10-23T10:09:18Z</time>
      </trkpt>
      <trkpt lat="43.05618" lon="5.84495">
        <ele>290</ele>
        <time>2019-10-23T10:09:19Z</time>
      </trkpt>
      <trkpt lat="43.05614" lon="5.84496">
        <ele>291</ele>
        <time>2019-10-23T10:09:20Z</time>
      </trkpt>
      <trkpt lat="43.0561" lon="5.84498">
        <ele>291</ele>
        <time>2019-10-23T10:09:21Z</time>
      </trkpt>
      <trkpt lat="43.05606" lon="5.84501">
        <ele>292</ele>
        <time>2019-10-23T10:09:22Z</time>
      </trkpt>
      <trkpt lat="43.05603" lon="5.84503">
        <ele>292</ele>
        <time>2019-10-23T10:09:23Z</time>
      </trkpt>
      <trkpt lat="43.05599" lon="5.84505">
        <ele>294</ele>
        <time>2019-10-23T10:09:24Z</time>
      </trkpt>
      <trkpt lat="43.05596" lon="5.84508">
        <ele>295</ele>
        <time>2019-10-23T10:09:25Z</time>
      </trkpt>
      <trkpt lat="43.05593" lon="5.8451">
        <ele>297</ele>
        <time>2019-10-23T10:09:26Z</time>
      </trkpt>
      <trkpt lat="43.05591" lon="5.84513">
        <ele>298</ele>
        <time>2019-10-23T10:09:28Z</time>
      </trkpt>
      <trkpt lat="43.05588" lon="5.84515">
        <ele>299</ele>
        <time>2019-10-23T10:09:29Z</time>
      </trkpt>
      <trkpt lat="43.05586" lon="5.84518">
        <ele>300</ele>
        <time>2019-10-23T10:09:31Z</time>
      </trkpt>
      <trkpt lat="43.05584" lon="5.84521">
        <ele>300</ele>
        <time>2019-10-23T10:09:32Z</time>
      </trkpt>
      <trkpt lat="43.05581" lon="5.84526">
        <ele>299</ele>
        <time>2019-10-23T10:09:33Z</time>
      </trkpt>
      <trkpt lat="43.05578" lon="5.8453">
        <ele>299</ele>
        <time>2019-10-23T10:09:34Z</time>
      </trkpt>
      <trkpt lat="43.05576" lon="5.84535">
        <ele>299</ele>
        <time>2019-10-23T10:09:35Z</time>
      </trkpt>
      <trkpt lat="43.05574" lon="5.84539">
        <ele>299</ele>
        <time>2019-10-23T10:09:36Z</time>
      </trkpt>
      <trkpt lat="43.05571" lon="5.84543">
        <ele>300</ele>
        <time>2019-10-23T10:09:37Z</time>
      </trkpt>
      <trkpt lat="43.05569" lon="5.84548">
        <ele>301</ele>
        <time>2019-10-23T10:09:38Z</time>
      </trkpt>
      <trkpt lat="43.05567" lon="5.84552">
        <ele>302</ele>
        <time>2019-10-23T10:09:39Z</time>
      </trkpt>
      <trkpt lat="43.05564" lon="5.84555">
        <ele>303</ele>
        <time>2019-10-23T10:09:40Z</time>
      </trkpt>
      <trkpt lat="43.05561" lon="5.84558">
        <ele>303</ele>
        <time>2019-10-23T10:09:41Z</time>
      </trkpt>
      <trkpt lat="43.05558" lon="5.84562">
        <ele>302</ele>
        <time>2019-10-23T10:09:42Z</time>
      </trkpt>
      <trkpt lat="43.05555" lon="5.84566">
        <ele>302</ele>
        <time>2019-10-23T10:09:43Z</time>
      </trkpt>
      <trkpt lat="43.05552" lon="5.8457">
        <ele>301</ele>
        <time>2019-10-23T10:09:44Z</time>
      </trkpt>
      <trkpt lat="43.0555" lon="5.84574">
        <ele>300</ele>
        <time>2019-10-23T10:09:45Z</time>
      </trkpt>
      <trkpt lat="43.05547" lon="5.84578">
        <ele>299</ele>
        <time>2019-10-23T10:09:46Z</time>
      </trkpt>
      <trkpt lat="43.05544" lon="5.84583">
        <ele>299</ele>
        <time>2019-10-23T10:09:47Z</time>
      </trkpt>
      <trkpt lat="43.05542" lon="5.84586">
        <ele>299</ele>
        <time>2019-10-23T10:09:48Z</time>
      </trkpt>
      <trkpt lat="43.05539" lon="5.84591">
        <ele>299</ele>
        <time>2019-10-23T10:09:50Z</time>
      </trkpt>
      <trkpt lat="43.05536" lon="5.84594">
        <ele>299</ele>
        <time>2019-10-23T10:09:52Z</time>
      </trkpt>
      <trkpt lat="43.05533" lon="5.84598">
        <ele>299</ele>
        <time>2019-10-23T10:09:54Z</time>
      </trkpt>
      <trkpt lat="43.0553" lon="5.84601">
        <ele>299</ele>
        <time>2019-10-23T10:09:56Z</time>
      </trkpt>
      <trkpt lat="43.05528" lon="5.84605">
        <ele>299</ele>
        <time>2019-10-23T10:09:58Z</time>
      </trkpt>
      <trkpt lat="43.05524" lon="5.84608">
        <ele>299</ele>
        <time>2019-10-23T10:09:59Z</time>
      </trkpt>
      <trkpt lat="43.05521" lon="5.8461">
        <ele>300</ele>
        <time>2019-10-23T10:10:01Z</time>
      </trkpt>
      <trkpt lat="43.05518" lon="5.84612">
        <ele>300</ele>
        <time>2019-10-23T10:10:03Z</time>
      </trkpt>
      <trkpt lat="43.05516" lon="5.84615">
        <ele>300</ele>
        <time>2019-10-23T10:10:04Z</time>
      </trkpt>
      <trkpt lat="43.05513" lon="5.84617">
        <ele>301</ele>
        <time>2019-10-23T10:10:05Z</time>
      </trkpt>
      <trkpt lat="43.0551" lon="5.8462">
        <ele>301</ele>
        <time>2019-10-23T10:10:06Z</time>
      </trkpt>
      <trkpt lat="43.05507" lon="5.84623">
        <ele>301</ele>
        <time>2019-10-23T10:10:07Z</time>
      </trkpt>
      <trkpt lat="43.05504" lon="5.84627">
        <ele>302</ele>
        <time>2019-10-23T10:10:08Z</time>
      </trkpt>
      <trkpt lat="43.05501" lon="5.84629">
        <ele>303</ele>
        <time>2019-10-23T10:10:09Z</time>
      </trkpt>
      <trkpt lat="43.05498" lon="5.84632">
        <ele>303</ele>
        <time>2019-10-23T10:10:10Z</time>
      </trkpt>
      <trkpt lat="43.05496" lon="5.84635">
        <ele>305</ele>
        <time>2019-10-23T10:10:11Z</time>
      </trkpt>
      <trkpt lat="43.05493" lon="5.84639">
        <ele>306</ele>
        <time>2019-10-23T10:10:13Z</time>
      </trkpt>
      <trkpt lat="43.05491" lon="5.84642">
        <ele>306</ele>
        <time>2019-10-23T10:10:15Z</time>
      </trkpt>
      <trkpt lat="43.05488" lon="5.84645">
        <ele>307</ele>
        <time>2019-10-23T10:10:16Z</time>
      </trkpt>
      <trkpt lat="43.05486" lon="5.84648">
        <ele>307</ele>
        <time>2019-10-23T10:10:17Z</time>
      </trkpt>
      <trkpt lat="43.05483" lon="5.8465">
        <ele>307</ele>
        <time>2019-10-23T10:10:18Z</time>
      </trkpt>
      <trkpt lat="43.0548" lon="5.84652">
        <ele>307</ele>
        <time>2019-10-23T10:10:19Z</time>
      </trkpt>
      <trkpt lat="43.05477" lon="5.84654">
        <ele>308</ele>
        <time>2019-10-23T10:10:20Z</time>
      </trkpt>
      <trkpt lat="43.05474" lon="5.84656">
        <ele>308</ele>
        <time>2019-10-23T10:10:21Z</time>
      </trkpt>
      <trkpt lat="43.05471" lon="5.84658">
        <ele>308</ele>
        <time>2019-10-23T10:10:22Z</time>
      </trkpt>
      <trkpt lat="43.05467" lon="5.8466">
        <ele>309</ele>
        <time>2019-10-23T10:10:23Z</time>
      </trkpt>
      <trkpt lat="43.05464" lon="5.84662">
        <ele>309</ele>
        <time>2019-10-23T10:10:24Z</time>
      </trkpt>
      <trkpt lat="43.05461" lon="5.84664">
        <ele>310</ele>
        <time>2019-10-23T10:10:25Z</time>
      </trkpt>
      <trkpt lat="43.05459" lon="5.84666">
        <ele>310</ele>
        <time>2019-10-23T10:10:26Z</time>
      </trkpt>
      <trkpt lat="43.05456" lon="5.84669">
        <ele>310</ele>
        <time>2019-10-23T10:10:27Z</time>
      </trkpt>
      <trkpt lat="43.05453" lon="5.84672">
        <ele>312</ele>
        <time>2019-10-23T10:10:30Z</time>
      </trkpt>
      <trkpt lat="43.05449" lon="5.84675">
        <ele>313</ele>
        <time>2019-10-23T10:10:31Z</time>
      </trkpt>
      <trkpt lat="43.05445" lon="5.84677">
        <ele>313</ele>
        <time>2019-10-23T10:10:32Z</time>
      </trkpt>
      <trkpt lat="43.0544" lon="5.84678">
        <ele>314</ele>
        <time>2019-10-23T10:10:33Z</time>
      </trkpt>
      <trkpt lat="43.05436" lon="5.84676">
        <ele>314</ele>
        <time>2019-10-23T10:10:35Z</time>
      </trkpt>
      <trkpt lat="43.05435" lon="5.84672">
        <ele>314</ele>
        <time>2019-10-23T10:10:37Z</time>
      </trkpt>
      <trkpt lat="43.05433" lon="5.84667">
        <ele>314</ele>
        <time>2019-10-23T10:10:39Z</time>
      </trkpt>
      <trkpt lat="43.0543" lon="5.84659">
        <ele>314</ele>
        <time>2019-10-23T10:10:41Z</time>
      </trkpt>
      <trkpt lat="43.05428" lon="5.84655">
        <ele>315</ele>
        <time>2019-10-23T10:10:43Z</time>
      </trkpt>
      <trkpt lat="43.05427" lon="5.84652">
        <ele>315</ele>
        <time>2019-10-23T10:10:44Z</time>
      </trkpt>
      <trkpt lat="43.05426" lon="5.84648">
        <ele>315</ele>
        <time>2019-10-23T10:10:46Z</time>
      </trkpt>
      <trkpt lat="43.05424" lon="5.84644">
        <ele>316</ele>
        <time>2019-10-23T10:10:48Z</time>
      </trkpt>
      <trkpt lat="43.05422" lon="5.84641">
        <ele>316</ele>
        <time>2019-10-23T10:10:50Z</time>
      </trkpt>
      <trkpt lat="43.05419" lon="5.84637">
        <ele>316</ele>
        <time>2019-10-23T10:10:52Z</time>
      </trkpt>
      <trkpt lat="43.05415" lon="5.84631">
        <ele>317</ele>
        <time>2019-10-23T10:10:54Z</time>
      </trkpt>
      <trkpt lat="43.05413" lon="5.84627">
        <ele>317</ele>
        <time>2019-10-23T10:10:56Z</time>
      </trkpt>
      <trkpt lat="43.0541" lon="5.84625">
        <ele>318</ele>
        <time>2019-10-23T10:10:58Z</time>
      </trkpt>
      <trkpt lat="43.05404" lon="5.8462">
        <ele>318</ele>
        <time>2019-10-23T10:11:00Z</time>
      </trkpt>
      <trkpt lat="43.05401" lon="5.84617">
        <ele>319</ele>
        <time>2019-10-23T10:11:02Z</time>
      </trkpt>
      <trkpt lat="43.05398" lon="5.84615">
        <ele>319</ele>
        <time>2019-10-23T10:11:04Z</time>
      </trkpt>
      <trkpt lat="43.05394" lon="5.84613">
        <ele>319</ele>
        <time>2019-10-23T10:11:06Z</time>
      </trkpt>
      <trkpt lat="43.05391" lon="5.84611">
        <ele>319</ele>
        <time>2019-10-23T10:11:08Z</time>
      </trkpt>
      <trkpt lat="43.05387" lon="5.84608">
        <ele>319</ele>
        <time>2019-10-23T10:11:10Z</time>
      </trkpt>
      <trkpt lat="43.05384" lon="5.84606">
        <ele>319</ele>
        <time>2019-10-23T10:11:12Z</time>
      </trkpt>
      <trkpt lat="43.05381" lon="5.84605">
        <ele>319</ele>
        <time>2019-10-23T10:11:14Z</time>
      </trkpt>
      <trkpt lat="43.05378" lon="5.84603">
        <ele>318</ele>
        <time>2019-10-23T10:11:16Z</time>
      </trkpt>
      <trkpt lat="43.05376" lon="5.84601">
        <ele>318</ele>
        <time>2019-10-23T10:11:18Z</time>
      </trkpt>
      <trkpt lat="43.05373" lon="5.84599">
        <ele>319</ele>
        <time>2019-10-23T10:11:20Z</time>
      </trkpt>
      <trkpt lat="43.05371" lon="5.84596">
        <ele>320</ele>
        <time>2019-10-23T10:11:22Z</time>
      </trkpt>
      <trkpt lat="43.05368" lon="5.84592">
        <ele>320</ele>
        <time>2019-10-23T10:11:24Z</time>
      </trkpt>
      <trkpt lat="43.05365" lon="5.84588">
        <ele>321</ele>
        <time>2019-10-23T10:11:26Z</time>
      </trkpt>
      <trkpt lat="43.05362" lon="5.84584">
        <ele>321</ele>
        <time>2019-10-23T10:11:28Z</time>
      </trkpt>
      <trkpt lat="43.05361" lon="5.84581">
        <ele>322</ele>
        <time>2019-10-23T10:11:31Z</time>
      </trkpt>
      <trkpt lat="43.05359" lon="5.84577">
        <ele>322</ele>
        <time>2019-10-23T10:11:33Z</time>
      </trkpt>
      <trkpt lat="43.05358" lon="5.84571">
        <ele>322</ele>
        <time>2019-10-23T10:11:35Z</time>
      </trkpt>
      <trkpt lat="43.05356" lon="5.84566">
        <ele>321</ele>
        <time>2019-10-23T10:11:37Z</time>
      </trkpt>
      <trkpt lat="43.05353" lon="5.84561">
        <ele>322</ele>
        <time>2019-10-23T10:11:39Z</time>
      </trkpt>
      <trkpt lat="43.05351" lon="5.84561">
        <ele>324</ele>
        <time>2019-10-23T10:11:41Z</time>
      </trkpt>
      <trkpt lat="43.05349" lon="5.84565">
        <ele>325</ele>
        <time>2019-10-23T10:11:43Z</time>
      </trkpt>
      <trkpt lat="43.05348" lon="5.84569">
        <ele>326</ele>
        <time>2019-10-23T10:11:45Z</time>
      </trkpt>
      <trkpt lat="43.05348" lon="5.84574">
        <ele>326</ele>
        <time>2019-10-23T10:11:47Z</time>
      </trkpt>
      <trkpt lat="43.05348" lon="5.84579">
        <ele>327</ele>
        <time>2019-10-23T10:11:49Z</time>
      </trkpt>
      <trkpt lat="43.05349" lon="5.84585">
        <ele>327</ele>
        <time>2019-10-23T10:11:51Z</time>
      </trkpt>
      <trkpt lat="43.05349" lon="5.8459">
        <ele>326</ele>
        <time>2019-10-23T10:11:53Z</time>
      </trkpt>
      <trkpt lat="43.05349" lon="5.84597">
        <ele>326</ele>
        <time>2019-10-23T10:11:55Z</time>
      </trkpt>
      <trkpt lat="43.05349" lon="5.84603">
        <ele>327</ele>
        <time>2019-10-23T10:11:58Z</time>
      </trkpt>
      <trkpt lat="43.05349" lon="5.84608">
        <ele>327</ele>
        <time>2019-10-23T10:12:01Z</time>
      </trkpt>
      <trkpt lat="43.05349" lon="5.84613">
        <ele>328</ele>
        <time>2019-10-23T10:12:08Z</time>
      </trkpt>
      <trkpt lat="43.05349" lon="5.84618">
        <ele>330</ele>
        <time>2019-10-23T10:19:08Z</time>
      </trkpt>
      <trkpt lat="43.0535" lon="5.84624">
        <ele>331</ele>
        <time>2019-10-23T10:19:09Z</time>
      </trkpt>
      <trkpt lat="43.05351" lon="5.84629">
        <ele>332</ele>
        <time>2019-10-23T10:19:11Z</time>
      </trkpt>
      <trkpt lat="43.05353" lon="5.84635">
        <ele>332</ele>
        <time>2019-10-23T10:19:14Z</time>
      </trkpt>
      <trkpt lat="43.05354" lon="5.8464">
        <ele>333</ele>
        <time>2019-10-23T10:19:16Z</time>
      </trkpt>
      <trkpt lat="43.05355" lon="5.84645">
        <ele>334</ele>
        <time>2019-10-23T10:19:18Z</time>
      </trkpt>
      <trkpt lat="43.05356" lon="5.84651">
        <ele>335</ele>
        <time>2019-10-23T10:19:20Z</time>
      </trkpt>
      <trkpt lat="43.05357" lon="5.84656">
        <ele>336</ele>
        <time>2019-10-23T10:19:23Z</time>
      </trkpt>
      <trkpt lat="43.05358" lon="5.84661">
        <ele>337</ele>
        <time>2019-10-23T10:19:25Z</time>
      </trkpt>
      <trkpt lat="43.05358" lon="5.84666">
        <ele>339</ele>
        <time>2019-10-23T10:19:39Z</time>
      </trkpt>
      <trkpt lat="43.05356" lon="5.8467">
        <ele>340</ele>
        <time>2019-10-23T10:19:41Z</time>
      </trkpt>
      <trkpt lat="43.05354" lon="5.84674">
        <ele>340</ele>
        <time>2019-10-23T10:19:43Z</time>
      </trkpt>
      <trkpt lat="43.05352" lon="5.84677">
        <ele>340</ele>
        <time>2019-10-23T10:19:45Z</time>
      </trkpt>
      <trkpt lat="43.05349" lon="5.84678">
        <ele>340</ele>
        <time>2019-10-23T10:19:47Z</time>
      </trkpt>
      <trkpt lat="43.05346" lon="5.84676">
        <ele>341</ele>
        <time>2019-10-23T10:19:49Z</time>
      </trkpt>
      <trkpt lat="43.05343" lon="5.84674">
        <ele>343</ele>
        <time>2019-10-23T10:19:51Z</time>
      </trkpt>
      <trkpt lat="43.0534" lon="5.84672">
        <ele>344</ele>
        <time>2019-10-23T10:19:53Z</time>
      </trkpt>
      <trkpt lat="43.05338" lon="5.84669">
        <ele>346</ele>
        <time>2019-10-23T10:19:55Z</time>
      </trkpt>
      <trkpt lat="43.05335" lon="5.84667">
        <ele>346</ele>
        <time>2019-10-23T10:19:57Z</time>
      </trkpt>
      <trkpt lat="43.05332" lon="5.84665">
        <ele>347</ele>
        <time>2019-10-23T10:19:58Z</time>
      </trkpt>
      <trkpt lat="43.0533" lon="5.84667">
        <ele>347</ele>
        <time>2019-10-23T10:19:59Z</time>
      </trkpt>
      <trkpt lat="43.0533" lon="5.84672">
        <ele>349</ele>
        <time>2019-10-23T10:20:00Z</time>
      </trkpt>
      <trkpt lat="43.05331" lon="5.84678">
        <ele>351</ele>
        <time>2019-10-23T10:20:01Z</time>
      </trkpt>
      <trkpt lat="43.05331" lon="5.84684">
        <ele>351</ele>
        <time>2019-10-23T10:20:02Z</time>
      </trkpt>
      <trkpt lat="43.05329" lon="5.84687">
        <ele>349</ele>
        <time>2019-10-23T10:20:03Z</time>
      </trkpt>
      <trkpt lat="43.05326" lon="5.84689">
        <ele>349</ele>
        <time>2019-10-23T10:20:04Z</time>
      </trkpt>
      <trkpt lat="43.05322" lon="5.84689">
        <ele>351</ele>
        <time>2019-10-23T10:20:05Z</time>
      </trkpt>
      <trkpt lat="43.05319" lon="5.8469">
        <ele>352</ele>
        <time>2019-10-23T10:20:06Z</time>
      </trkpt>
      <trkpt lat="43.05316" lon="5.84692">
        <ele>351</ele>
        <time>2019-10-23T10:20:07Z</time>
      </trkpt>
      <trkpt lat="43.05315" lon="5.84695">
        <ele>348</ele>
        <time>2019-10-23T10:20:08Z</time>
      </trkpt>
      <trkpt lat="43.05315" lon="5.84683">
        <ele>372</ele>
        <time>2019-10-23T10:20:09Z</time>
      </trkpt>
      <trkpt lat="43.05317" lon="5.84688">
        <ele>372</ele>
        <time>2019-10-23T10:20:10Z</time>
      </trkpt>
      <trkpt lat="43.05319" lon="5.84692">
        <ele>371</ele>
        <time>2019-10-23T10:20:11Z</time>
      </trkpt>
      <trkpt lat="43.05322" lon="5.84692">
        <ele>370</ele>
        <time>2019-10-23T10:20:12Z</time>
      </trkpt>
      <trkpt lat="43.05324" lon="5.84689">
        <ele>370</ele>
        <time>2019-10-23T10:20:13Z</time>
      </trkpt>
      <trkpt lat="43.05327" lon="5.84688">
        <ele>369</ele>
        <time>2019-10-23T10:20:14Z</time>
      </trkpt>
      <trkpt lat="43.05331" lon="5.84686">
        <ele>369</ele>
        <time>2019-10-23T10:20:16Z</time>
      </trkpt>
      <trkpt lat="43.05334" lon="5.84683">
        <ele>367</ele>
        <time>2019-10-23T10:20:17Z</time>
      </trkpt>
      <trkpt lat="43.05336" lon="5.84679">
        <ele>367</ele>
        <time>2019-10-23T10:20:18Z</time>
      </trkpt>
      <trkpt lat="43.05335" lon="5.84676">
        <ele>368</ele>
        <time>2019-10-23T10:20:19Z</time>
      </trkpt>
      <trkpt lat="43.05334" lon="5.84672">
        <ele>368</ele>
        <time>2019-10-23T10:20:20Z</time>
      </trkpt>
      <trkpt lat="43.05333" lon="5.84667">
        <ele>368</ele>
        <time>2019-10-23T10:20:21Z</time>
      </trkpt>
      <trkpt lat="43.05336" lon="5.84665">
        <ele>367</ele>
        <time>2019-10-23T10:20:22Z</time>
      </trkpt>
      <trkpt lat="43.05339" lon="5.84667">
        <ele>367</ele>
        <time>2019-10-23T10:20:23Z</time>
      </trkpt>
      <trkpt lat="43.05343" lon="5.8467">
        <ele>367</ele>
        <time>2019-10-23T10:20:24Z</time>
      </trkpt>
      <trkpt lat="43.05346" lon="5.84674">
        <ele>366</ele>
        <time>2019-10-23T10:20:25Z</time>
      </trkpt>
      <trkpt lat="43.05349" lon="5.84678">
        <ele>364</ele>
        <time>2019-10-23T10:20:26Z</time>
      </trkpt>
      <trkpt lat="43.05352" lon="5.84682">
        <ele>363</ele>
        <time>2019-10-23T10:20:27Z</time>
      </trkpt>
      <trkpt lat="43.05356" lon="5.84681">
        <ele>361</ele>
        <time>2019-10-23T10:20:28Z</time>
      </trkpt>
      <trkpt lat="43.05358" lon="5.84679">
        <ele>360</ele>
        <time>2019-10-23T10:20:29Z</time>
      </trkpt>
      <trkpt lat="43.0536" lon="5.84676">
        <ele>359</ele>
        <time>2019-10-23T10:20:30Z</time>
      </trkpt>
      <trkpt lat="43.05362" lon="5.84673">
        <ele>358</ele>
        <time>2019-10-23T10:20:31Z</time>
      </trkpt>
      <trkpt lat="43.05364" lon="5.84668">
        <ele>358</ele>
        <time>2019-10-23T10:20:32Z</time>
      </trkpt>
      <trkpt lat="43.05364" lon="5.84663">
        <ele>358</ele>
        <time>2019-10-23T10:20:33Z</time>
      </trkpt>
      <trkpt lat="43.05364" lon="5.84656">
        <ele>357</ele>
        <time>2019-10-23T10:20:34Z</time>
      </trkpt>
      <trkpt lat="43.05361" lon="5.84648">
        <ele>356</ele>
        <time>2019-10-23T10:20:35Z</time>
      </trkpt>
      <trkpt lat="43.05359" lon="5.84642">
        <ele>355</ele>
        <time>2019-10-23T10:20:36Z</time>
      </trkpt>
      <trkpt lat="43.05357" lon="5.84635">
        <ele>354</ele>
        <time>2019-10-23T10:20:37Z</time>
      </trkpt>
      <trkpt lat="43.05356" lon="5.84628">
        <ele>353</ele>
        <time>2019-10-23T10:20:38Z</time>
      </trkpt>
      <trkpt lat="43.05354" lon="5.84621">
        <ele>353</ele>
        <time>2019-10-23T10:20:39Z</time>
      </trkpt>
      <trkpt lat="43.05353" lon="5.84613">
        <ele>353</ele>
        <time>2019-10-23T10:20:40Z</time>
      </trkpt>
      <trkpt lat="43.05353" lon="5.84606">
        <ele>352</ele>
        <time>2019-10-23T10:20:41Z</time>
      </trkpt>
      <trkpt lat="43.05351" lon="5.84598">
        <ele>351</ele>
        <time>2019-10-23T10:20:42Z</time>
      </trkpt>
      <trkpt lat="43.0535" lon="5.84591">
        <ele>350</ele>
        <time>2019-10-23T10:20:43Z</time>
      </trkpt>
      <trkpt lat="43.0535" lon="5.84583">
        <ele>349</ele>
        <time>2019-10-23T10:20:44Z</time>
      </trkpt>
      <trkpt lat="43.0535" lon="5.84577">
        <ele>348</ele>
        <time>2019-10-23T10:20:45Z</time>
      </trkpt>
      <trkpt lat="43.05351" lon="5.8457">
        <ele>346</ele>
        <time>2019-10-23T10:20:46Z</time>
      </trkpt>
      <trkpt lat="43.05352" lon="5.84565">
        <ele>346</ele>
        <time>2019-10-23T10:20:47Z</time>
      </trkpt>
      <trkpt lat="43.05355" lon="5.84563">
        <ele>345</ele>
        <time>2019-10-23T10:20:48Z</time>
      </trkpt>
      <trkpt lat="43.05357" lon="5.84564">
        <ele>345</ele>
        <time>2019-10-23T10:20:49Z</time>
      </trkpt>
      <trkpt lat="43.05359" lon="5.84568">
        <ele>344</ele>
        <time>2019-10-23T10:20:50Z</time>
      </trkpt>
      <trkpt lat="43.05361" lon="5.84574">
        <ele>344</ele>
        <time>2019-10-23T10:20:51Z</time>
      </trkpt>
      <trkpt lat="43.05364" lon="5.84581">
        <ele>344</ele>
        <time>2019-10-23T10:20:52Z</time>
      </trkpt>
      <trkpt lat="43.05367" lon="5.84588">
        <ele>343</ele>
        <time>2019-10-23T10:20:53Z</time>
      </trkpt>
      <trkpt lat="43.05372" lon="5.84595">
        <ele>343</ele>
        <time>2019-10-23T10:20:54Z</time>
      </trkpt>
      <trkpt lat="43.05377" lon="5.84601">
        <ele>343</ele>
        <time>2019-10-23T10:20:55Z</time>
      </trkpt>
      <trkpt lat="43.05382" lon="5.84606">
        <ele>343</ele>
        <time>2019-10-23T10:20:56Z</time>
      </trkpt>
      <trkpt lat="43.05388" lon="5.8461">
        <ele>342</ele>
        <time>2019-10-23T10:20:57Z</time>
      </trkpt>
      <trkpt lat="43.05394" lon="5.84613">
        <ele>342</ele>
        <time>2019-10-23T10:20:58Z</time>
      </trkpt>
      <trkpt lat="43.05399" lon="5.84616">
        <ele>341</ele>
        <time>2019-10-23T10:20:59Z</time>
      </trkpt>
      <trkpt lat="43.05403" lon="5.84619">
        <ele>340</ele>
        <time>2019-10-23T10:21:00Z</time>
      </trkpt>
      <trkpt lat="43.05407" lon="5.84622">
        <ele>340</ele>
        <time>2019-10-23T10:21:01Z</time>
      </trkpt>
      <trkpt lat="43.05411" lon="5.84625">
        <ele>340</ele>
        <time>2019-10-23T10:21:02Z</time>
      </trkpt>
      <trkpt lat="43.05415" lon="5.8463">
        <ele>340</ele>
        <time>2019-10-23T10:21:03Z</time>
      </trkpt>
      <trkpt lat="43.05419" lon="5.84635">
        <ele>340</ele>
        <time>2019-10-23T10:21:04Z</time>
      </trkpt>
      <trkpt lat="43.05422" lon="5.84641">
        <ele>340</ele>
        <time>2019-10-23T10:21:05Z</time>
      </trkpt>
      <trkpt lat="43.05425" lon="5.84647">
        <ele>340</ele>
        <time>2019-10-23T10:21:06Z</time>
      </trkpt>
      <trkpt lat="43.05427" lon="5.84654">
        <ele>341</ele>
        <time>2019-10-23T10:21:07Z</time>
      </trkpt>
      <trkpt lat="43.05429" lon="5.84661">
        <ele>341</ele>
        <time>2019-10-23T10:21:08Z</time>
      </trkpt>
      <trkpt lat="43.05431" lon="5.84667">
        <ele>341</ele>
        <time>2019-10-23T10:21:09Z</time>
      </trkpt>
      <trkpt lat="43.05433" lon="5.84673">
        <ele>340</ele>
        <time>2019-10-23T10:21:10Z</time>
      </trkpt>
      <trkpt lat="43.05436" lon="5.84677">
        <ele>338</ele>
        <time>2019-10-23T10:21:11Z</time>
      </trkpt>
      <trkpt lat="43.0544" lon="5.84679">
        <ele>338</ele>
        <time>2019-10-23T10:21:12Z</time>
      </trkpt>
      <trkpt lat="43.05444" lon="5.84677">
        <ele>336</ele>
        <time>2019-10-23T10:21:13Z</time>
      </trkpt>
      <trkpt lat="43.05448" lon="5.84674">
        <ele>335</ele>
        <time>2019-10-23T10:21:14Z</time>
      </trkpt>
      <trkpt lat="43.05453" lon="5.84669">
        <ele>334</ele>
        <time>2019-10-23T10:21:15Z</time>
      </trkpt>
      <trkpt lat="43.0546" lon="5.84664">
        <ele>332</ele>
        <time>2019-10-23T10:21:16Z</time>
      </trkpt>
      <trkpt lat="43.05468" lon="5.8466">
        <ele>331</ele>
        <time>2019-10-23T10:21:17Z</time>
      </trkpt>
      <trkpt lat="43.05475" lon="5.84654">
        <ele>330</ele>
        <time>2019-10-23T10:21:18Z</time>
      </trkpt>
      <trkpt lat="43.05482" lon="5.84646">
        <ele>329</ele>
        <time>2019-10-23T10:21:19Z</time>
      </trkpt>
      <trkpt lat="43.05489" lon="5.84638">
        <ele>329</ele>
        <time>2019-10-23T10:21:20Z</time>
      </trkpt>
      <trkpt lat="43.05495" lon="5.84631">
        <ele>328</ele>
        <time>2019-10-23T10:21:21Z</time>
      </trkpt>
      <trkpt lat="43.05502" lon="5.84625">
        <ele>327</ele>
        <time>2019-10-23T10:21:22Z</time>
      </trkpt>
      <trkpt lat="43.05509" lon="5.84619">
        <ele>327</ele>
        <time>2019-10-23T10:21:23Z</time>
      </trkpt>
      <trkpt lat="43.05516" lon="5.84613">
        <ele>326</ele>
        <time>2019-10-23T10:21:24Z</time>
      </trkpt>
      <trkpt lat="43.05524" lon="5.84606">
        <ele>325</ele>
        <time>2019-10-23T10:21:25Z</time>
      </trkpt>
      <trkpt lat="43.05532" lon="5.84599">
        <ele>324</ele>
        <time>2019-10-23T10:21:26Z</time>
      </trkpt>
      <trkpt lat="43.0554" lon="5.84591">
        <ele>323</ele>
        <time>2019-10-23T10:21:27Z</time>
      </trkpt>
      <trkpt lat="43.05548" lon="5.84581">
        <ele>322</ele>
        <time>2019-10-23T10:21:28Z</time>
      </trkpt>
      <trkpt lat="43.05555" lon="5.84572">
        <ele>320</ele>
        <time>2019-10-23T10:21:29Z</time>
      </trkpt>
      <trkpt lat="43.05562" lon="5.84562">
        <ele>320</ele>
        <time>2019-10-23T10:21:30Z</time>
      </trkpt>
      <trkpt lat="43.05568" lon="5.84552">
        <ele>319</ele>
        <time>2019-10-23T10:21:31Z</time>
      </trkpt>
      <trkpt lat="43.05577" lon="5.84537">
        <ele>318</ele>
        <time>2019-10-23T10:21:32Z</time>
      </trkpt>
      <trkpt lat="43.05581" lon="5.8453">
        <ele>318</ele>
        <time>2019-10-23T10:21:33Z</time>
      </trkpt>
      <trkpt lat="43.05586" lon="5.84525">
        <ele>318</ele>
        <time>2019-10-23T10:21:34Z</time>
      </trkpt>
      <trkpt lat="43.0559" lon="5.84519">
        <ele>318</ele>
        <time>2019-10-23T10:21:35Z</time>
      </trkpt>
      <trkpt lat="43.05596" lon="5.84514">
        <ele>318</ele>
        <time>2019-10-23T10:21:36Z</time>
      </trkpt>
      <trkpt lat="43.05602" lon="5.84509">
        <ele>318</ele>
        <time>2019-10-23T10:21:37Z</time>
      </trkpt>
      <trkpt lat="43.05608" lon="5.84505">
        <ele>317</ele>
        <time>2019-10-23T10:21:38Z</time>
      </trkpt>
      <trkpt lat="43.05615" lon="5.84502">
        <ele>317</ele>
        <time>2019-10-23T10:21:39Z</time>
      </trkpt>
      <trkpt lat="43.05622" lon="5.845">
        <ele>315</ele>
        <time>2019-10-23T10:21:40Z</time>
      </trkpt>
      <trkpt lat="43.05629" lon="5.845">
        <ele>314</ele>
        <time>2019-10-23T10:21:41Z</time>
      </trkpt>
      <trkpt lat="43.05636" lon="5.84502">
        <ele>313</ele>
        <time>2019-10-23T10:21:42Z</time>
      </trkpt>
      <trkpt lat="43.05643" lon="5.84503">
        <ele>312</ele>
        <time>2019-10-23T10:21:43Z</time>
      </trkpt>
      <trkpt lat="43.0565" lon="5.84502">
        <ele>311</ele>
        <time>2019-10-23T10:21:44Z</time>
      </trkpt>
      <trkpt lat="43.05657" lon="5.84502">
        <ele>310</ele>
        <time>2019-10-23T10:21:45Z</time>
      </trkpt>
      <trkpt lat="43.05665" lon="5.84504">
        <ele>310</ele>
        <time>2019-10-23T10:21:46Z</time>
      </trkpt>
      <trkpt lat="43.05674" lon="5.84507">
        <ele>309</ele>
        <time>2019-10-23T10:21:47Z</time>
      </trkpt>
      <trkpt lat="43.05683" lon="5.8451">
        <ele>308</ele>
        <time>2019-10-23T10:21:48Z</time>
      </trkpt>
      <trkpt lat="43.05692" lon="5.84512">
        <ele>308</ele>
        <time>2019-10-23T10:21:49Z</time>
      </trkpt>
      <trkpt lat="43.05702" lon="5.84515">
        <ele>307</ele>
        <time>2019-10-23T10:21:50Z</time>
      </trkpt>
      <trkpt lat="43.05712" lon="5.84515">
        <ele>306</ele>
        <time>2019-10-23T10:21:51Z</time>
      </trkpt>
      <trkpt lat="43.05723" lon="5.84513">
        <ele>305</ele>
        <time>2019-10-23T10:21:52Z</time>
      </trkpt>
      <trkpt lat="43.05734" lon="5.84512">
        <ele>305</ele>
        <time>2019-10-23T10:21:53Z</time>
      </trkpt>
      <trkpt lat="43.05745" lon="5.84512">
        <ele>304</ele>
        <time>2019-10-23T10:21:54Z</time>
      </trkpt>
      <trkpt lat="43.05757" lon="5.8451">
        <ele>303</ele>
        <time>2019-10-23T10:21:55Z</time>
      </trkpt>
      <trkpt lat="43.05767" lon="5.84508">
        <ele>302</ele>
        <time>2019-10-23T10:21:56Z</time>
      </trkpt>
      <trkpt lat="43.05776" lon="5.84504">
        <ele>301</ele>
        <time>2019-10-23T10:21:57Z</time>
      </trkpt>
      <trkpt lat="43.05784" lon="5.84503">
        <ele>300</ele>
        <time>2019-10-23T10:21:58Z</time>
      </trkpt>
      <trkpt lat="43.05793" lon="5.84504">
        <ele>299</ele>
        <time>2019-10-23T10:21:59Z</time>
      </trkpt>
      <trkpt lat="43.05802" lon="5.84505">
        <ele>299</ele>
        <time>2019-10-23T10:22:00Z</time>
      </trkpt>
      <trkpt lat="43.05811" lon="5.84504">
        <ele>298</ele>
        <time>2019-10-23T10:22:01Z</time>
      </trkpt>
      <trkpt lat="43.05822" lon="5.84504">
        <ele>296</ele>
        <time>2019-10-23T10:22:02Z</time>
      </trkpt>
      <trkpt lat="43.05831" lon="5.84504">
        <ele>295</ele>
        <time>2019-10-23T10:22:03Z</time>
      </trkpt>
      <trkpt lat="43.05841" lon="5.84505">
        <ele>293</ele>
        <time>2019-10-23T10:22:04Z</time>
      </trkpt>
      <trkpt lat="43.05849" lon="5.84507">
        <ele>290</ele>
        <time>2019-10-23T10:22:05Z</time>
      </trkpt>
      <trkpt lat="43.05857" lon="5.84507">
        <ele>289</ele>
        <time>2019-10-23T10:22:06Z</time>
      </trkpt>
      <trkpt lat="43.05865" lon="5.84505">
        <ele>287</ele>
        <time>2019-10-23T10:22:07Z</time>
      </trkpt>
      <trkpt lat="43.05873" lon="5.84502">
        <ele>285</ele>
        <time>2019-10-23T10:22:08Z</time>
      </trkpt>
      <trkpt lat="43.05881" lon="5.845">
        <ele>283</ele>
        <time>2019-10-23T10:22:09Z</time>
      </trkpt>
      <trkpt lat="43.05888" lon="5.845">
        <ele>281</ele>
        <time>2019-10-23T10:22:10Z</time>
      </trkpt>
      <trkpt lat="43.05894" lon="5.84503">
        <ele>279</ele>
        <time>2019-10-23T10:22:11Z</time>
      </trkpt>
      <trkpt lat="43.059" lon="5.84509">
        <ele>278</ele>
        <time>2019-10-23T10:22:12Z</time>
      </trkpt>
      <trkpt lat="43.05905" lon="5.84516">
        <ele>278</ele>
        <time>2019-10-23T10:22:13Z</time>
      </trkpt>
      <trkpt lat="43.0591" lon="5.84522">
        <ele>278</ele>
        <time>2019-10-23T10:22:15Z</time>
      </trkpt>
      <trkpt lat="43.05916" lon="5.84528">
        <ele>278</ele>
        <time>2019-10-23T10:22:16Z</time>
      </trkpt>
      <trkpt lat="43.05923" lon="5.84532">
        <ele>277</ele>
        <time>2019-10-23T10:22:17Z</time>
      </trkpt>
      <trkpt lat="43.05931" lon="5.84536">
        <ele>276</ele>
        <time>2019-10-23T10:22:18Z</time>
      </trkpt>
      <trkpt lat="43.05939" lon="5.8454">
        <ele>275</ele>
        <time>2019-10-23T10:22:19Z</time>
      </trkpt>
      <trkpt lat="43.05948" lon="5.84544">
        <ele>273</ele>
        <time>2019-10-23T10:22:20Z</time>
      </trkpt>
      <trkpt lat="43.05956" lon="5.84547">
        <ele>271</ele>
        <time>2019-10-23T10:22:21Z</time>
      </trkpt>
      <trkpt lat="43.05964" lon="5.8455">
        <ele>270</ele>
        <time>2019-10-23T10:22:22Z</time>
      </trkpt>
      <trkpt lat="43.05971" lon="5.84553">
        <ele>270</ele>
        <time>2019-10-23T10:22:23Z</time>
      </trkpt>
      <trkpt lat="43.05979" lon="5.84554">
        <ele>269</ele>
        <time>2019-10-23T10:22:24Z</time>
      </trkpt>
      <trkpt lat="43.05987" lon="5.84555">
        <ele>268</ele>
        <time>2019-10-23T10:22:25Z</time>
      </trkpt>
      <trkpt lat="43.05996" lon="5.84555">
        <ele>266</ele>
        <time>2019-10-23T10:22:26Z</time>
      </trkpt>
      <trkpt lat="43.06003" lon="5.84556">
        <ele>265</ele>
        <time>2019-10-23T10:22:27Z</time>
      </trkpt>
      <trkpt lat="43.06011" lon="5.84558">
        <ele>264</ele>
        <time>2019-10-23T10:22:28Z</time>
      </trkpt>
      <trkpt lat="43.06018" lon="5.84564">
        <ele>264</ele>
        <time>2019-10-23T10:22:29Z</time>
      </trkpt>
      <trkpt lat="43.06025" lon="5.84572">
        <ele>263</ele>
        <time>2019-10-23T10:22:30Z</time>
      </trkpt>
      <trkpt lat="43.0603" lon="5.8458">
        <ele>262</ele>
        <time>2019-10-23T10:22:31Z</time>
      </trkpt>
      <trkpt lat="43.06034" lon="5.8459">
        <ele>261</ele>
        <time>2019-10-23T10:22:32Z</time>
      </trkpt>
      <trkpt lat="43.06038" lon="5.84596">
        <ele>261</ele>
        <time>2019-10-23T10:22:33Z</time>
      </trkpt>
      <trkpt lat="43.06042" lon="5.84602">
        <ele>259</ele>
        <time>2019-10-23T10:22:34Z</time>
      </trkpt>
      <trkpt lat="43.06047" lon="5.84606">
        <ele>258</ele>
        <time>2019-10-23T10:22:35Z</time>
      </trkpt>
      <trkpt lat="43.06053" lon="5.84609">
        <ele>256</ele>
        <time>2019-10-23T10:22:36Z</time>
      </trkpt>
      <trkpt lat="43.0606" lon="5.84611">
        <ele>254</ele>
        <time>2019-10-23T10:22:37Z</time>
      </trkpt>
      <trkpt lat="43.06066" lon="5.84611">
        <ele>252</ele>
        <time>2019-10-23T10:22:38Z</time>
      </trkpt>
      <trkpt lat="43.06073" lon="5.84609">
        <ele>251</ele>
        <time>2019-10-23T10:22:39Z</time>
      </trkpt>
      <trkpt lat="43.06079" lon="5.84604">
        <ele>249</ele>
        <time>2019-10-23T10:22:40Z</time>
      </trkpt>
      <trkpt lat="43.06084" lon="5.846">
        <ele>248</ele>
        <time>2019-10-23T10:22:41Z</time>
      </trkpt>
      <trkpt lat="43.06089" lon="5.84597">
        <ele>247</ele>
        <time>2019-10-23T10:22:42Z</time>
      </trkpt>
      <trkpt lat="43.06094" lon="5.84595">
        <ele>246</ele>
        <time>2019-10-23T10:22:43Z</time>
      </trkpt>
      <trkpt lat="43.06098" lon="5.84592">
        <ele>246</ele>
        <time>2019-10-23T10:22:44Z</time>
      </trkpt>
      <trkpt lat="43.06102" lon="5.84591">
        <ele>245</ele>
        <time>2019-10-23T10:22:45Z</time>
      </trkpt>
      <trkpt lat="43.06106" lon="5.84591">
        <ele>245</ele>
        <time>2019-10-23T10:22:46Z</time>
      </trkpt>
      <trkpt lat="43.0611" lon="5.8459">
        <ele>244</ele>
        <time>2019-10-23T10:22:47Z</time>
      </trkpt>
      <trkpt lat="43.06114" lon="5.84589">
        <ele>244</ele>
        <time>2019-10-23T10:22:48Z</time>
      </trkpt>
      <trkpt lat="43.06119" lon="5.84589">
        <ele>244</ele>
        <time>2019-10-23T10:22:50Z</time>
      </trkpt>
      <trkpt lat="43.06124" lon="5.8459">
        <ele>243</ele>
        <time>2019-10-23T10:22:51Z</time>
      </trkpt>
      <trkpt lat="43.06129" lon="5.84591">
        <ele>243</ele>
        <time>2019-10-23T10:22:52Z</time>
      </trkpt>
      <trkpt lat="43.06134" lon="5.84591">
        <ele>242</ele>
        <time>2019-10-23T10:22:53Z</time>
      </trkpt>
      <trkpt lat="43.06138" lon="5.84591">
        <ele>241</ele>
        <time>2019-10-23T10:22:54Z</time>
      </trkpt>
      <trkpt lat="43.06142" lon="5.84591">
        <ele>241</ele>
        <time>2019-10-23T10:22:55Z</time>
      </trkpt>
      <trkpt lat="43.06145" lon="5.84589">
        <ele>241</ele>
        <time>2019-10-23T10:22:56Z</time>
      </trkpt>
      <trkpt lat="43.06149" lon="5.84586">
        <ele>241</ele>
        <time>2019-10-23T10:22:57Z</time>
      </trkpt>
      <trkpt lat="43.06153" lon="5.84583">
        <ele>241</ele>
        <time>2019-10-23T10:22:58Z</time>
      </trkpt>
      <trkpt lat="43.06158" lon="5.84582">
        <ele>241</ele>
        <time>2019-10-23T10:22:59Z</time>
      </trkpt>
      <trkpt lat="43.06163" lon="5.84581">
        <ele>240</ele>
        <time>2019-10-23T10:23:00Z</time>
      </trkpt>
      <trkpt lat="43.06168" lon="5.84582">
        <ele>239</ele>
        <time>2019-10-23T10:23:01Z</time>
      </trkpt>
      <trkpt lat="43.06174" lon="5.84583">
        <ele>239</ele>
        <time>2019-10-23T10:23:02Z</time>
      </trkpt>
      <trkpt lat="43.0618" lon="5.84583">
        <ele>238</ele>
        <time>2019-10-23T10:23:03Z</time>
      </trkpt>
      <trkpt lat="43.06187" lon="5.84583">
        <ele>237</ele>
        <time>2019-10-23T10:23:04Z</time>
      </trkpt>
      <trkpt lat="43.06193" lon="5.84583">
        <ele>237</ele>
        <time>2019-10-23T10:23:05Z</time>
      </trkpt>
      <trkpt lat="43.06201" lon="5.84584">
        <ele>236</ele>
        <time>2019-10-23T10:23:06Z</time>
      </trkpt>
      <trkpt lat="43.06209" lon="5.84583">
        <ele>235</ele>
        <time>2019-10-23T10:23:07Z</time>
      </trkpt>
      <trkpt lat="43.06217" lon="5.84581">
        <ele>235</ele>
        <time>2019-10-23T10:23:08Z</time>
      </trkpt>
      <trkpt lat="43.06226" lon="5.8458">
        <ele>234</ele>
        <time>2019-10-23T10:23:09Z</time>
      </trkpt>
      <trkpt lat="43.06235" lon="5.84579">
        <ele>234</ele>
        <time>2019-10-23T10:23:10Z</time>
      </trkpt>
      <trkpt lat="43.06244" lon="5.84579">
        <ele>233</ele>
        <time>2019-10-23T10:23:11Z</time>
      </trkpt>
      <trkpt lat="43.06253" lon="5.84579">
        <ele>233</ele>
        <time>2019-10-23T10:23:12Z</time>
      </trkpt>
      <trkpt lat="43.06262" lon="5.8458">
        <ele>233</ele>
        <time>2019-10-23T10:23:13Z</time>
      </trkpt>
      <trkpt lat="43.0627" lon="5.84582">
        <ele>233</ele>
        <time>2019-10-23T10:23:14Z</time>
      </trkpt>
      <trkpt lat="43.06279" lon="5.84584">
        <ele>233</ele>
        <time>2019-10-23T10:23:15Z</time>
      </trkpt>
      <trkpt lat="43.06287" lon="5.84586">
        <ele>233</ele>
        <time>2019-10-23T10:23:16Z</time>
      </trkpt>
      <trkpt lat="43.06295" lon="5.84588">
        <ele>232</ele>
        <time>2019-10-23T10:23:17Z</time>
      </trkpt>
      <trkpt lat="43.06303" lon="5.84591">
        <ele>232</ele>
        <time>2019-10-23T10:23:18Z</time>
      </trkpt>
      <trkpt lat="43.0631" lon="5.84594">
        <ele>232</ele>
        <time>2019-10-23T10:23:19Z</time>
      </trkpt>
      <trkpt lat="43.06317" lon="5.84603">
        <ele>231</ele>
        <time>2019-10-23T10:23:20Z</time>
      </trkpt>
      <trkpt lat="43.0632" lon="5.84612">
        <ele>230</ele>
        <time>2019-10-23T10:23:21Z</time>
      </trkpt>
      <trkpt lat="43.06321" lon="5.8462">
        <ele>228</ele>
        <time>2019-10-23T10:23:22Z</time>
      </trkpt>
      <trkpt lat="43.06321" lon="5.84627">
        <ele>228</ele>
        <time>2019-10-23T10:23:23Z</time>
      </trkpt>
      <trkpt lat="43.06318" lon="5.84633">
        <ele>226</ele>
        <time>2019-10-23T10:23:24Z</time>
      </trkpt>
      <trkpt lat="43.06315" lon="5.84639">
        <ele>225</ele>
        <time>2019-10-23T10:23:25Z</time>
      </trkpt>
      <trkpt lat="43.06311" lon="5.84644">
        <ele>223</ele>
        <time>2019-10-23T10:23:26Z</time>
      </trkpt>
      <trkpt lat="43.06305" lon="5.84646">
        <ele>222</ele>
        <time>2019-10-23T10:23:27Z</time>
      </trkpt>
      <trkpt lat="43.063" lon="5.84645">
        <ele>221</ele>
        <time>2019-10-23T10:23:28Z</time>
      </trkpt>
      <trkpt lat="43.06294" lon="5.84641">
        <ele>221</ele>
        <time>2019-10-23T10:23:29Z</time>
      </trkpt>
      <trkpt lat="43.0629" lon="5.84636">
        <ele>220</ele>
        <time>2019-10-23T10:23:30Z</time>
      </trkpt>
      <trkpt lat="43.06285" lon="5.8463">
        <ele>220</ele>
        <time>2019-10-23T10:23:31Z</time>
      </trkpt>
      <trkpt lat="43.0628" lon="5.84624">
        <ele>220</ele>
        <time>2019-10-23T10:23:32Z</time>
      </trkpt>
      <trkpt lat="43.06275" lon="5.84618">
        <ele>219</ele>
        <time>2019-10-23T10:23:33Z</time>
      </trkpt>
      <trkpt lat="43.06269" lon="5.84612">
        <ele>219</ele>
        <time>2019-10-23T10:23:34Z</time>
      </trkpt>
      <trkpt lat="43.06263" lon="5.84608">
        <ele>219</ele>
        <time>2019-10-23T10:23:35Z</time>
      </trkpt>
      <trkpt lat="43.06257" lon="5.84604">
        <ele>219</ele>
        <time>2019-10-23T10:23:36Z</time>
      </trkpt>
      <trkpt lat="43.0625" lon="5.84602">
        <ele>219</ele>
        <time>2019-10-23T10:23:37Z</time>
      </trkpt>
      <trkpt lat="43.06243" lon="5.84602">
        <ele>220</ele>
        <time>2019-10-23T10:23:38Z</time>
      </trkpt>
      <trkpt lat="43.06235" lon="5.84603">
        <ele>220</ele>
        <time>2019-10-23T10:23:39Z</time>
      </trkpt>
      <trkpt lat="43.06228" lon="5.84604">
        <ele>220</ele>
        <time>2019-10-23T10:23:40Z</time>
      </trkpt>
      <trkpt lat="43.06221" lon="5.84605">
        <ele>220</ele>
        <time>2019-10-23T10:23:41Z</time>
      </trkpt>
      <trkpt lat="43.06214" lon="5.84607">
        <ele>220</ele>
        <time>2019-10-23T10:23:42Z</time>
      </trkpt>
      <trkpt lat="43.06207" lon="5.84611">
        <ele>220</ele>
        <time>2019-10-23T10:23:43Z</time>
      </trkpt>
      <trkpt lat="43.062" lon="5.84616">
        <ele>219</ele>
        <time>2019-10-23T10:23:44Z</time>
      </trkpt>
      <trkpt lat="43.06193" lon="5.84621">
        <ele>218</ele>
        <time>2019-10-23T10:23:45Z</time>
      </trkpt>
      <trkpt lat="43.06186" lon="5.84626">
        <ele>218</ele>
        <time>2019-10-23T10:23:46Z</time>
      </trkpt>
      <trkpt lat="43.06179" lon="5.84632">
        <ele>218</ele>
        <time>2019-10-23T10:23:47Z</time>
      </trkpt>
      <trkpt lat="43.06172" lon="5.84638">
        <ele>218</ele>
        <time>2019-10-23T10:23:48Z</time>
      </trkpt>
      <trkpt lat="43.06166" lon="5.84642">
        <ele>217</ele>
        <time>2019-10-23T10:23:49Z</time>
      </trkpt>
      <trkpt lat="43.06159" lon="5.84648">
        <ele>217</ele>
        <time>2019-10-23T10:23:50Z</time>
      </trkpt>
      <trkpt lat="43.06153" lon="5.84652">
        <ele>217</ele>
        <time>2019-10-23T10:23:51Z</time>
      </trkpt>
      <trkpt lat="43.06147" lon="5.84657">
        <ele>216</ele>
        <time>2019-10-23T10:23:52Z</time>
      </trkpt>
      <trkpt lat="43.06141" lon="5.84662">
        <ele>215</ele>
        <time>2019-10-23T10:23:53Z</time>
      </trkpt>
      <trkpt lat="43.06136" lon="5.84666">
        <ele>214</ele>
        <time>2019-10-23T10:23:54Z</time>
      </trkpt>
      <trkpt lat="43.0613" lon="5.84672">
        <ele>213</ele>
        <time>2019-10-23T10:23:55Z</time>
      </trkpt>
      <trkpt lat="43.06124" lon="5.84677">
        <ele>213</ele>
        <time>2019-10-23T10:23:56Z</time>
      </trkpt>
      <trkpt lat="43.06119" lon="5.84683">
        <ele>212</ele>
        <time>2019-10-23T10:23:57Z</time>
      </trkpt>
      <trkpt lat="43.06113" lon="5.84688">
        <ele>212</ele>
        <time>2019-10-23T10:23:58Z</time>
      </trkpt>
      <trkpt lat="43.06109" lon="5.84692">
        <ele>212</ele>
        <time>2019-10-23T10:23:59Z</time>
      </trkpt>
      <trkpt lat="43.06103" lon="5.84697">
        <ele>211</ele>
        <time>2019-10-23T10:24:00Z</time>
      </trkpt>
      <trkpt lat="43.06098" lon="5.84701">
        <ele>210</ele>
        <time>2019-10-23T10:24:01Z</time>
      </trkpt>
      <trkpt lat="43.06091" lon="5.84705">
        <ele>209</ele>
        <time>2019-10-23T10:24:02Z</time>
      </trkpt>
      <trkpt lat="43.06084" lon="5.84708">
        <ele>209</ele>
        <time>2019-10-23T10:24:03Z</time>
      </trkpt>
      <trkpt lat="43.06078" lon="5.8471">
        <ele>209</ele>
        <time>2019-10-23T10:24:04Z</time>
      </trkpt>
      <trkpt lat="43.06071" lon="5.84711">
        <ele>209</ele>
        <time>2019-10-23T10:24:05Z</time>
      </trkpt>
      <trkpt lat="43.06065" lon="5.84713">
        <ele>209</ele>
        <time>2019-10-23T10:24:07Z</time>
      </trkpt>
      <trkpt lat="43.06058" lon="5.84715">
        <ele>208</ele>
        <time>2019-10-23T10:24:08Z</time>
      </trkpt>
      <trkpt lat="43.0605" lon="5.84718">
        <ele>207</ele>
        <time>2019-10-23T10:24:09Z</time>
      </trkpt>
      <trkpt lat="43.06043" lon="5.84722">
        <ele>206</ele>
        <time>2019-10-23T10:24:10Z</time>
      </trkpt>
      <trkpt lat="43.06036" lon="5.84727">
        <ele>205</ele>
        <time>2019-10-23T10:24:11Z</time>
      </trkpt>
      <trkpt lat="43.0603" lon="5.84733">
        <ele>204</ele>
        <time>2019-10-23T10:24:12Z</time>
      </trkpt>
      <trkpt lat="43.06023" lon="5.84738">
        <ele>204</ele>
        <time>2019-10-23T10:24:13Z</time>
      </trkpt>
      <trkpt lat="43.06016" lon="5.84743">
        <ele>203</ele>
        <time>2019-10-23T10:24:14Z</time>
      </trkpt>
      <trkpt lat="43.06008" lon="5.84747">
        <ele>203</ele>
        <time>2019-10-23T10:24:15Z</time>
      </trkpt>
      <trkpt lat="43.05999" lon="5.84749">
        <ele>203</ele>
        <time>2019-10-23T10:24:16Z</time>
      </trkpt>
      <trkpt lat="43.05992" lon="5.84747">
        <ele>203</ele>
        <time>2019-10-23T10:24:17Z</time>
      </trkpt>
      <trkpt lat="43.05984" lon="5.84744">
        <ele>202</ele>
        <time>2019-10-23T10:24:18Z</time>
      </trkpt>
      <trkpt lat="43.05977" lon="5.8474">
        <ele>202</ele>
        <time>2019-10-23T10:24:19Z</time>
      </trkpt>
      <trkpt lat="43.05968" lon="5.84736">
        <ele>202</ele>
        <time>2019-10-23T10:24:20Z</time>
      </trkpt>
      <trkpt lat="43.0596" lon="5.84736">
        <ele>202</ele>
        <time>2019-10-23T10:24:21Z</time>
      </trkpt>
      <trkpt lat="43.05951" lon="5.84737">
        <ele>201</ele>
        <time>2019-10-23T10:24:22Z</time>
      </trkpt>
      <trkpt lat="43.05944" lon="5.84743">
        <ele>201</ele>
        <time>2019-10-23T10:24:23Z</time>
      </trkpt>
      <trkpt lat="43.05938" lon="5.84751">
        <ele>201</ele>
        <time>2019-10-23T10:24:24Z</time>
      </trkpt>
      <trkpt lat="43.05932" lon="5.84762">
        <ele>201</ele>
        <time>2019-10-23T10:24:25Z</time>
      </trkpt>
      <trkpt lat="43.05929" lon="5.84775">
        <ele>200</ele>
        <time>2019-10-23T10:24:26Z</time>
      </trkpt>
      <trkpt lat="43.05928" lon="5.84787">
        <ele>200</ele>
        <time>2019-10-23T10:24:27Z</time>
      </trkpt>
      <trkpt lat="43.05927" lon="5.84799">
        <ele>199</ele>
        <time>2019-10-23T10:24:28Z</time>
      </trkpt>
      <trkpt lat="43.05926" lon="5.8481">
        <ele>199</ele>
        <time>2019-10-23T10:24:29Z</time>
      </trkpt>
      <trkpt lat="43.05925" lon="5.84823">
        <ele>198</ele>
        <time>2019-10-23T10:24:30Z</time>
      </trkpt>
      <trkpt lat="43.05923" lon="5.84835">
        <ele>197</ele>
        <time>2019-10-23T10:24:31Z</time>
      </trkpt>
      <trkpt lat="43.0592" lon="5.84848">
        <ele>196</ele>
        <time>2019-10-23T10:24:32Z</time>
      </trkpt>
      <trkpt lat="43.05917" lon="5.84861">
        <ele>195</ele>
        <time>2019-10-23T10:24:33Z</time>
      </trkpt>
      <trkpt lat="43.05914" lon="5.84873">
        <ele>194</ele>
        <time>2019-10-23T10:24:34Z</time>
      </trkpt>
      <trkpt lat="43.0591" lon="5.84886">
        <ele>194</ele>
        <time>2019-10-23T10:24:35Z</time>
      </trkpt>
      <trkpt lat="43.05907" lon="5.84899">
        <ele>194</ele>
        <time>2019-10-23T10:24:36Z</time>
      </trkpt>
      <trkpt lat="43.05904" lon="5.84926">
        <ele>193</ele>
        <time>2019-10-23T10:24:37Z</time>
      </trkpt>
      <trkpt lat="43.05905" lon="5.84938">
        <ele>192</ele>
        <time>2019-10-23T10:24:38Z</time>
      </trkpt>
      <trkpt lat="43.05909" lon="5.84949">
        <ele>191</ele>
        <time>2019-10-23T10:24:39Z</time>
      </trkpt>
      <trkpt lat="43.05916" lon="5.84959">
        <ele>190</ele>
        <time>2019-10-23T10:24:40Z</time>
      </trkpt>
      <trkpt lat="43.05924" lon="5.84964">
        <ele>190</ele>
        <time>2019-10-23T10:24:41Z</time>
      </trkpt>
      <trkpt lat="43.05932" lon="5.84967">
        <ele>189</ele>
        <time>2019-10-23T10:24:42Z</time>
      </trkpt>
      <trkpt lat="43.05941" lon="5.84965">
        <ele>189</ele>
        <time>2019-10-23T10:24:43Z</time>
      </trkpt>
      <trkpt lat="43.05948" lon="5.84961">
        <ele>188</ele>
        <time>2019-10-23T10:24:44Z</time>
      </trkpt>
      <trkpt lat="43.05955" lon="5.84954">
        <ele>188</ele>
        <time>2019-10-23T10:24:45Z</time>
      </trkpt>
      <trkpt lat="43.05962" lon="5.84948">
        <ele>188</ele>
        <time>2019-10-23T10:24:46Z</time>
      </trkpt>
      <trkpt lat="43.0597" lon="5.84942">
        <ele>187</ele>
        <time>2019-10-23T10:24:47Z</time>
      </trkpt>
      <trkpt lat="43.05978" lon="5.84939">
        <ele>187</ele>
        <time>2019-10-23T10:24:48Z</time>
      </trkpt>
      <trkpt lat="43.05987" lon="5.84937">
        <ele>187</ele>
        <time>2019-10-23T10:24:49Z</time>
      </trkpt>
      <trkpt lat="43.05995" lon="5.84936">
        <ele>186</ele>
        <time>2019-10-23T10:24:50Z</time>
      </trkpt>
      <trkpt lat="43.06004" lon="5.84936">
        <ele>186</ele>
        <time>2019-10-23T10:24:51Z</time>
      </trkpt>
      <trkpt lat="43.06012" lon="5.84939">
        <ele>185</ele>
        <time>2019-10-23T10:24:52Z</time>
      </trkpt>
      <trkpt lat="43.0602" lon="5.84944">
        <ele>185</ele>
        <time>2019-10-23T10:24:53Z</time>
      </trkpt>
      <trkpt lat="43.06027" lon="5.84949">
        <ele>185</ele>
        <time>2019-10-23T10:24:54Z</time>
      </trkpt>
      <trkpt lat="43.06034" lon="5.84956">
        <ele>184</ele>
        <time>2019-10-23T10:24:55Z</time>
      </trkpt>
      <trkpt lat="43.0604" lon="5.84965">
        <ele>184</ele>
        <time>2019-10-23T10:24:56Z</time>
      </trkpt>
      <trkpt lat="43.06045" lon="5.84973">
        <ele>184</ele>
        <time>2019-10-23T10:24:57Z</time>
      </trkpt>
      <trkpt lat="43.06049" lon="5.84982">
        <ele>183</ele>
        <time>2019-10-23T10:24:58Z</time>
      </trkpt>
      <trkpt lat="43.06055" lon="5.84992">
        <ele>183</ele>
        <time>2019-10-23T10:24:59Z</time>
      </trkpt>
      <trkpt lat="43.06061" lon="5.85001">
        <ele>182</ele>
        <time>2019-10-23T10:25:00Z</time>
      </trkpt>
      <trkpt lat="43.06067" lon="5.85009">
        <ele>182</ele>
        <time>2019-10-23T10:25:01Z</time>
      </trkpt>
      <trkpt lat="43.06074" lon="5.85017">
        <ele>182</ele>
        <time>2019-10-23T10:25:02Z</time>
      </trkpt>
      <trkpt lat="43.06079" lon="5.85025">
        <ele>182</ele>
        <time>2019-10-23T10:25:03Z</time>
      </trkpt>
      <trkpt lat="43.06085" lon="5.85032">
        <ele>181</ele>
        <time>2019-10-23T10:25:04Z</time>
      </trkpt>
      <trkpt lat="43.0609" lon="5.85039">
        <ele>181</ele>
        <time>2019-10-23T10:25:05Z</time>
      </trkpt>
      <trkpt lat="43.06095" lon="5.85047">
        <ele>181</ele>
        <time>2019-10-23T10:25:06Z</time>
      </trkpt>
      <trkpt lat="43.061" lon="5.85055">
        <ele>181</ele>
        <time>2019-10-23T10:25:07Z</time>
      </trkpt>
      <trkpt lat="43.06104" lon="5.85063">
        <ele>181</ele>
        <time>2019-10-23T10:25:08Z</time>
      </trkpt>
      <trkpt lat="43.06107" lon="5.85071">
        <ele>182</ele>
        <time>2019-10-23T10:25:09Z</time>
      </trkpt>
      <trkpt lat="43.06111" lon="5.8508">
        <ele>182</ele>
        <time>2019-10-23T10:25:10Z</time>
      </trkpt>
      <trkpt lat="43.06114" lon="5.85089">
        <ele>182</ele>
        <time>2019-10-23T10:25:11Z</time>
      </trkpt>
      <trkpt lat="43.06116" lon="5.85098">
        <ele>182</ele>
        <time>2019-10-23T10:25:12Z</time>
      </trkpt>
      <trkpt lat="43.06119" lon="5.85107">
        <ele>182</ele>
        <time>2019-10-23T10:25:13Z</time>
      </trkpt>
      <trkpt lat="43.06121" lon="5.85116">
        <ele>181</ele>
        <time>2019-10-23T10:25:14Z</time>
      </trkpt>
      <trkpt lat="43.06122" lon="5.85127">
        <ele>179</ele>
        <time>2019-10-23T10:25:15Z</time>
      </trkpt>
      <trkpt lat="43.06124" lon="5.85137">
        <ele>179</ele>
        <time>2019-10-23T10:25:16Z</time>
      </trkpt>
      <trkpt lat="43.06124" lon="5.85147">
        <ele>178</ele>
        <time>2019-10-23T10:25:17Z</time>
      </trkpt>
      <trkpt lat="43.06125" lon="5.85156">
        <ele>177</ele>
        <time>2019-10-23T10:25:18Z</time>
      </trkpt>
      <trkpt lat="43.06126" lon="5.85166">
        <ele>177</ele>
        <time>2019-10-23T10:25:19Z</time>
      </trkpt>
      <trkpt lat="43.06125" lon="5.85176">
        <ele>176</ele>
        <time>2019-10-23T10:25:20Z</time>
      </trkpt>
      <trkpt lat="43.06124" lon="5.85186">
        <ele>176</ele>
        <time>2019-10-23T10:25:21Z</time>
      </trkpt>
      <trkpt lat="43.06123" lon="5.85195">
        <ele>176</ele>
        <time>2019-10-23T10:25:22Z</time>
      </trkpt>
      <trkpt lat="43.06123" lon="5.85204">
        <ele>176</ele>
        <time>2019-10-23T10:25:23Z</time>
      </trkpt>
      <trkpt lat="43.06121" lon="5.85214">
        <ele>176</ele>
        <time>2019-10-23T10:25:24Z</time>
      </trkpt>
      <trkpt lat="43.06121" lon="5.85224">
        <ele>176</ele>
        <time>2019-10-23T10:25:25Z</time>
      </trkpt>
      <trkpt lat="43.0612" lon="5.85234">
        <ele>176</ele>
        <time>2019-10-23T10:25:26Z</time>
      </trkpt>
      <trkpt lat="43.06121" lon="5.85245">
        <ele>175</ele>
        <time>2019-10-23T10:25:27Z</time>
      </trkpt>
      <trkpt lat="43.06121" lon="5.85256">
        <ele>174</ele>
        <time>2019-10-23T10:25:28Z</time>
      </trkpt>
      <trkpt lat="43.06121" lon="5.85267">
        <ele>174</ele>
        <time>2019-10-23T10:25:29Z</time>
      </trkpt>
      <trkpt lat="43.0612" lon="5.85277">
        <ele>173</ele>
        <time>2019-10-23T10:25:30Z</time>
      </trkpt>
      <trkpt lat="43.06119" lon="5.85287">
        <ele>172</ele>
        <time>2019-10-23T10:25:31Z</time>
      </trkpt>
      <trkpt lat="43.06115" lon="5.85298">
        <ele>171</ele>
        <time>2019-10-23T10:25:32Z</time>
      </trkpt>
      <trkpt lat="43.06111" lon="5.85308">
        <ele>170</ele>
        <time>2019-10-23T10:25:33Z</time>
      </trkpt>
      <trkpt lat="43.06106" lon="5.85318">
        <ele>169</ele>
        <time>2019-10-23T10:25:34Z</time>
      </trkpt>
      <trkpt lat="43.061" lon="5.85327">
        <ele>168</ele>
        <time>2019-10-23T10:25:35Z</time>
      </trkpt>
      <trkpt lat="43.06093" lon="5.85335">
        <ele>167</ele>
        <time>2019-10-23T10:25:36Z</time>
      </trkpt>
      <trkpt lat="43.06088" lon="5.85344">
        <ele>167</ele>
        <time>2019-10-23T10:25:37Z</time>
      </trkpt>
      <trkpt lat="43.06082" lon="5.85354">
        <ele>166</ele>
        <time>2019-10-23T10:25:38Z</time>
      </trkpt>
      <trkpt lat="43.06077" lon="5.85364">
        <ele>166</ele>
        <time>2019-10-23T10:25:39Z</time>
      </trkpt>
      <trkpt lat="43.06071" lon="5.85376">
        <ele>166</ele>
        <time>2019-10-23T10:25:40Z</time>
      </trkpt>
      <trkpt lat="43.06066" lon="5.85387">
        <ele>165</ele>
        <time>2019-10-23T10:25:41Z</time>
      </trkpt>
      <trkpt lat="43.0606" lon="5.854">
        <ele>165</ele>
        <time>2019-10-23T10:25:42Z</time>
      </trkpt>
      <trkpt lat="43.06055" lon="5.85412">
        <ele>164</ele>
        <time>2019-10-23T10:25:43Z</time>
      </trkpt>
      <trkpt lat="43.06051" lon="5.85425">
        <ele>164</ele>
        <time>2019-10-23T10:25:44Z</time>
      </trkpt>
      <trkpt lat="43.06046" lon="5.85438">
        <ele>163</ele>
        <time>2019-10-23T10:25:45Z</time>
      </trkpt>
      <trkpt lat="43.06041" lon="5.8545">
        <ele>161</ele>
        <time>2019-10-23T10:25:46Z</time>
      </trkpt>
      <trkpt lat="43.06036" lon="5.85462">
        <ele>160</ele>
        <time>2019-10-23T10:25:47Z</time>
      </trkpt>
      <trkpt lat="43.06032" lon="5.85473">
        <ele>159</ele>
        <time>2019-10-23T10:25:48Z</time>
      </trkpt>
      <trkpt lat="43.06025" lon="5.85483">
        <ele>158</ele>
        <time>2019-10-23T10:25:49Z</time>
      </trkpt>
      <trkpt lat="43.06018" lon="5.85492">
        <ele>158</ele>
        <time>2019-10-23T10:25:50Z</time>
      </trkpt>
      <trkpt lat="43.0601" lon="5.855">
        <ele>158</ele>
        <time>2019-10-23T10:25:51Z</time>
      </trkpt>
      <trkpt lat="43.06001" lon="5.85508">
        <ele>157</ele>
        <time>2019-10-23T10:25:52Z</time>
      </trkpt>
      <trkpt lat="43.05992" lon="5.85514">
        <ele>155</ele>
        <time>2019-10-23T10:25:53Z</time>
      </trkpt>
      <trkpt lat="43.05983" lon="5.85521">
        <ele>154</ele>
        <time>2019-10-23T10:25:54Z</time>
      </trkpt>
      <trkpt lat="43.05975" lon="5.85531">
        <ele>152</ele>
        <time>2019-10-23T10:25:55Z</time>
      </trkpt>
      <trkpt lat="43.05967" lon="5.85542">
        <ele>152</ele>
        <time>2019-10-23T10:25:56Z</time>
      </trkpt>
      <trkpt lat="43.05961" lon="5.85553">
        <ele>152</ele>
        <time>2019-10-23T10:25:57Z</time>
      </trkpt>
      <trkpt lat="43.05956" lon="5.85563">
        <ele>153</ele>
        <time>2019-10-23T10:25:58Z</time>
      </trkpt>
      <trkpt lat="43.05951" lon="5.85573">
        <ele>153</ele>
        <time>2019-10-23T10:25:59Z</time>
      </trkpt>
      <trkpt lat="43.05946" lon="5.85583">
        <ele>153</ele>
        <time>2019-10-23T10:26:00Z</time>
      </trkpt>
      <trkpt lat="43.05942" lon="5.85593">
        <ele>153</ele>
        <time>2019-10-23T10:26:01Z</time>
      </trkpt>
      <trkpt lat="43.05938" lon="5.85602">
        <ele>153</ele>
        <time>2019-10-23T10:26:02Z</time>
      </trkpt>
      <trkpt lat="43.05934" lon="5.85612">
        <ele>153</ele>
        <time>2019-10-23T10:26:03Z</time>
      </trkpt>
      <trkpt lat="43.0593" lon="5.85621">
        <ele>154</ele>
        <time>2019-10-23T10:26:04Z</time>
      </trkpt>
      <trkpt lat="43.05928" lon="5.8563">
        <ele>154</ele>
        <time>2019-10-23T10:26:05Z</time>
      </trkpt>
      <trkpt lat="43.05925" lon="5.85637">
        <ele>155</ele>
        <time>2019-10-23T10:26:06Z</time>
      </trkpt>
      <trkpt lat="43.05922" lon="5.85644">
        <ele>156</ele>
        <time>2019-10-23T10:26:07Z</time>
      </trkpt>
      <trkpt lat="43.05919" lon="5.8565">
        <ele>156</ele>
        <time>2019-10-23T10:26:08Z</time>
      </trkpt>
      <trkpt lat="43.05917" lon="5.85657">
        <ele>156</ele>
        <time>2019-10-23T10:26:09Z</time>
      </trkpt>
      <trkpt lat="43.05914" lon="5.85663">
        <ele>156</ele>
        <time>2019-10-23T10:26:10Z</time>
      </trkpt>
      <trkpt lat="43.05911" lon="5.85669">
        <ele>156</ele>
        <time>2019-10-23T10:26:11Z</time>
      </trkpt>
      <trkpt lat="43.05909" lon="5.85675">
        <ele>157</ele>
        <time>2019-10-23T10:26:12Z</time>
      </trkpt>
      <trkpt lat="43.05906" lon="5.8568">
        <ele>157</ele>
        <time>2019-10-23T10:26:13Z</time>
      </trkpt>
      <trkpt lat="43.05904" lon="5.85685">
        <ele>157</ele>
        <time>2019-10-23T10:26:14Z</time>
      </trkpt>
      <trkpt lat="43.05902" lon="5.85689">
        <ele>158</ele>
        <time>2019-10-23T10:26:15Z</time>
      </trkpt>
      <trkpt lat="43.05899" lon="5.85693">
        <ele>158</ele>
        <time>2019-10-23T10:26:16Z</time>
      </trkpt>
      <trkpt lat="43.05897" lon="5.85698">
        <ele>158</ele>
        <time>2019-10-23T10:26:17Z</time>
      </trkpt>
      <trkpt lat="43.05894" lon="5.85703">
        <ele>159</ele>
        <time>2019-10-23T10:26:18Z</time>
      </trkpt>
      <trkpt lat="43.05892" lon="5.85708">
        <ele>159</ele>
        <time>2019-10-23T10:26:19Z</time>
      </trkpt>
      <trkpt lat="43.0589" lon="5.85713">
        <ele>160</ele>
        <time>2019-10-23T10:26:20Z</time>
      </trkpt>
      <trkpt lat="43.05888" lon="5.85719">
        <ele>160</ele>
        <time>2019-10-23T10:26:21Z</time>
      </trkpt>
      <trkpt lat="43.05886" lon="5.85724">
        <ele>160</ele>
        <time>2019-10-23T10:26:22Z</time>
      </trkpt>
      <trkpt lat="43.05884" lon="5.85729">
        <ele>161</ele>
        <time>2019-10-23T10:26:23Z</time>
      </trkpt>
      <trkpt lat="43.05882" lon="5.85735">
        <ele>161</ele>
        <time>2019-10-23T10:26:24Z</time>
      </trkpt>
      <trkpt lat="43.0588" lon="5.85741">
        <ele>161</ele>
        <time>2019-10-23T10:26:25Z</time>
      </trkpt>
      <trkpt lat="43.05878" lon="5.85746">
        <ele>161</ele>
        <time>2019-10-23T10:26:26Z</time>
      </trkpt>
      <trkpt lat="43.05877" lon="5.85752">
        <ele>162</ele>
        <time>2019-10-23T10:26:27Z</time>
      </trkpt>
      <trkpt lat="43.05876" lon="5.85758">
        <ele>163</ele>
        <time>2019-10-23T10:26:28Z</time>
      </trkpt>
      <trkpt lat="43.05875" lon="5.85764">
        <ele>163</ele>
        <time>2019-10-23T10:26:29Z</time>
      </trkpt>
      <trkpt lat="43.05875" lon="5.85769">
        <ele>164</ele>
        <time>2019-10-23T10:26:30Z</time>
      </trkpt>
      <trkpt lat="43.05875" lon="5.85775">
        <ele>164</ele>
        <time>2019-10-23T10:26:31Z</time>
      </trkpt>
      <trkpt lat="43.05875" lon="5.85781">
        <ele>164</ele>
        <time>2019-10-23T10:26:32Z</time>
      </trkpt>
      <trkpt lat="43.05875" lon="5.85786">
        <ele>165</ele>
        <time>2019-10-23T10:26:33Z</time>
      </trkpt>
      <trkpt lat="43.05876" lon="5.85792">
        <ele>165</ele>
        <time>2019-10-23T10:26:34Z</time>
      </trkpt>
      <trkpt lat="43.05878" lon="5.85797">
        <ele>166</ele>
        <time>2019-10-23T10:26:35Z</time>
      </trkpt>
      <trkpt lat="43.05878" lon="5.85802">
        <ele>166</ele>
        <time>2019-10-23T10:26:36Z</time>
      </trkpt>
      <trkpt lat="43.05879" lon="5.85807">
        <ele>166</ele>
        <time>2019-10-23T10:26:37Z</time>
      </trkpt>
      <trkpt lat="43.0588" lon="5.85812">
        <ele>168</ele>
        <time>2019-10-23T10:26:38Z</time>
      </trkpt>
      <trkpt lat="43.05881" lon="5.85818">
        <ele>168</ele>
        <time>2019-10-23T10:26:39Z</time>
      </trkpt>
      <trkpt lat="43.05881" lon="5.85823">
        <ele>168</ele>
        <time>2019-10-23T10:26:40Z</time>
      </trkpt>
      <trkpt lat="43.05882" lon="5.85828">
        <ele>168</ele>
        <time>2019-10-23T10:26:41Z</time>
      </trkpt>
      <trkpt lat="43.05883" lon="5.85835">
        <ele>168</ele>
        <time>2019-10-23T10:26:42Z</time>
      </trkpt>
      <trkpt lat="43.05884" lon="5.85842">
        <ele>168</ele>
        <time>2019-10-23T10:26:43Z</time>
      </trkpt>
      <trkpt lat="43.05884" lon="5.85849">
        <ele>167</ele>
        <time>2019-10-23T10:26:44Z</time>
      </trkpt>
      <trkpt lat="43.05884" lon="5.85856">
        <ele>167</ele>
        <time>2019-10-23T10:26:45Z</time>
      </trkpt>
      <trkpt lat="43.05885" lon="5.85863">
        <ele>166</ele>
        <time>2019-10-23T10:26:46Z</time>
      </trkpt>
      <trkpt lat="43.05885" lon="5.85871">
        <ele>166</ele>
        <time>2019-10-23T10:26:47Z</time>
      </trkpt>
      <trkpt lat="43.05885" lon="5.85878">
        <ele>166</ele>
        <time>2019-10-23T10:26:48Z</time>
      </trkpt>
      <trkpt lat="43.05885" lon="5.85886">
        <ele>166</ele>
        <time>2019-10-23T10:26:49Z</time>
      </trkpt>
      <trkpt lat="43.05885" lon="5.85893">
        <ele>166</ele>
        <time>2019-10-23T10:26:50Z</time>
      </trkpt>
      <trkpt lat="43.05886" lon="5.85901">
        <ele>166</ele>
        <time>2019-10-23T10:26:51Z</time>
      </trkpt>
      <trkpt lat="43.05886" lon="5.85908">
        <ele>166</ele>
        <time>2019-10-23T10:26:52Z</time>
      </trkpt>
      <trkpt lat="43.05887" lon="5.85916">
        <ele>166</ele>
        <time>2019-10-23T10:26:53Z</time>
      </trkpt>
      <trkpt lat="43.05887" lon="5.85923">
        <ele>166</ele>
        <time>2019-10-23T10:26:54Z</time>
      </trkpt>
      <trkpt lat="43.05888" lon="5.8593">
        <ele>166</ele>
        <time>2019-10-23T10:26:55Z</time>
      </trkpt>
      <trkpt lat="43.05888" lon="5.85937">
        <ele>166</ele>
        <time>2019-10-23T10:26:56Z</time>
      </trkpt>
      <trkpt lat="43.05888" lon="5.85944">
        <ele>166</ele>
        <time>2019-10-23T10:26:57Z</time>
      </trkpt>
      <trkpt lat="43.05887" lon="5.85951">
        <ele>165</ele>
        <time>2019-10-23T10:26:58Z</time>
      </trkpt>
      <trkpt lat="43.05887" lon="5.85958">
        <ele>165</ele>
        <time>2019-10-23T10:26:59Z</time>
      </trkpt>
      <trkpt lat="43.05887" lon="5.85965">
        <ele>165</ele>
        <time>2019-10-23T10:27:00Z</time>
      </trkpt>
      <trkpt lat="43.05886" lon="5.85973">
        <ele>165</ele>
        <time>2019-10-23T10:27:01Z</time>
      </trkpt>
      <trkpt lat="43.05885" lon="5.85981">
        <ele>165</ele>
        <time>2019-10-23T10:27:02Z</time>
      </trkpt>
      <trkpt lat="43.05885" lon="5.85989">
        <ele>165</ele>
        <time>2019-10-23T10:27:03Z</time>
      </trkpt>
      <trkpt lat="43.05884" lon="5.85997">
        <ele>164</ele>
        <time>2019-10-23T10:27:04Z</time>
      </trkpt>
      <trkpt lat="43.05883" lon="5.86005">
        <ele>164</ele>
        <time>2019-10-23T10:27:05Z</time>
      </trkpt>
      <trkpt lat="43.05882" lon="5.86014">
        <ele>164</ele>
        <time>2019-10-23T10:27:06Z</time>
      </trkpt>
      <trkpt lat="43.05882" lon="5.86022">
        <ele>163</ele>
        <time>2019-10-23T10:27:07Z</time>
      </trkpt>
      <trkpt lat="43.05881" lon="5.8603">
        <ele>163</ele>
        <time>2019-10-23T10:27:08Z</time>
      </trkpt>
      <trkpt lat="43.05881" lon="5.86038">
        <ele>162</ele>
        <time>2019-10-23T10:27:09Z</time>
      </trkpt>
      <trkpt lat="43.05881" lon="5.86046">
        <ele>162</ele>
        <time>2019-10-23T10:27:10Z</time>
      </trkpt>
      <trkpt lat="43.0588" lon="5.86055">
        <ele>161</ele>
        <time>2019-10-23T10:27:11Z</time>
      </trkpt>
      <trkpt lat="43.05879" lon="5.86063">
        <ele>161</ele>
        <time>2019-10-23T10:27:12Z</time>
      </trkpt>
      <trkpt lat="43.05879" lon="5.86072">
        <ele>160</ele>
        <time>2019-10-23T10:27:13Z</time>
      </trkpt>
      <trkpt lat="43.05879" lon="5.8608">
        <ele>160</ele>
        <time>2019-10-23T10:27:14Z</time>
      </trkpt>
      <trkpt lat="43.05879" lon="5.86089">
        <ele>159</ele>
        <time>2019-10-23T10:27:15Z</time>
      </trkpt>
      <trkpt lat="43.05879" lon="5.86097">
        <ele>159</ele>
        <time>2019-10-23T10:27:16Z</time>
      </trkpt>
      <trkpt lat="43.05881" lon="5.86105">
        <ele>159</ele>
        <time>2019-10-23T10:27:17Z</time>
      </trkpt>
      <trkpt lat="43.05884" lon="5.86113">
        <ele>159</ele>
        <time>2019-10-23T10:27:18Z</time>
      </trkpt>
      <trkpt lat="43.05886" lon="5.86121">
        <ele>159</ele>
        <time>2019-10-23T10:27:19Z</time>
      </trkpt>
      <trkpt lat="43.0589" lon="5.86128">
        <ele>158</ele>
        <time>2019-10-23T10:27:20Z</time>
      </trkpt>
      <trkpt lat="43.05894" lon="5.86135">
        <ele>158</ele>
        <time>2019-10-23T10:27:21Z</time>
      </trkpt>
      <trkpt lat="43.059" lon="5.86139">
        <ele>157</ele>
        <time>2019-10-23T10:27:22Z</time>
      </trkpt>
      <trkpt lat="43.05906" lon="5.86144">
        <ele>156</ele>
        <time>2019-10-23T10:27:23Z</time>
      </trkpt>
      <trkpt lat="43.05911" lon="5.86148">
        <ele>154</ele>
        <time>2019-10-23T10:27:24Z</time>
      </trkpt>
      <trkpt lat="43.05917" lon="5.8615">
        <ele>153</ele>
        <time>2019-10-23T10:27:25Z</time>
      </trkpt>
      <trkpt lat="43.05924" lon="5.86152">
        <ele>151</ele>
        <time>2019-10-23T10:27:26Z</time>
      </trkpt>
      <trkpt lat="43.05932" lon="5.86154">
        <ele>148</ele>
        <time>2019-10-23T10:27:27Z</time>
      </trkpt>
      <trkpt lat="43.05939" lon="5.86156">
        <ele>146</ele>
        <time>2019-10-23T10:27:28Z</time>
      </trkpt>
      <trkpt lat="43.05947" lon="5.86157">
        <ele>144</ele>
        <time>2019-10-23T10:27:29Z</time>
      </trkpt>
      <trkpt lat="43.05954" lon="5.86159">
        <ele>141</ele>
        <time>2019-10-23T10:27:30Z</time>
      </trkpt>
      <trkpt lat="43.05962" lon="5.86161">
        <ele>140</ele>
        <time>2019-10-23T10:27:31Z</time>
      </trkpt>
      <trkpt lat="43.0597" lon="5.86165">
        <ele>138</ele>
        <time>2019-10-23T10:27:32Z</time>
      </trkpt>
      <trkpt lat="43.05978" lon="5.86169">
        <ele>138</ele>
        <time>2019-10-23T10:27:33Z</time>
      </trkpt>
      <trkpt lat="43.05986" lon="5.86174">
        <ele>138</ele>
        <time>2019-10-23T10:27:34Z</time>
      </trkpt>
      <trkpt lat="43.05996" lon="5.8618">
        <ele>137</ele>
        <time>2019-10-23T10:27:35Z</time>
      </trkpt>
      <trkpt lat="43.06005" lon="5.86185">
        <ele>135</ele>
        <time>2019-10-23T10:27:36Z</time>
      </trkpt>
      <trkpt lat="43.06014" lon="5.86192">
        <ele>134</ele>
        <time>2019-10-23T10:27:38Z</time>
      </trkpt>
      <trkpt lat="43.06024" lon="5.86198">
        <ele>134</ele>
        <time>2019-10-23T10:27:39Z</time>
      </trkpt>
      <trkpt lat="43.06034" lon="5.86204">
        <ele>133</ele>
        <time>2019-10-23T10:27:40Z</time>
      </trkpt>
      <trkpt lat="43.06043" lon="5.8621">
        <ele>132</ele>
        <time>2019-10-23T10:27:42Z</time>
      </trkpt>
      <trkpt lat="43.06053" lon="5.86217">
        <ele>132</ele>
        <time>2019-10-23T10:27:43Z</time>
      </trkpt>
      <trkpt lat="43.06063" lon="5.86224">
        <ele>132</ele>
        <time>2019-10-23T10:27:44Z</time>
      </trkpt>
      <trkpt lat="43.06073" lon="5.86233">
        <ele>131</ele>
        <time>2019-10-23T10:27:45Z</time>
      </trkpt>
      <trkpt lat="43.06082" lon="5.86243">
        <ele>130</ele>
        <time>2019-10-23T10:27:46Z</time>
      </trkpt>
      <trkpt lat="43.0609" lon="5.86254">
        <ele>129</ele>
        <time>2019-10-23T10:27:47Z</time>
      </trkpt>
      <trkpt lat="43.06098" lon="5.86267">
        <ele>128</ele>
        <time>2019-10-23T10:27:48Z</time>
      </trkpt>
      <trkpt lat="43.06105" lon="5.8628">
        <ele>127</ele>
        <time>2019-10-23T10:27:49Z</time>
      </trkpt>
      <trkpt lat="43.06111" lon="5.86294">
        <ele>127</ele>
        <time>2019-10-23T10:27:50Z</time>
      </trkpt>
      <trkpt lat="43.06116" lon="5.86308">
        <ele>127</ele>
        <time>2019-10-23T10:27:51Z</time>
      </trkpt>
      <trkpt lat="43.0612" lon="5.86322">
        <ele>127</ele>
        <time>2019-10-23T10:27:52Z</time>
      </trkpt>
      <trkpt lat="43.06124" lon="5.86336">
        <ele>127</ele>
        <time>2019-10-23T10:27:53Z</time>
      </trkpt>
      <trkpt lat="43.06127" lon="5.86349">
        <ele>126</ele>
        <time>2019-10-23T10:27:54Z</time>
      </trkpt>
      <trkpt lat="43.0613" lon="5.86361">
        <ele>126</ele>
        <time>2019-10-23T10:27:55Z</time>
      </trkpt>
      <trkpt lat="43.06132" lon="5.86372">
        <ele>126</ele>
        <time>2019-10-23T10:27:56Z</time>
      </trkpt>
      <trkpt lat="43.06134" lon="5.86383">
        <ele>126</ele>
        <time>2019-10-23T10:27:57Z</time>
      </trkpt>
      <trkpt lat="43.06136" lon="5.86392">
        <ele>126</ele>
        <time>2019-10-23T10:27:58Z</time>
      </trkpt>
      <trkpt lat="43.06138" lon="5.86401">
        <ele>126</ele>
        <time>2019-10-23T10:27:59Z</time>
      </trkpt>
      <trkpt lat="43.0614" lon="5.8641">
        <ele>126</ele>
        <time>2019-10-23T10:28:00Z</time>
      </trkpt>
      <trkpt lat="43.06141" lon="5.86418">
        <ele>127</ele>
        <time>2019-10-23T10:28:01Z</time>
      </trkpt>
      <trkpt lat="43.06143" lon="5.86425">
        <ele>127</ele>
        <time>2019-10-23T10:28:02Z</time>
      </trkpt>
      <trkpt lat="43.06144" lon="5.86431">
        <ele>127</ele>
        <time>2019-10-23T10:28:03Z</time>
      </trkpt>
      <trkpt lat="43.06145" lon="5.86436">
        <ele>127</ele>
        <time>2019-10-23T10:28:04Z</time>
      </trkpt>
      <trkpt lat="43.06147" lon="5.8644">
        <ele>128</ele>
        <time>2019-10-23T10:28:05Z</time>
      </trkpt>
      <trkpt lat="43.06148" lon="5.86445">
        <ele>128</ele>
        <time>2019-10-23T10:28:06Z</time>
      </trkpt>
      <trkpt lat="43.06148" lon="5.86449">
        <ele>129</ele>
        <time>2019-10-23T10:28:07Z</time>
      </trkpt>
      <trkpt lat="43.06148" lon="5.86453">
        <ele>129</ele>
        <time>2019-10-23T10:28:08Z</time>
      </trkpt>
      <trkpt lat="43.0615" lon="5.86459">
        <ele>130</ele>
        <time>2019-10-23T10:28:09Z</time>
      </trkpt>
      <trkpt lat="43.06152" lon="5.86463">
        <ele>130</ele>
        <time>2019-10-23T10:28:10Z</time>
      </trkpt>
      <trkpt lat="43.06154" lon="5.86466">
        <ele>130</ele>
        <time>2019-10-23T10:28:11Z</time>
      </trkpt>
      <trkpt lat="43.06157" lon="5.8647">
        <ele>131</ele>
        <time>2019-10-23T10:28:12Z</time>
      </trkpt>
      <trkpt lat="43.0616" lon="5.86473">
        <ele>131</ele>
        <time>2019-10-23T10:28:13Z</time>
      </trkpt>
      <trkpt lat="43.06162" lon="5.86476">
        <ele>131</ele>
        <time>2019-10-23T10:28:15Z</time>
      </trkpt>
      <trkpt lat="43.06165" lon="5.86478">
        <ele>131</ele>
        <time>2019-10-23T10:28:17Z</time>
      </trkpt>
      <trkpt lat="43.06167" lon="5.8648">
        <ele>130</ele>
        <time>2019-10-23T10:28:18Z</time>
      </trkpt>
      <trkpt lat="43.0617" lon="5.86482">
        <ele>130</ele>
        <time>2019-10-23T10:28:19Z</time>
      </trkpt>
      <trkpt lat="43.06173" lon="5.86484">
        <ele>129</ele>
        <time>2019-10-23T10:28:20Z</time>
      </trkpt>
      <trkpt lat="43.06175" lon="5.86486">
        <ele>129</ele>
        <time>2019-10-23T10:28:21Z</time>
      </trkpt>
      <trkpt lat="43.06178" lon="5.86488">
        <ele>129</ele>
        <time>2019-10-23T10:28:22Z</time>
      </trkpt>
      <trkpt lat="43.06181" lon="5.86489">
        <ele>129</ele>
        <time>2019-10-23T10:28:32Z</time>
      </trkpt>
      <trkpt lat="43.06184" lon="5.86492">
        <ele>130</ele>
        <time>2019-10-23T10:28:34Z</time>
      </trkpt>
      <trkpt lat="43.06187" lon="5.86494">
        <ele>130</ele>
        <time>2019-10-23T10:28:36Z</time>
      </trkpt>
      <trkpt lat="43.06191" lon="5.86496">
        <ele>130</ele>
        <time>2019-10-23T10:28:38Z</time>
      </trkpt>
      <trkpt lat="43.06194" lon="5.86497">
        <ele>131</ele>
        <time>2019-10-23T10:29:23Z</time>
      </trkpt>
      <trkpt lat="43.06198" lon="5.86499">
        <ele>131</ele>
        <time>2019-10-23T10:29:24Z</time>
      </trkpt>
      <trkpt lat="43.06202" lon="5.865">
        <ele>130</ele>
        <time>2019-10-23T10:29:25Z</time>
      </trkpt>
      <trkpt lat="43.06206" lon="5.86501">
        <ele>130</ele>
        <time>2019-10-23T10:29:26Z</time>
      </trkpt>
      <trkpt lat="43.0621" lon="5.86502">
        <ele>130</ele>
        <time>2019-10-23T10:29:27Z</time>
      </trkpt>
      <trkpt lat="43.06214" lon="5.86502">
        <ele>129</ele>
        <time>2019-10-23T10:29:28Z</time>
      </trkpt>
      <trkpt lat="43.06218" lon="5.86503">
        <ele>128</ele>
        <time>2019-10-23T10:29:29Z</time>
      </trkpt>
      <trkpt lat="43.06223" lon="5.86503">
        <ele>128</ele>
        <time>2019-10-23T10:29:30Z</time>
      </trkpt>
      <trkpt lat="43.06228" lon="5.86503">
        <ele>127</ele>
        <time>2019-10-23T10:29:31Z</time>
      </trkpt>
      <trkpt lat="43.06233" lon="5.86504">
        <ele>127</ele>
        <time>2019-10-23T10:29:32Z</time>
      </trkpt>
      <trkpt lat="43.06238" lon="5.86504">
        <ele>127</ele>
        <time>2019-10-23T10:29:33Z</time>
      </trkpt>
      <trkpt lat="43.06243" lon="5.86505">
        <ele>126</ele>
        <time>2019-10-23T10:29:34Z</time>
      </trkpt>
      <trkpt lat="43.06249" lon="5.86505">
        <ele>126</ele>
        <time>2019-10-23T10:29:35Z</time>
      </trkpt>
      <trkpt lat="43.06254" lon="5.86506">
        <ele>125</ele>
        <time>2019-10-23T10:29:36Z</time>
      </trkpt>
      <trkpt lat="43.06259" lon="5.86507">
        <ele>125</ele>
        <time>2019-10-23T10:29:37Z</time>
      </trkpt>
      <trkpt lat="43.06265" lon="5.86509">
        <ele>125</ele>
        <time>2019-10-23T10:29:38Z</time>
      </trkpt>
      <trkpt lat="43.0627" lon="5.86511">
        <ele>124</ele>
        <time>2019-10-23T10:29:39Z</time>
      </trkpt>
      <trkpt lat="43.06275" lon="5.86513">
        <ele>124</ele>
        <time>2019-10-23T10:29:40Z</time>
      </trkpt>
      <trkpt lat="43.0628" lon="5.86515">
        <ele>124</ele>
        <time>2019-10-23T10:29:41Z</time>
      </trkpt>
      <trkpt lat="43.06288" lon="5.86518">
        <ele>125</ele>
        <time>2019-10-23T10:29:42Z</time>
      </trkpt>
      <trkpt lat="43.06296" lon="5.86521">
        <ele>125</ele>
        <time>2019-10-23T10:29:43Z</time>
      </trkpt>
      <trkpt lat="43.06301" lon="5.86523">
        <ele>125</ele>
        <time>2019-10-23T10:29:44Z</time>
      </trkpt>
      <trkpt lat="43.06306" lon="5.86525">
        <ele>126</ele>
        <time>2019-10-23T10:29:45Z</time>
      </trkpt>
      <trkpt lat="43.0631" lon="5.86526">
        <ele>126</ele>
        <time>2019-10-23T10:29:46Z</time>
      </trkpt>
      <trkpt lat="43.06314" lon="5.86527">
        <ele>126</ele>
        <time>2019-10-23T10:29:47Z</time>
      </trkpt>
      <trkpt lat="43.06317" lon="5.86527">
        <ele>126</ele>
        <time>2019-10-23T10:29:48Z</time>
      </trkpt>
      <trkpt lat="43.06321" lon="5.86527">
        <ele>123</ele>
        <time>2019-10-23T10:29:49Z</time>
      </trkpt>
      <trkpt lat="43.06324" lon="5.86528">
        <ele>124</ele>
        <time>2019-10-23T10:29:50Z</time>
      </trkpt>
      <trkpt lat="43.06328" lon="5.8653">
        <ele>123</ele>
        <time>2019-10-23T10:29:51Z</time>
      </trkpt>
      <trkpt lat="43.06332" lon="5.86531">
        <ele>123</ele>
        <time>2019-10-23T10:29:52Z</time>
      </trkpt>
      <trkpt lat="43.06339" lon="5.86526">
        <ele>122</ele>
        <time>2019-10-23T10:29:53Z</time>
      </trkpt>
      <trkpt lat="43.06341" lon="5.86523">
        <ele>122</ele>
        <time>2019-10-23T10:29:54Z</time>
      </trkpt>
      <trkpt lat="43.06344" lon="5.86522">
        <ele>122</ele>
        <time>2019-10-23T10:29:55Z</time>
      </trkpt>
      <trkpt lat="43.06347" lon="5.86521">
        <ele>122</ele>
        <time>2019-10-23T10:29:56Z</time>
      </trkpt>
      <trkpt lat="43.06351" lon="5.86521">
        <ele>121</ele>
        <time>2019-10-23T10:29:57Z</time>
      </trkpt>
      <trkpt lat="43.06355" lon="5.86522">
        <ele>121</ele>
        <time>2019-10-23T10:29:58Z</time>
      </trkpt>
      <trkpt lat="43.0636" lon="5.86524">
        <ele>121</ele>
        <time>2019-10-23T10:29:59Z</time>
      </trkpt>
      <trkpt lat="43.06366" lon="5.86526">
        <ele>121</ele>
        <time>2019-10-23T10:30:00Z</time>
      </trkpt>
      <trkpt lat="43.06373" lon="5.86528">
        <ele>121</ele>
        <time>2019-10-23T10:30:01Z</time>
      </trkpt>
      <trkpt lat="43.06379" lon="5.86531">
        <ele>121</ele>
        <time>2019-10-23T10:30:02Z</time>
      </trkpt>
      <trkpt lat="43.06386" lon="5.86534">
        <ele>120</ele>
        <time>2019-10-23T10:30:03Z</time>
      </trkpt>
      <trkpt lat="43.06393" lon="5.86538">
        <ele>120</ele>
        <time>2019-10-23T10:30:04Z</time>
      </trkpt>
      <trkpt lat="43.064" lon="5.86542">
        <ele>120</ele>
        <time>2019-10-23T10:30:05Z</time>
      </trkpt>
      <trkpt lat="43.06407" lon="5.86546">
        <ele>119</ele>
        <time>2019-10-23T10:30:06Z</time>
      </trkpt>
      <trkpt lat="43.06413" lon="5.8655">
        <ele>119</ele>
        <time>2019-10-23T10:30:07Z</time>
      </trkpt>
      <trkpt lat="43.0642" lon="5.86554">
        <ele>119</ele>
        <time>2019-10-23T10:30:08Z</time>
      </trkpt>
      <trkpt lat="43.06427" lon="5.86557">
        <ele>119</ele>
        <time>2019-10-23T10:30:09Z</time>
      </trkpt>
      <trkpt lat="43.06433" lon="5.86561">
        <ele>119</ele>
        <time>2019-10-23T10:30:10Z</time>
      </trkpt>
      <trkpt lat="43.06438" lon="5.86565">
        <ele>119</ele>
        <time>2019-10-23T10:30:11Z</time>
      </trkpt>
      <trkpt lat="43.06443" lon="5.86567">
        <ele>120</ele>
        <time>2019-10-23T10:30:12Z</time>
      </trkpt>
      <trkpt lat="43.06448" lon="5.8657">
        <ele>120</ele>
        <time>2019-10-23T10:30:13Z</time>
      </trkpt>
      <trkpt lat="43.06453" lon="5.86573">
        <ele>121</ele>
        <time>2019-10-23T10:30:14Z</time>
      </trkpt>
      <trkpt lat="43.06458" lon="5.86576">
        <ele>121</ele>
        <time>2019-10-23T10:30:15Z</time>
      </trkpt>
      <trkpt lat="43.06463" lon="5.86579">
        <ele>121</ele>
        <time>2019-10-23T10:30:16Z</time>
      </trkpt>
      <trkpt lat="43.06468" lon="5.86582">
        <ele>121</ele>
        <time>2019-10-23T10:30:17Z</time>
      </trkpt>
      <trkpt lat="43.06474" lon="5.86586">
        <ele>121</ele>
        <time>2019-10-23T10:30:18Z</time>
      </trkpt>
      <trkpt lat="43.06479" lon="5.86589">
        <ele>121</ele>
        <time>2019-10-23T10:30:19Z</time>
      </trkpt>
      <trkpt lat="43.06485" lon="5.86593">
        <ele>121</ele>
        <time>2019-10-23T10:30:20Z</time>
      </trkpt>
      <trkpt lat="43.06491" lon="5.86596">
        <ele>121</ele>
        <time>2019-10-23T10:30:21Z</time>
      </trkpt>
      <trkpt lat="43.06497" lon="5.866">
        <ele>121</ele>
        <time>2019-10-23T10:30:22Z</time>
      </trkpt>
      <trkpt lat="43.06504" lon="5.86603">
        <ele>121</ele>
        <time>2019-10-23T10:30:23Z</time>
      </trkpt>
      <trkpt lat="43.0651" lon="5.86608">
        <ele>121</ele>
        <time>2019-10-23T10:30:24Z</time>
      </trkpt>
      <trkpt lat="43.06517" lon="5.86612">
        <ele>121</ele>
        <time>2019-10-23T10:30:25Z</time>
      </trkpt>
      <trkpt lat="43.06525" lon="5.86616">
        <ele>121</ele>
        <time>2019-10-23T10:30:26Z</time>
      </trkpt>
      <trkpt lat="43.06532" lon="5.8662">
        <ele>121</ele>
        <time>2019-10-23T10:30:27Z</time>
      </trkpt>
      <trkpt lat="43.06539" lon="5.86625">
        <ele>121</ele>
        <time>2019-10-23T10:30:28Z</time>
      </trkpt>
      <trkpt lat="43.06547" lon="5.86631">
        <ele>120</ele>
        <time>2019-10-23T10:30:29Z</time>
      </trkpt>
      <trkpt lat="43.06555" lon="5.86637">
        <ele>119</ele>
        <time>2019-10-23T10:30:30Z</time>
      </trkpt>
      <trkpt lat="43.06562" lon="5.86643">
        <ele>119</ele>
        <time>2019-10-23T10:30:31Z</time>
      </trkpt>
      <trkpt lat="43.0657" lon="5.86649">
        <ele>118</ele>
        <time>2019-10-23T10:30:32Z</time>
      </trkpt>
      <trkpt lat="43.06579" lon="5.86656">
        <ele>117</ele>
        <time>2019-10-23T10:30:33Z</time>
      </trkpt>
      <trkpt lat="43.06588" lon="5.86663">
        <ele>116</ele>
        <time>2019-10-23T10:30:34Z</time>
      </trkpt>
      <trkpt lat="43.06597" lon="5.8667">
        <ele>115</ele>
        <time>2019-10-23T10:30:35Z</time>
      </trkpt>
      <trkpt lat="43.06606" lon="5.86677">
        <ele>114</ele>
        <time>2019-10-23T10:30:36Z</time>
      </trkpt>
      <trkpt lat="43.06615" lon="5.86684">
        <ele>114</ele>
        <time>2019-10-23T10:30:37Z</time>
      </trkpt>
      <trkpt lat="43.06624" lon="5.86692">
        <ele>113</ele>
        <time>2019-10-23T10:30:38Z</time>
      </trkpt>
      <trkpt lat="43.06634" lon="5.86701">
        <ele>112</ele>
        <time>2019-10-23T10:30:39Z</time>
      </trkpt>
      <trkpt lat="43.06643" lon="5.8671">
        <ele>112</ele>
        <time>2019-10-23T10:30:40Z</time>
      </trkpt>
      <trkpt lat="43.06653" lon="5.86719">
        <ele>111</ele>
        <time>2019-10-23T10:30:41Z</time>
      </trkpt>
      <trkpt lat="43.06663" lon="5.86729">
        <ele>110</ele>
        <time>2019-10-23T10:30:42Z</time>
      </trkpt>
      <trkpt lat="43.06672" lon="5.8674">
        <ele>109</ele>
        <time>2019-10-23T10:30:43Z</time>
      </trkpt>
      <trkpt lat="43.0668" lon="5.86751">
        <ele>108</ele>
        <time>2019-10-23T10:30:44Z</time>
      </trkpt>
      <trkpt lat="43.06687" lon="5.86762">
        <ele>107</ele>
        <time>2019-10-23T10:30:45Z</time>
      </trkpt>
      <trkpt lat="43.06695" lon="5.86772">
        <ele>105</ele>
        <time>2019-10-23T10:30:48Z</time>
      </trkpt>
      <trkpt lat="43.06704" lon="5.86779">
        <ele>105</ele>
        <time>2019-10-23T10:30:49Z</time>
      </trkpt>
      <trkpt lat="43.06714" lon="5.86783">
        <ele>105</ele>
        <time>2019-10-23T10:30:51Z</time>
      </trkpt>
      <trkpt lat="43.06723" lon="5.86782">
        <ele>103</ele>
        <time>2019-10-23T10:30:53Z</time>
      </trkpt>
      <trkpt lat="43.06732" lon="5.86778">
        <ele>102</ele>
        <time>2019-10-23T10:30:55Z</time>
      </trkpt>
      <trkpt lat="43.06739" lon="5.86771">
        <ele>101</ele>
        <time>2019-10-23T10:30:58Z</time>
      </trkpt>
      <trkpt lat="43.06744" lon="5.8676">
        <ele>101</ele>
        <time>2019-10-23T10:31:02Z</time>
      </trkpt>
      <trkpt lat="43.06747" lon="5.86748">
        <ele>100</ele>
        <time>2019-10-23T10:31:03Z</time>
      </trkpt>
      <trkpt lat="43.06748" lon="5.86734">
        <ele>99</ele>
        <time>2019-10-23T10:31:04Z</time>
      </trkpt>
      <trkpt lat="43.06748" lon="5.86721">
        <ele>98</ele>
        <time>2019-10-23T10:31:05Z</time>
      </trkpt>
      <trkpt lat="43.06748" lon="5.86706">
        <ele>97</ele>
        <time>2019-10-23T10:31:06Z</time>
      </trkpt>
      <trkpt lat="43.06748" lon="5.86692">
        <ele>97</ele>
        <time>2019-10-23T10:31:07Z</time>
      </trkpt>
      <trkpt lat="43.0675" lon="5.86678">
        <ele>95</ele>
        <time>2019-10-23T10:31:08Z</time>
      </trkpt>
      <trkpt lat="43.06755" lon="5.86665">
        <ele>94</ele>
        <time>2019-10-23T10:31:09Z</time>
      </trkpt>
      <trkpt lat="43.06761" lon="5.86653">
        <ele>93</ele>
        <time>2019-10-23T10:31:10Z</time>
      </trkpt>
      <trkpt lat="43.0677" lon="5.86643">
        <ele>91</ele>
        <time>2019-10-23T10:31:11Z</time>
      </trkpt>
      <trkpt lat="43.06779" lon="5.86634">
        <ele>90</ele>
        <time>2019-10-23T10:31:12Z</time>
      </trkpt>
      <trkpt lat="43.06789" lon="5.86627">
        <ele>89</ele>
        <time>2019-10-23T10:31:13Z</time>
      </trkpt>
      <trkpt lat="43.06798" lon="5.86618">
        <ele>88</ele>
        <time>2019-10-23T10:31:14Z</time>
      </trkpt>
      <trkpt lat="43.06807" lon="5.86608">
        <ele>88</ele>
        <time>2019-10-23T10:31:15Z</time>
      </trkpt>
      <trkpt lat="43.06815" lon="5.86597">
        <ele>87</ele>
        <time>2019-10-23T10:31:16Z</time>
      </trkpt>
      <trkpt lat="43.06822" lon="5.86587">
        <ele>86</ele>
        <time>2019-10-23T10:31:17Z</time>
      </trkpt>
      <trkpt lat="43.06828" lon="5.86576">
        <ele>85</ele>
        <time>2019-10-23T10:31:18Z</time>
      </trkpt>
      <trkpt lat="43.06834" lon="5.86566">
        <ele>84</ele>
        <time>2019-10-23T10:31:19Z</time>
      </trkpt>
      <trkpt lat="43.06839" lon="5.86556">
        <ele>83</ele>
        <time>2019-10-23T10:31:21Z</time>
      </trkpt>
      <trkpt lat="43.06845" lon="5.86547">
        <ele>82</ele>
        <time>2019-10-23T10:31:22Z</time>
      </trkpt>
      <trkpt lat="43.0685" lon="5.86539">
        <ele>81</ele>
        <time>2019-10-23T10:31:23Z</time>
      </trkpt>
      <trkpt lat="43.06855" lon="5.86533">
        <ele>80</ele>
        <time>2019-10-23T10:31:24Z</time>
      </trkpt>
      <trkpt lat="43.06859" lon="5.86527">
        <ele>80</ele>
        <time>2019-10-23T10:31:27Z</time>
      </trkpt>
      <trkpt lat="43.06863" lon="5.86522">
        <ele>80</ele>
        <time>2019-10-23T10:31:28Z</time>
      </trkpt>
      <trkpt lat="43.06867" lon="5.8651">
        <ele>78</ele>
        <time>2019-10-23T10:31:29Z</time>
      </trkpt>
      <trkpt lat="43.06867" lon="5.86503">
        <ele>77</ele>
        <time>2019-10-23T10:31:31Z</time>
      </trkpt>
      <trkpt lat="43.06864" lon="5.86497">
        <ele>77</ele>
        <time>2019-10-23T10:31:33Z</time>
      </trkpt>
      <trkpt lat="43.06864" lon="5.86491">
        <ele>77</ele>
        <time>2019-10-23T10:31:36Z</time>
      </trkpt>
      <trkpt lat="43.06864" lon="5.86485">
        <ele>77</ele>
        <time>2019-10-23T10:31:38Z</time>
      </trkpt>
      <trkpt lat="43.06866" lon="5.86476">
        <ele>78</ele>
        <time>2019-10-23T10:31:39Z</time>
      </trkpt>
      <trkpt lat="43.0687" lon="5.86467">
        <ele>79</ele>
        <time>2019-10-23T10:31:41Z</time>
      </trkpt>
      <trkpt lat="43.06874" lon="5.86463">
        <ele>80</ele>
        <time>2019-10-23T10:31:43Z</time>
      </trkpt>
      <trkpt lat="43.06878" lon="5.86461">
        <ele>80</ele>
        <time>2019-10-23T10:31:44Z</time>
      </trkpt>
      <trkpt lat="43.06882" lon="5.8646">
        <ele>81</ele>
        <time>2019-10-23T10:31:46Z</time>
      </trkpt>
      <trkpt lat="43.06885" lon="5.86459">
        <ele>81</ele>
        <time>2019-10-23T10:31:48Z</time>
      </trkpt>
      <trkpt lat="43.06889" lon="5.86458">
        <ele>81</ele>
        <time>2019-10-23T10:31:49Z</time>
      </trkpt>
      <trkpt lat="43.06892" lon="5.86458">
        <ele>81</ele>
        <time>2019-10-23T10:31:52Z</time>
      </trkpt>
      <trkpt lat="43.06896" lon="5.86456">
        <ele>82</ele>
        <time>2019-10-23T10:31:53Z</time>
      </trkpt>
      <trkpt lat="43.06899" lon="5.86455">
        <ele>82</ele>
        <time>2019-10-23T10:31:54Z</time>
      </trkpt>
      <trkpt lat="43.06903" lon="5.86454">
        <ele>82</ele>
        <time>2019-10-23T10:31:57Z</time>
      </trkpt>
      <trkpt lat="43.06906" lon="5.86453">
        <ele>82</ele>
        <time>2019-10-23T10:31:59Z</time>
      </trkpt>
      <trkpt lat="43.06909" lon="5.86451">
        <ele>82</ele>
        <time>2019-10-23T10:32:02Z</time>
      </trkpt>
      <trkpt lat="43.06912" lon="5.86449">
        <ele>82</ele>
        <time>2019-10-23T10:32:04Z</time>
      </trkpt>
      <trkpt lat="43.06915" lon="5.86446">
        <ele>82</ele>
        <time>2019-10-23T10:32:05Z</time>
      </trkpt>
      <trkpt lat="43.06918" lon="5.86444">
        <ele>82</ele>
        <time>2019-10-23T10:32:08Z</time>
      </trkpt>
      <trkpt lat="43.06922" lon="5.86441">
        <ele>83</ele>
        <time>2019-10-23T10:32:09Z</time>
      </trkpt>
      <trkpt lat="43.06925" lon="5.86438">
        <ele>83</ele>
        <time>2019-10-23T10:32:10Z</time>
      </trkpt>
      <trkpt lat="43.06929" lon="5.86435">
        <ele>83</ele>
        <time>2019-10-23T10:32:11Z</time>
      </trkpt>
      <trkpt lat="43.06934" lon="5.86431">
        <ele>84</ele>
        <time>2019-10-23T10:32:12Z</time>
      </trkpt>
      <trkpt lat="43.06939" lon="5.86427">
        <ele>84</ele>
        <time>2019-10-23T10:32:13Z</time>
      </trkpt>
      <trkpt lat="43.06942" lon="5.86423">
        <ele>85</ele>
        <time>2019-10-23T10:32:15Z</time>
      </trkpt>
      <trkpt lat="43.06945" lon="5.8642">
        <ele>85</ele>
        <time>2019-10-23T10:32:17Z</time>
      </trkpt>
      <trkpt lat="43.06952" lon="5.86415">
        <ele>85</ele>
        <time>2019-10-23T10:32:18Z</time>
      </trkpt>
      <trkpt lat="43.06955" lon="5.86411">
        <ele>85</ele>
        <time>2019-10-23T10:32:19Z</time>
      </trkpt>
      <trkpt lat="43.06958" lon="5.86408">
        <ele>85</ele>
        <time>2019-10-23T10:32:20Z</time>
      </trkpt>
      <trkpt lat="43.06962" lon="5.86404">
        <ele>86</ele>
        <time>2019-10-23T10:32:22Z</time>
      </trkpt>
      <trkpt lat="43.06966" lon="5.86399">
        <ele>86</ele>
        <time>2019-10-23T10:32:24Z</time>
      </trkpt>
      <trkpt lat="43.06971" lon="5.86392">
        <ele>88</ele>
        <time>2019-10-23T10:32:25Z</time>
      </trkpt>
      <trkpt lat="43.06973" lon="5.86384">
        <ele>89</ele>
        <time>2019-10-23T10:32:26Z</time>
      </trkpt>
      <trkpt lat="43.06974" lon="5.86379">
        <ele>89</ele>
        <time>2019-10-23T10:32:27Z</time>
      </trkpt>
      <trkpt lat="43.06974" lon="5.86372">
        <ele>89</ele>
        <time>2019-10-23T10:32:28Z</time>
      </trkpt>
      <trkpt lat="43.06974" lon="5.86365">
        <ele>90</ele>
        <time>2019-10-23T10:32:30Z</time>
      </trkpt>
      <trkpt lat="43.06973" lon="5.8636">
        <ele>90</ele>
        <time>2019-10-23T10:32:31Z</time>
      </trkpt>
      <trkpt lat="43.06972" lon="5.86354">
        <ele>91</ele>
        <time>2019-10-23T10:32:33Z</time>
      </trkpt>
      <trkpt lat="43.06971" lon="5.86346">
        <ele>91</ele>
        <time>2019-10-23T10:32:35Z</time>
      </trkpt>
      <trkpt lat="43.06971" lon="5.86341">
        <ele>91</ele>
        <time>2019-10-23T10:32:36Z</time>
      </trkpt>
      <trkpt lat="43.06971" lon="5.8633">
        <ele>91</ele>
        <time>2019-10-23T10:32:37Z</time>
      </trkpt>
      <trkpt lat="43.06972" lon="5.86324">
        <ele>92</ele>
        <time>2019-10-23T10:32:38Z</time>
      </trkpt>
      <trkpt lat="43.06974" lon="5.86319">
        <ele>92</ele>
        <time>2019-10-23T10:32:39Z</time>
      </trkpt>
      <trkpt lat="43.06978" lon="5.86311">
        <ele>93</ele>
        <time>2019-10-23T10:32:42Z</time>
      </trkpt>
      <trkpt lat="43.06981" lon="5.86304">
        <ele>93</ele>
        <time>2019-10-23T10:32:43Z</time>
      </trkpt>
      <trkpt lat="43.06983" lon="5.86295">
        <ele>95</ele>
        <time>2019-10-23T10:32:45Z</time>
      </trkpt>
      <trkpt lat="43.06984" lon="5.86288">
        <ele>95</ele>
        <time>2019-10-23T10:32:47Z</time>
      </trkpt>
      <trkpt lat="43.06984" lon="5.86282">
        <ele>96</ele>
        <time>2019-10-23T10:32:48Z</time>
      </trkpt>
      <trkpt lat="43.06983" lon="5.86273">
        <ele>96</ele>
        <time>2019-10-23T10:32:49Z</time>
      </trkpt>
      <trkpt lat="43.06982" lon="5.86268">
        <ele>96</ele>
        <time>2019-10-23T10:32:50Z</time>
      </trkpt>
      <trkpt lat="43.0698" lon="5.86263">
        <ele>96</ele>
        <time>2019-10-23T10:32:51Z</time>
      </trkpt>
      <trkpt lat="43.06979" lon="5.86259">
        <ele>96</ele>
        <time>2019-10-23T10:32:53Z</time>
      </trkpt>
      <trkpt lat="43.06978" lon="5.86256">
        <ele>96</ele>
        <time>2019-10-23T10:32:54Z</time>
      </trkpt>
      <trkpt lat="43.06977" lon="5.86252">
        <ele>96</ele>
        <time>2019-10-23T10:32:55Z</time>
      </trkpt>
      <trkpt lat="43.06974" lon="5.86246">
        <ele>97</ele>
        <time>2019-10-23T10:32:57Z</time>
      </trkpt>
      <trkpt lat="43.0697" lon="5.8624">
        <ele>98</ele>
        <time>2019-10-23T10:32:58Z</time>
      </trkpt>
      <trkpt lat="43.06968" lon="5.86236">
        <ele>98</ele>
        <time>2019-10-23T10:32:59Z</time>
      </trkpt>
      <trkpt lat="43.06965" lon="5.86233">
        <ele>99</ele>
        <time>2019-10-23T10:33:00Z</time>
      </trkpt>
      <trkpt lat="43.06963" lon="5.8623">
        <ele>99</ele>
        <time>2019-10-23T10:33:01Z</time>
      </trkpt>
      <trkpt lat="43.0696" lon="5.86225">
        <ele>99</ele>
        <time>2019-10-23T10:33:03Z</time>
      </trkpt>
      <trkpt lat="43.06955" lon="5.86221">
        <ele>100</ele>
        <time>2019-10-23T10:33:04Z</time>
      </trkpt>
      <trkpt lat="43.06951" lon="5.86218">
        <ele>100</ele>
        <time>2019-10-23T10:33:06Z</time>
      </trkpt>
      <trkpt lat="43.06948" lon="5.86215">
        <ele>100</ele>
        <time>2019-10-23T10:33:07Z</time>
      </trkpt>
      <trkpt lat="43.06946" lon="5.86213">
        <ele>100</ele>
        <time>2019-10-23T10:33:08Z</time>
      </trkpt>
      <trkpt lat="43.06943" lon="5.86211">
        <ele>100</ele>
        <time>2019-10-23T10:33:09Z</time>
      </trkpt>
      <trkpt lat="43.06939" lon="5.86208">
        <ele>101</ele>
        <time>2019-10-23T10:33:10Z</time>
      </trkpt>
      <trkpt lat="43.06936" lon="5.86205">
        <ele>102</ele>
        <time>2019-10-23T10:33:11Z</time>
      </trkpt>
      <trkpt lat="43.06932" lon="5.862">
        <ele>102</ele>
        <time>2019-10-23T10:33:12Z</time>
      </trkpt>
      <trkpt lat="43.0693" lon="5.86194">
        <ele>103</ele>
        <time>2019-10-23T10:33:13Z</time>
      </trkpt>
      <trkpt lat="43.06929" lon="5.8619">
        <ele>103</ele>
        <time>2019-10-23T10:33:15Z</time>
      </trkpt>
      <trkpt lat="43.06928" lon="5.86186">
        <ele>103</ele>
        <time>2019-10-23T10:33:16Z</time>
      </trkpt>
      <trkpt lat="43.06928" lon="5.86181">
        <ele>103</ele>
        <time>2019-10-23T10:33:17Z</time>
      </trkpt>
      <trkpt lat="43.06927" lon="5.86177">
        <ele>103</ele>
        <time>2019-10-23T10:33:19Z</time>
      </trkpt>
      <trkpt lat="43.06925" lon="5.86169">
        <ele>104</ele>
        <time>2019-10-23T10:33:20Z</time>
      </trkpt>
      <trkpt lat="43.06924" lon="5.86164">
        <ele>104</ele>
        <time>2019-10-23T10:33:21Z</time>
      </trkpt>
      <trkpt lat="43.06922" lon="5.86158">
        <ele>105</ele>
        <time>2019-10-23T10:33:22Z</time>
      </trkpt>
      <trkpt lat="43.06919" lon="5.86152">
        <ele>105</ele>
        <time>2019-10-23T10:33:23Z</time>
      </trkpt>
      <trkpt lat="43.06917" lon="5.86148">
        <ele>105</ele>
        <time>2019-10-23T10:33:24Z</time>
      </trkpt>
      <trkpt lat="43.06915" lon="5.86144">
        <ele>106</ele>
        <time>2019-10-23T10:33:25Z</time>
      </trkpt>
      <trkpt lat="43.06913" lon="5.86141">
        <ele>106</ele>
        <time>2019-10-23T10:33:27Z</time>
      </trkpt>
      <trkpt lat="43.06911" lon="5.86138">
        <ele>106</ele>
        <time>2019-10-23T10:33:28Z</time>
      </trkpt>
      <trkpt lat="43.06907" lon="5.86133">
        <ele>106</ele>
        <time>2019-10-23T10:33:29Z</time>
      </trkpt>
      <trkpt lat="43.06905" lon="5.86129">
        <ele>106</ele>
        <time>2019-10-23T10:33:30Z</time>
      </trkpt>
      <trkpt lat="43.06902" lon="5.86127">
        <ele>106</ele>
        <time>2019-10-23T10:33:31Z</time>
      </trkpt>
      <trkpt lat="43.06898" lon="5.86124">
        <ele>106</ele>
        <time>2019-10-23T10:33:32Z</time>
      </trkpt>
      <trkpt lat="43.06895" lon="5.86121">
        <ele>106</ele>
        <time>2019-10-23T10:33:34Z</time>
      </trkpt>
      <trkpt lat="43.06892" lon="5.86119">
        <ele>106</ele>
        <time>2019-10-23T10:33:36Z</time>
      </trkpt>
      <trkpt lat="43.06889" lon="5.86117">
        <ele>106</ele>
        <time>2019-10-23T10:33:37Z</time>
      </trkpt>
      <trkpt lat="43.06885" lon="5.86115">
        <ele>106</ele>
        <time>2019-10-23T10:33:38Z</time>
      </trkpt>
      <trkpt lat="43.0688" lon="5.86111">
        <ele>106</ele>
        <time>2019-10-23T10:33:39Z</time>
      </trkpt>
      <trkpt lat="43.06875" lon="5.86108">
        <ele>106</ele>
        <time>2019-10-23T10:33:40Z</time>
      </trkpt>
      <trkpt lat="43.06869" lon="5.86104">
        <ele>107</ele>
        <time>2019-10-23T10:33:42Z</time>
      </trkpt>
      <trkpt lat="43.06865" lon="5.861">
        <ele>107</ele>
        <time>2019-10-23T10:33:43Z</time>
      </trkpt>
      <trkpt lat="43.06862" lon="5.86098">
        <ele>107</ele>
        <time>2019-10-23T10:33:44Z</time>
      </trkpt>
      <trkpt lat="43.06858" lon="5.86095">
        <ele>107</ele>
        <time>2019-10-23T10:33:45Z</time>
      </trkpt>
      <trkpt lat="43.06855" lon="5.86093">
        <ele>107</ele>
        <time>2019-10-23T10:33:46Z</time>
      </trkpt>
      <trkpt lat="43.06852" lon="5.86091">
        <ele>107</ele>
        <time>2019-10-23T10:33:47Z</time>
      </trkpt>
      <trkpt lat="43.06848" lon="5.8609">
        <ele>108</ele>
        <time>2019-10-23T10:33:48Z</time>
      </trkpt>
      <trkpt lat="43.06845" lon="5.86088">
        <ele>108</ele>
        <time>2019-10-23T10:33:49Z</time>
      </trkpt>
      <trkpt lat="43.06839" lon="5.86086">
        <ele>108</ele>
        <time>2019-10-23T10:33:51Z</time>
      </trkpt>
      <trkpt lat="43.06834" lon="5.86083">
        <ele>108</ele>
        <time>2019-10-23T10:33:52Z</time>
      </trkpt>
      <trkpt lat="43.06831" lon="5.86079">
        <ele>108</ele>
        <time>2019-10-23T10:33:54Z</time>
      </trkpt>
      <trkpt lat="43.06831" lon="5.86071">
        <ele>109</ele>
        <time>2019-10-23T10:33:57Z</time>
      </trkpt>
      <trkpt lat="43.06833" lon="5.86065">
        <ele>109</ele>
        <time>2019-10-23T10:33:58Z</time>
      </trkpt>
      <trkpt lat="43.06837" lon="5.86062">
        <ele>109</ele>
        <time>2019-10-23T10:33:59Z</time>
      </trkpt>
      <trkpt lat="43.0684" lon="5.8606">
        <ele>110</ele>
        <time>2019-10-23T10:34:01Z</time>
      </trkpt>
      <trkpt lat="43.06844" lon="5.86059">
        <ele>110</ele>
        <time>2019-10-23T10:34:02Z</time>
      </trkpt>
      <trkpt lat="43.06847" lon="5.86057">
        <ele>110</ele>
        <time>2019-10-23T10:34:03Z</time>
      </trkpt>
      <trkpt lat="43.06851" lon="5.86056">
        <ele>110</ele>
        <time>2019-10-23T10:34:04Z</time>
      </trkpt>
      <trkpt lat="43.06855" lon="5.86053">
        <ele>111</ele>
        <time>2019-10-23T10:34:05Z</time>
      </trkpt>
      <trkpt lat="43.06859" lon="5.86051">
        <ele>111</ele>
        <time>2019-10-23T10:34:06Z</time>
      </trkpt>
      <trkpt lat="43.06862" lon="5.8605">
        <ele>111</ele>
        <time>2019-10-23T10:34:07Z</time>
      </trkpt>
      <trkpt lat="43.06866" lon="5.86048">
        <ele>111</ele>
        <time>2019-10-23T10:34:08Z</time>
      </trkpt>
      <trkpt lat="43.06869" lon="5.86046">
        <ele>110</ele>
        <time>2019-10-23T10:34:09Z</time>
      </trkpt>
      <trkpt lat="43.06873" lon="5.86044">
        <ele>110</ele>
        <time>2019-10-23T10:34:10Z</time>
      </trkpt>
      <trkpt lat="43.06877" lon="5.86039">
        <ele>110</ele>
        <time>2019-10-23T10:34:11Z</time>
      </trkpt>
      <trkpt lat="43.06882" lon="5.86033">
        <ele>109</ele>
        <time>2019-10-23T10:34:14Z</time>
      </trkpt>
      <trkpt lat="43.06885" lon="5.86029">
        <ele>109</ele>
        <time>2019-10-23T10:34:15Z</time>
      </trkpt>
      <trkpt lat="43.06888" lon="5.86024">
        <ele>109</ele>
        <time>2019-10-23T10:34:16Z</time>
      </trkpt>
      <trkpt lat="43.06889" lon="5.8602">
        <ele>109</ele>
        <time>2019-10-23T10:34:17Z</time>
      </trkpt>
      <trkpt lat="43.06891" lon="5.86015">
        <ele>109</ele>
        <time>2019-10-23T10:34:18Z</time>
      </trkpt>
      <trkpt lat="43.06892" lon="5.86008">
        <ele>110</ele>
        <time>2019-10-23T10:34:19Z</time>
      </trkpt>
      <trkpt lat="43.06892" lon="5.86003">
        <ele>110</ele>
        <time>2019-10-23T10:34:20Z</time>
      </trkpt>
      <trkpt lat="43.06892" lon="5.85998">
        <ele>110</ele>
        <time>2019-10-23T10:34:21Z</time>
      </trkpt>
      <trkpt lat="43.06892" lon="5.85994">
        <ele>111</ele>
        <time>2019-10-23T10:34:22Z</time>
      </trkpt>
      <trkpt lat="43.06892" lon="5.8599">
        <ele>111</ele>
        <time>2019-10-23T10:34:24Z</time>
      </trkpt>
      <trkpt lat="43.06892" lon="5.85986">
        <ele>111</ele>
        <time>2019-10-23T10:34:25Z</time>
      </trkpt>
      <trkpt lat="43.06892" lon="5.85982">
        <ele>111</ele>
        <time>2019-10-23T10:34:27Z</time>
      </trkpt>
      <trkpt lat="43.06892" lon="5.85978">
        <ele>112</ele>
        <time>2019-10-23T10:34:28Z</time>
      </trkpt>
      <trkpt lat="43.06894" lon="5.85973">
        <ele>112</ele>
        <time>2019-10-23T10:34:29Z</time>
      </trkpt>
      <trkpt lat="43.06896" lon="5.8597">
        <ele>112</ele>
        <time>2019-10-23T10:34:30Z</time>
      </trkpt>
      <trkpt lat="43.069" lon="5.85968">
        <ele>113</ele>
        <time>2019-10-23T10:34:31Z</time>
      </trkpt>
      <trkpt lat="43.06907" lon="5.8597">
        <ele>114</ele>
        <time>2019-10-23T10:34:32Z</time>
      </trkpt>
      <trkpt lat="43.06912" lon="5.85972">
        <ele>114</ele>
        <time>2019-10-23T10:34:33Z</time>
      </trkpt>
      <trkpt lat="43.06915" lon="5.85974">
        <ele>115</ele>
        <time>2019-10-23T10:34:34Z</time>
      </trkpt>
      <trkpt lat="43.0692" lon="5.85976">
        <ele>115</ele>
        <time>2019-10-23T10:34:35Z</time>
      </trkpt>
      <trkpt lat="43.06924" lon="5.85978">
        <ele>115</ele>
        <time>2019-10-23T10:34:37Z</time>
      </trkpt>
      <trkpt lat="43.06927" lon="5.8598">
        <ele>114</ele>
        <time>2019-10-23T10:34:39Z</time>
      </trkpt>
      <trkpt lat="43.06931" lon="5.85981">
        <ele>114</ele>
        <time>2019-10-23T10:34:41Z</time>
      </trkpt>
      <trkpt lat="43.06934" lon="5.85983">
        <ele>113</ele>
        <time>2019-10-23T10:34:42Z</time>
      </trkpt>
      <trkpt lat="43.06938" lon="5.85985">
        <ele>113</ele>
        <time>2019-10-23T10:34:44Z</time>
      </trkpt>
      <trkpt lat="43.06942" lon="5.85987">
        <ele>114</ele>
        <time>2019-10-23T10:34:45Z</time>
      </trkpt>
      <trkpt lat="43.06946" lon="5.8599">
        <ele>114</ele>
        <time>2019-10-23T10:34:46Z</time>
      </trkpt>
      <trkpt lat="43.06949" lon="5.85993">
        <ele>114</ele>
        <time>2019-10-23T10:34:47Z</time>
      </trkpt>
      <trkpt lat="43.06953" lon="5.85996">
        <ele>114</ele>
        <time>2019-10-23T10:34:48Z</time>
      </trkpt>
      <trkpt lat="43.06956" lon="5.85998">
        <ele>114</ele>
        <time>2019-10-23T10:34:49Z</time>
      </trkpt>
      <trkpt lat="43.06964" lon="5.86002">
        <ele>114</ele>
        <time>2019-10-23T10:34:50Z</time>
      </trkpt>
      <trkpt lat="43.06968" lon="5.86005">
        <ele>114</ele>
        <time>2019-10-23T10:34:51Z</time>
      </trkpt>
      <trkpt lat="43.06972" lon="5.86006">
        <ele>114</ele>
        <time>2019-10-23T10:34:52Z</time>
      </trkpt>
      <trkpt lat="43.06976" lon="5.86007">
        <ele>115</ele>
        <time>2019-10-23T10:34:53Z</time>
      </trkpt>
      <trkpt lat="43.0698" lon="5.86007">
        <ele>115</ele>
        <time>2019-10-23T10:34:54Z</time>
      </trkpt>
      <trkpt lat="43.06984" lon="5.86008">
        <ele>115</ele>
        <time>2019-10-23T10:34:55Z</time>
      </trkpt>
      <trkpt lat="43.06988" lon="5.86008">
        <ele>116</ele>
        <time>2019-10-23T10:34:56Z</time>
      </trkpt>
      <trkpt lat="43.06991" lon="5.86008">
        <ele>116</ele>
        <time>2019-10-23T10:34:57Z</time>
      </trkpt>
      <trkpt lat="43.06994" lon="5.86009">
        <ele>116</ele>
        <time>2019-10-23T10:34:58Z</time>
      </trkpt>
      <trkpt lat="43.07002" lon="5.86009">
        <ele>116</ele>
        <time>2019-10-23T10:34:59Z</time>
      </trkpt>
      <trkpt lat="43.07006" lon="5.86009">
        <ele>116</ele>
        <time>2019-10-23T10:35:00Z</time>
      </trkpt>
      <trkpt lat="43.07013" lon="5.86009">
        <ele>116</ele>
        <time>2019-10-23T10:35:01Z</time>
      </trkpt>
      <trkpt lat="43.07019" lon="5.8601">
        <ele>116</ele>
        <time>2019-10-23T10:35:02Z</time>
      </trkpt>
      <trkpt lat="43.07024" lon="5.86012">
        <ele>116</ele>
        <time>2019-10-23T10:35:03Z</time>
      </trkpt>
      <trkpt lat="43.07028" lon="5.86014">
        <ele>116</ele>
        <time>2019-10-23T10:35:04Z</time>
      </trkpt>
      <trkpt lat="43.07033" lon="5.86016">
        <ele>116</ele>
        <time>2019-10-23T10:35:05Z</time>
      </trkpt>
      <trkpt lat="43.07037" lon="5.86019">
        <ele>116</ele>
        <time>2019-10-23T10:35:06Z</time>
      </trkpt>
      <trkpt lat="43.07042" lon="5.86021">
        <ele>117</ele>
        <time>2019-10-23T10:35:07Z</time>
      </trkpt>
      <trkpt lat="43.07046" lon="5.86024">
        <ele>117</ele>
        <time>2019-10-23T10:35:08Z</time>
      </trkpt>
      <trkpt lat="43.07051" lon="5.86025">
        <ele>117</ele>
        <time>2019-10-23T10:35:09Z</time>
      </trkpt>
      <trkpt lat="43.07057" lon="5.86026">
        <ele>117</ele>
        <time>2019-10-23T10:35:10Z</time>
      </trkpt>
      <trkpt lat="43.07064" lon="5.86022">
        <ele>118</ele>
        <time>2019-10-23T10:35:11Z</time>
      </trkpt>
      <trkpt lat="43.07069" lon="5.86016">
        <ele>119</ele>
        <time>2019-10-23T10:35:12Z</time>
      </trkpt>
      <trkpt lat="43.07072" lon="5.86011">
        <ele>119</ele>
        <time>2019-10-23T10:35:13Z</time>
      </trkpt>
      <trkpt lat="43.07073" lon="5.86003">
        <ele>120</ele>
        <time>2019-10-23T10:35:14Z</time>
      </trkpt>
      <trkpt lat="43.07074" lon="5.85997">
        <ele>120</ele>
        <time>2019-10-23T10:35:15Z</time>
      </trkpt>
      <trkpt lat="43.07074" lon="5.85992">
        <ele>120</ele>
        <time>2019-10-23T10:35:16Z</time>
      </trkpt>
      <trkpt lat="43.07074" lon="5.85986">
        <ele>121</ele>
        <time>2019-10-23T10:35:18Z</time>
      </trkpt>
      <trkpt lat="43.07075" lon="5.85981">
        <ele>121</ele>
        <time>2019-10-23T10:35:19Z</time>
      </trkpt>
      <trkpt lat="43.07076" lon="5.85976">
        <ele>122</ele>
        <time>2019-10-23T10:35:22Z</time>
      </trkpt>
      <trkpt lat="43.07077" lon="5.85971">
        <ele>122</ele>
        <time>2019-10-23T10:35:24Z</time>
      </trkpt>
      <trkpt lat="43.07078" lon="5.85967">
        <ele>123</ele>
        <time>2019-10-23T10:35:25Z</time>
      </trkpt>
      <trkpt lat="43.07079" lon="5.85962">
        <ele>123</ele>
        <time>2019-10-23T10:35:27Z</time>
      </trkpt>
      <trkpt lat="43.0708" lon="5.85956">
        <ele>123</ele>
        <time>2019-10-23T10:35:29Z</time>
      </trkpt>
      <trkpt lat="43.07081" lon="5.85951">
        <ele>123</ele>
        <time>2019-10-23T10:35:31Z</time>
      </trkpt>
      <trkpt lat="43.07082" lon="5.85945">
        <ele>123</ele>
        <time>2019-10-23T10:35:33Z</time>
      </trkpt>
      <trkpt lat="43.07083" lon="5.85939">
        <ele>123</ele>
        <time>2019-10-23T10:35:34Z</time>
      </trkpt>
      <trkpt lat="43.07084" lon="5.85932">
        <ele>123</ele>
        <time>2019-10-23T10:35:35Z</time>
      </trkpt>
      <trkpt lat="43.07085" lon="5.85926">
        <ele>123</ele>
        <time>2019-10-23T10:35:37Z</time>
      </trkpt>
      <trkpt lat="43.07087" lon="5.8592">
        <ele>123</ele>
        <time>2019-10-23T10:35:39Z</time>
      </trkpt>
      <trkpt lat="43.07088" lon="5.85913">
        <ele>123</ele>
        <time>2019-10-23T10:35:40Z</time>
      </trkpt>
      <trkpt lat="43.07088" lon="5.85906">
        <ele>123</ele>
        <time>2019-10-23T10:35:41Z</time>
      </trkpt>
      <trkpt lat="43.07089" lon="5.85899">
        <ele>123</ele>
        <time>2019-10-23T10:35:42Z</time>
      </trkpt>
      <trkpt lat="43.0709" lon="5.85892">
        <ele>124</ele>
        <time>2019-10-23T10:35:43Z</time>
      </trkpt>
      <trkpt lat="43.0709" lon="5.85884">
        <ele>124</ele>
        <time>2019-10-23T10:35:44Z</time>
      </trkpt>
      <trkpt lat="43.0709" lon="5.85877">
        <ele>124</ele>
        <time>2019-10-23T10:35:45Z</time>
      </trkpt>
      <trkpt lat="43.07088" lon="5.85869">
        <ele>124</ele>
        <time>2019-10-23T10:35:46Z</time>
      </trkpt>
      <trkpt lat="43.07085" lon="5.8586">
        <ele>124</ele>
        <time>2019-10-23T10:35:47Z</time>
      </trkpt>
      <trkpt lat="43.07081" lon="5.85851">
        <ele>124</ele>
        <time>2019-10-23T10:35:48Z</time>
      </trkpt>
      <trkpt lat="43.07076" lon="5.85843">
        <ele>124</ele>
        <time>2019-10-23T10:35:49Z</time>
      </trkpt>
      <trkpt lat="43.0707" lon="5.85834">
        <ele>123</ele>
        <time>2019-10-23T10:35:50Z</time>
      </trkpt>
      <trkpt lat="43.07066" lon="5.85825">
        <ele>123</ele>
        <time>2019-10-23T10:35:51Z</time>
      </trkpt>
      <trkpt lat="43.07063" lon="5.85816">
        <ele>122</ele>
        <time>2019-10-23T10:35:52Z</time>
      </trkpt>
      <trkpt lat="43.07062" lon="5.85805">
        <ele>121</ele>
        <time>2019-10-23T10:35:53Z</time>
      </trkpt>
      <trkpt lat="43.07062" lon="5.85795">
        <ele>121</ele>
        <time>2019-10-23T10:35:54Z</time>
      </trkpt>
      <trkpt lat="43.07063" lon="5.85785">
        <ele>120</ele>
        <time>2019-10-23T10:35:55Z</time>
      </trkpt>
      <trkpt lat="43.07066" lon="5.85777">
        <ele>120</ele>
        <time>2019-10-23T10:35:56Z</time>
      </trkpt>
      <trkpt lat="43.07069" lon="5.85767">
        <ele>118</ele>
        <time>2019-10-23T10:35:57Z</time>
      </trkpt>
      <trkpt lat="43.0707" lon="5.8576">
        <ele>118</ele>
        <time>2019-10-23T10:35:58Z</time>
      </trkpt>
      <trkpt lat="43.07068" lon="5.85752">
        <ele>116</ele>
        <time>2019-10-23T10:35:59Z</time>
      </trkpt>
      <trkpt lat="43.07064" lon="5.85747">
        <ele>115</ele>
        <time>2019-10-23T10:36:00Z</time>
      </trkpt>
      <trkpt lat="43.07061" lon="5.85744">
        <ele>115</ele>
        <time>2019-10-23T10:36:01Z</time>
      </trkpt>
      <trkpt lat="43.07058" lon="5.85741">
        <ele>114</ele>
        <time>2019-10-23T10:36:02Z</time>
      </trkpt>
      <trkpt lat="43.07055" lon="5.85738">
        <ele>113</ele>
        <time>2019-10-23T10:36:03Z</time>
      </trkpt>
      <trkpt lat="43.07053" lon="5.85735">
        <ele>112</ele>
        <time>2019-10-23T10:36:04Z</time>
      </trkpt>
      <trkpt lat="43.07049" lon="5.85732">
        <ele>112</ele>
        <time>2019-10-23T10:36:05Z</time>
      </trkpt>
      <trkpt lat="43.07046" lon="5.8573">
        <ele>111</ele>
        <time>2019-10-23T10:36:06Z</time>
      </trkpt>
      <trkpt lat="43.07044" lon="5.85728">
        <ele>111</ele>
        <time>2019-10-23T10:36:07Z</time>
      </trkpt>
      <trkpt lat="43.07042" lon="5.85723">
        <ele>110</ele>
        <time>2019-10-23T10:36:08Z</time>
      </trkpt>
      <trkpt lat="43.07042" lon="5.85717">
        <ele>110</ele>
        <time>2019-10-23T10:36:09Z</time>
      </trkpt>
      <trkpt lat="43.07043" lon="5.85713">
        <ele>110</ele>
        <time>2019-10-23T10:36:10Z</time>
      </trkpt>
      <trkpt lat="43.07044" lon="5.85709">
        <ele>110</ele>
        <time>2019-10-23T10:36:11Z</time>
      </trkpt>
      <trkpt lat="43.07046" lon="5.85704">
        <ele>110</ele>
        <time>2019-10-23T10:36:12Z</time>
      </trkpt>
      <trkpt lat="43.07047" lon="5.857">
        <ele>111</ele>
        <time>2019-10-23T10:36:13Z</time>
      </trkpt>
      <trkpt lat="43.07049" lon="5.85696">
        <ele>111</ele>
        <time>2019-10-23T10:36:14Z</time>
      </trkpt>
      <trkpt lat="43.07051" lon="5.85692">
        <ele>111</ele>
        <time>2019-10-23T10:36:15Z</time>
      </trkpt>
      <trkpt lat="43.07054" lon="5.85688">
        <ele>111</ele>
        <time>2019-10-23T10:36:16Z</time>
      </trkpt>
      <trkpt lat="43.07056" lon="5.85683">
        <ele>111</ele>
        <time>2019-10-23T10:36:17Z</time>
      </trkpt>
      <trkpt lat="43.07058" lon="5.85678">
        <ele>111</ele>
        <time>2019-10-23T10:36:18Z</time>
      </trkpt>
      <trkpt lat="43.07061" lon="5.85674">
        <ele>111</ele>
        <time>2019-10-23T10:36:19Z</time>
      </trkpt>
      <trkpt lat="43.07064" lon="5.85669">
        <ele>111</ele>
        <time>2019-10-23T10:36:20Z</time>
      </trkpt>
      <trkpt lat="43.07067" lon="5.85665">
        <ele>111</ele>
        <time>2019-10-23T10:36:21Z</time>
      </trkpt>
      <trkpt lat="43.07069" lon="5.8566">
        <ele>111</ele>
        <time>2019-10-23T10:36:22Z</time>
      </trkpt>
      <trkpt lat="43.07071" lon="5.85655">
        <ele>110</ele>
        <time>2019-10-23T10:36:24Z</time>
      </trkpt>
      <trkpt lat="43.07074" lon="5.8565">
        <ele>110</ele>
        <time>2019-10-23T10:36:26Z</time>
      </trkpt>
      <trkpt lat="43.07076" lon="5.85645">
        <ele>110</ele>
        <time>2019-10-23T10:36:27Z</time>
      </trkpt>
      <trkpt lat="43.07079" lon="5.8564">
        <ele>109</ele>
        <time>2019-10-23T10:36:28Z</time>
      </trkpt>
      <trkpt lat="43.07083" lon="5.85635">
        <ele>109</ele>
        <time>2019-10-23T10:36:29Z</time>
      </trkpt>
      <trkpt lat="43.07085" lon="5.8563">
        <ele>108</ele>
        <time>2019-10-23T10:36:30Z</time>
      </trkpt>
      <trkpt lat="43.07087" lon="5.85626">
        <ele>108</ele>
        <time>2019-10-23T10:36:31Z</time>
      </trkpt>
      <trkpt lat="43.07089" lon="5.8562">
        <ele>107</ele>
        <time>2019-10-23T10:36:32Z</time>
      </trkpt>
      <trkpt lat="43.07091" lon="5.85616">
        <ele>107</ele>
        <time>2019-10-23T10:36:33Z</time>
      </trkpt>
      <trkpt lat="43.07093" lon="5.85611">
        <ele>107</ele>
        <time>2019-10-23T10:36:34Z</time>
      </trkpt>
      <trkpt lat="43.07095" lon="5.85606">
        <ele>106</ele>
        <time>2019-10-23T10:36:36Z</time>
      </trkpt>
      <trkpt lat="43.07098" lon="5.85601">
        <ele>106</ele>
        <time>2019-10-23T10:36:37Z</time>
      </trkpt>
      <trkpt lat="43.07101" lon="5.85597">
        <ele>106</ele>
        <time>2019-10-23T10:36:38Z</time>
      </trkpt>
      <trkpt lat="43.07104" lon="5.85593">
        <ele>105</ele>
        <time>2019-10-23T10:36:39Z</time>
      </trkpt>
      <trkpt lat="43.07107" lon="5.85588">
        <ele>105</ele>
        <time>2019-10-23T10:36:40Z</time>
      </trkpt>
      <trkpt lat="43.07109" lon="5.85582">
        <ele>105</ele>
        <time>2019-10-23T10:36:41Z</time>
      </trkpt>
      <trkpt lat="43.07111" lon="5.85577">
        <ele>104</ele>
        <time>2019-10-23T10:36:42Z</time>
      </trkpt>
      <trkpt lat="43.07114" lon="5.85571">
        <ele>104</ele>
        <time>2019-10-23T10:36:43Z</time>
      </trkpt>
      <trkpt lat="43.07117" lon="5.85566">
        <ele>104</ele>
        <time>2019-10-23T10:36:44Z</time>
      </trkpt>
      <trkpt lat="43.07121" lon="5.8556">
        <ele>104</ele>
        <time>2019-10-23T10:36:45Z</time>
      </trkpt>
      <trkpt lat="43.07125" lon="5.85555">
        <ele>103</ele>
        <time>2019-10-23T10:36:46Z</time>
      </trkpt>
      <trkpt lat="43.07128" lon="5.85549">
        <ele>103</ele>
        <time>2019-10-23T10:36:47Z</time>
      </trkpt>
      <trkpt lat="43.07131" lon="5.85542">
        <ele>103</ele>
        <time>2019-10-23T10:36:48Z</time>
      </trkpt>
      <trkpt lat="43.07133" lon="5.85535">
        <ele>103</ele>
        <time>2019-10-23T10:36:49Z</time>
      </trkpt>
      <trkpt lat="43.07134" lon="5.85528">
        <ele>102</ele>
        <time>2019-10-23T10:36:50Z</time>
      </trkpt>
      <trkpt lat="43.07136" lon="5.85521">
        <ele>102</ele>
        <time>2019-10-23T10:36:51Z</time>
      </trkpt>
      <trkpt lat="43.07136" lon="5.85513">
        <ele>102</ele>
        <time>2019-10-23T10:36:52Z</time>
      </trkpt>
      <trkpt lat="43.07137" lon="5.85506">
        <ele>102</ele>
        <time>2019-10-23T10:36:53Z</time>
      </trkpt>
      <trkpt lat="43.07137" lon="5.85498">
        <ele>101</ele>
        <time>2019-10-23T10:36:54Z</time>
      </trkpt>
      <trkpt lat="43.07138" lon="5.85491">
        <ele>101</ele>
        <time>2019-10-23T10:36:55Z</time>
      </trkpt>
      <trkpt lat="43.0714" lon="5.8548">
        <ele>101</ele>
        <time>2019-10-23T10:36:56Z</time>
      </trkpt>
      <trkpt lat="43.07149" lon="5.85474">
        <ele>101</ele>
        <time>2019-10-23T10:36:57Z</time>
      </trkpt>
      <trkpt lat="43.07155" lon="5.85474">
        <ele>101</ele>
        <time>2019-10-23T10:36:58Z</time>
      </trkpt>
      <trkpt lat="43.0716" lon="5.85477">
        <ele>100</ele>
        <time>2019-10-23T10:36:59Z</time>
      </trkpt>
      <trkpt lat="43.07166" lon="5.8548">
        <ele>100</ele>
        <time>2019-10-23T10:37:00Z</time>
      </trkpt>
      <trkpt lat="43.07172" lon="5.85483">
        <ele>99</ele>
        <time>2019-10-23T10:37:01Z</time>
      </trkpt>
      <trkpt lat="43.07177" lon="5.85487">
        <ele>98</ele>
        <time>2019-10-23T10:37:02Z</time>
      </trkpt>
      <trkpt lat="43.07183" lon="5.85491">
        <ele>98</ele>
        <time>2019-10-23T10:37:03Z</time>
      </trkpt>
      <trkpt lat="43.07189" lon="5.85495">
        <ele>97</ele>
        <time>2019-10-23T10:37:04Z</time>
      </trkpt>
      <trkpt lat="43.07194" lon="5.855">
        <ele>97</ele>
        <time>2019-10-23T10:37:05Z</time>
      </trkpt>
      <trkpt lat="43.07201" lon="5.8551">
        <ele>97</ele>
        <time>2019-10-23T10:37:06Z</time>
      </trkpt>
      <trkpt lat="43.07207" lon="5.85519">
        <ele>96</ele>
        <time>2019-10-23T10:37:07Z</time>
      </trkpt>
      <trkpt lat="43.07212" lon="5.85526">
        <ele>96</ele>
        <time>2019-10-23T10:37:08Z</time>
      </trkpt>
      <trkpt lat="43.07217" lon="5.85533">
        <ele>95</ele>
        <time>2019-10-23T10:37:09Z</time>
      </trkpt>
      <trkpt lat="43.07222" lon="5.8554">
        <ele>94</ele>
        <time>2019-10-23T10:37:10Z</time>
      </trkpt>
      <trkpt lat="43.07225" lon="5.85547">
        <ele>94</ele>
        <time>2019-10-23T10:37:11Z</time>
      </trkpt>
      <trkpt lat="43.07229" lon="5.85555">
        <ele>93</ele>
        <time>2019-10-23T10:37:12Z</time>
      </trkpt>
      <trkpt lat="43.07233" lon="5.85563">
        <ele>93</ele>
        <time>2019-10-23T10:37:13Z</time>
      </trkpt>
      <trkpt lat="43.07236" lon="5.85571">
        <ele>93</ele>
        <time>2019-10-23T10:37:14Z</time>
      </trkpt>
      <trkpt lat="43.0724" lon="5.8558">
        <ele>92</ele>
        <time>2019-10-23T10:37:15Z</time>
      </trkpt>
      <trkpt lat="43.07243" lon="5.85589">
        <ele>92</ele>
        <time>2019-10-23T10:37:16Z</time>
      </trkpt>
      <trkpt lat="43.07247" lon="5.85598">
        <ele>92</ele>
        <time>2019-10-23T10:37:17Z</time>
      </trkpt>
      <trkpt lat="43.07251" lon="5.85606">
        <ele>91</ele>
        <time>2019-10-23T10:37:18Z</time>
      </trkpt>
      <trkpt lat="43.07255" lon="5.85615">
        <ele>91</ele>
        <time>2019-10-23T10:37:19Z</time>
      </trkpt>
      <trkpt lat="43.07259" lon="5.85624">
        <ele>91</ele>
        <time>2019-10-23T10:37:20Z</time>
      </trkpt>
      <trkpt lat="43.07263" lon="5.85633">
        <ele>90</ele>
        <time>2019-10-23T10:37:21Z</time>
      </trkpt>
      <trkpt lat="43.07267" lon="5.85642">
        <ele>90</ele>
        <time>2019-10-23T10:37:22Z</time>
      </trkpt>
      <trkpt lat="43.07272" lon="5.85652">
        <ele>89</ele>
        <time>2019-10-23T10:37:23Z</time>
      </trkpt>
      <trkpt lat="43.07277" lon="5.85662">
        <ele>89</ele>
        <time>2019-10-23T10:37:24Z</time>
      </trkpt>
      <trkpt lat="43.07282" lon="5.85672">
        <ele>88</ele>
        <time>2019-10-23T10:37:25Z</time>
      </trkpt>
      <trkpt lat="43.07287" lon="5.85681">
        <ele>88</ele>
        <time>2019-10-23T10:37:27Z</time>
      </trkpt>
      <trkpt lat="43.07293" lon="5.8569">
        <ele>88</ele>
        <time>2019-10-23T10:37:28Z</time>
      </trkpt>
      <trkpt lat="43.07298" lon="5.85697">
        <ele>87</ele>
        <time>2019-10-23T10:37:29Z</time>
      </trkpt>
      <trkpt lat="43.07303" lon="5.85705">
        <ele>87</ele>
        <time>2019-10-23T10:37:30Z</time>
      </trkpt>
      <trkpt lat="43.07308" lon="5.85711">
        <ele>87</ele>
        <time>2019-10-23T10:37:31Z</time>
      </trkpt>
      <trkpt lat="43.07315" lon="5.85716">
        <ele>87</ele>
        <time>2019-10-23T10:37:32Z</time>
      </trkpt>
      <trkpt lat="43.07322" lon="5.8572">
        <ele>87</ele>
        <time>2019-10-23T10:37:33Z</time>
      </trkpt>
      <trkpt lat="43.07329" lon="5.85723">
        <ele>86</ele>
        <time>2019-10-23T10:37:35Z</time>
      </trkpt>
      <trkpt lat="43.07336" lon="5.85726">
        <ele>86</ele>
        <time>2019-10-23T10:37:37Z</time>
      </trkpt>
      <trkpt lat="43.07343" lon="5.85728">
        <ele>85</ele>
        <time>2019-10-23T10:37:38Z</time>
      </trkpt>
      <trkpt lat="43.07349" lon="5.85731">
        <ele>85</ele>
        <time>2019-10-23T10:37:39Z</time>
      </trkpt>
      <trkpt lat="43.07355" lon="5.85733">
        <ele>85</ele>
        <time>2019-10-23T10:37:40Z</time>
      </trkpt>
      <trkpt lat="43.07361" lon="5.85735">
        <ele>85</ele>
        <time>2019-10-23T10:37:41Z</time>
      </trkpt>
      <trkpt lat="43.07367" lon="5.85736">
        <ele>85</ele>
        <time>2019-10-23T10:37:42Z</time>
      </trkpt>
      <trkpt lat="43.07372" lon="5.85738">
        <ele>85</ele>
        <time>2019-10-23T10:37:43Z</time>
      </trkpt>
      <trkpt lat="43.07378" lon="5.8574">
        <ele>85</ele>
        <time>2019-10-23T10:37:44Z</time>
      </trkpt>
      <trkpt lat="43.07383" lon="5.8574">
        <ele>85</ele>
        <time>2019-10-23T10:37:45Z</time>
      </trkpt>
      <trkpt lat="43.07387" lon="5.85742">
        <ele>85</ele>
        <time>2019-10-23T10:37:46Z</time>
      </trkpt>
      <trkpt lat="43.07392" lon="5.85743">
        <ele>85</ele>
        <time>2019-10-23T10:37:47Z</time>
      </trkpt>
      <trkpt lat="43.07396" lon="5.85744">
        <ele>85</ele>
        <time>2019-10-23T10:37:48Z</time>
      </trkpt>
      <trkpt lat="43.07401" lon="5.85745">
        <ele>85</ele>
        <time>2019-10-23T10:37:49Z</time>
      </trkpt>
      <trkpt lat="43.07406" lon="5.85748">
        <ele>85</ele>
        <time>2019-10-23T10:37:50Z</time>
      </trkpt>
      <trkpt lat="43.0741" lon="5.85749">
        <ele>86</ele>
        <time>2019-10-23T10:37:51Z</time>
      </trkpt>
      <trkpt lat="43.07415" lon="5.85751">
        <ele>86</ele>
        <time>2019-10-23T10:37:52Z</time>
      </trkpt>
      <trkpt lat="43.07419" lon="5.85752">
        <ele>86</ele>
        <time>2019-10-23T10:37:53Z</time>
      </trkpt>
      <trkpt lat="43.07423" lon="5.85753">
        <ele>86</ele>
        <time>2019-10-23T10:37:54Z</time>
      </trkpt>
      <trkpt lat="43.07427" lon="5.85755">
        <ele>86</ele>
        <time>2019-10-23T10:37:55Z</time>
      </trkpt>
      <trkpt lat="43.07431" lon="5.85757">
        <ele>87</ele>
        <time>2019-10-23T10:37:56Z</time>
      </trkpt>
      <trkpt lat="43.07435" lon="5.85759">
        <ele>87</ele>
        <time>2019-10-23T10:37:57Z</time>
      </trkpt>
      <trkpt lat="43.0744" lon="5.8576">
        <ele>87</ele>
        <time>2019-10-23T10:37:58Z</time>
      </trkpt>
      <trkpt lat="43.07446" lon="5.85763">
        <ele>86</ele>
        <time>2019-10-23T10:37:59Z</time>
      </trkpt>
      <trkpt lat="43.07451" lon="5.85765">
        <ele>86</ele>
        <time>2019-10-23T10:38:00Z</time>
      </trkpt>
      <trkpt lat="43.07455" lon="5.85768">
        <ele>86</ele>
        <time>2019-10-23T10:38:01Z</time>
      </trkpt>
      <trkpt lat="43.07459" lon="5.8577">
        <ele>86</ele>
        <time>2019-10-23T10:38:03Z</time>
      </trkpt>
      <trkpt lat="43.07463" lon="5.85774">
        <ele>86</ele>
        <time>2019-10-23T10:38:04Z</time>
      </trkpt>
      <trkpt lat="43.07467" lon="5.85779">
        <ele>86</ele>
        <time>2019-10-23T10:38:05Z</time>
      </trkpt>
      <trkpt lat="43.07471" lon="5.85783">
        <ele>86</ele>
        <time>2019-10-23T10:38:06Z</time>
      </trkpt>
      <trkpt lat="43.07477" lon="5.85791">
        <ele>87</ele>
        <time>2019-10-23T10:38:07Z</time>
      </trkpt>
      <trkpt lat="43.07487" lon="5.858">
        <ele>87</ele>
        <time>2019-10-23T10:38:08Z</time>
      </trkpt>
      <trkpt lat="43.07494" lon="5.85805">
        <ele>87</ele>
        <time>2019-10-23T10:38:09Z</time>
      </trkpt>
      <trkpt lat="43.07499" lon="5.85809">
        <ele>87</ele>
        <time>2019-10-23T10:38:10Z</time>
      </trkpt>
      <trkpt lat="43.07505" lon="5.85812">
        <ele>87</ele>
        <time>2019-10-23T10:38:11Z</time>
      </trkpt>
      <trkpt lat="43.0751" lon="5.85816">
        <ele>87</ele>
        <time>2019-10-23T10:38:12Z</time>
      </trkpt>
      <trkpt lat="43.07516" lon="5.85821">
        <ele>87</ele>
        <time>2019-10-23T10:38:13Z</time>
      </trkpt>
      <trkpt lat="43.07521" lon="5.85824">
        <ele>86</ele>
        <time>2019-10-23T10:38:14Z</time>
      </trkpt>
      <trkpt lat="43.07527" lon="5.85828">
        <ele>86</ele>
        <time>2019-10-23T10:38:15Z</time>
      </trkpt>
      <trkpt lat="43.07533" lon="5.85833">
        <ele>86</ele>
        <time>2019-10-23T10:38:16Z</time>
      </trkpt>
      <trkpt lat="43.07538" lon="5.85837">
        <ele>86</ele>
        <time>2019-10-23T10:38:17Z</time>
      </trkpt>
      <trkpt lat="43.07544" lon="5.85841">
        <ele>86</ele>
        <time>2019-10-23T10:38:18Z</time>
      </trkpt>
      <trkpt lat="43.0755" lon="5.85845">
        <ele>86</ele>
        <time>2019-10-23T10:38:19Z</time>
      </trkpt>
      <trkpt lat="43.07556" lon="5.85849">
        <ele>86</ele>
        <time>2019-10-23T10:38:20Z</time>
      </trkpt>
      <trkpt lat="43.07562" lon="5.85853">
        <ele>86</ele>
        <time>2019-10-23T10:38:21Z</time>
      </trkpt>
      <trkpt lat="43.07568" lon="5.85857">
        <ele>86</ele>
        <time>2019-10-23T10:38:22Z</time>
      </trkpt>
      <trkpt lat="43.07574" lon="5.8586">
        <ele>86</ele>
        <time>2019-10-23T10:38:23Z</time>
      </trkpt>
      <trkpt lat="43.0758" lon="5.85864">
        <ele>86</ele>
        <time>2019-10-23T10:38:24Z</time>
      </trkpt>
      <trkpt lat="43.07585" lon="5.85868">
        <ele>85</ele>
        <time>2019-10-23T10:38:25Z</time>
      </trkpt>
      <trkpt lat="43.07591" lon="5.85871">
        <ele>85</ele>
        <time>2019-10-23T10:38:26Z</time>
      </trkpt>
      <trkpt lat="43.07597" lon="5.85875">
        <ele>85</ele>
        <time>2019-10-23T10:38:27Z</time>
      </trkpt>
      <trkpt lat="43.07602" lon="5.85879">
        <ele>85</ele>
        <time>2019-10-23T10:38:28Z</time>
      </trkpt>
      <trkpt lat="43.07609" lon="5.85883">
        <ele>85</ele>
        <time>2019-10-23T10:38:29Z</time>
      </trkpt>
      <trkpt lat="43.07615" lon="5.85888">
        <ele>85</ele>
        <time>2019-10-23T10:38:30Z</time>
      </trkpt>
      <trkpt lat="43.07621" lon="5.85893">
        <ele>85</ele>
        <time>2019-10-23T10:38:32Z</time>
      </trkpt>
      <trkpt lat="43.07629" lon="5.85897">
        <ele>84</ele>
        <time>2019-10-23T10:38:33Z</time>
      </trkpt>
      <trkpt lat="43.07641" lon="5.85904">
        <ele>84</ele>
        <time>2019-10-23T10:38:34Z</time>
      </trkpt>
      <trkpt lat="43.0765" lon="5.85908">
        <ele>84</ele>
        <time>2019-10-23T10:38:36Z</time>
      </trkpt>
      <trkpt lat="43.07658" lon="5.85912">
        <ele>83</ele>
        <time>2019-10-23T10:38:37Z</time>
      </trkpt>
      <trkpt lat="43.07665" lon="5.85916">
        <ele>83</ele>
        <time>2019-10-23T10:38:38Z</time>
      </trkpt>
      <trkpt lat="43.07673" lon="5.85919">
        <ele>83</ele>
        <time>2019-10-23T10:38:39Z</time>
      </trkpt>
      <trkpt lat="43.07682" lon="5.85921">
        <ele>83</ele>
        <time>2019-10-23T10:38:40Z</time>
      </trkpt>
      <trkpt lat="43.0769" lon="5.85923">
        <ele>82</ele>
        <time>2019-10-23T10:38:41Z</time>
      </trkpt>
      <trkpt lat="43.07698" lon="5.85925">
        <ele>82</ele>
        <time>2019-10-23T10:38:42Z</time>
      </trkpt>
      <trkpt lat="43.07707" lon="5.85928">
        <ele>81</ele>
        <time>2019-10-23T10:38:43Z</time>
      </trkpt>
      <trkpt lat="43.07716" lon="5.8593">
        <ele>81</ele>
        <time>2019-10-23T10:38:44Z</time>
      </trkpt>
      <trkpt lat="43.07725" lon="5.85931">
        <ele>80</ele>
        <time>2019-10-23T10:38:45Z</time>
      </trkpt>
      <trkpt lat="43.07734" lon="5.85932">
        <ele>80</ele>
        <time>2019-10-23T10:38:46Z</time>
      </trkpt>
      <trkpt lat="43.07743" lon="5.85932">
        <ele>79</ele>
        <time>2019-10-23T10:38:47Z</time>
      </trkpt>
      <trkpt lat="43.07752" lon="5.85932">
        <ele>79</ele>
        <time>2019-10-23T10:38:48Z</time>
      </trkpt>
      <trkpt lat="43.07762" lon="5.85932">
        <ele>79</ele>
        <time>2019-10-23T10:38:49Z</time>
      </trkpt>
      <trkpt lat="43.07771" lon="5.8593">
        <ele>78</ele>
        <time>2019-10-23T10:38:50Z</time>
      </trkpt>
      <trkpt lat="43.07779" lon="5.85929">
        <ele>78</ele>
        <time>2019-10-23T10:38:51Z</time>
      </trkpt>
      <trkpt lat="43.07787" lon="5.85929">
        <ele>78</ele>
        <time>2019-10-23T10:38:52Z</time>
      </trkpt>
      <trkpt lat="43.07795" lon="5.85927">
        <ele>77</ele>
        <time>2019-10-23T10:38:53Z</time>
      </trkpt>
      <trkpt lat="43.07803" lon="5.85927">
        <ele>77</ele>
        <time>2019-10-23T10:38:54Z</time>
      </trkpt>
      <trkpt lat="43.07811" lon="5.85927">
        <ele>77</ele>
        <time>2019-10-23T10:38:55Z</time>
      </trkpt>
      <trkpt lat="43.07818" lon="5.85929">
        <ele>76</ele>
        <time>2019-10-23T10:38:56Z</time>
      </trkpt>
      <trkpt lat="43.07826" lon="5.85929">
        <ele>75</ele>
        <time>2019-10-23T10:38:58Z</time>
      </trkpt>
      <trkpt lat="43.07833" lon="5.8593">
        <ele>75</ele>
        <time>2019-10-23T10:38:59Z</time>
      </trkpt>
      <trkpt lat="43.07841" lon="5.85929">
        <ele>75</ele>
        <time>2019-10-23T10:39:00Z</time>
      </trkpt>
      <trkpt lat="43.07849" lon="5.85929">
        <ele>75</ele>
        <time>2019-10-23T10:39:02Z</time>
      </trkpt>
      <trkpt lat="43.07858" lon="5.85929">
        <ele>75</ele>
        <time>2019-10-23T10:39:03Z</time>
      </trkpt>
      <trkpt lat="43.07865" lon="5.85928">
        <ele>75</ele>
        <time>2019-10-23T10:39:04Z</time>
      </trkpt>
      <trkpt lat="43.07877" lon="5.85928">
        <ele>76</ele>
        <time>2019-10-23T10:39:05Z</time>
      </trkpt>
      <trkpt lat="43.07886" lon="5.85928">
        <ele>76</ele>
        <time>2019-10-23T10:39:06Z</time>
      </trkpt>
      <trkpt lat="43.07895" lon="5.85928">
        <ele>76</ele>
        <time>2019-10-23T10:39:07Z</time>
      </trkpt>
      <trkpt lat="43.07907" lon="5.85927">
        <ele>76</ele>
        <time>2019-10-23T10:39:08Z</time>
      </trkpt>
      <trkpt lat="43.07916" lon="5.85926">
        <ele>75</ele>
        <time>2019-10-23T10:39:09Z</time>
      </trkpt>
      <trkpt lat="43.07924" lon="5.85924">
        <ele>75</ele>
        <time>2019-10-23T10:39:10Z</time>
      </trkpt>
      <trkpt lat="43.07932" lon="5.85923">
        <ele>75</ele>
        <time>2019-10-23T10:39:11Z</time>
      </trkpt>
      <trkpt lat="43.07939" lon="5.85921">
        <ele>75</ele>
        <time>2019-10-23T10:39:12Z</time>
      </trkpt>
      <trkpt lat="43.07946" lon="5.85918">
        <ele>75</ele>
        <time>2019-10-23T10:39:13Z</time>
      </trkpt>
      <trkpt lat="43.07953" lon="5.85916">
        <ele>75</ele>
        <time>2019-10-23T10:39:14Z</time>
      </trkpt>
      <trkpt lat="43.07961" lon="5.85913">
        <ele>74</ele>
        <time>2019-10-23T10:39:15Z</time>
      </trkpt>
      <trkpt lat="43.07968" lon="5.85911">
        <ele>74</ele>
        <time>2019-10-23T10:39:16Z</time>
      </trkpt>
      <trkpt lat="43.07974" lon="5.85909">
        <ele>74</ele>
        <time>2019-10-23T10:39:18Z</time>
      </trkpt>
      <trkpt lat="43.07981" lon="5.85906">
        <ele>74</ele>
        <time>2019-10-23T10:39:19Z</time>
      </trkpt>
      <trkpt lat="43.07988" lon="5.85903">
        <ele>74</ele>
        <time>2019-10-23T10:39:20Z</time>
      </trkpt>
      <trkpt lat="43.07995" lon="5.859">
        <ele>74</ele>
        <time>2019-10-23T10:39:21Z</time>
      </trkpt>
      <trkpt lat="43.08002" lon="5.85898">
        <ele>74</ele>
        <time>2019-10-23T10:39:22Z</time>
      </trkpt>
      <trkpt lat="43.08009" lon="5.85896">
        <ele>74</ele>
        <time>2019-10-23T10:39:23Z</time>
      </trkpt>
      <trkpt lat="43.08017" lon="5.85892">
        <ele>74</ele>
        <time>2019-10-23T10:39:24Z</time>
      </trkpt>
      <trkpt lat="43.08024" lon="5.8589">
        <ele>74</ele>
        <time>2019-10-23T10:39:26Z</time>
      </trkpt>
      <trkpt lat="43.08031" lon="5.85889">
        <ele>73</ele>
        <time>2019-10-23T10:39:27Z</time>
      </trkpt>
      <trkpt lat="43.08039" lon="5.85888">
        <ele>73</ele>
        <time>2019-10-23T10:39:28Z</time>
      </trkpt>
      <trkpt lat="43.08046" lon="5.85888">
        <ele>73</ele>
        <time>2019-10-23T10:39:29Z</time>
      </trkpt>
      <trkpt lat="43.08052" lon="5.85887">
        <ele>73</ele>
        <time>2019-10-23T10:39:30Z</time>
      </trkpt>
      <trkpt lat="43.08062" lon="5.85886">
        <ele>73</ele>
        <time>2019-10-23T10:39:31Z</time>
      </trkpt>
      <trkpt lat="43.0807" lon="5.85884">
        <ele>74</ele>
        <time>2019-10-23T10:39:32Z</time>
      </trkpt>
      <trkpt lat="43.08077" lon="5.85883">
        <ele>74</ele>
        <time>2019-10-23T10:39:33Z</time>
      </trkpt>
      <trkpt lat="43.08087" lon="5.85883">
        <ele>73</ele>
        <time>2019-10-23T10:39:34Z</time>
      </trkpt>
      <trkpt lat="43.08094" lon="5.85882">
        <ele>73</ele>
        <time>2019-10-23T10:39:35Z</time>
      </trkpt>
      <trkpt lat="43.08101" lon="5.8588">
        <ele>73</ele>
        <time>2019-10-23T10:39:36Z</time>
      </trkpt>
      <trkpt lat="43.08107" lon="5.85878">
        <ele>73</ele>
        <time>2019-10-23T10:39:37Z</time>
      </trkpt>
      <trkpt lat="43.08113" lon="5.85876">
        <ele>73</ele>
        <time>2019-10-23T10:39:38Z</time>
      </trkpt>
      <trkpt lat="43.08118" lon="5.85874">
        <ele>73</ele>
        <time>2019-10-23T10:39:39Z</time>
      </trkpt>
      <trkpt lat="43.08124" lon="5.8587">
        <ele>73</ele>
        <time>2019-10-23T10:39:40Z</time>
      </trkpt>
      <trkpt lat="43.08129" lon="5.85866">
        <ele>73</ele>
        <time>2019-10-23T10:39:42Z</time>
      </trkpt>
      <trkpt lat="43.08133" lon="5.85862">
        <ele>73</ele>
        <time>2019-10-23T10:39:43Z</time>
      </trkpt>
      <trkpt lat="43.08137" lon="5.85858">
        <ele>73</ele>
        <time>2019-10-23T10:39:44Z</time>
      </trkpt>
      <trkpt lat="43.08142" lon="5.85854">
        <ele>73</ele>
        <time>2019-10-23T10:39:45Z</time>
      </trkpt>
      <trkpt lat="43.08147" lon="5.8585">
        <ele>74</ele>
        <time>2019-10-23T10:39:46Z</time>
      </trkpt>
      <trkpt lat="43.08152" lon="5.85845">
        <ele>74</ele>
        <time>2019-10-23T10:39:47Z</time>
      </trkpt>
      <trkpt lat="43.08156" lon="5.8584">
        <ele>73</ele>
        <time>2019-10-23T10:39:49Z</time>
      </trkpt>
      <trkpt lat="43.0816" lon="5.85834">
        <ele>73</ele>
        <time>2019-10-23T10:39:50Z</time>
      </trkpt>
      <trkpt lat="43.08165" lon="5.85828">
        <ele>73</ele>
        <time>2019-10-23T10:39:51Z</time>
      </trkpt>
      <trkpt lat="43.08169" lon="5.85822">
        <ele>73</ele>
        <time>2019-10-23T10:39:52Z</time>
      </trkpt>
      <trkpt lat="43.08173" lon="5.85817">
        <ele>72</ele>
        <time>2019-10-23T10:39:53Z</time>
      </trkpt>
      <trkpt lat="43.08178" lon="5.85811">
        <ele>72</ele>
        <time>2019-10-23T10:39:54Z</time>
      </trkpt>
      <trkpt lat="43.08182" lon="5.85806">
        <ele>72</ele>
        <time>2019-10-23T10:39:55Z</time>
      </trkpt>
      <trkpt lat="43.08187" lon="5.85799">
        <ele>72</ele>
        <time>2019-10-23T10:39:56Z</time>
      </trkpt>
      <trkpt lat="43.08191" lon="5.85794">
        <ele>72</ele>
        <time>2019-10-23T10:39:58Z</time>
      </trkpt>
      <trkpt lat="43.082" lon="5.85784">
        <ele>72</ele>
        <time>2019-10-23T10:39:59Z</time>
      </trkpt>
      <trkpt lat="43.08204" lon="5.85778">
        <ele>72</ele>
        <time>2019-10-23T10:40:00Z</time>
      </trkpt>
      <trkpt lat="43.08208" lon="5.85772">
        <ele>72</ele>
        <time>2019-10-23T10:40:01Z</time>
      </trkpt>
      <trkpt lat="43.08212" lon="5.85766">
        <ele>72</ele>
        <time>2019-10-23T10:40:02Z</time>
      </trkpt>
      <trkpt lat="43.08216" lon="5.85759">
        <ele>72</ele>
        <time>2019-10-23T10:40:03Z</time>
      </trkpt>
      <trkpt lat="43.08221" lon="5.85753">
        <ele>72</ele>
        <time>2019-10-23T10:40:04Z</time>
      </trkpt>
      <trkpt lat="43.08225" lon="5.85749">
        <ele>72</ele>
        <time>2019-10-23T10:40:05Z</time>
      </trkpt>
      <trkpt lat="43.0823" lon="5.85744">
        <ele>71</ele>
        <time>2019-10-23T10:40:06Z</time>
      </trkpt>
      <trkpt lat="43.08235" lon="5.85738">
        <ele>71</ele>
        <time>2019-10-23T10:40:07Z</time>
      </trkpt>
      <trkpt lat="43.0824" lon="5.85732">
        <ele>71</ele>
        <time>2019-10-23T10:40:08Z</time>
      </trkpt>
      <trkpt lat="43.08244" lon="5.85727">
        <ele>71</ele>
        <time>2019-10-23T10:40:09Z</time>
      </trkpt>
      <trkpt lat="43.08249" lon="5.85721">
        <ele>71</ele>
        <time>2019-10-23T10:40:10Z</time>
      </trkpt>
      <trkpt lat="43.08255" lon="5.85715">
        <ele>71</ele>
        <time>2019-10-23T10:40:11Z</time>
      </trkpt>
      <trkpt lat="43.0826" lon="5.85709">
        <ele>70</ele>
        <time>2019-10-23T10:40:12Z</time>
      </trkpt>
      <trkpt lat="43.08266" lon="5.85703">
        <ele>70</ele>
        <time>2019-10-23T10:40:13Z</time>
      </trkpt>
      <trkpt lat="43.08275" lon="5.85695">
        <ele>69</ele>
        <time>2019-10-23T10:40:14Z</time>
      </trkpt>
      <trkpt lat="43.08281" lon="5.85689">
        <ele>69</ele>
        <time>2019-10-23T10:40:15Z</time>
      </trkpt>
      <trkpt lat="43.08288" lon="5.85685">
        <ele>69</ele>
        <time>2019-10-23T10:40:16Z</time>
      </trkpt>
      <trkpt lat="43.08294" lon="5.8568">
        <ele>69</ele>
        <time>2019-10-23T10:40:18Z</time>
      </trkpt>
      <trkpt lat="43.08301" lon="5.85676">
        <ele>69</ele>
        <time>2019-10-23T10:40:19Z</time>
      </trkpt>
      <trkpt lat="43.08307" lon="5.85673">
        <ele>68</ele>
        <time>2019-10-23T10:40:20Z</time>
      </trkpt>
      <trkpt lat="43.08318" lon="5.85669">
        <ele>68</ele>
        <time>2019-10-23T10:40:22Z</time>
      </trkpt>
      <trkpt lat="43.08326" lon="5.85667">
        <ele>68</ele>
        <time>2019-10-23T10:40:23Z</time>
      </trkpt>
      <trkpt lat="43.08333" lon="5.85665">
        <ele>68</ele>
        <time>2019-10-23T10:40:24Z</time>
      </trkpt>
      <trkpt lat="43.0834" lon="5.85662">
        <ele>68</ele>
        <time>2019-10-23T10:40:26Z</time>
      </trkpt>
      <trkpt lat="43.08346" lon="5.85661">
        <ele>68</ele>
        <time>2019-10-23T10:40:27Z</time>
      </trkpt>
      <trkpt lat="43.08352" lon="5.85658">
        <ele>68</ele>
        <time>2019-10-23T10:40:29Z</time>
      </trkpt>
      <trkpt lat="43.08359" lon="5.85657">
        <ele>68</ele>
        <time>2019-10-23T10:40:30Z</time>
      </trkpt>
      <trkpt lat="43.08365" lon="5.85656">
        <ele>68</ele>
        <time>2019-10-23T10:40:31Z</time>
      </trkpt>
      <trkpt lat="43.08375" lon="5.85655">
        <ele>68</ele>
        <time>2019-10-23T10:40:32Z</time>
      </trkpt>
      <trkpt lat="43.08383" lon="5.85655">
        <ele>68</ele>
        <time>2019-10-23T10:40:33Z</time>
      </trkpt>
      <trkpt lat="43.08389" lon="5.85656">
        <ele>68</ele>
        <time>2019-10-23T10:40:34Z</time>
      </trkpt>
      <trkpt lat="43.08396" lon="5.85658">
        <ele>68</ele>
        <time>2019-10-23T10:40:35Z</time>
      </trkpt>
      <trkpt lat="43.08402" lon="5.85663">
        <ele>68</ele>
        <time>2019-10-23T10:40:36Z</time>
      </trkpt>
      <trkpt lat="43.08407" lon="5.85668">
        <ele>68</ele>
        <time>2019-10-23T10:40:37Z</time>
      </trkpt>
      <trkpt lat="43.08411" lon="5.85675">
        <ele>68</ele>
        <time>2019-10-23T10:40:38Z</time>
      </trkpt>
      <trkpt lat="43.08414" lon="5.85682">
        <ele>68</ele>
        <time>2019-10-23T10:40:39Z</time>
      </trkpt>
      <trkpt lat="43.08417" lon="5.85689">
        <ele>68</ele>
        <time>2019-10-23T10:40:40Z</time>
      </trkpt>
      <trkpt lat="43.08421" lon="5.85697">
        <ele>68</ele>
        <time>2019-10-23T10:40:41Z</time>
      </trkpt>
      <trkpt lat="43.08424" lon="5.85704">
        <ele>68</ele>
        <time>2019-10-23T10:40:42Z</time>
      </trkpt>
      <trkpt lat="43.08427" lon="5.85712">
        <ele>68</ele>
        <time>2019-10-23T10:40:43Z</time>
      </trkpt>
      <trkpt lat="43.0843" lon="5.85719">
        <ele>68</ele>
        <time>2019-10-23T10:40:44Z</time>
      </trkpt>
      <trkpt lat="43.08432" lon="5.85726">
        <ele>68</ele>
        <time>2019-10-23T10:40:45Z</time>
      </trkpt>
      <trkpt lat="43.08434" lon="5.85733">
        <ele>68</ele>
        <time>2019-10-23T10:40:46Z</time>
      </trkpt>
      <trkpt lat="43.08437" lon="5.85741">
        <ele>68</ele>
        <time>2019-10-23T10:40:47Z</time>
      </trkpt>
      <trkpt lat="43.08439" lon="5.85748">
        <ele>68</ele>
        <time>2019-10-23T10:40:48Z</time>
      </trkpt>
      <trkpt lat="43.08442" lon="5.85754">
        <ele>68</ele>
        <time>2019-10-23T10:40:49Z</time>
      </trkpt>
      <trkpt lat="43.08446" lon="5.85761">
        <ele>68</ele>
        <time>2019-10-23T10:40:50Z</time>
      </trkpt>
      <trkpt lat="43.08451" lon="5.85772">
        <ele>68</ele>
        <time>2019-10-23T10:40:51Z</time>
      </trkpt>
      <trkpt lat="43.08456" lon="5.8578">
        <ele>68</ele>
        <time>2019-10-23T10:40:52Z</time>
      </trkpt>
      <trkpt lat="43.0846" lon="5.85786">
        <ele>68</ele>
        <time>2019-10-23T10:40:53Z</time>
      </trkpt>
      <trkpt lat="43.08466" lon="5.85795">
        <ele>67</ele>
        <time>2019-10-23T10:40:54Z</time>
      </trkpt>
      <trkpt lat="43.08472" lon="5.85801">
        <ele>67</ele>
        <time>2019-10-23T10:40:55Z</time>
      </trkpt>
      <trkpt lat="43.08476" lon="5.85806">
        <ele>67</ele>
        <time>2019-10-23T10:40:56Z</time>
      </trkpt>
      <trkpt lat="43.08482" lon="5.85816">
        <ele>67</ele>
        <time>2019-10-23T10:40:58Z</time>
      </trkpt>
      <trkpt lat="43.08485" lon="5.85823">
        <ele>67</ele>
        <time>2019-10-23T10:41:00Z</time>
      </trkpt>
      <trkpt lat="43.08491" lon="5.85832">
        <ele>67</ele>
        <time>2019-10-23T10:41:01Z</time>
      </trkpt>
      <trkpt lat="43.08496" lon="5.85837">
        <ele>67</ele>
        <time>2019-10-23T10:41:02Z</time>
      </trkpt>
      <trkpt lat="43.08502" lon="5.85839">
        <ele>67</ele>
        <time>2019-10-23T10:41:04Z</time>
      </trkpt>
      <trkpt lat="43.08507" lon="5.85837">
        <ele>67</ele>
        <time>2019-10-23T10:41:05Z</time>
      </trkpt>
      <trkpt lat="43.08511" lon="5.85832">
        <ele>66</ele>
        <time>2019-10-23T10:41:06Z</time>
      </trkpt>
      <trkpt lat="43.08513" lon="5.85826">
        <ele>66</ele>
        <time>2019-10-23T10:41:07Z</time>
      </trkpt>
      <trkpt lat="43.08515" lon="5.85819">
        <ele>66</ele>
        <time>2019-10-23T10:41:08Z</time>
      </trkpt>
      <trkpt lat="43.08518" lon="5.85812">
        <ele>66</ele>
        <time>2019-10-23T10:41:09Z</time>
      </trkpt>
      <trkpt lat="43.08521" lon="5.85805">
        <ele>66</ele>
        <time>2019-10-23T10:41:10Z</time>
      </trkpt>
      <trkpt lat="43.08525" lon="5.858">
        <ele>65</ele>
        <time>2019-10-23T10:41:11Z</time>
      </trkpt>
      <trkpt lat="43.0853" lon="5.85794">
        <ele>65</ele>
        <time>2019-10-23T10:41:12Z</time>
      </trkpt>
      <trkpt lat="43.08534" lon="5.85787">
        <ele>65</ele>
        <time>2019-10-23T10:41:13Z</time>
      </trkpt>
      <trkpt lat="43.08539" lon="5.85782">
        <ele>65</ele>
        <time>2019-10-23T10:41:14Z</time>
      </trkpt>
      <trkpt lat="43.08543" lon="5.85777">
        <ele>65</ele>
        <time>2019-10-23T10:41:15Z</time>
      </trkpt>
      <trkpt lat="43.08547" lon="5.85772">
        <ele>66</ele>
        <time>2019-10-23T10:41:16Z</time>
      </trkpt>
      <trkpt lat="43.08552" lon="5.85767">
        <ele>66</ele>
        <time>2019-10-23T10:41:17Z</time>
      </trkpt>
      <trkpt lat="43.08556" lon="5.85761">
        <ele>66</ele>
        <time>2019-10-23T10:41:18Z</time>
      </trkpt>
      <trkpt lat="43.08561" lon="5.85757">
        <ele>66</ele>
        <time>2019-10-23T10:41:19Z</time>
      </trkpt>
      <trkpt lat="43.08566" lon="5.85753">
        <ele>66</ele>
        <time>2019-10-23T10:41:20Z</time>
      </trkpt>
      <trkpt lat="43.08571" lon="5.85748">
        <ele>66</ele>
        <time>2019-10-23T10:41:21Z</time>
      </trkpt>
      <trkpt lat="43.08576" lon="5.85744">
        <ele>65</ele>
        <time>2019-10-23T10:41:22Z</time>
      </trkpt>
      <trkpt lat="43.0858" lon="5.85739">
        <ele>65</ele>
        <time>2019-10-23T10:41:23Z</time>
      </trkpt>
      <trkpt lat="43.08584" lon="5.85733">
        <ele>66</ele>
        <time>2019-10-23T10:41:24Z</time>
      </trkpt>
      <trkpt lat="43.08589" lon="5.85727">
        <ele>66</ele>
        <time>2019-10-23T10:41:25Z</time>
      </trkpt>
      <trkpt lat="43.08593" lon="5.85721">
        <ele>66</ele>
        <time>2019-10-23T10:41:26Z</time>
      </trkpt>
      <trkpt lat="43.08598" lon="5.85716">
        <ele>66</ele>
        <time>2019-10-23T10:41:27Z</time>
      </trkpt>
      <trkpt lat="43.08602" lon="5.8571">
        <ele>66</ele>
        <time>2019-10-23T10:41:28Z</time>
      </trkpt>
      <trkpt lat="43.08607" lon="5.85704">
        <ele>66</ele>
        <time>2019-10-23T10:41:29Z</time>
      </trkpt>
      <trkpt lat="43.08614" lon="5.85695">
        <ele>66</ele>
        <time>2019-10-23T10:41:30Z</time>
      </trkpt>
      <trkpt lat="43.08622" lon="5.85685">
        <ele>66</ele>
        <time>2019-10-23T10:41:31Z</time>
      </trkpt>
      <trkpt lat="43.08627" lon="5.85678">
        <ele>66</ele>
        <time>2019-10-23T10:41:32Z</time>
      </trkpt>
      <trkpt lat="43.08633" lon="5.85673">
        <ele>66</ele>
        <time>2019-10-23T10:41:33Z</time>
      </trkpt>
      <trkpt lat="43.0864" lon="5.85665">
        <ele>65</ele>
        <time>2019-10-23T10:41:34Z</time>
      </trkpt>
      <trkpt lat="43.08646" lon="5.85658">
        <ele>65</ele>
        <time>2019-10-23T10:41:35Z</time>
      </trkpt>
      <trkpt lat="43.08651" lon="5.85652">
        <ele>65</ele>
        <time>2019-10-23T10:41:36Z</time>
      </trkpt>
      <trkpt lat="43.08656" lon="5.85647">
        <ele>65</ele>
        <time>2019-10-23T10:41:37Z</time>
      </trkpt>
      <trkpt lat="43.0866" lon="5.85642">
        <ele>65</ele>
        <time>2019-10-23T10:41:38Z</time>
      </trkpt>
      <trkpt lat="43.08665" lon="5.85636">
        <ele>66</ele>
        <time>2019-10-23T10:41:39Z</time>
      </trkpt>
      <trkpt lat="43.0867" lon="5.85631">
        <ele>66</ele>
        <time>2019-10-23T10:41:40Z</time>
      </trkpt>
      <trkpt lat="43.08674" lon="5.85626">
        <ele>66</ele>
        <time>2019-10-23T10:41:41Z</time>
      </trkpt>
      <trkpt lat="43.08679" lon="5.85621">
        <ele>66</ele>
        <time>2019-10-23T10:41:42Z</time>
      </trkpt>
      <trkpt lat="43.08684" lon="5.85616">
        <ele>65</ele>
        <time>2019-10-23T10:41:43Z</time>
      </trkpt>
      <trkpt lat="43.08689" lon="5.85611">
        <ele>65</ele>
        <time>2019-10-23T10:41:44Z</time>
      </trkpt>
      <trkpt lat="43.08693" lon="5.85605">
        <ele>65</ele>
        <time>2019-10-23T10:41:45Z</time>
      </trkpt>
      <trkpt lat="43.08698" lon="5.856">
        <ele>65</ele>
        <time>2019-10-23T10:41:46Z</time>
      </trkpt>
      <trkpt lat="43.08702" lon="5.85594">
        <ele>65</ele>
        <time>2019-10-23T10:41:47Z</time>
      </trkpt>
      <trkpt lat="43.08706" lon="5.85589">
        <ele>65</ele>
        <time>2019-10-23T10:41:48Z</time>
      </trkpt>
      <trkpt lat="43.0871" lon="5.85583">
        <ele>65</ele>
        <time>2019-10-23T10:41:49Z</time>
      </trkpt>
      <trkpt lat="43.08714" lon="5.85578">
        <ele>65</ele>
        <time>2019-10-23T10:41:50Z</time>
      </trkpt>
      <trkpt lat="43.08718" lon="5.85573">
        <ele>65</ele>
        <time>2019-10-23T10:41:51Z</time>
      </trkpt>
      <trkpt lat="43.08722" lon="5.85569">
        <ele>65</ele>
        <time>2019-10-23T10:41:52Z</time>
      </trkpt>
      <trkpt lat="43.08726" lon="5.85566">
        <ele>65</ele>
        <time>2019-10-23T10:41:53Z</time>
      </trkpt>
      <trkpt lat="43.0873" lon="5.85562">
        <ele>64</ele>
        <time>2019-10-23T10:41:54Z</time>
      </trkpt>
      <trkpt lat="43.08734" lon="5.85558">
        <ele>64</ele>
        <time>2019-10-23T10:41:55Z</time>
      </trkpt>
      <trkpt lat="43.08737" lon="5.85552">
        <ele>64</ele>
        <time>2019-10-23T10:41:56Z</time>
      </trkpt>
      <trkpt lat="43.0874" lon="5.85546">
        <ele>64</ele>
        <time>2019-10-23T10:41:57Z</time>
      </trkpt>
      <trkpt lat="43.08743" lon="5.8554">
        <ele>65</ele>
        <time>2019-10-23T10:41:58Z</time>
      </trkpt>
      <trkpt lat="43.08745" lon="5.85535">
        <ele>65</ele>
        <time>2019-10-23T10:41:59Z</time>
      </trkpt>
      <trkpt lat="43.08748" lon="5.85528">
        <ele>65</ele>
        <time>2019-10-23T10:42:00Z</time>
      </trkpt>
      <trkpt lat="43.08751" lon="5.85522">
        <ele>65</ele>
        <time>2019-10-23T10:42:01Z</time>
      </trkpt>
      <trkpt lat="43.08754" lon="5.85516">
        <ele>64</ele>
        <time>2019-10-23T10:42:02Z</time>
      </trkpt>
      <trkpt lat="43.08757" lon="5.8551">
        <ele>64</ele>
        <time>2019-10-23T10:42:03Z</time>
      </trkpt>
      <trkpt lat="43.0876" lon="5.85503">
        <ele>64</ele>
        <time>2019-10-23T10:42:04Z</time>
      </trkpt>
      <trkpt lat="43.08763" lon="5.85497">
        <ele>64</ele>
        <time>2019-10-23T10:42:05Z</time>
      </trkpt>
      <trkpt lat="43.08766" lon="5.8549">
        <ele>64</ele>
        <time>2019-10-23T10:42:06Z</time>
      </trkpt>
      <trkpt lat="43.08769" lon="5.85483">
        <ele>64</ele>
        <time>2019-10-23T10:42:07Z</time>
      </trkpt>
      <trkpt lat="43.08773" lon="5.85475">
        <ele>64</ele>
        <time>2019-10-23T10:42:08Z</time>
      </trkpt>
      <trkpt lat="43.08776" lon="5.85467">
        <ele>64</ele>
        <time>2019-10-23T10:42:09Z</time>
      </trkpt>
      <trkpt lat="43.08779" lon="5.8546">
        <ele>64</ele>
        <time>2019-10-23T10:42:10Z</time>
      </trkpt>
      <trkpt lat="43.08783" lon="5.85453">
        <ele>64</ele>
        <time>2019-10-23T10:42:11Z</time>
      </trkpt>
      <trkpt lat="43.08786" lon="5.85445">
        <ele>64</ele>
        <time>2019-10-23T10:42:12Z</time>
      </trkpt>
      <trkpt lat="43.08789" lon="5.85437">
        <ele>64</ele>
        <time>2019-10-23T10:42:13Z</time>
      </trkpt>
      <trkpt lat="43.08792" lon="5.85428">
        <ele>63</ele>
        <time>2019-10-23T10:42:14Z</time>
      </trkpt>
      <trkpt lat="43.08795" lon="5.8542">
        <ele>63</ele>
        <time>2019-10-23T10:42:15Z</time>
      </trkpt>
      <trkpt lat="43.08798" lon="5.85413">
        <ele>63</ele>
        <time>2019-10-23T10:42:16Z</time>
      </trkpt>
      <trkpt lat="43.08801" lon="5.85404">
        <ele>63</ele>
        <time>2019-10-23T10:42:17Z</time>
      </trkpt>
      <trkpt lat="43.08803" lon="5.85396">
        <ele>63</ele>
        <time>2019-10-23T10:42:18Z</time>
      </trkpt>
      <trkpt lat="43.08806" lon="5.85387">
        <ele>63</ele>
        <time>2019-10-23T10:42:19Z</time>
      </trkpt>
      <trkpt lat="43.08809" lon="5.85378">
        <ele>63</ele>
        <time>2019-10-23T10:42:20Z</time>
      </trkpt>
      <trkpt lat="43.08812" lon="5.8537">
        <ele>63</ele>
        <time>2019-10-23T10:42:21Z</time>
      </trkpt>
      <trkpt lat="43.08815" lon="5.85361">
        <ele>62</ele>
        <time>2019-10-23T10:42:22Z</time>
      </trkpt>
      <trkpt lat="43.08818" lon="5.85353">
        <ele>62</ele>
        <time>2019-10-23T10:42:23Z</time>
      </trkpt>
      <trkpt lat="43.08822" lon="5.85344">
        <ele>62</ele>
        <time>2019-10-23T10:42:24Z</time>
      </trkpt>
      <trkpt lat="43.08826" lon="5.85336">
        <ele>62</ele>
        <time>2019-10-23T10:42:25Z</time>
      </trkpt>
      <trkpt lat="43.0883" lon="5.85328">
        <ele>62</ele>
        <time>2019-10-23T10:42:26Z</time>
      </trkpt>
      <trkpt lat="43.08834" lon="5.85319">
        <ele>62</ele>
        <time>2019-10-23T10:42:27Z</time>
      </trkpt>
      <trkpt lat="43.08837" lon="5.8531">
        <ele>62</ele>
        <time>2019-10-23T10:42:28Z</time>
      </trkpt>
      <trkpt lat="43.08841" lon="5.85301">
        <ele>62</ele>
        <time>2019-10-23T10:42:29Z</time>
      </trkpt>
      <trkpt lat="43.08844" lon="5.85293">
        <ele>62</ele>
        <time>2019-10-23T10:42:30Z</time>
      </trkpt>
      <trkpt lat="43.08848" lon="5.85285">
        <ele>62</ele>
        <time>2019-10-23T10:42:31Z</time>
      </trkpt>
      <trkpt lat="43.08852" lon="5.85277">
        <ele>62</ele>
        <time>2019-10-23T10:42:32Z</time>
      </trkpt>
      <trkpt lat="43.08855" lon="5.85268">
        <ele>62</ele>
        <time>2019-10-23T10:42:33Z</time>
      </trkpt>
      <trkpt lat="43.08859" lon="5.8526">
        <ele>62</ele>
        <time>2019-10-23T10:42:34Z</time>
      </trkpt>
      <trkpt lat="43.08862" lon="5.85252">
        <ele>62</ele>
        <time>2019-10-23T10:42:35Z</time>
      </trkpt>
      <trkpt lat="43.08866" lon="5.85244">
        <ele>62</ele>
        <time>2019-10-23T10:42:36Z</time>
      </trkpt>
      <trkpt lat="43.0887" lon="5.85236">
        <ele>62</ele>
        <time>2019-10-23T10:42:37Z</time>
      </trkpt>
      <trkpt lat="43.08874" lon="5.85227">
        <ele>61</ele>
        <time>2019-10-23T10:42:38Z</time>
      </trkpt>
      <trkpt lat="43.08878" lon="5.8522">
        <ele>61</ele>
        <time>2019-10-23T10:42:39Z</time>
      </trkpt>
      <trkpt lat="43.08881" lon="5.85212">
        <ele>61</ele>
        <time>2019-10-23T10:42:40Z</time>
      </trkpt>
      <trkpt lat="43.08885" lon="5.85205">
        <ele>61</ele>
        <time>2019-10-23T10:42:41Z</time>
      </trkpt>
      <trkpt lat="43.08889" lon="5.85199">
        <ele>61</ele>
        <time>2019-10-23T10:42:42Z</time>
      </trkpt>
      <trkpt lat="43.08893" lon="5.85192">
        <ele>61</ele>
        <time>2019-10-23T10:42:43Z</time>
      </trkpt>
      <trkpt lat="43.08896" lon="5.85186">
        <ele>61</ele>
        <time>2019-10-23T10:42:44Z</time>
      </trkpt>
      <trkpt lat="43.089" lon="5.8518">
        <ele>61</ele>
        <time>2019-10-23T10:42:45Z</time>
      </trkpt>
      <trkpt lat="43.08903" lon="5.85174">
        <ele>61</ele>
        <time>2019-10-23T10:42:46Z</time>
      </trkpt>
      <trkpt lat="43.08907" lon="5.85167">
        <ele>61</ele>
        <time>2019-10-23T10:42:47Z</time>
      </trkpt>
      <trkpt lat="43.0891" lon="5.85161">
        <ele>61</ele>
        <time>2019-10-23T10:42:48Z</time>
      </trkpt>
      <trkpt lat="43.08914" lon="5.85154">
        <ele>61</ele>
        <time>2019-10-23T10:42:49Z</time>
      </trkpt>
      <trkpt lat="43.08917" lon="5.85148">
        <ele>61</ele>
        <time>2019-10-23T10:42:50Z</time>
      </trkpt>
      <trkpt lat="43.0892" lon="5.85141">
        <ele>61</ele>
        <time>2019-10-23T10:42:51Z</time>
      </trkpt>
      <trkpt lat="43.08924" lon="5.85133">
        <ele>60</ele>
        <time>2019-10-23T10:42:52Z</time>
      </trkpt>
      <trkpt lat="43.08928" lon="5.85127">
        <ele>60</ele>
        <time>2019-10-23T10:42:53Z</time>
      </trkpt>
      <trkpt lat="43.08932" lon="5.8512">
        <ele>60</ele>
        <time>2019-10-23T10:42:54Z</time>
      </trkpt>
      <trkpt lat="43.08937" lon="5.85113">
        <ele>60</ele>
        <time>2019-10-23T10:42:55Z</time>
      </trkpt>
      <trkpt lat="43.08942" lon="5.85106">
        <ele>60</ele>
        <time>2019-10-23T10:42:56Z</time>
      </trkpt>
      <trkpt lat="43.08947" lon="5.851">
        <ele>60</ele>
        <time>2019-10-23T10:42:57Z</time>
      </trkpt>
      <trkpt lat="43.08951" lon="5.85093">
        <ele>61</ele>
        <time>2019-10-23T10:42:58Z</time>
      </trkpt>
      <trkpt lat="43.08956" lon="5.85087">
        <ele>61</ele>
        <time>2019-10-23T10:42:59Z</time>
      </trkpt>
      <trkpt lat="43.08961" lon="5.8508">
        <ele>60</ele>
        <time>2019-10-23T10:43:00Z</time>
      </trkpt>
      <trkpt lat="43.08966" lon="5.85073">
        <ele>60</ele>
        <time>2019-10-23T10:43:01Z</time>
      </trkpt>
      <trkpt lat="43.0897" lon="5.85067">
        <ele>60</ele>
        <time>2019-10-23T10:43:02Z</time>
      </trkpt>
      <trkpt lat="43.08975" lon="5.8506">
        <ele>59</ele>
        <time>2019-10-23T10:43:03Z</time>
      </trkpt>
      <trkpt lat="43.08979" lon="5.85052">
        <ele>59</ele>
        <time>2019-10-23T10:43:04Z</time>
      </trkpt>
      <trkpt lat="43.08983" lon="5.85045">
        <ele>59</ele>
        <time>2019-10-23T10:43:05Z</time>
      </trkpt>
      <trkpt lat="43.08987" lon="5.85039">
        <ele>59</ele>
        <time>2019-10-23T10:43:06Z</time>
      </trkpt>
      <trkpt lat="43.08991" lon="5.85031">
        <ele>59</ele>
        <time>2019-10-23T10:43:07Z</time>
      </trkpt>
      <trkpt lat="43.08995" lon="5.85024">
        <ele>59</ele>
        <time>2019-10-23T10:43:08Z</time>
      </trkpt>
      <trkpt lat="43.08999" lon="5.85017">
        <ele>59</ele>
        <time>2019-10-23T10:43:09Z</time>
      </trkpt>
      <trkpt lat="43.09003" lon="5.8501">
        <ele>59</ele>
        <time>2019-10-23T10:43:10Z</time>
      </trkpt>
      <trkpt lat="43.09007" lon="5.85002">
        <ele>58</ele>
        <time>2019-10-23T10:43:11Z</time>
      </trkpt>
      <trkpt lat="43.09011" lon="5.84995">
        <ele>58</ele>
        <time>2019-10-23T10:43:12Z</time>
      </trkpt>
      <trkpt lat="43.09015" lon="5.84988">
        <ele>58</ele>
        <time>2019-10-23T10:43:13Z</time>
      </trkpt>
      <trkpt lat="43.09019" lon="5.8498">
        <ele>58</ele>
        <time>2019-10-23T10:43:14Z</time>
      </trkpt>
      <trkpt lat="43.09022" lon="5.84973">
        <ele>58</ele>
        <time>2019-10-23T10:43:15Z</time>
      </trkpt>
      <trkpt lat="43.09026" lon="5.84966">
        <ele>58</ele>
        <time>2019-10-23T10:43:16Z</time>
      </trkpt>
      <trkpt lat="43.0903" lon="5.84958">
        <ele>58</ele>
        <time>2019-10-23T10:43:17Z</time>
      </trkpt>
      <trkpt lat="43.09035" lon="5.84952">
        <ele>58</ele>
        <time>2019-10-23T10:43:18Z</time>
      </trkpt>
      <trkpt lat="43.0904" lon="5.84946">
        <ele>58</ele>
        <time>2019-10-23T10:43:19Z</time>
      </trkpt>
      <trkpt lat="43.09045" lon="5.84941">
        <ele>59</ele>
        <time>2019-10-23T10:43:20Z</time>
      </trkpt>
      <trkpt lat="43.0905" lon="5.84937">
        <ele>59</ele>
        <time>2019-10-23T10:43:21Z</time>
      </trkpt>
      <trkpt lat="43.09056" lon="5.84935">
        <ele>59</ele>
        <time>2019-10-23T10:43:22Z</time>
      </trkpt>
      <trkpt lat="43.09062" lon="5.84934">
        <ele>59</ele>
        <time>2019-10-23T10:43:23Z</time>
      </trkpt>
      <trkpt lat="43.09067" lon="5.84932">
        <ele>59</ele>
        <time>2019-10-23T10:43:24Z</time>
      </trkpt>
      <trkpt lat="43.09071" lon="5.84929">
        <ele>59</ele>
        <time>2019-10-23T10:43:25Z</time>
      </trkpt>
      <trkpt lat="43.09073" lon="5.84924">
        <ele>59</ele>
        <time>2019-10-23T10:43:26Z</time>
      </trkpt>
      <trkpt lat="43.09074" lon="5.84918">
        <ele>59</ele>
        <time>2019-10-23T10:43:27Z</time>
      </trkpt>
      <trkpt lat="43.09073" lon="5.84913">
        <ele>59</ele>
        <time>2019-10-23T10:43:28Z</time>
      </trkpt>
      <trkpt lat="43.0907" lon="5.84909">
        <ele>59</ele>
        <time>2019-10-23T10:43:29Z</time>
      </trkpt>
      <trkpt lat="43.09065" lon="5.84906">
        <ele>59</ele>
        <time>2019-10-23T10:43:30Z</time>
      </trkpt>
      <trkpt lat="43.0906" lon="5.84904">
        <ele>59</ele>
        <time>2019-10-23T10:43:31Z</time>
      </trkpt>
      <trkpt lat="43.09054" lon="5.84903">
        <ele>59</ele>
        <time>2019-10-23T10:43:32Z</time>
      </trkpt>
      <trkpt lat="43.09049" lon="5.84899">
        <ele>59</ele>
        <time>2019-10-23T10:43:33Z</time>
      </trkpt>
      <trkpt lat="43.09044" lon="5.84895">
        <ele>59</ele>
        <time>2019-10-23T10:43:34Z</time>
      </trkpt>
      <trkpt lat="43.09039" lon="5.8489">
        <ele>58</ele>
        <time>2019-10-23T10:43:35Z</time>
      </trkpt>
      <trkpt lat="43.09035" lon="5.84885">
        <ele>58</ele>
        <time>2019-10-23T10:43:36Z</time>
      </trkpt>
      <trkpt lat="43.09031" lon="5.84881">
        <ele>58</ele>
        <time>2019-10-23T10:43:37Z</time>
      </trkpt>
      <trkpt lat="43.09026" lon="5.84876">
        <ele>58</ele>
        <time>2019-10-23T10:43:38Z</time>
      </trkpt>
      <trkpt lat="43.09021" lon="5.84872">
        <ele>58</ele>
        <time>2019-10-23T10:43:39Z</time>
      </trkpt>
      <trkpt lat="43.09017" lon="5.84868">
        <ele>58</ele>
        <time>2019-10-23T10:43:40Z</time>
      </trkpt>
      <trkpt lat="43.09012" lon="5.84864">
        <ele>58</ele>
        <time>2019-10-23T10:43:41Z</time>
      </trkpt>
      <trkpt lat="43.09007" lon="5.84861">
        <ele>58</ele>
        <time>2019-10-23T10:43:42Z</time>
      </trkpt>
      <trkpt lat="43.09002" lon="5.84857">
        <ele>58</ele>
        <time>2019-10-23T10:43:43Z</time>
      </trkpt>
      <trkpt lat="43.08996" lon="5.84855">
        <ele>58</ele>
        <time>2019-10-23T10:43:44Z</time>
      </trkpt>
      <trkpt lat="43.08991" lon="5.84852">
        <ele>58</ele>
        <time>2019-10-23T10:43:45Z</time>
      </trkpt>
      <trkpt lat="43.08986" lon="5.8485">
        <ele>58</ele>
        <time>2019-10-23T10:43:46Z</time>
      </trkpt>
      <trkpt lat="43.08981" lon="5.84849">
        <ele>59</ele>
        <time>2019-10-23T10:43:47Z</time>
      </trkpt>
      <trkpt lat="43.08976" lon="5.84847">
        <ele>59</ele>
        <time>2019-10-23T10:43:48Z</time>
      </trkpt>
      <trkpt lat="43.08972" lon="5.84846">
        <ele>59</ele>
        <time>2019-10-23T10:43:49Z</time>
      </trkpt>
      <trkpt lat="43.08967" lon="5.84844">
        <ele>59</ele>
        <time>2019-10-23T10:43:50Z</time>
      </trkpt>
      <trkpt lat="43.08963" lon="5.84843">
        <ele>59</ele>
        <time>2019-10-23T10:43:51Z</time>
      </trkpt>
      <trkpt lat="43.08959" lon="5.8484">
        <ele>59</ele>
        <time>2019-10-23T10:43:52Z</time>
      </trkpt>
      <trkpt lat="43.08955" lon="5.84839">
        <ele>60</ele>
        <time>2019-10-23T10:43:53Z</time>
      </trkpt>
      <trkpt lat="43.08951" lon="5.84837">
        <ele>60</ele>
        <time>2019-10-23T10:43:54Z</time>
      </trkpt>
      <trkpt lat="43.08947" lon="5.84836">
        <ele>60</ele>
        <time>2019-10-23T10:43:55Z</time>
      </trkpt>
      <trkpt lat="43.08943" lon="5.84834">
        <ele>61</ele>
        <time>2019-10-23T10:43:56Z</time>
      </trkpt>
      <trkpt lat="43.08938" lon="5.84834">
        <ele>61</ele>
        <time>2019-10-23T10:43:57Z</time>
      </trkpt>
      <trkpt lat="43.08934" lon="5.84833">
        <ele>61</ele>
        <time>2019-10-23T10:43:58Z</time>
      </trkpt>
      <trkpt lat="43.0893" lon="5.84832">
        <ele>61</ele>
        <time>2019-10-23T10:43:59Z</time>
      </trkpt>
      <trkpt lat="43.08926" lon="5.84831">
        <ele>61</ele>
        <time>2019-10-23T10:44:00Z</time>
      </trkpt>
      <trkpt lat="43.08922" lon="5.84828">
        <ele>61</ele>
        <time>2019-10-23T10:44:01Z</time>
      </trkpt>
      <trkpt lat="43.08919" lon="5.84825">
        <ele>61</ele>
        <time>2019-10-23T10:44:02Z</time>
      </trkpt>
      <trkpt lat="43.08917" lon="5.8482">
        <ele>61</ele>
        <time>2019-10-23T10:44:03Z</time>
      </trkpt>
      <trkpt lat="43.08915" lon="5.84816">
        <ele>62</ele>
        <time>2019-10-23T10:44:04Z</time>
      </trkpt>
      <trkpt lat="43.08913" lon="5.8481">
        <ele>62</ele>
        <time>2019-10-23T10:44:05Z</time>
      </trkpt>
      <trkpt lat="43.08911" lon="5.84804">
        <ele>62</ele>
        <time>2019-10-23T10:44:06Z</time>
      </trkpt>
      <trkpt lat="43.0891" lon="5.84797">
        <ele>62</ele>
        <time>2019-10-23T10:44:07Z</time>
      </trkpt>
      <trkpt lat="43.08908" lon="5.84791">
        <ele>62</ele>
        <time>2019-10-23T10:44:08Z</time>
      </trkpt>
      <trkpt lat="43.08907" lon="5.84785">
        <ele>62</ele>
        <time>2019-10-23T10:44:09Z</time>
      </trkpt>
      <trkpt lat="43.08905" lon="5.84778">
        <ele>62</ele>
        <time>2019-10-23T10:44:10Z</time>
      </trkpt>
      <trkpt lat="43.08903" lon="5.84773">
        <ele>62</ele>
        <time>2019-10-23T10:44:11Z</time>
      </trkpt>
      <trkpt lat="43.089" lon="5.84769">
        <ele>62</ele>
        <time>2019-10-23T10:44:12Z</time>
      </trkpt>
      <trkpt lat="43.08896" lon="5.84767">
        <ele>62</ele>
        <time>2019-10-23T10:44:13Z</time>
      </trkpt>
      <trkpt lat="43.08892" lon="5.84766">
        <ele>62</ele>
        <time>2019-10-23T10:44:14Z</time>
      </trkpt>
      <trkpt lat="43.08888" lon="5.84765">
        <ele>62</ele>
        <time>2019-10-23T10:44:15Z</time>
      </trkpt>
      <trkpt lat="43.08884" lon="5.84764">
        <ele>62</ele>
        <time>2019-10-23T10:44:16Z</time>
      </trkpt>
      <trkpt lat="43.08879" lon="5.84765">
        <ele>62</ele>
        <time>2019-10-23T10:44:17Z</time>
      </trkpt>
      <trkpt lat="43.08874" lon="5.84764">
        <ele>62</ele>
        <time>2019-10-23T10:44:18Z</time>
      </trkpt>
      <trkpt lat="43.0887" lon="5.84764">
        <ele>63</ele>
        <time>2019-10-23T10:44:19Z</time>
      </trkpt>
      <trkpt lat="43.08865" lon="5.84763">
        <ele>63</ele>
        <time>2019-10-23T10:44:20Z</time>
      </trkpt>
      <trkpt lat="43.08861" lon="5.84763">
        <ele>63</ele>
        <time>2019-10-23T10:44:21Z</time>
      </trkpt>
      <trkpt lat="43.08856" lon="5.84762">
        <ele>63</ele>
        <time>2019-10-23T10:44:22Z</time>
      </trkpt>
      <trkpt lat="43.08852" lon="5.84762">
        <ele>64</ele>
        <time>2019-10-23T10:44:23Z</time>
      </trkpt>
      <trkpt lat="43.08847" lon="5.84761">
        <ele>64</ele>
        <time>2019-10-23T10:44:24Z</time>
      </trkpt>
      <trkpt lat="43.08843" lon="5.8476">
        <ele>64</ele>
        <time>2019-10-23T10:44:25Z</time>
      </trkpt>
      <trkpt lat="43.08839" lon="5.84759">
        <ele>64</ele>
        <time>2019-10-23T10:44:27Z</time>
      </trkpt>
      <trkpt lat="43.08836" lon="5.84757">
        <ele>64</ele>
        <time>2019-10-23T10:44:28Z</time>
      </trkpt>
      <trkpt lat="43.08832" lon="5.84755">
        <ele>64</ele>
        <time>2019-10-23T10:44:29Z</time>
      </trkpt>
      <trkpt lat="43.08829" lon="5.84753">
        <ele>64</ele>
        <time>2019-10-23T10:44:30Z</time>
      </trkpt>
      <trkpt lat="43.08825" lon="5.8475">
        <ele>65</ele>
        <time>2019-10-23T10:44:31Z</time>
      </trkpt>
      <trkpt lat="43.08822" lon="5.84747">
        <ele>65</ele>
        <time>2019-10-23T10:44:32Z</time>
      </trkpt>
      <trkpt lat="43.0882" lon="5.84745">
        <ele>65</ele>
        <time>2019-10-23T10:44:33Z</time>
      </trkpt>
      <trkpt lat="43.08818" lon="5.84742">
        <ele>66</ele>
        <time>2019-10-23T10:44:34Z</time>
      </trkpt>
      <trkpt lat="43.08815" lon="5.84738">
        <ele>66</ele>
        <time>2019-10-23T10:44:35Z</time>
      </trkpt>
      <trkpt lat="43.08813" lon="5.84735">
        <ele>67</ele>
        <time>2019-10-23T10:44:36Z</time>
      </trkpt>
      <trkpt lat="43.08812" lon="5.84731">
        <ele>67</ele>
        <time>2019-10-23T10:44:37Z</time>
      </trkpt>
      <trkpt lat="43.0881" lon="5.84727">
        <ele>67</ele>
        <time>2019-10-23T10:44:38Z</time>
      </trkpt>
      <trkpt lat="43.08809" lon="5.84723">
        <ele>67</ele>
        <time>2019-10-23T10:44:39Z</time>
      </trkpt>
      <trkpt lat="43.08807" lon="5.84719">
        <ele>67</ele>
        <time>2019-10-23T10:44:40Z</time>
      </trkpt>
      <trkpt lat="43.08806" lon="5.84715">
        <ele>67</ele>
        <time>2019-10-23T10:44:41Z</time>
      </trkpt>
      <trkpt lat="43.08804" lon="5.8471">
        <ele>68</ele>
        <time>2019-10-23T10:44:42Z</time>
      </trkpt>
      <trkpt lat="43.08802" lon="5.84704">
        <ele>68</ele>
        <time>2019-10-23T10:44:43Z</time>
      </trkpt>
      <trkpt lat="43.088" lon="5.84699">
        <ele>68</ele>
        <time>2019-10-23T10:44:44Z</time>
      </trkpt>
      <trkpt lat="43.08797" lon="5.84695">
        <ele>68</ele>
        <time>2019-10-23T10:44:45Z</time>
      </trkpt>
      <trkpt lat="43.08793" lon="5.84692">
        <ele>68</ele>
        <time>2019-10-23T10:44:46Z</time>
      </trkpt>
      <trkpt lat="43.0879" lon="5.84689">
        <ele>69</ele>
        <time>2019-10-23T10:44:47Z</time>
      </trkpt>
      <trkpt lat="43.08786" lon="5.84685">
        <ele>69</ele>
        <time>2019-10-23T10:44:48Z</time>
      </trkpt>
      <trkpt lat="43.08782" lon="5.84682">
        <ele>69</ele>
        <time>2019-10-23T10:44:49Z</time>
      </trkpt>
      <trkpt lat="43.08779" lon="5.84679">
        <ele>69</ele>
        <time>2019-10-23T10:44:50Z</time>
      </trkpt>
      <trkpt lat="43.08776" lon="5.84677">
        <ele>69</ele>
        <time>2019-10-23T10:44:51Z</time>
      </trkpt>
      <trkpt lat="43.08772" lon="5.84675">
        <ele>70</ele>
        <time>2019-10-23T10:44:52Z</time>
      </trkpt>
      <trkpt lat="43.08769" lon="5.84672">
        <ele>70</ele>
        <time>2019-10-23T10:44:53Z</time>
      </trkpt>
      <trkpt lat="43.08765" lon="5.84669">
        <ele>70</ele>
        <time>2019-10-23T10:44:54Z</time>
      </trkpt>
      <trkpt lat="43.08762" lon="5.84666">
        <ele>70</ele>
        <time>2019-10-23T10:44:55Z</time>
      </trkpt>
      <trkpt lat="43.0876" lon="5.84662">
        <ele>71</ele>
        <time>2019-10-23T10:44:56Z</time>
      </trkpt>
      <trkpt lat="43.08754" lon="5.84656">
        <ele>71</ele>
        <time>2019-10-23T10:44:57Z</time>
      </trkpt>
      <trkpt lat="43.08751" lon="5.84653">
        <ele>71</ele>
        <time>2019-10-23T10:44:58Z</time>
      </trkpt>
      <trkpt lat="43.08748" lon="5.84649">
        <ele>71</ele>
        <time>2019-10-23T10:44:59Z</time>
      </trkpt>
      <trkpt lat="43.08745" lon="5.84646">
        <ele>72</ele>
        <time>2019-10-23T10:45:00Z</time>
      </trkpt>
      <trkpt lat="43.08743" lon="5.84642">
        <ele>72</ele>
        <time>2019-10-23T10:45:01Z</time>
      </trkpt>
      <trkpt lat="43.0874" lon="5.84638">
        <ele>72</ele>
        <time>2019-10-23T10:45:02Z</time>
      </trkpt>
      <trkpt lat="43.08738" lon="5.84634">
        <ele>72</ele>
        <time>2019-10-23T10:45:03Z</time>
      </trkpt>
      <trkpt lat="43.08736" lon="5.8463">
        <ele>72</ele>
        <time>2019-10-23T10:45:04Z</time>
      </trkpt>
      <trkpt lat="43.08734" lon="5.84625">
        <ele>72</ele>
        <time>2019-10-23T10:45:05Z</time>
      </trkpt>
      <trkpt lat="43.08732" lon="5.84621">
        <ele>73</ele>
        <time>2019-10-23T10:45:06Z</time>
      </trkpt>
      <trkpt lat="43.0873" lon="5.84617">
        <ele>73</ele>
        <time>2019-10-23T10:45:07Z</time>
      </trkpt>
      <trkpt lat="43.08728" lon="5.84612">
        <ele>73</ele>
        <time>2019-10-23T10:45:08Z</time>
      </trkpt>
      <trkpt lat="43.08726" lon="5.84608">
        <ele>73</ele>
        <time>2019-10-23T10:45:09Z</time>
      </trkpt>
      <trkpt lat="43.08725" lon="5.84604">
        <ele>73</ele>
        <time>2019-10-23T10:45:10Z</time>
      </trkpt>
      <trkpt lat="43.08723" lon="5.84599">
        <ele>73</ele>
        <time>2019-10-23T10:45:11Z</time>
      </trkpt>
      <trkpt lat="43.08722" lon="5.84595">
        <ele>74</ele>
        <time>2019-10-23T10:45:12Z</time>
      </trkpt>
      <trkpt lat="43.0872" lon="5.8459">
        <ele>74</ele>
        <time>2019-10-23T10:45:13Z</time>
      </trkpt>
      <trkpt lat="43.08719" lon="5.84585">
        <ele>74</ele>
        <time>2019-10-23T10:45:14Z</time>
      </trkpt>
      <trkpt lat="43.08718" lon="5.8458">
        <ele>74</ele>
        <time>2019-10-23T10:45:15Z</time>
      </trkpt>
      <trkpt lat="43.08717" lon="5.84576">
        <ele>74</ele>
        <time>2019-10-23T10:45:16Z</time>
      </trkpt>
      <trkpt lat="43.08716" lon="5.84571">
        <ele>74</ele>
        <time>2019-10-23T10:45:17Z</time>
      </trkpt>
      <trkpt lat="43.08715" lon="5.84566">
        <ele>75</ele>
        <time>2019-10-23T10:45:18Z</time>
      </trkpt>
      <trkpt lat="43.08714" lon="5.84561">
        <ele>75</ele>
        <time>2019-10-23T10:45:19Z</time>
      </trkpt>
      <trkpt lat="43.08714" lon="5.84555">
        <ele>75</ele>
        <time>2019-10-23T10:45:20Z</time>
      </trkpt>
      <trkpt lat="43.08713" lon="5.84549">
        <ele>75</ele>
        <time>2019-10-23T10:45:21Z</time>
      </trkpt>
      <trkpt lat="43.08713" lon="5.84544">
        <ele>76</ele>
        <time>2019-10-23T10:45:22Z</time>
      </trkpt>
      <trkpt lat="43.08712" lon="5.84537">
        <ele>76</ele>
        <time>2019-10-23T10:45:23Z</time>
      </trkpt>
      <trkpt lat="43.08712" lon="5.84531">
        <ele>75</ele>
        <time>2019-10-23T10:45:24Z</time>
      </trkpt>
      <trkpt lat="43.08713" lon="5.84524">
        <ele>75</ele>
        <time>2019-10-23T10:45:25Z</time>
      </trkpt>
      <trkpt lat="43.08714" lon="5.84517">
        <ele>75</ele>
        <time>2019-10-23T10:45:26Z</time>
      </trkpt>
      <trkpt lat="43.08714" lon="5.8451">
        <ele>75</ele>
        <time>2019-10-23T10:45:27Z</time>
      </trkpt>
      <trkpt lat="43.08715" lon="5.84502">
        <ele>75</ele>
        <time>2019-10-23T10:45:28Z</time>
      </trkpt>
      <trkpt lat="43.08716" lon="5.84495">
        <ele>75</ele>
        <time>2019-10-23T10:45:29Z</time>
      </trkpt>
      <trkpt lat="43.08716" lon="5.84487">
        <ele>75</ele>
        <time>2019-10-23T10:45:30Z</time>
      </trkpt>
      <trkpt lat="43.08717" lon="5.8448">
        <ele>75</ele>
        <time>2019-10-23T10:45:31Z</time>
      </trkpt>
      <trkpt lat="43.08719" lon="5.84472">
        <ele>75</ele>
        <time>2019-10-23T10:45:32Z</time>
      </trkpt>
      <trkpt lat="43.08722" lon="5.84464">
        <ele>75</ele>
        <time>2019-10-23T10:45:33Z</time>
      </trkpt>
      <trkpt lat="43.08725" lon="5.84457">
        <ele>75</ele>
        <time>2019-10-23T10:45:34Z</time>
      </trkpt>
      <trkpt lat="43.08728" lon="5.84451">
        <ele>75</ele>
        <time>2019-10-23T10:45:35Z</time>
      </trkpt>
      <trkpt lat="43.08731" lon="5.84444">
        <ele>74</ele>
        <time>2019-10-23T10:45:36Z</time>
      </trkpt>
      <trkpt lat="43.08733" lon="5.84438">
        <ele>74</ele>
        <time>2019-10-23T10:45:37Z</time>
      </trkpt>
      <trkpt lat="43.08733" lon="5.84432">
        <ele>74</ele>
        <time>2019-10-23T10:45:38Z</time>
      </trkpt>
      <trkpt lat="43.08731" lon="5.84427">
        <ele>74</ele>
        <time>2019-10-23T10:45:39Z</time>
      </trkpt>
      <trkpt lat="43.08728" lon="5.84425">
        <ele>73</ele>
        <time>2019-10-23T10:45:40Z</time>
      </trkpt>
      <trkpt lat="43.08725" lon="5.84425">
        <ele>73</ele>
        <time>2019-10-23T10:45:41Z</time>
      </trkpt>
      <trkpt lat="43.08723" lon="5.84427">
        <ele>73</ele>
        <time>2019-10-23T10:45:42Z</time>
      </trkpt>
      <trkpt lat="43.0872" lon="5.84429">
        <ele>73</ele>
        <time>2019-10-23T10:45:43Z</time>
      </trkpt>
      <trkpt lat="43.08716" lon="5.84432">
        <ele>73</ele>
        <time>2019-10-23T10:45:44Z</time>
      </trkpt>
      <trkpt lat="43.08713" lon="5.84433">
        <ele>74</ele>
        <time>2019-10-23T10:45:45Z</time>
      </trkpt>
      <trkpt lat="43.0871" lon="5.84435">
        <ele>74</ele>
        <time>2019-10-23T10:45:46Z</time>
      </trkpt>
      <trkpt lat="43.08706" lon="5.84438">
        <ele>75</ele>
        <time>2019-10-23T10:45:47Z</time>
      </trkpt>
      <trkpt lat="43.08702" lon="5.8444">
        <ele>75</ele>
        <time>2019-10-23T10:45:48Z</time>
      </trkpt>
      <trkpt lat="43.08699" lon="5.84442">
        <ele>75</ele>
        <time>2019-10-23T10:45:49Z</time>
      </trkpt>
      <trkpt lat="43.08695" lon="5.84444">
        <ele>76</ele>
        <time>2019-10-23T10:45:50Z</time>
      </trkpt>
      <trkpt lat="43.08691" lon="5.84446">
        <ele>76</ele>
        <time>2019-10-23T10:45:51Z</time>
      </trkpt>
      <trkpt lat="43.08686" lon="5.84448">
        <ele>76</ele>
        <time>2019-10-23T10:45:52Z</time>
      </trkpt>
      <trkpt lat="43.08682" lon="5.84451">
        <ele>76</ele>
        <time>2019-10-23T10:45:53Z</time>
      </trkpt>
      <trkpt lat="43.08677" lon="5.84453">
        <ele>76</ele>
        <time>2019-10-23T10:45:54Z</time>
      </trkpt>
      <trkpt lat="43.08673" lon="5.84455">
        <ele>77</ele>
        <time>2019-10-23T10:45:55Z</time>
      </trkpt>
      <trkpt lat="43.08669" lon="5.84457">
        <ele>77</ele>
        <time>2019-10-23T10:45:56Z</time>
      </trkpt>
      <trkpt lat="43.08664" lon="5.84459">
        <ele>78</ele>
        <time>2019-10-23T10:45:57Z</time>
      </trkpt>
      <trkpt lat="43.0866" lon="5.84461">
        <ele>78</ele>
        <time>2019-10-23T10:45:58Z</time>
      </trkpt>
      <trkpt lat="43.08657" lon="5.84462">
        <ele>79</ele>
        <time>2019-10-23T10:45:59Z</time>
      </trkpt>
      <trkpt lat="43.08653" lon="5.84464">
        <ele>79</ele>
        <time>2019-10-23T10:46:00Z</time>
      </trkpt>
      <trkpt lat="43.08648" lon="5.84466">
        <ele>79</ele>
        <time>2019-10-23T10:46:01Z</time>
      </trkpt>
      <trkpt lat="43.08643" lon="5.84466">
        <ele>79</ele>
        <time>2019-10-23T10:46:02Z</time>
      </trkpt>
      <trkpt lat="43.08639" lon="5.84468">
        <ele>80</ele>
        <time>2019-10-23T10:46:03Z</time>
      </trkpt>
      <trkpt lat="43.08634" lon="5.84468">
        <ele>80</ele>
        <time>2019-10-23T10:46:04Z</time>
      </trkpt>
      <trkpt lat="43.0863" lon="5.84469">
        <ele>80</ele>
        <time>2019-10-23T10:46:05Z</time>
      </trkpt>
      <trkpt lat="43.08626" lon="5.8447">
        <ele>81</ele>
        <time>2019-10-23T10:46:06Z</time>
      </trkpt>
      <trkpt lat="43.08622" lon="5.8447">
        <ele>81</ele>
        <time>2019-10-23T10:46:07Z</time>
      </trkpt>
      <trkpt lat="43.08618" lon="5.8447">
        <ele>81</ele>
        <time>2019-10-23T10:46:08Z</time>
      </trkpt>
      <trkpt lat="43.08613" lon="5.8447">
        <ele>82</ele>
        <time>2019-10-23T10:46:09Z</time>
      </trkpt>
      <trkpt lat="43.08609" lon="5.8447">
        <ele>83</ele>
        <time>2019-10-23T10:46:10Z</time>
      </trkpt>
      <trkpt lat="43.08605" lon="5.8447">
        <ele>83</ele>
        <time>2019-10-23T10:46:11Z</time>
      </trkpt>
      <trkpt lat="43.08601" lon="5.8447">
        <ele>84</ele>
        <time>2019-10-23T10:46:12Z</time>
      </trkpt>
      <trkpt lat="43.08597" lon="5.8447">
        <ele>85</ele>
        <time>2019-10-23T10:46:13Z</time>
      </trkpt>
      <trkpt lat="43.08593" lon="5.8447">
        <ele>85</ele>
        <time>2019-10-23T10:46:14Z</time>
      </trkpt>
      <trkpt lat="43.0859" lon="5.84471">
        <ele>86</ele>
        <time>2019-10-23T10:46:15Z</time>
      </trkpt>
      <trkpt lat="43.08586" lon="5.84471">
        <ele>86</ele>
        <time>2019-10-23T10:46:16Z</time>
      </trkpt>
      <trkpt lat="43.08582" lon="5.8447">
        <ele>86</ele>
        <time>2019-10-23T10:46:17Z</time>
      </trkpt>
      <trkpt lat="43.08579" lon="5.8447">
        <ele>86</ele>
        <time>2019-10-23T10:46:18Z</time>
      </trkpt>
      <trkpt lat="43.08575" lon="5.8447">
        <ele>87</ele>
        <time>2019-10-23T10:46:19Z</time>
      </trkpt>
      <trkpt lat="43.08571" lon="5.8447">
        <ele>87</ele>
        <time>2019-10-23T10:46:21Z</time>
      </trkpt>
      <trkpt lat="43.08567" lon="5.8447">
        <ele>87</ele>
        <time>2019-10-23T10:46:22Z</time>
      </trkpt>
      <trkpt lat="43.08563" lon="5.84471">
        <ele>88</ele>
        <time>2019-10-23T10:46:23Z</time>
      </trkpt>
      <trkpt lat="43.08559" lon="5.84471">
        <ele>88</ele>
        <time>2019-10-23T10:46:24Z</time>
      </trkpt>
      <trkpt lat="43.08556" lon="5.84471">
        <ele>89</ele>
        <time>2019-10-23T10:46:27Z</time>
      </trkpt>
      <trkpt lat="43.08552" lon="5.8447">
        <ele>89</ele>
        <time>2019-10-23T10:46:29Z</time>
      </trkpt>
      <trkpt lat="43.08549" lon="5.8447">
        <ele>90</ele>
        <time>2019-10-23T10:46:30Z</time>
      </trkpt>
      <trkpt lat="43.08545" lon="5.84469">
        <ele>90</ele>
        <time>2019-10-23T10:46:31Z</time>
      </trkpt>
      <trkpt lat="43.08542" lon="5.84468">
        <ele>90</ele>
        <time>2019-10-23T10:46:33Z</time>
      </trkpt>
      <trkpt lat="43.08538" lon="5.84467">
        <ele>91</ele>
        <time>2019-10-23T10:46:34Z</time>
      </trkpt>
      <trkpt lat="43.08535" lon="5.84466">
        <ele>92</ele>
        <time>2019-10-23T10:46:35Z</time>
      </trkpt>
      <trkpt lat="43.08532" lon="5.84465">
        <ele>92</ele>
        <time>2019-10-23T10:46:36Z</time>
      </trkpt>
      <trkpt lat="43.08526" lon="5.84462">
        <ele>93</ele>
        <time>2019-10-23T10:46:37Z</time>
      </trkpt>
      <trkpt lat="43.08523" lon="5.8446">
        <ele>93</ele>
        <time>2019-10-23T10:46:38Z</time>
      </trkpt>
      <trkpt lat="43.0852" lon="5.84458">
        <ele>93</ele>
        <time>2019-10-23T10:46:40Z</time>
      </trkpt>
      <trkpt lat="43.08517" lon="5.84457">
        <ele>94</ele>
        <time>2019-10-23T10:46:41Z</time>
      </trkpt>
      <trkpt lat="43.08514" lon="5.84455">
        <ele>94</ele>
        <time>2019-10-23T10:46:42Z</time>
      </trkpt>
      <trkpt lat="43.08512" lon="5.84452">
        <ele>94</ele>
        <time>2019-10-23T10:46:43Z</time>
      </trkpt>
      <trkpt lat="43.08509" lon="5.8445">
        <ele>94</ele>
        <time>2019-10-23T10:46:44Z</time>
      </trkpt>
      <trkpt lat="43.08507" lon="5.84447">
        <ele>95</ele>
        <time>2019-10-23T10:46:45Z</time>
      </trkpt>
      <trkpt lat="43.08504" lon="5.84445">
        <ele>95</ele>
        <time>2019-10-23T10:46:46Z</time>
      </trkpt>
      <trkpt lat="43.08502" lon="5.84442">
        <ele>96</ele>
        <time>2019-10-23T10:46:47Z</time>
      </trkpt>
      <trkpt lat="43.085" lon="5.84439">
        <ele>96</ele>
        <time>2019-10-23T10:46:49Z</time>
      </trkpt>
      <trkpt lat="43.08498" lon="5.84436">
        <ele>97</ele>
        <time>2019-10-23T10:47:18Z</time>
      </trkpt>
      <trkpt lat="43.08496" lon="5.84433">
        <ele>97</ele>
        <time>2019-10-23T10:47:19Z</time>
      </trkpt>
      <trkpt lat="43.08494" lon="5.8443">
        <ele>98</ele>
        <time>2019-10-23T10:47:21Z</time>
      </trkpt>
      <trkpt lat="43.08492" lon="5.84426">
        <ele>98</ele>
        <time>2019-10-23T10:47:22Z</time>
      </trkpt>
      <trkpt lat="43.0849" lon="5.84423">
        <ele>98</ele>
        <time>2019-10-23T10:47:23Z</time>
      </trkpt>
      <trkpt lat="43.08488" lon="5.84419">
        <ele>99</ele>
        <time>2019-10-23T10:47:24Z</time>
      </trkpt>
      <trkpt lat="43.08486" lon="5.84414">
        <ele>99</ele>
        <time>2019-10-23T10:47:25Z</time>
      </trkpt>
      <trkpt lat="43.08483" lon="5.84406">
        <ele>100</ele>
        <time>2019-10-23T10:47:32Z</time>
      </trkpt>
      <trkpt lat="43.08479" lon="5.844">
        <ele>100</ele>
        <time>2019-10-23T10:47:33Z</time>
      </trkpt>
      <trkpt lat="43.08477" lon="5.84394">
        <ele>100</ele>
        <time>2019-10-23T10:47:39Z</time>
      </trkpt>
      <trkpt lat="43.08474" lon="5.84389">
        <ele>100</ele>
        <time>2019-10-23T08:47:54Z</time>
      </trkpt>
      <trkpt lat="43.08472" lon="5.84379">
        <ele>99</ele>
        <time>2019-10-23T08:47:56Z</time>
      </trkpt>
      <trkpt lat="43.08473" lon="5.84372">
        <ele>98</ele>
        <time>2019-10-23T08:47:58Z</time>
      </trkpt>
      <trkpt lat="43.08475" lon="5.84368">
        <ele>97</ele>
        <time>2019-10-23T08:47:59Z</time>
      </trkpt>
      <trkpt lat="43.08478" lon="5.84365">
        <ele>97</ele>
        <time>2019-10-23T08:48:00Z</time>
      </trkpt>
      <trkpt lat="43.08485" lon="5.84365">
        <ele>97</ele>
        <time>2019-10-23T08:48:01Z</time>
      </trkpt>
      <trkpt lat="43.0849" lon="5.84367">
        <ele>96</ele>
        <time>2019-10-23T08:48:02Z</time>
      </trkpt>
      <trkpt lat="43.08495" lon="5.84371">
        <ele>96</ele>
        <time>2019-10-23T08:48:03Z</time>
      </trkpt>
      <trkpt lat="43.085" lon="5.84375">
        <ele>95</ele>
        <time>2019-10-23T08:48:04Z</time>
      </trkpt>
      <trkpt lat="43.08505" lon="5.84379">
        <ele>95</ele>
        <time>2019-10-23T08:48:05Z</time>
      </trkpt>
      <trkpt lat="43.0851" lon="5.84382">
        <ele>94</ele>
        <time>2019-10-23T08:48:07Z</time>
      </trkpt>
      <trkpt lat="43.08515" lon="5.84385">
        <ele>93</ele>
        <time>2019-10-23T08:48:09Z</time>
      </trkpt>
      <trkpt lat="43.08522" lon="5.84386">
        <ele>93</ele>
        <time>2019-10-23T08:48:11Z</time>
      </trkpt>
      <trkpt lat="43.08528" lon="5.84385">
        <ele>92</ele>
        <time>2019-10-23T08:48:12Z</time>
      </trkpt>
      <trkpt lat="43.08535" lon="5.84384">
        <ele>92</ele>
        <time>2019-10-23T08:48:13Z</time>
      </trkpt>
      <trkpt lat="43.08543" lon="5.84382">
        <ele>91</ele>
        <time>2019-10-23T08:48:14Z</time>
      </trkpt>
      <trkpt lat="43.0855" lon="5.8438">
        <ele>91</ele>
        <time>2019-10-23T08:48:15Z</time>
      </trkpt>
      <trkpt lat="43.08555" lon="5.84378">
        <ele>90</ele>
        <time>2019-10-23T08:48:16Z</time>
      </trkpt>
      <trkpt lat="43.08559" lon="5.84377">
        <ele>89</ele>
        <time>2019-10-23T08:48:17Z</time>
      </trkpt>
      <trkpt lat="43.08562" lon="5.84375">
        <ele>88</ele>
        <time>2019-10-23T08:48:18Z</time>
      </trkpt>
      <trkpt lat="43.08562" lon="5.84368">
        <ele>87</ele>
        <time>2019-10-23T08:48:19Z</time>
      </trkpt>
      <trkpt lat="43.08563" lon="5.84363">
        <ele>87</ele>
        <time>2019-10-23T08:48:20Z</time>
      </trkpt>
      <trkpt lat="43.08564" lon="5.8436">
        <ele>86</ele>
        <time>2019-10-23T08:48:21Z</time>
      </trkpt>
      <trkpt lat="43.08565" lon="5.84359">
        <ele>86</ele>
        <time>2019-10-23T08:48:22Z</time>
      </trkpt>
      <trkpt lat="43.08564" lon="5.84359">
        <ele>86</ele>
        <time>2019-10-23T08:48:23Z</time>
      </trkpt>
      <trkpt lat="43.08564" lon="5.84358">
        <ele>86</ele>
        <time>2019-10-23T08:48:24Z</time>
      </trkpt>
      <trkpt lat="43.08563" lon="5.84358">
        <ele>85</ele>
        <time>2019-10-23T08:48:26Z</time>
      </trkpt>
      <trkpt lat="43.08564" lon="5.84358">
        <ele>85</ele>
        <time>2019-10-23T08:48:27Z</time>
      </trkpt>
      <trkpt lat="43.08564" lon="5.84358">
        <ele>85</ele>
        <time>2019-10-23T08:48:29Z</time>
      </trkpt>
      <trkpt lat="43.08564" lon="5.84361">
        <ele>86</ele>
        <time>2019-10-23T08:48:31Z</time>
      </trkpt>
      <trkpt lat="43.08568" lon="5.84364">
        <ele>60</ele>
        <time>2019-10-23T08:48:33Z</time>
      </trkpt>
      <trkpt lat="43.08568" lon="5.84368">
        <ele>61</ele>
        <time>2019-10-23T08:48:34Z</time>
      </trkpt>
      <trkpt lat="43.08565" lon="5.8437">
        <ele>61</ele>
        <time>2019-10-23T08:48:35Z</time>
      </trkpt>
      <trkpt lat="43.08562" lon="5.84372">
        <ele>61</ele>
        <time>2019-10-23T08:48:36Z</time>
      </trkpt>
      <trkpt lat="43.08559" lon="5.84373">
        <ele>61</ele>
        <time>2019-10-23T08:48:37Z</time>
      </trkpt>
      <trkpt lat="43.08555" lon="5.84373">
        <ele>61</ele>
        <time>2019-10-23T08:48:38Z</time>
      </trkpt>
      <trkpt lat="43.08548" lon="5.84375">
        <ele>62</ele>
        <time>2019-10-23T08:48:39Z</time>
      </trkpt>
      <trkpt lat="43.08545" lon="5.84376">
        <ele>62</ele>
        <time>2019-10-23T08:48:40Z</time>
      </trkpt>
      <trkpt lat="43.08542" lon="5.84377">
        <ele>62</ele>
        <time>2019-10-23T08:48:41Z</time>
      </trkpt>
      <trkpt lat="43.08539" lon="5.84377">
        <ele>63</ele>
        <time>2019-10-23T08:48:42Z</time>
      </trkpt>
      <trkpt lat="43.08535" lon="5.84378">
        <ele>63</ele>
        <time>2019-10-23T08:48:43Z</time>
      </trkpt>
      <trkpt lat="43.0853" lon="5.84379">
        <ele>63</ele>
        <time>2019-10-23T08:48:45Z</time>
      </trkpt>
      <trkpt lat="43.08524" lon="5.8438">
        <ele>64</ele>
        <time>2019-10-23T08:48:46Z</time>
      </trkpt>
      <trkpt lat="43.0852" lon="5.84381">
        <ele>64</ele>
        <time>2019-10-23T08:48:47Z</time>
      </trkpt>
      <trkpt lat="43.08517" lon="5.84381">
        <ele>64</ele>
        <time>2019-10-23T08:48:48Z</time>
      </trkpt>
      <trkpt lat="43.08514" lon="5.84379">
        <ele>65</ele>
        <time>2019-10-23T08:48:49Z</time>
      </trkpt>
      <trkpt lat="43.08511" lon="5.84377">
        <ele>65</ele>
        <time>2019-10-23T08:48:50Z</time>
      </trkpt>
      <trkpt lat="43.08508" lon="5.84375">
        <ele>65</ele>
        <time>2019-10-23T08:48:51Z</time>
      </trkpt>
      <trkpt lat="43.08505" lon="5.84373">
        <ele>66</ele>
        <time>2019-10-23T08:48:52Z</time>
      </trkpt>
      <trkpt lat="43.08503" lon="5.84371">
        <ele>66</ele>
        <time>2019-10-23T08:48:53Z</time>
      </trkpt>
      <trkpt lat="43.085" lon="5.84369">
        <ele>66</ele>
        <time>2019-10-23T08:48:54Z</time>
      </trkpt>
      <trkpt lat="43.08498" lon="5.84366">
        <ele>66</ele>
        <time>2019-10-23T08:48:55Z</time>
      </trkpt>
      <trkpt lat="43.08495" lon="5.84364">
        <ele>67</ele>
        <time>2019-10-23T08:48:56Z</time>
      </trkpt>
      <trkpt lat="43.08493" lon="5.84361">
        <ele>67</ele>
        <time>2019-10-23T08:48:57Z</time>
      </trkpt>
      <trkpt lat="43.0849" lon="5.8436">
        <ele>67</ele>
        <time>2019-10-23T08:48:58Z</time>
      </trkpt>
      <trkpt lat="43.08487" lon="5.84358">
        <ele>68</ele>
        <time>2019-10-23T08:48:59Z</time>
      </trkpt>
      <trkpt lat="43.08483" lon="5.84357">
        <ele>68</ele>
        <time>2019-10-23T08:49:00Z</time>
      </trkpt>
      <trkpt lat="43.0848" lon="5.84357">
        <ele>69</ele>
        <time>2019-10-23T08:49:01Z</time>
      </trkpt>
      <trkpt lat="43.08475" lon="5.84358">
        <ele>69</ele>
        <time>2019-10-23T08:49:03Z</time>
      </trkpt>
      <trkpt lat="43.08471" lon="5.84361">
        <ele>70</ele>
        <time>2019-10-23T08:49:04Z</time>
      </trkpt>
      <trkpt lat="43.08468" lon="5.84366">
        <ele>71</ele>
        <time>2019-10-23T08:49:05Z</time>
      </trkpt>
      <trkpt lat="43.08467" lon="5.8437">
        <ele>71</ele>
        <time>2019-10-23T08:49:06Z</time>
      </trkpt>
      <trkpt lat="43.08467" lon="5.84374">
        <ele>71</ele>
        <time>2019-10-23T08:49:07Z</time>
      </trkpt>
      <trkpt lat="43.08468" lon="5.84378">
        <ele>72</ele>
        <time>2019-10-23T08:49:08Z</time>
      </trkpt>
      <trkpt lat="43.0847" lon="5.84381">
        <ele>72</ele>
        <time>2019-10-23T08:49:09Z</time>
      </trkpt>
      <trkpt lat="43.08472" lon="5.84385">
        <ele>72</ele>
        <time>2019-10-23T08:49:10Z</time>
      </trkpt>
      <trkpt lat="43.08474" lon="5.84389">
        <ele>72</ele>
        <time>2019-10-23T08:49:11Z</time>
      </trkpt>
      <trkpt lat="43.08475" lon="5.84393">
        <ele>73</ele>
        <time>2019-10-23T08:49:12Z</time>
      </trkpt>
      <trkpt lat="43.08477" lon="5.84396">
        <ele>73</ele>
        <time>2019-10-23T08:49:13Z</time>
      </trkpt>
      <trkpt lat="43.08478" lon="5.844">
        <ele>73</ele>
        <time>2019-10-23T08:49:14Z</time>
      </trkpt>
      <trkpt lat="43.0848" lon="5.84403">
        <ele>74</ele>
        <time>2019-10-23T08:49:15Z</time>
      </trkpt>
      <trkpt lat="43.08483" lon="5.84408">
        <ele>74</ele>
        <time>2019-10-23T08:49:16Z</time>
      </trkpt>
      <trkpt lat="43.08485" lon="5.84412">
        <ele>74</ele>
        <time>2019-10-23T08:49:17Z</time>
      </trkpt>
      <trkpt lat="43.08486" lon="5.84416">
        <ele>75</ele>
        <time>2019-10-23T08:49:18Z</time>
      </trkpt>
      <trkpt lat="43.08488" lon="5.8442">
        <ele>75</ele>
        <time>2019-10-23T08:49:19Z</time>
      </trkpt>
      <trkpt lat="43.0849" lon="5.84424">
        <ele>75</ele>
        <time>2019-10-23T08:49:20Z</time>
      </trkpt>
      <trkpt lat="43.08493" lon="5.84429">
        <ele>75</ele>
        <time>2019-10-23T08:49:21Z</time>
      </trkpt>
      <trkpt lat="43.08496" lon="5.84433">
        <ele>75</ele>
        <time>2019-10-23T08:49:22Z</time>
      </trkpt>
      <trkpt lat="43.08499" lon="5.84438">
        <ele>76</ele>
        <time>2019-10-23T08:49:23Z</time>
      </trkpt>
      <trkpt lat="43.08503" lon="5.84443">
        <ele>76</ele>
        <time>2019-10-23T08:49:24Z</time>
      </trkpt>
      <trkpt lat="43.08507" lon="5.84448">
        <ele>76</ele>
        <time>2019-10-23T08:49:25Z</time>
      </trkpt>
      <trkpt lat="43.08511" lon="5.84453">
        <ele>76</ele>
        <time>2019-10-23T08:49:26Z</time>
      </trkpt>
      <trkpt lat="43.08518" lon="5.84458">
        <ele>76</ele>
        <time>2019-10-23T08:49:27Z</time>
      </trkpt>
      <trkpt lat="43.08524" lon="5.84463">
        <ele>75</ele>
        <time>2019-10-23T08:49:28Z</time>
      </trkpt>
      <trkpt lat="43.08531" lon="5.84467">
        <ele>74</ele>
        <time>2019-10-23T08:49:29Z</time>
      </trkpt>
      <trkpt lat="43.08538" lon="5.8447">
        <ele>73</ele>
        <time>2019-10-23T08:49:30Z</time>
      </trkpt>
      <trkpt lat="43.08548" lon="5.84471">
        <ele>73</ele>
        <time>2019-10-23T08:49:31Z</time>
      </trkpt>
      <trkpt lat="43.08557" lon="5.84472">
        <ele>72</ele>
        <time>2019-10-23T08:49:33Z</time>
      </trkpt>
      <trkpt lat="43.08568" lon="5.84474">
        <ele>71</ele>
        <time>2019-10-23T08:49:35Z</time>
      </trkpt>
      <trkpt lat="43.08578" lon="5.84474">
        <ele>70</ele>
        <time>2019-10-23T08:49:36Z</time>
      </trkpt>
      <trkpt lat="43.08588" lon="5.84473">
        <ele>70</ele>
        <time>2019-10-23T08:49:37Z</time>
      </trkpt>
      <trkpt lat="43.08597" lon="5.84473">
        <ele>69</ele>
        <time>2019-10-23T08:49:38Z</time>
      </trkpt>
      <trkpt lat="43.08606" lon="5.84472">
        <ele>68</ele>
        <time>2019-10-23T08:49:39Z</time>
      </trkpt>
      <trkpt lat="43.08615" lon="5.84472">
        <ele>66</ele>
        <time>2019-10-23T08:49:40Z</time>
      </trkpt>
      <trkpt lat="43.08625" lon="5.84471">
        <ele>65</ele>
        <time>2019-10-23T08:49:41Z</time>
      </trkpt>
      <trkpt lat="43.08635" lon="5.8447">
        <ele>63</ele>
        <time>2019-10-23T08:49:42Z</time>
      </trkpt>
      <trkpt lat="43.08644" lon="5.84467">
        <ele>62</ele>
        <time>2019-10-23T08:49:43Z</time>
      </trkpt>
      <trkpt lat="43.08653" lon="5.84464">
        <ele>60</ele>
        <time>2019-10-23T08:49:44Z</time>
      </trkpt>
      <trkpt lat="43.08662" lon="5.84461">
        <ele>59</ele>
        <time>2019-10-23T08:49:45Z</time>
      </trkpt>
      <trkpt lat="43.08669" lon="5.84458">
        <ele>58</ele>
        <time>2019-10-23T08:49:46Z</time>
      </trkpt>
      <trkpt lat="43.08677" lon="5.84455">
        <ele>58</ele>
        <time>2019-10-23T08:49:47Z</time>
      </trkpt>
      <trkpt lat="43.08683" lon="5.84452">
        <ele>57</ele>
        <time>2019-10-23T08:49:48Z</time>
      </trkpt>
      <trkpt lat="43.08689" lon="5.84449">
        <ele>56</ele>
        <time>2019-10-23T08:49:49Z</time>
      </trkpt>
      <trkpt lat="43.08694" lon="5.84446">
        <ele>55</ele>
        <time>2019-10-23T08:49:50Z</time>
      </trkpt>
      <trkpt lat="43.08699" lon="5.84445">
        <ele>54</ele>
        <time>2019-10-23T08:49:51Z</time>
      </trkpt>
      <trkpt lat="43.08704" lon="5.84446">
        <ele>53</ele>
        <time>2019-10-23T08:49:52Z</time>
      </trkpt>
      <trkpt lat="43.08709" lon="5.84448">
        <ele>52</ele>
        <time>2019-10-23T08:49:53Z</time>
      </trkpt>
      <trkpt lat="43.08712" lon="5.84454">
        <ele>52</ele>
        <time>2019-10-23T08:49:54Z</time>
      </trkpt>
      <trkpt lat="43.08714" lon="5.84461">
        <ele>52</ele>
        <time>2019-10-23T08:49:55Z</time>
      </trkpt>
      <trkpt lat="43.08715" lon="5.84468">
        <ele>52</ele>
        <time>2019-10-23T08:49:56Z</time>
      </trkpt>
      <trkpt lat="43.08715" lon="5.84474">
        <ele>52</ele>
        <time>2019-10-23T08:49:57Z</time>
      </trkpt>
      <trkpt lat="43.08714" lon="5.84481">
        <ele>52</ele>
        <time>2019-10-23T08:49:58Z</time>
      </trkpt>
      <trkpt lat="43.08713" lon="5.84487">
        <ele>52</ele>
        <time>2019-10-23T08:49:59Z</time>
      </trkpt>
      <trkpt lat="43.08712" lon="5.84493">
        <ele>52</ele>
        <time>2019-10-23T08:50:00Z</time>
      </trkpt>
      <trkpt lat="43.08712" lon="5.84498">
        <ele>52</ele>
        <time>2019-10-23T08:50:01Z</time>
      </trkpt>
      <trkpt lat="43.0871" lon="5.84504">
        <ele>51</ele>
        <time>2019-10-23T08:50:02Z</time>
      </trkpt>
      <trkpt lat="43.08709" lon="5.84509">
        <ele>51</ele>
        <time>2019-10-23T08:50:03Z</time>
      </trkpt>
      <trkpt lat="43.0871" lon="5.84516">
        <ele>51</ele>
        <time>2019-10-23T08:50:04Z</time>
      </trkpt>
      <trkpt lat="43.08711" lon="5.84525">
        <ele>51</ele>
        <time>2019-10-23T08:50:05Z</time>
      </trkpt>
      <trkpt lat="43.08711" lon="5.84531">
        <ele>51</ele>
        <time>2019-10-23T08:50:06Z</time>
      </trkpt>
      <trkpt lat="43.08711" lon="5.84537">
        <ele>51</ele>
        <time>2019-10-23T08:50:07Z</time>
      </trkpt>
      <trkpt lat="43.08711" lon="5.84542">
        <ele>51</ele>
        <time>2019-10-23T08:50:08Z</time>
      </trkpt>
      <trkpt lat="43.08712" lon="5.84547">
        <ele>51</ele>
        <time>2019-10-23T08:50:09Z</time>
      </trkpt>
      <trkpt lat="43.08713" lon="5.84551">
        <ele>52</ele>
        <time>2019-10-23T08:50:10Z</time>
      </trkpt>
      <trkpt lat="43.08714" lon="5.84555">
        <ele>52</ele>
        <time>2019-10-23T08:50:11Z</time>
      </trkpt>
      <trkpt lat="43.08715" lon="5.8456">
        <ele>52</ele>
        <time>2019-10-23T08:50:12Z</time>
      </trkpt>
      <trkpt lat="43.08715" lon="5.84565">
        <ele>52</ele>
        <time>2019-10-23T08:50:13Z</time>
      </trkpt>
      <trkpt lat="43.08716" lon="5.8457">
        <ele>52</ele>
        <time>2019-10-23T08:50:14Z</time>
      </trkpt>
      <trkpt lat="43.08716" lon="5.84575">
        <ele>52</ele>
        <time>2019-10-23T08:50:15Z</time>
      </trkpt>
      <trkpt lat="43.08717" lon="5.84581">
        <ele>52</ele>
        <time>2019-10-23T08:50:16Z</time>
      </trkpt>
      <trkpt lat="43.08718" lon="5.84586">
        <ele>52</ele>
        <time>2019-10-23T08:50:17Z</time>
      </trkpt>
      <trkpt lat="43.08721" lon="5.84592">
        <ele>52</ele>
        <time>2019-10-23T08:50:18Z</time>
      </trkpt>
      <trkpt lat="43.08722" lon="5.84597">
        <ele>52</ele>
        <time>2019-10-23T08:50:19Z</time>
      </trkpt>
      <trkpt lat="43.08725" lon="5.84603">
        <ele>52</ele>
        <time>2019-10-23T08:50:20Z</time>
      </trkpt>
      <trkpt lat="43.08726" lon="5.84609">
        <ele>52</ele>
        <time>2019-10-23T08:50:21Z</time>
      </trkpt>
      <trkpt lat="43.08729" lon="5.84615">
        <ele>51</ele>
        <time>2019-10-23T08:50:22Z</time>
      </trkpt>
      <trkpt lat="43.08731" lon="5.84621">
        <ele>51</ele>
        <time>2019-10-23T08:50:23Z</time>
      </trkpt>
      <trkpt lat="43.08734" lon="5.84626">
        <ele>51</ele>
        <time>2019-10-23T08:50:24Z</time>
      </trkpt>
      <trkpt lat="43.08737" lon="5.84631">
        <ele>51</ele>
        <time>2019-10-23T08:50:25Z</time>
      </trkpt>
      <trkpt lat="43.08742" lon="5.84637">
        <ele>50</ele>
        <time>2019-10-23T08:50:26Z</time>
      </trkpt>
      <trkpt lat="43.08746" lon="5.84643">
        <ele>50</ele>
        <time>2019-10-23T08:50:27Z</time>
      </trkpt>
      <trkpt lat="43.0875" lon="5.84649">
        <ele>50</ele>
        <time>2019-10-23T08:50:28Z</time>
      </trkpt>
      <trkpt lat="43.08754" lon="5.84654">
        <ele>50</ele>
        <time>2019-10-23T08:50:29Z</time>
      </trkpt>
      <trkpt lat="43.08758" lon="5.8466">
        <ele>50</ele>
        <time>2019-10-23T08:50:30Z</time>
      </trkpt>
      <trkpt lat="43.08762" lon="5.84665">
        <ele>50</ele>
        <time>2019-10-23T08:50:31Z</time>
      </trkpt>
      <trkpt lat="43.08766" lon="5.8467">
        <ele>50</ele>
        <time>2019-10-23T08:50:32Z</time>
      </trkpt>
      <trkpt lat="43.0877" lon="5.84675">
        <ele>50</ele>
        <time>2019-10-23T08:50:33Z</time>
      </trkpt>
      <trkpt lat="43.08774" lon="5.8468">
        <ele>49</ele>
        <time>2019-10-23T08:50:34Z</time>
      </trkpt>
      <trkpt lat="43.08778" lon="5.84686">
        <ele>49</ele>
        <time>2019-10-23T08:50:35Z</time>
      </trkpt>
      <trkpt lat="43.08782" lon="5.84692">
        <ele>49</ele>
        <time>2019-10-23T08:50:36Z</time>
      </trkpt>
      <trkpt lat="43.08786" lon="5.84697">
        <ele>48</ele>
        <time>2019-10-23T08:50:37Z</time>
      </trkpt>
      <trkpt lat="43.08789" lon="5.84703">
        <ele>48</ele>
        <time>2019-10-23T08:50:38Z</time>
      </trkpt>
      <trkpt lat="43.08793" lon="5.84708">
        <ele>48</ele>
        <time>2019-10-23T08:50:39Z</time>
      </trkpt>
      <trkpt lat="43.08797" lon="5.84712">
        <ele>47</ele>
        <time>2019-10-23T08:50:41Z</time>
      </trkpt>
      <trkpt lat="43.088" lon="5.84717">
        <ele>47</ele>
        <time>2019-10-23T08:50:42Z</time>
      </trkpt>
      <trkpt lat="43.08804" lon="5.84721">
        <ele>47</ele>
        <time>2019-10-23T08:50:43Z</time>
      </trkpt>
      <trkpt lat="43.08807" lon="5.84726">
        <ele>47</ele>
        <time>2019-10-23T08:50:44Z</time>
      </trkpt>
      <trkpt lat="43.08811" lon="5.84731">
        <ele>47</ele>
        <time>2019-10-23T08:50:45Z</time>
      </trkpt>
      <trkpt lat="43.08816" lon="5.84737">
        <ele>46</ele>
        <time>2019-10-23T08:50:46Z</time>
      </trkpt>
      <trkpt lat="43.08821" lon="5.84742">
        <ele>46</ele>
        <time>2019-10-23T08:50:47Z</time>
      </trkpt>
      <trkpt lat="43.08828" lon="5.84747">
        <ele>45</ele>
        <time>2019-10-23T08:50:48Z</time>
      </trkpt>
      <trkpt lat="43.08834" lon="5.84751">
        <ele>45</ele>
        <time>2019-10-23T08:50:49Z</time>
      </trkpt>
      <trkpt lat="43.0884" lon="5.84754">
        <ele>44</ele>
        <time>2019-10-23T08:50:50Z</time>
      </trkpt>
      <trkpt lat="43.08846" lon="5.84756">
        <ele>44</ele>
        <time>2019-10-23T08:50:51Z</time>
      </trkpt>
      <trkpt lat="43.08853" lon="5.84758">
        <ele>44</ele>
        <time>2019-10-23T08:50:52Z</time>
      </trkpt>
      <trkpt lat="43.08859" lon="5.84759">
        <ele>44</ele>
        <time>2019-10-23T08:50:53Z</time>
      </trkpt>
      <trkpt lat="43.08867" lon="5.8476">
        <ele>43</ele>
        <time>2019-10-23T08:50:54Z</time>
      </trkpt>
      <trkpt lat="43.08874" lon="5.84761">
        <ele>43</ele>
        <time>2019-10-23T08:50:55Z</time>
      </trkpt>
      <trkpt lat="43.0888" lon="5.84761">
        <ele>43</ele>
        <time>2019-10-23T08:50:56Z</time>
      </trkpt>
      <trkpt lat="43.08886" lon="5.84761">
        <ele>42</ele>
        <time>2019-10-23T08:50:57Z</time>
      </trkpt>
      <trkpt lat="43.08891" lon="5.84762">
        <ele>41</ele>
        <time>2019-10-23T08:50:58Z</time>
      </trkpt>
      <trkpt lat="43.08896" lon="5.84765">
        <ele>41</ele>
        <time>2019-10-23T08:50:59Z</time>
      </trkpt>
      <trkpt lat="43.08901" lon="5.84768">
        <ele>40</ele>
        <time>2019-10-23T08:51:00Z</time>
      </trkpt>
      <trkpt lat="43.08903" lon="5.84772">
        <ele>40</ele>
        <time>2019-10-23T08:51:01Z</time>
      </trkpt>
      <trkpt lat="43.08905" lon="5.84777">
        <ele>39</ele>
        <time>2019-10-23T08:51:02Z</time>
      </trkpt>
      <trkpt lat="43.08907" lon="5.84782">
        <ele>39</ele>
        <time>2019-10-23T08:51:03Z</time>
      </trkpt>
      <trkpt lat="43.08909" lon="5.84788">
        <ele>39</ele>
        <time>2019-10-23T08:51:04Z</time>
      </trkpt>
      <trkpt lat="43.08911" lon="5.84794">
        <ele>39</ele>
        <time>2019-10-23T08:51:05Z</time>
      </trkpt>
      <trkpt lat="43.08912" lon="5.848">
        <ele>39</ele>
        <time>2019-10-23T08:51:06Z</time>
      </trkpt>
      <trkpt lat="43.08913" lon="5.84806">
        <ele>39</ele>
        <time>2019-10-23T08:51:08Z</time>
      </trkpt>
      <trkpt lat="43.08914" lon="5.84811">
        <ele>40</ele>
        <time>2019-10-23T08:51:10Z</time>
      </trkpt>
      <trkpt lat="43.08915" lon="5.84816">
        <ele>40</ele>
        <time>2019-10-23T08:51:12Z</time>
      </trkpt>
      <trkpt lat="43.08916" lon="5.84821">
        <ele>40</ele>
        <time>2019-10-23T08:51:14Z</time>
      </trkpt>
      <trkpt lat="43.08919" lon="5.84825">
        <ele>40</ele>
        <time>2019-10-23T08:51:15Z</time>
      </trkpt>
      <trkpt lat="43.08922" lon="5.84828">
        <ele>40</ele>
        <time>2019-10-23T08:51:16Z</time>
      </trkpt>
      <trkpt lat="43.08925" lon="5.8483">
        <ele>40</ele>
        <time>2019-10-23T08:51:17Z</time>
      </trkpt>
      <trkpt lat="43.08928" lon="5.84831">
        <ele>40</ele>
        <time>2019-10-23T08:51:18Z</time>
      </trkpt>
      <trkpt lat="43.08932" lon="5.84832">
        <ele>40</ele>
        <time>2019-10-23T08:51:19Z</time>
      </trkpt>
      <trkpt lat="43.08937" lon="5.84833">
        <ele>39</ele>
        <time>2019-10-23T08:51:20Z</time>
      </trkpt>
      <trkpt lat="43.08941" lon="5.84835">
        <ele>39</ele>
        <time>2019-10-23T08:51:21Z</time>
      </trkpt>
      <trkpt lat="43.08946" lon="5.84836">
        <ele>38</ele>
        <time>2019-10-23T08:51:22Z</time>
      </trkpt>
      <trkpt lat="43.08951" lon="5.84838">
        <ele>38</ele>
        <time>2019-10-23T08:51:23Z</time>
      </trkpt>
      <trkpt lat="43.08956" lon="5.8484">
        <ele>38</ele>
        <time>2019-10-23T08:51:24Z</time>
      </trkpt>
      <trkpt lat="43.08962" lon="5.84842">
        <ele>37</ele>
        <time>2019-10-23T08:51:25Z</time>
      </trkpt>
      <trkpt lat="43.08968" lon="5.84844">
        <ele>37</ele>
        <time>2019-10-23T08:51:26Z</time>
      </trkpt>
      <trkpt lat="43.08973" lon="5.84846">
        <ele>38</ele>
        <time>2019-10-23T08:51:27Z</time>
      </trkpt>
      <trkpt lat="43.08979" lon="5.84848">
        <ele>38</ele>
        <time>2019-10-23T08:51:28Z</time>
      </trkpt>
      <trkpt lat="43.08985" lon="5.8485">
        <ele>38</ele>
        <time>2019-10-23T08:51:29Z</time>
      </trkpt>
      <trkpt lat="43.08991" lon="5.84852">
        <ele>38</ele>
        <time>2019-10-23T08:51:30Z</time>
      </trkpt>
      <trkpt lat="43.08998" lon="5.84855">
        <ele>38</ele>
        <time>2019-10-23T08:51:31Z</time>
      </trkpt>
      <trkpt lat="43.09004" lon="5.84859">
        <ele>37</ele>
        <time>2019-10-23T08:51:32Z</time>
      </trkpt>
      <trkpt lat="43.0901" lon="5.84861">
        <ele>37</ele>
        <time>2019-10-23T08:51:33Z</time>
      </trkpt>
      <trkpt lat="43.09015" lon="5.84864">
        <ele>36</ele>
        <time>2019-10-23T08:51:34Z</time>
      </trkpt>
      <trkpt lat="43.0902" lon="5.84867">
        <ele>36</ele>
        <time>2019-10-23T08:51:35Z</time>
      </trkpt>
      <trkpt lat="43.09026" lon="5.84872">
        <ele>35</ele>
        <time>2019-10-23T08:51:36Z</time>
      </trkpt>
      <trkpt lat="43.09031" lon="5.84876">
        <ele>35</ele>
        <time>2019-10-23T08:51:37Z</time>
      </trkpt>
      <trkpt lat="43.09034" lon="5.8488">
        <ele>35</ele>
        <time>2019-10-23T08:51:38Z</time>
      </trkpt>
      <trkpt lat="43.09037" lon="5.84883">
        <ele>35</ele>
        <time>2019-10-23T08:51:39Z</time>
      </trkpt>
      <trkpt lat="43.09039" lon="5.84885">
        <ele>35</ele>
        <time>2019-10-23T08:51:40Z</time>
      </trkpt>
      <trkpt lat="43.09042" lon="5.84889">
        <ele>34</ele>
        <time>2019-10-23T08:51:41Z</time>
      </trkpt>
      <trkpt lat="43.09044" lon="5.84894">
        <ele>34</ele>
        <time>2019-10-23T08:51:42Z</time>
      </trkpt>
      <trkpt lat="43.09047" lon="5.84897">
        <ele>33</ele>
        <time>2019-10-23T08:51:43Z</time>
      </trkpt>
      <trkpt lat="43.0905" lon="5.84902">
        <ele>33</ele>
        <time>2019-10-23T08:51:44Z</time>
      </trkpt>
      <trkpt lat="43.09052" lon="5.84905">
        <ele>33</ele>
        <time>2019-10-23T08:51:45Z</time>
      </trkpt>
      <trkpt lat="43.09054" lon="5.84909">
        <ele>34</ele>
        <time>2019-10-23T08:51:46Z</time>
      </trkpt>
      <trkpt lat="43.09055" lon="5.84914">
        <ele>34</ele>
        <time>2019-10-23T08:51:47Z</time>
      </trkpt>
      <trkpt lat="43.09055" lon="5.84918">
        <ele>35</ele>
        <time>2019-10-23T08:51:48Z</time>
      </trkpt>
      <trkpt lat="43.09057" lon="5.84923">
        <ele>35</ele>
        <time>2019-10-23T08:51:49Z</time>
      </trkpt>
      <trkpt lat="43.09059" lon="5.84927">
        <ele>36</ele>
        <time>2019-10-23T08:51:50Z</time>
      </trkpt>
      <trkpt lat="43.09061" lon="5.84931">
        <ele>36</ele>
        <time>2019-10-23T08:51:51Z</time>
      </trkpt>
      <trkpt lat="43.09064" lon="5.84933">
        <ele>36</ele>
        <time>2019-10-23T08:51:52Z</time>
      </trkpt>
      <trkpt lat="43.09067" lon="5.84934">
        <ele>36</ele>
        <time>2019-10-23T08:51:53Z</time>
      </trkpt>
      <trkpt lat="43.09071" lon="5.84934">
        <ele>36</ele>
        <time>2019-10-23T08:51:54Z</time>
      </trkpt>
      <trkpt lat="43.09075" lon="5.84934">
        <ele>36</ele>
        <time>2019-10-23T08:51:55Z</time>
      </trkpt>
      <trkpt lat="43.0908" lon="5.84934">
        <ele>35</ele>
        <time>2019-10-23T08:51:56Z</time>
      </trkpt>
      <trkpt lat="43.09083" lon="5.84934">
        <ele>35</ele>
        <time>2019-10-23T08:51:57Z</time>
      </trkpt>
      <trkpt lat="43.09087" lon="5.84935">
        <ele>35</ele>
        <time>2019-10-23T08:51:58Z</time>
      </trkpt>
      <trkpt lat="43.09091" lon="5.84937">
        <ele>35</ele>
        <time>2019-10-23T08:51:59Z</time>
      </trkpt>
      <trkpt lat="43.09096" lon="5.84938">
        <ele>35</ele>
        <time>2019-10-23T08:52:00Z</time>
      </trkpt>
      <trkpt lat="43.09099" lon="5.8494">
        <ele>35</ele>
        <time>2019-10-23T08:52:01Z</time>
      </trkpt>
      <trkpt lat="43.09103" lon="5.84941">
        <ele>35</ele>
        <time>2019-10-23T08:52:02Z</time>
      </trkpt>
      <trkpt lat="43.09107" lon="5.84944">
        <ele>35</ele>
        <time>2019-10-23T08:52:03Z</time>
      </trkpt>
      <trkpt lat="43.09109" lon="5.84947">
        <ele>35</ele>
        <time>2019-10-23T08:52:04Z</time>
      </trkpt>
      <trkpt lat="43.09113" lon="5.84952">
        <ele>35</ele>
        <time>2019-10-23T08:52:05Z</time>
      </trkpt>
      <trkpt lat="43.09114" lon="5.84957">
        <ele>34</ele>
        <time>2019-10-23T08:52:06Z</time>
      </trkpt>
      <trkpt lat="43.09114" lon="5.84963">
        <ele>34</ele>
        <time>2019-10-23T08:52:07Z</time>
      </trkpt>
      <trkpt lat="43.09112" lon="5.84968">
        <ele>34</ele>
        <time>2019-10-23T08:52:08Z</time>
      </trkpt>
      <trkpt lat="43.09111" lon="5.84973">
        <ele>34</ele>
        <time>2019-10-23T08:52:09Z</time>
      </trkpt>
      <trkpt lat="43.09109" lon="5.84978">
        <ele>35</ele>
        <time>2019-10-23T08:52:10Z</time>
      </trkpt>
      <trkpt lat="43.09107" lon="5.84982">
        <ele>35</ele>
        <time>2019-10-23T08:52:11Z</time>
      </trkpt>
      <trkpt lat="43.09105" lon="5.84987">
        <ele>35</ele>
        <time>2019-10-23T08:52:12Z</time>
      </trkpt>
      <trkpt lat="43.09103" lon="5.84992">
        <ele>35</ele>
        <time>2019-10-23T08:52:13Z</time>
      </trkpt>
      <trkpt lat="43.09101" lon="5.84997">
        <ele>35</ele>
        <time>2019-10-23T08:52:15Z</time>
      </trkpt>
      <trkpt lat="43.09099" lon="5.85002">
        <ele>35</ele>
        <time>2019-10-23T08:52:16Z</time>
      </trkpt>
      <trkpt lat="43.09096" lon="5.85007">
        <ele>35</ele>
        <time>2019-10-23T08:52:17Z</time>
      </trkpt>
      <trkpt lat="43.09094" lon="5.85012">
        <ele>35</ele>
        <time>2019-10-23T08:52:18Z</time>
      </trkpt>
      <trkpt lat="43.09092" lon="5.85017">
        <ele>35</ele>
        <time>2019-10-23T08:52:19Z</time>
      </trkpt>
      <trkpt lat="43.09091" lon="5.85022">
        <ele>35</ele>
        <time>2019-10-23T08:52:20Z</time>
      </trkpt>
      <trkpt lat="43.09089" lon="5.85027">
        <ele>35</ele>
        <time>2019-10-23T08:52:21Z</time>
      </trkpt>
      <trkpt lat="43.09087" lon="5.85032">
        <ele>35</ele>
        <time>2019-10-23T08:52:22Z</time>
      </trkpt>
      <trkpt lat="43.09085" lon="5.85037">
        <ele>35</ele>
        <time>2019-10-23T08:52:23Z</time>
      </trkpt>
      <trkpt lat="43.09083" lon="5.85042">
        <ele>35</ele>
        <time>2019-10-23T08:52:24Z</time>
      </trkpt>
      <trkpt lat="43.09081" lon="5.85048">
        <ele>35</ele>
        <time>2019-10-23T08:52:25Z</time>
      </trkpt>
      <trkpt lat="43.09079" lon="5.85054">
        <ele>35</ele>
        <time>2019-10-23T08:52:26Z</time>
      </trkpt>
      <trkpt lat="43.09076" lon="5.8506">
        <ele>35</ele>
        <time>2019-10-23T08:52:27Z</time>
      </trkpt>
      <trkpt lat="43.09073" lon="5.85066">
        <ele>35</ele>
        <time>2019-10-23T08:52:28Z</time>
      </trkpt>
      <trkpt lat="43.0907" lon="5.85071">
        <ele>35</ele>
        <time>2019-10-23T08:52:29Z</time>
      </trkpt>
      <trkpt lat="43.09067" lon="5.85076">
        <ele>35</ele>
        <time>2019-10-23T08:52:30Z</time>
      </trkpt>
      <trkpt lat="43.09064" lon="5.85081">
        <ele>35</ele>
        <time>2019-10-23T08:52:31Z</time>
      </trkpt>
      <trkpt lat="43.09061" lon="5.85086">
        <ele>35</ele>
        <time>2019-10-23T08:52:32Z</time>
      </trkpt>
      <trkpt lat="43.09058" lon="5.85092">
        <ele>36</ele>
        <time>2019-10-23T08:52:33Z</time>
      </trkpt>
      <trkpt lat="43.09055" lon="5.85097">
        <ele>36</ele>
        <time>2019-10-23T08:52:34Z</time>
      </trkpt>
      <trkpt lat="43.09052" lon="5.85102">
        <ele>36</ele>
        <time>2019-10-23T08:52:35Z</time>
      </trkpt>
      <trkpt lat="43.0905" lon="5.85107">
        <ele>35</ele>
        <time>2019-10-23T08:52:36Z</time>
      </trkpt>
      <trkpt lat="43.09048" lon="5.85111">
        <ele>35</ele>
        <time>2019-10-23T08:52:37Z</time>
      </trkpt>
      <trkpt lat="43.09047" lon="5.85117">
        <ele>35</ele>
        <time>2019-10-23T08:52:38Z</time>
      </trkpt>
      <trkpt lat="43.09044" lon="5.85123">
        <ele>35</ele>
        <time>2019-10-23T08:52:39Z</time>
      </trkpt>
      <trkpt lat="43.09042" lon="5.85129">
        <ele>36</ele>
        <time>2019-10-23T08:52:40Z</time>
      </trkpt>
      <trkpt lat="43.0904" lon="5.85135">
        <ele>36</ele>
        <time>2019-10-23T08:52:41Z</time>
      </trkpt>
      <trkpt lat="43.09038" lon="5.85141">
        <ele>36</ele>
        <time>2019-10-23T08:52:42Z</time>
      </trkpt>
      <trkpt lat="43.09036" lon="5.85147">
        <ele>36</ele>
        <time>2019-10-23T08:52:43Z</time>
      </trkpt>
      <trkpt lat="43.09034" lon="5.85153">
        <ele>36</ele>
        <time>2019-10-23T08:52:44Z</time>
      </trkpt>
      <trkpt lat="43.09032" lon="5.8516">
        <ele>36</ele>
        <time>2019-10-23T08:52:45Z</time>
      </trkpt>
      <trkpt lat="43.0903" lon="5.85167">
        <ele>36</ele>
        <time>2019-10-23T08:52:46Z</time>
      </trkpt>
      <trkpt lat="43.09029" lon="5.85173">
        <ele>37</ele>
        <time>2019-10-23T08:52:48Z</time>
      </trkpt>
      <trkpt lat="43.09027" lon="5.85179">
        <ele>37</ele>
        <time>2019-10-23T08:52:49Z</time>
      </trkpt>
      <trkpt lat="43.09026" lon="5.85184">
        <ele>37</ele>
        <time>2019-10-23T08:52:50Z</time>
      </trkpt>
      <trkpt lat="43.09025" lon="5.8519">
        <ele>37</ele>
        <time>2019-10-23T08:52:51Z</time>
      </trkpt>
      <trkpt lat="43.09023" lon="5.85196">
        <ele>37</ele>
        <time>2019-10-23T08:52:52Z</time>
      </trkpt>
      <trkpt lat="43.09022" lon="5.85201">
        <ele>37</ele>
        <time>2019-10-23T08:52:53Z</time>
      </trkpt>
      <trkpt lat="43.09021" lon="5.85206">
        <ele>37</ele>
        <time>2019-10-23T08:52:54Z</time>
      </trkpt>
      <trkpt lat="43.0902" lon="5.85211">
        <ele>37</ele>
        <time>2019-10-23T08:52:55Z</time>
      </trkpt>
      <trkpt lat="43.09021" lon="5.85216">
        <ele>37</ele>
        <time>2019-10-23T08:52:56Z</time>
      </trkpt>
      <trkpt lat="43.09022" lon="5.8522">
        <ele>37</ele>
        <time>2019-10-23T08:52:57Z</time>
      </trkpt>
      <trkpt lat="43.09026" lon="5.85223">
        <ele>37</ele>
        <time>2019-10-23T08:52:58Z</time>
      </trkpt>
      <trkpt lat="43.0903" lon="5.85225">
        <ele>37</ele>
        <time>2019-10-23T08:52:59Z</time>
      </trkpt>
      <trkpt lat="43.09033" lon="5.85228">
        <ele>36</ele>
        <time>2019-10-23T08:53:00Z</time>
      </trkpt>
      <trkpt lat="43.09037" lon="5.85231">
        <ele>36</ele>
        <time>2019-10-23T08:53:01Z</time>
      </trkpt>
      <trkpt lat="43.09041" lon="5.85233">
        <ele>36</ele>
        <time>2019-10-23T08:53:02Z</time>
      </trkpt>
      <trkpt lat="43.09044" lon="5.85237">
        <ele>36</ele>
        <time>2019-10-23T08:53:03Z</time>
      </trkpt>
      <trkpt lat="43.09048" lon="5.8524">
        <ele>36</ele>
        <time>2019-10-23T08:53:04Z</time>
      </trkpt>
      <trkpt lat="43.09052" lon="5.85243">
        <ele>36</ele>
        <time>2019-10-23T08:53:05Z</time>
      </trkpt>
      <trkpt lat="43.09055" lon="5.85247">
        <ele>37</ele>
        <time>2019-10-23T08:53:06Z</time>
      </trkpt>
      <trkpt lat="43.09059" lon="5.8525">
        <ele>37</ele>
        <time>2019-10-23T08:53:08Z</time>
      </trkpt>
      <trkpt lat="43.09063" lon="5.85253">
        <ele>36</ele>
        <time>2019-10-23T08:53:09Z</time>
      </trkpt>
      <trkpt lat="43.09068" lon="5.85255">
        <ele>36</ele>
        <time>2019-10-23T08:53:10Z</time>
      </trkpt>
      <trkpt lat="43.09072" lon="5.85257">
        <ele>36</ele>
        <time>2019-10-23T08:53:11Z</time>
      </trkpt>
      <trkpt lat="43.09076" lon="5.85259">
        <ele>36</ele>
        <time>2019-10-23T08:53:12Z</time>
      </trkpt>
      <trkpt lat="43.0908" lon="5.8526">
        <ele>36</ele>
        <time>2019-10-23T08:53:13Z</time>
      </trkpt>
      <trkpt lat="43.09085" lon="5.85262">
        <ele>36</ele>
        <time>2019-10-23T08:53:14Z</time>
      </trkpt>
      <trkpt lat="43.09088" lon="5.85266">
        <ele>36</ele>
        <time>2019-10-23T08:53:15Z</time>
      </trkpt>
      <trkpt lat="43.09092" lon="5.85269">
        <ele>36</ele>
        <time>2019-10-23T08:53:16Z</time>
      </trkpt>
      <trkpt lat="43.09095" lon="5.85273">
        <ele>37</ele>
        <time>2019-10-23T08:53:17Z</time>
      </trkpt>
      <trkpt lat="43.09099" lon="5.85277">
        <ele>37</ele>
        <time>2019-10-23T08:53:18Z</time>
      </trkpt>
      <trkpt lat="43.09105" lon="5.85287">
        <ele>37</ele>
        <time>2019-10-23T08:53:19Z</time>
      </trkpt>
      <trkpt lat="43.09107" lon="5.85292">
        <ele>38</ele>
        <time>2019-10-23T08:53:20Z</time>
      </trkpt>
      <trkpt lat="43.09109" lon="5.85297">
        <ele>38</ele>
        <time>2019-10-23T08:53:21Z</time>
      </trkpt>
      <trkpt lat="43.09111" lon="5.85302">
        <ele>39</ele>
        <time>2019-10-23T08:53:22Z</time>
      </trkpt>
      <trkpt lat="43.09113" lon="5.85307">
        <ele>39</ele>
        <time>2019-10-23T08:53:24Z</time>
      </trkpt>
      <trkpt lat="43.09114" lon="5.85312">
        <ele>39</ele>
        <time>2019-10-23T08:53:25Z</time>
      </trkpt>
      <trkpt lat="43.09115" lon="5.85316">
        <ele>39</ele>
        <time>2019-10-23T08:53:26Z</time>
      </trkpt>
      <trkpt lat="43.09115" lon="5.8532">
        <ele>39</ele>
        <time>2019-10-23T08:53:27Z</time>
      </trkpt>
      <trkpt lat="43.09116" lon="5.85325">
        <ele>40</ele>
        <time>2019-10-23T08:53:28Z</time>
      </trkpt>
      <trkpt lat="43.09116" lon="5.8533">
        <ele>40</ele>
        <time>2019-10-23T08:53:29Z</time>
      </trkpt>
      <trkpt lat="43.09115" lon="5.85335">
        <ele>40</ele>
        <time>2019-10-23T08:53:30Z</time>
      </trkpt>
      <trkpt lat="43.09114" lon="5.8534">
        <ele>40</ele>
        <time>2019-10-23T08:53:31Z</time>
      </trkpt>
      <trkpt lat="43.09113" lon="5.85346">
        <ele>40</ele>
        <time>2019-10-23T08:53:32Z</time>
      </trkpt>
      <trkpt lat="43.09113" lon="5.85351">
        <ele>41</ele>
        <time>2019-10-23T08:53:33Z</time>
      </trkpt>
      <trkpt lat="43.09113" lon="5.85356">
        <ele>41</ele>
        <time>2019-10-23T08:53:34Z</time>
      </trkpt>
      <trkpt lat="43.09113" lon="5.85361">
        <ele>41</ele>
        <time>2019-10-23T08:53:35Z</time>
      </trkpt>
      <trkpt lat="43.09112" lon="5.85366">
        <ele>41</ele>
        <time>2019-10-23T08:53:36Z</time>
      </trkpt>
      <trkpt lat="43.09111" lon="5.8537">
        <ele>42</ele>
        <time>2019-10-23T08:53:37Z</time>
      </trkpt>
      <trkpt lat="43.09111" lon="5.85374">
        <ele>42</ele>
        <time>2019-10-23T08:53:38Z</time>
      </trkpt>
      <trkpt lat="43.0911" lon="5.8538">
        <ele>42</ele>
        <time>2019-10-23T08:53:39Z</time>
      </trkpt>
      <trkpt lat="43.0911" lon="5.85386">
        <ele>42</ele>
        <time>2019-10-23T08:53:40Z</time>
      </trkpt>
      <trkpt lat="43.09111" lon="5.85391">
        <ele>42</ele>
        <time>2019-10-23T08:53:41Z</time>
      </trkpt>
      <trkpt lat="43.09113" lon="5.85396">
        <ele>43</ele>
        <time>2019-10-23T08:53:42Z</time>
      </trkpt>
      <trkpt lat="43.09114" lon="5.85401">
        <ele>43</ele>
        <time>2019-10-23T08:53:43Z</time>
      </trkpt>
      <trkpt lat="43.09114" lon="5.85405">
        <ele>44</ele>
        <time>2019-10-23T08:53:44Z</time>
      </trkpt>
      <trkpt lat="43.09114" lon="5.8541">
        <ele>44</ele>
        <time>2019-10-23T08:53:45Z</time>
      </trkpt>
      <trkpt lat="43.09113" lon="5.85415">
        <ele>44</ele>
        <time>2019-10-23T08:53:46Z</time>
      </trkpt>
      <trkpt lat="43.09113" lon="5.85419">
        <ele>44</ele>
        <time>2019-10-23T08:53:47Z</time>
      </trkpt>
      <trkpt lat="43.09112" lon="5.85424">
        <ele>44</ele>
        <time>2019-10-23T08:53:48Z</time>
      </trkpt>
      <trkpt lat="43.09111" lon="5.85429">
        <ele>44</ele>
        <time>2019-10-23T08:53:49Z</time>
      </trkpt>
      <trkpt lat="43.0911" lon="5.85434">
        <ele>44</ele>
        <time>2019-10-23T08:53:50Z</time>
      </trkpt>
      <trkpt lat="43.09108" lon="5.85438">
        <ele>44</ele>
        <time>2019-10-23T08:53:51Z</time>
      </trkpt>
      <trkpt lat="43.09108" lon="5.85442">
        <ele>44</ele>
        <time>2019-10-23T08:53:52Z</time>
      </trkpt>
      <trkpt lat="43.09107" lon="5.85446">
        <ele>44</ele>
        <time>2019-10-23T08:53:53Z</time>
      </trkpt>
      <trkpt lat="43.09105" lon="5.85449">
        <ele>44</ele>
        <time>2019-10-23T08:53:54Z</time>
      </trkpt>
      <trkpt lat="43.09102" lon="5.85451">
        <ele>44</ele>
        <time>2019-10-23T08:53:55Z</time>
      </trkpt>
      <trkpt lat="43.09098" lon="5.85452">
        <ele>44</ele>
        <time>2019-10-23T08:53:56Z</time>
      </trkpt>
      <trkpt lat="43.09094" lon="5.85453">
        <ele>44</ele>
        <time>2019-10-23T08:53:57Z</time>
      </trkpt>
      <trkpt lat="43.0909" lon="5.85454">
        <ele>44</ele>
        <time>2019-10-23T08:53:58Z</time>
      </trkpt>
      <trkpt lat="43.09086" lon="5.85456">
        <ele>44</ele>
        <time>2019-10-23T08:53:59Z</time>
      </trkpt>
      <trkpt lat="43.0908" lon="5.85458">
        <ele>44</ele>
        <time>2019-10-23T08:54:00Z</time>
      </trkpt>
      <trkpt lat="43.09077" lon="5.85462">
        <ele>44</ele>
        <time>2019-10-23T08:54:01Z</time>
      </trkpt>
      <trkpt lat="43.09073" lon="5.85467">
        <ele>44</ele>
        <time>2019-10-23T08:54:02Z</time>
      </trkpt>
      <trkpt lat="43.09071" lon="5.85473">
        <ele>44</ele>
        <time>2019-10-23T08:54:03Z</time>
      </trkpt>
      <trkpt lat="43.09069" lon="5.85478">
        <ele>44</ele>
        <time>2019-10-23T08:54:04Z</time>
      </trkpt>
      <trkpt lat="43.09067" lon="5.85484">
        <ele>44</ele>
        <time>2019-10-23T08:54:05Z</time>
      </trkpt>
      <trkpt lat="43.09064" lon="5.8549">
        <ele>44</ele>
        <time>2019-10-23T08:54:06Z</time>
      </trkpt>
      <trkpt lat="43.09062" lon="5.85495">
        <ele>44</ele>
        <time>2019-10-23T08:54:07Z</time>
      </trkpt>
      <trkpt lat="43.0906" lon="5.85502">
        <ele>44</ele>
        <time>2019-10-23T08:54:08Z</time>
      </trkpt>
      <trkpt lat="43.09058" lon="5.85509">
        <ele>43</ele>
        <time>2019-10-23T08:54:09Z</time>
      </trkpt>
      <trkpt lat="43.09057" lon="5.85516">
        <ele>43</ele>
        <time>2019-10-23T08:54:10Z</time>
      </trkpt>
      <trkpt lat="43.09054" lon="5.85522">
        <ele>43</ele>
        <time>2019-10-23T08:54:11Z</time>
      </trkpt>
      <trkpt lat="43.09052" lon="5.85529">
        <ele>42</ele>
        <time>2019-10-23T08:54:12Z</time>
      </trkpt>
      <trkpt lat="43.0905" lon="5.85536">
        <ele>42</ele>
        <time>2019-10-23T08:54:13Z</time>
      </trkpt>
      <trkpt lat="43.09048" lon="5.85543">
        <ele>42</ele>
        <time>2019-10-23T08:54:14Z</time>
      </trkpt>
      <trkpt lat="43.09047" lon="5.85551">
        <ele>42</ele>
        <time>2019-10-23T08:54:15Z</time>
      </trkpt>
      <trkpt lat="43.09046" lon="5.85558">
        <ele>42</ele>
        <time>2019-10-23T08:54:16Z</time>
      </trkpt>
      <trkpt lat="43.09045" lon="5.85565">
        <ele>42</ele>
        <time>2019-10-23T08:54:17Z</time>
      </trkpt>
      <trkpt lat="43.09045" lon="5.85572">
        <ele>42</ele>
        <time>2019-10-23T08:54:18Z</time>
      </trkpt>
      <trkpt lat="43.09044" lon="5.85579">
        <ele>42</ele>
        <time>2019-10-23T08:54:19Z</time>
      </trkpt>
      <trkpt lat="43.09045" lon="5.85585">
        <ele>42</ele>
        <time>2019-10-23T08:54:20Z</time>
      </trkpt>
      <trkpt lat="43.09045" lon="5.85592">
        <ele>42</ele>
        <time>2019-10-23T08:54:21Z</time>
      </trkpt>
      <trkpt lat="43.09046" lon="5.85599">
        <ele>42</ele>
        <time>2019-10-23T08:54:22Z</time>
      </trkpt>
      <trkpt lat="43.09047" lon="5.85605">
        <ele>42</ele>
        <time>2019-10-23T08:54:23Z</time>
      </trkpt>
      <trkpt lat="43.09048" lon="5.85612">
        <ele>42</ele>
        <time>2019-10-23T08:54:24Z</time>
      </trkpt>
      <trkpt lat="43.09048" lon="5.85619">
        <ele>42</ele>
        <time>2019-10-23T08:54:25Z</time>
      </trkpt>
      <trkpt lat="43.09049" lon="5.85626">
        <ele>42</ele>
        <time>2019-10-23T08:54:26Z</time>
      </trkpt>
      <trkpt lat="43.09049" lon="5.85632">
        <ele>41</ele>
        <time>2019-10-23T08:54:27Z</time>
      </trkpt>
      <trkpt lat="43.0905" lon="5.85637">
        <ele>41</ele>
        <time>2019-10-23T08:54:28Z</time>
      </trkpt>
      <trkpt lat="43.09051" lon="5.85645">
        <ele>41</ele>
        <time>2019-10-23T08:54:29Z</time>
      </trkpt>
      <trkpt lat="43.09051" lon="5.85652">
        <ele>42</ele>
        <time>2019-10-23T08:54:30Z</time>
      </trkpt>
      <trkpt lat="43.09052" lon="5.85659">
        <ele>42</ele>
        <time>2019-10-23T08:54:31Z</time>
      </trkpt>
      <trkpt lat="43.09052" lon="5.85666">
        <ele>42</ele>
        <time>2019-10-23T08:54:32Z</time>
      </trkpt>
      <trkpt lat="43.09053" lon="5.85673">
        <ele>42</ele>
        <time>2019-10-23T08:54:33Z</time>
      </trkpt>
      <trkpt lat="43.09053" lon="5.8568">
        <ele>42</ele>
        <time>2019-10-23T08:54:34Z</time>
      </trkpt>
      <trkpt lat="43.09053" lon="5.85686">
        <ele>42</ele>
        <time>2019-10-23T08:54:35Z</time>
      </trkpt>
      <trkpt lat="43.09052" lon="5.85693">
        <ele>41</ele>
        <time>2019-10-23T08:54:36Z</time>
      </trkpt>
      <trkpt lat="43.09052" lon="5.857">
        <ele>41</ele>
        <time>2019-10-23T08:54:37Z</time>
      </trkpt>
      <trkpt lat="43.09053" lon="5.85705">
        <ele>41</ele>
        <time>2019-10-23T08:54:38Z</time>
      </trkpt>
      <trkpt lat="43.09053" lon="5.85712">
        <ele>41</ele>
        <time>2019-10-23T08:54:39Z</time>
      </trkpt>
      <trkpt lat="43.09053" lon="5.85718">
        <ele>41</ele>
        <time>2019-10-23T08:54:40Z</time>
      </trkpt>
      <trkpt lat="43.09053" lon="5.85724">
        <ele>41</ele>
        <time>2019-10-23T08:54:41Z</time>
      </trkpt>
      <trkpt lat="43.09052" lon="5.8573">
        <ele>41</ele>
        <time>2019-10-23T08:54:42Z</time>
      </trkpt>
      <trkpt lat="43.09052" lon="5.85736">
        <ele>42</ele>
        <time>2019-10-23T08:54:43Z</time>
      </trkpt>
      <trkpt lat="43.09051" lon="5.85742">
        <ele>42</ele>
        <time>2019-10-23T08:54:44Z</time>
      </trkpt>
      <trkpt lat="43.0905" lon="5.85747">
        <ele>42</ele>
        <time>2019-10-23T08:54:45Z</time>
      </trkpt>
      <trkpt lat="43.09049" lon="5.85754">
        <ele>42</ele>
        <time>2019-10-23T08:54:46Z</time>
      </trkpt>
      <trkpt lat="43.09048" lon="5.8576">
        <ele>42</ele>
        <time>2019-10-23T08:54:47Z</time>
      </trkpt>
      <trkpt lat="43.09048" lon="5.85767">
        <ele>42</ele>
        <time>2019-10-23T08:54:48Z</time>
      </trkpt>
      <trkpt lat="43.09047" lon="5.85773">
        <ele>42</ele>
        <time>2019-10-23T08:54:49Z</time>
      </trkpt>
      <trkpt lat="43.09046" lon="5.85779">
        <ele>42</ele>
        <time>2019-10-23T08:54:50Z</time>
      </trkpt>
      <trkpt lat="43.09046" lon="5.85785">
        <ele>42</ele>
        <time>2019-10-23T08:54:51Z</time>
      </trkpt>
      <trkpt lat="43.09045" lon="5.85792">
        <ele>42</ele>
        <time>2019-10-23T08:54:52Z</time>
      </trkpt>
      <trkpt lat="43.09044" lon="5.85798">
        <ele>42</ele>
        <time>2019-10-23T08:54:53Z</time>
      </trkpt>
      <trkpt lat="43.09043" lon="5.85803">
        <ele>42</ele>
        <time>2019-10-23T08:54:54Z</time>
      </trkpt>
      <trkpt lat="43.09042" lon="5.85808">
        <ele>42</ele>
        <time>2019-10-23T08:54:55Z</time>
      </trkpt>
      <trkpt lat="43.09041" lon="5.85814">
        <ele>42</ele>
        <time>2019-10-23T08:54:56Z</time>
      </trkpt>
      <trkpt lat="43.09039" lon="5.85821">
        <ele>42</ele>
        <time>2019-10-23T08:54:57Z</time>
      </trkpt>
      <trkpt lat="43.09038" lon="5.85828">
        <ele>42</ele>
        <time>2019-10-23T08:54:58Z</time>
      </trkpt>
      <trkpt lat="43.09037" lon="5.85833">
        <ele>42</ele>
        <time>2019-10-23T08:54:59Z</time>
      </trkpt>
      <trkpt lat="43.09035" lon="5.85839">
        <ele>42</ele>
        <time>2019-10-23T08:55:00Z</time>
      </trkpt>
      <trkpt lat="43.09033" lon="5.85845">
        <ele>42</ele>
        <time>2019-10-23T08:55:01Z</time>
      </trkpt>
      <trkpt lat="43.09033" lon="5.85851">
        <ele>42</ele>
        <time>2019-10-23T08:55:02Z</time>
      </trkpt>
      <trkpt lat="43.09032" lon="5.85857">
        <ele>42</ele>
        <time>2019-10-23T08:55:03Z</time>
      </trkpt>
      <trkpt lat="43.09031" lon="5.85865">
        <ele>42</ele>
        <time>2019-10-23T08:55:04Z</time>
      </trkpt>
      <trkpt lat="43.0903" lon="5.85872">
        <ele>42</ele>
        <time>2019-10-23T08:55:05Z</time>
      </trkpt>
      <trkpt lat="43.09029" lon="5.85878">
        <ele>42</ele>
        <time>2019-10-23T08:55:06Z</time>
      </trkpt>
      <trkpt lat="43.09027" lon="5.85883">
        <ele>42</ele>
        <time>2019-10-23T08:55:07Z</time>
      </trkpt>
      <trkpt lat="43.09026" lon="5.85889">
        <ele>42</ele>
        <time>2019-10-23T08:55:08Z</time>
      </trkpt>
      <trkpt lat="43.09026" lon="5.85894">
        <ele>42</ele>
        <time>2019-10-23T08:55:09Z</time>
      </trkpt>
      <trkpt lat="43.09025" lon="5.859">
        <ele>42</ele>
        <time>2019-10-23T08:55:10Z</time>
      </trkpt>
      <trkpt lat="43.09024" lon="5.85906">
        <ele>41</ele>
        <time>2019-10-23T08:55:11Z</time>
      </trkpt>
      <trkpt lat="43.09023" lon="5.85912">
        <ele>41</ele>
        <time>2019-10-23T08:55:12Z</time>
      </trkpt>
      <trkpt lat="43.09022" lon="5.85918">
        <ele>41</ele>
        <time>2019-10-23T08:55:13Z</time>
      </trkpt>
      <trkpt lat="43.09021" lon="5.85924">
        <ele>41</ele>
        <time>2019-10-23T08:55:14Z</time>
      </trkpt>
      <trkpt lat="43.09019" lon="5.85929">
        <ele>42</ele>
        <time>2019-10-23T08:55:15Z</time>
      </trkpt>
      <trkpt lat="43.09016" lon="5.85934">
        <ele>42</ele>
        <time>2019-10-23T08:55:16Z</time>
      </trkpt>
      <trkpt lat="43.09012" lon="5.85938">
        <ele>42</ele>
        <time>2019-10-23T08:55:17Z</time>
      </trkpt>
      <trkpt lat="43.09009" lon="5.85941">
        <ele>42</ele>
        <time>2019-10-23T08:55:18Z</time>
      </trkpt>
      <trkpt lat="43.09005" lon="5.85945">
        <ele>42</ele>
        <time>2019-10-23T08:55:19Z</time>
      </trkpt>
      <trkpt lat="43.09001" lon="5.85949">
        <ele>42</ele>
        <time>2019-10-23T08:55:20Z</time>
      </trkpt>
      <trkpt lat="43.08998" lon="5.85954">
        <ele>42</ele>
        <time>2019-10-23T08:55:21Z</time>
      </trkpt>
      <trkpt lat="43.08997" lon="5.8596">
        <ele>43</ele>
        <time>2019-10-23T08:55:22Z</time>
      </trkpt>
      <trkpt lat="43.08995" lon="5.85965">
        <ele>43</ele>
        <time>2019-10-23T08:55:23Z</time>
      </trkpt>
      <trkpt lat="43.08994" lon="5.8597">
        <ele>43</ele>
        <time>2019-10-23T08:55:24Z</time>
      </trkpt>
      <trkpt lat="43.08993" lon="5.85975">
        <ele>43</ele>
        <time>2019-10-23T08:55:25Z</time>
      </trkpt>
      <trkpt lat="43.08992" lon="5.85981">
        <ele>43</ele>
        <time>2019-10-23T08:55:26Z</time>
      </trkpt>
      <trkpt lat="43.08992" lon="5.85987">
        <ele>43</ele>
        <time>2019-10-23T08:55:27Z</time>
      </trkpt>
      <trkpt lat="43.08991" lon="5.85993">
        <ele>43</ele>
        <time>2019-10-23T08:55:28Z</time>
      </trkpt>
      <trkpt lat="43.08991" lon="5.85999">
        <ele>43</ele>
        <time>2019-10-23T08:55:29Z</time>
      </trkpt>
      <trkpt lat="43.0899" lon="5.86005">
        <ele>43</ele>
        <time>2019-10-23T08:55:30Z</time>
      </trkpt>
      <trkpt lat="43.08989" lon="5.86011">
        <ele>44</ele>
        <time>2019-10-23T08:55:31Z</time>
      </trkpt>
      <trkpt lat="43.08988" lon="5.86017">
        <ele>44</ele>
        <time>2019-10-23T08:55:32Z</time>
      </trkpt>
      <trkpt lat="43.08987" lon="5.86024">
        <ele>44</ele>
        <time>2019-10-23T08:55:33Z</time>
      </trkpt>
      <trkpt lat="43.08986" lon="5.8603">
        <ele>44</ele>
        <time>2019-10-23T08:55:34Z</time>
      </trkpt>
      <trkpt lat="43.08986" lon="5.86036">
        <ele>44</ele>
        <time>2019-10-23T08:55:35Z</time>
      </trkpt>
      <trkpt lat="43.08987" lon="5.86041">
        <ele>45</ele>
        <time>2019-10-23T08:55:36Z</time>
      </trkpt>
      <trkpt lat="43.08986" lon="5.86047">
        <ele>45</ele>
        <time>2019-10-23T08:55:37Z</time>
      </trkpt>
      <trkpt lat="43.08986" lon="5.86053">
        <ele>44</ele>
        <time>2019-10-23T08:55:38Z</time>
      </trkpt>
      <trkpt lat="43.08985" lon="5.86058">
        <ele>44</ele>
        <time>2019-10-23T08:55:39Z</time>
      </trkpt>
      <trkpt lat="43.08986" lon="5.86065">
        <ele>44</ele>
        <time>2019-10-23T08:55:40Z</time>
      </trkpt>
      <trkpt lat="43.08987" lon="5.8607">
        <ele>44</ele>
        <time>2019-10-23T08:55:42Z</time>
      </trkpt>
      <trkpt lat="43.08987" lon="5.86076">
        <ele>44</ele>
        <time>2019-10-23T08:55:43Z</time>
      </trkpt>
      <trkpt lat="43.08987" lon="5.86082">
        <ele>44</ele>
        <time>2019-10-23T08:55:44Z</time>
      </trkpt>
      <trkpt lat="43.08987" lon="5.86088">
        <ele>44</ele>
        <time>2019-10-23T08:55:45Z</time>
      </trkpt>
      <trkpt lat="43.08987" lon="5.86094">
        <ele>45</ele>
        <time>2019-10-23T08:55:46Z</time>
      </trkpt>
      <trkpt lat="43.08986" lon="5.861">
        <ele>45</ele>
        <time>2019-10-23T08:55:47Z</time>
      </trkpt>
      <trkpt lat="43.08985" lon="5.86106">
        <ele>45</ele>
        <time>2019-10-23T08:55:48Z</time>
      </trkpt>
      <trkpt lat="43.08985" lon="5.86112">
        <ele>45</ele>
        <time>2019-10-23T08:55:49Z</time>
      </trkpt>
      <trkpt lat="43.08984" lon="5.86118">
        <ele>45</ele>
        <time>2019-10-23T08:55:50Z</time>
      </trkpt>
      <trkpt lat="43.08984" lon="5.86123">
        <ele>45</ele>
        <time>2019-10-23T08:55:51Z</time>
      </trkpt>
      <trkpt lat="43.08984" lon="5.86129">
        <ele>46</ele>
        <time>2019-10-23T08:55:52Z</time>
      </trkpt>
      <trkpt lat="43.08983" lon="5.86134">
        <ele>46</ele>
        <time>2019-10-23T08:55:53Z</time>
      </trkpt>
      <trkpt lat="43.08983" lon="5.86139">
        <ele>46</ele>
        <time>2019-10-23T08:55:54Z</time>
      </trkpt>
      <trkpt lat="43.08982" lon="5.86145">
        <ele>46</ele>
        <time>2019-10-23T08:55:55Z</time>
      </trkpt>
      <trkpt lat="43.08982" lon="5.86151">
        <ele>46</ele>
        <time>2019-10-23T08:55:56Z</time>
      </trkpt>
      <trkpt lat="43.08981" lon="5.86157">
        <ele>46</ele>
        <time>2019-10-23T08:55:57Z</time>
      </trkpt>
      <trkpt lat="43.08979" lon="5.86163">
        <ele>46</ele>
        <time>2019-10-23T08:55:58Z</time>
      </trkpt>
      <trkpt lat="43.08978" lon="5.86168">
        <ele>46</ele>
        <time>2019-10-23T08:55:59Z</time>
      </trkpt>
      <trkpt lat="43.08978" lon="5.86174">
        <ele>46</ele>
        <time>2019-10-23T08:56:00Z</time>
      </trkpt>
      <trkpt lat="43.08976" lon="5.8618">
        <ele>46</ele>
        <time>2019-10-23T08:56:01Z</time>
      </trkpt>
      <trkpt lat="43.08975" lon="5.86185">
        <ele>46</ele>
        <time>2019-10-23T08:56:02Z</time>
      </trkpt>
      <trkpt lat="43.08973" lon="5.8619">
        <ele>46</ele>
        <time>2019-10-23T08:56:03Z</time>
      </trkpt>
      <trkpt lat="43.08971" lon="5.86195">
        <ele>46</ele>
        <time>2019-10-23T08:56:04Z</time>
      </trkpt>
      <trkpt lat="43.0897" lon="5.86201">
        <ele>46</ele>
        <time>2019-10-23T08:56:05Z</time>
      </trkpt>
      <trkpt lat="43.08969" lon="5.86206">
        <ele>46</ele>
        <time>2019-10-23T08:56:06Z</time>
      </trkpt>
      <trkpt lat="43.08968" lon="5.86211">
        <ele>47</ele>
        <time>2019-10-23T08:56:07Z</time>
      </trkpt>
      <trkpt lat="43.08967" lon="5.86216">
        <ele>47</ele>
        <time>2019-10-23T08:56:08Z</time>
      </trkpt>
      <trkpt lat="43.08967" lon="5.8622">
        <ele>47</ele>
        <time>2019-10-23T08:56:09Z</time>
      </trkpt>
      <trkpt lat="43.08967" lon="5.86225">
        <ele>47</ele>
        <time>2019-10-23T08:56:10Z</time>
      </trkpt>
      <trkpt lat="43.08967" lon="5.8623">
        <ele>48</ele>
        <time>2019-10-23T08:56:11Z</time>
      </trkpt>
      <trkpt lat="43.08966" lon="5.86236">
        <ele>48</ele>
        <time>2019-10-23T08:56:12Z</time>
      </trkpt>
      <trkpt lat="43.08966" lon="5.86241">
        <ele>48</ele>
        <time>2019-10-23T08:56:13Z</time>
      </trkpt>
      <trkpt lat="43.08966" lon="5.86247">
        <ele>48</ele>
        <time>2019-10-23T08:56:14Z</time>
      </trkpt>
      <trkpt lat="43.08965" lon="5.86252">
        <ele>48</ele>
        <time>2019-10-23T08:56:15Z</time>
      </trkpt>
      <trkpt lat="43.08965" lon="5.86258">
        <ele>48</ele>
        <time>2019-10-23T08:56:17Z</time>
      </trkpt>
      <trkpt lat="43.08965" lon="5.86264">
        <ele>48</ele>
        <time>2019-10-23T08:56:18Z</time>
      </trkpt>
      <trkpt lat="43.08964" lon="5.86269">
        <ele>48</ele>
        <time>2019-10-23T08:56:19Z</time>
      </trkpt>
      <trkpt lat="43.08963" lon="5.86274">
        <ele>48</ele>
        <time>2019-10-23T08:56:20Z</time>
      </trkpt>
      <trkpt lat="43.08963" lon="5.86279">
        <ele>48</ele>
        <time>2019-10-23T08:56:21Z</time>
      </trkpt>
      <trkpt lat="43.08962" lon="5.86284">
        <ele>49</ele>
        <time>2019-10-23T08:56:22Z</time>
      </trkpt>
      <trkpt lat="43.08962" lon="5.86289">
        <ele>49</ele>
        <time>2019-10-23T08:56:24Z</time>
      </trkpt>
      <trkpt lat="43.08962" lon="5.86295">
        <ele>49</ele>
        <time>2019-10-23T08:56:25Z</time>
      </trkpt>
      <trkpt lat="43.08962" lon="5.86301">
        <ele>49</ele>
        <time>2019-10-23T08:56:26Z</time>
      </trkpt>
      <trkpt lat="43.08961" lon="5.86307">
        <ele>49</ele>
        <time>2019-10-23T08:56:27Z</time>
      </trkpt>
      <trkpt lat="43.08961" lon="5.86313">
        <ele>50</ele>
        <time>2019-10-23T08:56:28Z</time>
      </trkpt>
      <trkpt lat="43.0896" lon="5.86318">
        <ele>50</ele>
        <time>2019-10-23T08:56:29Z</time>
      </trkpt>
      <trkpt lat="43.0896" lon="5.86324">
        <ele>50</ele>
        <time>2019-10-23T08:56:30Z</time>
      </trkpt>
      <trkpt lat="43.0896" lon="5.8633">
        <ele>50</ele>
        <time>2019-10-23T08:56:34Z</time>
      </trkpt>
      <trkpt lat="43.08959" lon="5.86335">
        <ele>50</ele>
        <time>2019-10-23T08:56:40Z</time>
      </trkpt>
      <trkpt lat="43.08959" lon="5.8634">
        <ele>50</ele>
        <time>2019-10-23T08:56:42Z</time>
      </trkpt>
      <trkpt lat="43.08958" lon="5.86346">
        <ele>50</ele>
        <time>2019-10-23T08:56:43Z</time>
      </trkpt>
      <trkpt lat="43.08957" lon="5.86351">
        <ele>50</ele>
        <time>2019-10-23T08:56:44Z</time>
      </trkpt>
      <trkpt lat="43.08956" lon="5.86357">
        <ele>50</ele>
        <time>2019-10-23T08:56:45Z</time>
      </trkpt>
      <trkpt lat="43.08955" lon="5.86362">
        <ele>51</ele>
        <time>2019-10-23T08:56:46Z</time>
      </trkpt>
      <trkpt lat="43.08954" lon="5.86367">
        <ele>51</ele>
        <time>2019-10-23T08:56:47Z</time>
      </trkpt>
      <trkpt lat="43.08953" lon="5.86372">
        <ele>51</ele>
        <time>2019-10-23T08:56:48Z</time>
      </trkpt>
      <trkpt lat="43.08951" lon="5.86377">
        <ele>51</ele>
        <time>2019-10-23T08:56:49Z</time>
      </trkpt>
      <trkpt lat="43.08949" lon="5.86382">
        <ele>51</ele>
        <time>2019-10-23T08:56:50Z</time>
      </trkpt>
      <trkpt lat="43.08946" lon="5.86388">
        <ele>51</ele>
        <time>2019-10-23T08:56:51Z</time>
      </trkpt>
      <trkpt lat="43.08944" lon="5.86393">
        <ele>51</ele>
        <time>2019-10-23T08:56:52Z</time>
      </trkpt>
      <trkpt lat="43.08942" lon="5.86397">
        <ele>51</ele>
        <time>2019-10-23T08:56:53Z</time>
      </trkpt>
      <trkpt lat="43.0894" lon="5.86402">
        <ele>52</ele>
        <time>2019-10-23T08:56:54Z</time>
      </trkpt>
      <trkpt lat="43.08938" lon="5.86407">
        <ele>52</ele>
        <time>2019-10-23T08:56:55Z</time>
      </trkpt>
      <trkpt lat="43.08937" lon="5.86411">
        <ele>52</ele>
        <time>2019-10-23T08:56:56Z</time>
      </trkpt>
      <trkpt lat="43.08935" lon="5.86417">
        <ele>52</ele>
        <time>2019-10-23T08:56:57Z</time>
      </trkpt>
      <trkpt lat="43.08934" lon="5.86423">
        <ele>53</ele>
        <time>2019-10-23T08:56:58Z</time>
      </trkpt>
      <trkpt lat="43.08933" lon="5.86428">
        <ele>53</ele>
        <time>2019-10-23T08:56:59Z</time>
      </trkpt>
      <trkpt lat="43.08931" lon="5.86433">
        <ele>53</ele>
        <time>2019-10-23T08:57:00Z</time>
      </trkpt>
      <trkpt lat="43.0893" lon="5.86438">
        <ele>53</ele>
        <time>2019-10-23T08:57:01Z</time>
      </trkpt>
      <trkpt lat="43.08928" lon="5.86442">
        <ele>53</ele>
        <time>2019-10-23T08:57:02Z</time>
      </trkpt>
      <trkpt lat="43.08926" lon="5.86447">
        <ele>53</ele>
        <time>2019-10-23T08:57:03Z</time>
      </trkpt>
      <trkpt lat="43.08926" lon="5.86452">
        <ele>53</ele>
        <time>2019-10-23T08:57:04Z</time>
      </trkpt>
      <trkpt lat="43.08927" lon="5.86457">
        <ele>54</ele>
        <time>2019-10-23T08:57:05Z</time>
      </trkpt>
      <trkpt lat="43.08926" lon="5.86463">
        <ele>54</ele>
        <time>2019-10-23T08:57:06Z</time>
      </trkpt>
      <trkpt lat="43.08925" lon="5.86468">
        <ele>54</ele>
        <time>2019-10-23T08:57:07Z</time>
      </trkpt>
      <trkpt lat="43.08923" lon="5.86474">
        <ele>54</ele>
        <time>2019-10-23T08:57:08Z</time>
      </trkpt>
      <trkpt lat="43.08923" lon="5.86479">
        <ele>54</ele>
        <time>2019-10-23T08:57:09Z</time>
      </trkpt>
      <trkpt lat="43.08925" lon="5.8648">
        <ele>53</ele>
        <time>2019-10-23T08:57:10Z</time>
      </trkpt>
      <trkpt lat="43.08926" lon="5.86484">
        <ele>53</ele>
        <time>2019-10-23T08:57:11Z</time>
      </trkpt>
      <trkpt lat="43.08925" lon="5.8649">
        <ele>53</ele>
        <time>2019-10-23T08:57:12Z</time>
      </trkpt>
      <trkpt lat="43.08926" lon="5.86496">
        <ele>54</ele>
        <time>2019-10-23T08:57:13Z</time>
      </trkpt>
      <trkpt lat="43.08926" lon="5.86503">
        <ele>54</ele>
        <time>2019-10-23T08:57:14Z</time>
      </trkpt>
      <trkpt lat="43.08926" lon="5.86509">
        <ele>54</ele>
        <time>2019-10-23T08:57:15Z</time>
      </trkpt>
      <trkpt lat="43.08927" lon="5.86514">
        <ele>54</ele>
        <time>2019-10-23T08:57:16Z</time>
      </trkpt>
      <trkpt lat="43.08927" lon="5.86519">
        <ele>54</ele>
        <time>2019-10-23T08:57:17Z</time>
      </trkpt>
      <trkpt lat="43.08928" lon="5.86524">
        <ele>54</ele>
        <time>2019-10-23T08:57:18Z</time>
      </trkpt>
      <trkpt lat="43.08928" lon="5.86529">
        <ele>54</ele>
        <time>2019-10-23T08:57:19Z</time>
      </trkpt>
      <trkpt lat="43.08929" lon="5.86535">
        <ele>55</ele>
        <time>2019-10-23T08:57:20Z</time>
      </trkpt>
      <trkpt lat="43.0893" lon="5.8654">
        <ele>55</ele>
        <time>2019-10-23T08:57:21Z</time>
      </trkpt>
      <trkpt lat="43.08932" lon="5.86545">
        <ele>55</ele>
        <time>2019-10-23T08:57:22Z</time>
      </trkpt>
      <trkpt lat="43.08933" lon="5.8655">
        <ele>55</ele>
        <time>2019-10-23T08:57:23Z</time>
      </trkpt>
      <trkpt lat="43.08935" lon="5.86555">
        <ele>55</ele>
        <time>2019-10-23T08:57:24Z</time>
      </trkpt>
      <trkpt lat="43.08936" lon="5.8656">
        <ele>55</ele>
        <time>2019-10-23T08:57:25Z</time>
      </trkpt>
      <trkpt lat="43.08937" lon="5.86566">
        <ele>55</ele>
        <time>2019-10-23T08:57:26Z</time>
      </trkpt>
      <trkpt lat="43.08937" lon="5.86571">
        <ele>55</ele>
        <time>2019-10-23T08:57:27Z</time>
      </trkpt>
      <trkpt lat="43.08937" lon="5.86576">
        <ele>55</ele>
        <time>2019-10-23T08:57:28Z</time>
      </trkpt>
      <trkpt lat="43.08936" lon="5.86581">
        <ele>55</ele>
        <time>2019-10-23T08:57:29Z</time>
      </trkpt>
      <trkpt lat="43.08935" lon="5.86586">
        <ele>55</ele>
        <time>2019-10-23T08:57:30Z</time>
      </trkpt>
      <trkpt lat="43.08935" lon="5.8659">
        <ele>56</ele>
        <time>2019-10-23T08:57:31Z</time>
      </trkpt>
      <trkpt lat="43.08935" lon="5.86595">
        <ele>56</ele>
        <time>2019-10-23T08:57:32Z</time>
      </trkpt>
      <trkpt lat="43.08934" lon="5.86598">
        <ele>56</ele>
        <time>2019-10-23T08:57:33Z</time>
      </trkpt>
      <trkpt lat="43.08933" lon="5.86602">
        <ele>56</ele>
        <time>2019-10-23T08:57:34Z</time>
      </trkpt>
      <trkpt lat="43.08933" lon="5.86607">
        <ele>56</ele>
        <time>2019-10-23T08:57:35Z</time>
      </trkpt>
      <trkpt lat="43.08932" lon="5.86611">
        <ele>56</ele>
        <time>2019-10-23T08:57:36Z</time>
      </trkpt>
      <trkpt lat="43.08931" lon="5.86616">
        <ele>57</ele>
        <time>2019-10-23T08:57:37Z</time>
      </trkpt>
      <trkpt lat="43.08931" lon="5.86621">
        <ele>57</ele>
        <time>2019-10-23T08:57:38Z</time>
      </trkpt>
      <trkpt lat="43.0893" lon="5.86626">
        <ele>57</ele>
        <time>2019-10-23T08:57:39Z</time>
      </trkpt>
      <trkpt lat="43.0893" lon="5.8663">
        <ele>57</ele>
        <time>2019-10-23T08:57:40Z</time>
      </trkpt>
      <trkpt lat="43.0893" lon="5.86635">
        <ele>57</ele>
        <time>2019-10-23T08:57:41Z</time>
      </trkpt>
      <trkpt lat="43.0893" lon="5.8664">
        <ele>57</ele>
        <time>2019-10-23T08:57:42Z</time>
      </trkpt>
      <trkpt lat="43.0893" lon="5.86645">
        <ele>58</ele>
        <time>2019-10-23T08:57:43Z</time>
      </trkpt>
      <trkpt lat="43.08929" lon="5.8665">
        <ele>58</ele>
        <time>2019-10-23T08:57:44Z</time>
      </trkpt>
      <trkpt lat="43.08929" lon="5.86656">
        <ele>58</ele>
        <time>2019-10-23T08:57:45Z</time>
      </trkpt>
      <trkpt lat="43.08929" lon="5.86661">
        <ele>58</ele>
        <time>2019-10-23T08:57:46Z</time>
      </trkpt>
      <trkpt lat="43.08928" lon="5.86666">
        <ele>58</ele>
        <time>2019-10-23T08:57:47Z</time>
      </trkpt>
      <trkpt lat="43.08928" lon="5.86671">
        <ele>58</ele>
        <time>2019-10-23T08:57:50Z</time>
      </trkpt>
      <trkpt lat="43.08928" lon="5.86676">
        <ele>58</ele>
        <time>2019-10-23T08:57:51Z</time>
      </trkpt>
      <trkpt lat="43.08928" lon="5.86681">
        <ele>59</ele>
        <time>2019-10-23T08:57:52Z</time>
      </trkpt>
      <trkpt lat="43.08928" lon="5.86686">
        <ele>59</ele>
        <time>2019-10-23T08:57:53Z</time>
      </trkpt>
      <trkpt lat="43.08929" lon="5.86691">
        <ele>59</ele>
        <time>2019-10-23T08:57:54Z</time>
      </trkpt>
      <trkpt lat="43.08928" lon="5.86695">
        <ele>59</ele>
        <time>2019-10-23T08:57:55Z</time>
      </trkpt>
      <trkpt lat="43.08929" lon="5.867">
        <ele>60</ele>
        <time>2019-10-23T08:57:56Z</time>
      </trkpt>
      <trkpt lat="43.08928" lon="5.86705">
        <ele>60</ele>
        <time>2019-10-23T08:57:57Z</time>
      </trkpt>
      <trkpt lat="43.08928" lon="5.8671">
        <ele>60</ele>
        <time>2019-10-23T08:57:58Z</time>
      </trkpt>
      <trkpt lat="43.08928" lon="5.86715">
        <ele>60</ele>
        <time>2019-10-23T08:57:59Z</time>
      </trkpt>
      <trkpt lat="43.08928" lon="5.86719">
        <ele>60</ele>
        <time>2019-10-23T08:58:00Z</time>
      </trkpt>
      <trkpt lat="43.08927" lon="5.86724">
        <ele>61</ele>
        <time>2019-10-23T08:58:01Z</time>
      </trkpt>
      <trkpt lat="43.08927" lon="5.86729">
        <ele>61</ele>
        <time>2019-10-23T08:58:02Z</time>
      </trkpt>
      <trkpt lat="43.08928" lon="5.86733">
        <ele>61</ele>
        <time>2019-10-23T08:58:03Z</time>
      </trkpt>
      <trkpt lat="43.08928" lon="5.86738">
        <ele>61</ele>
        <time>2019-10-23T08:58:04Z</time>
      </trkpt>
      <trkpt lat="43.08928" lon="5.86742">
        <ele>61</ele>
        <time>2019-10-23T08:58:06Z</time>
      </trkpt>
      <trkpt lat="43.08929" lon="5.86747">
        <ele>61</ele>
        <time>2019-10-23T08:58:07Z</time>
      </trkpt>
      <trkpt lat="43.08929" lon="5.86752">
        <ele>62</ele>
        <time>2019-10-23T08:58:08Z</time>
      </trkpt>
      <trkpt lat="43.08929" lon="5.86757">
        <ele>62</ele>
        <time>2019-10-23T08:58:09Z</time>
      </trkpt>
      <trkpt lat="43.08929" lon="5.86761">
        <ele>62</ele>
        <time>2019-10-23T08:58:10Z</time>
      </trkpt>
      <trkpt lat="43.0893" lon="5.86766">
        <ele>62</ele>
        <time>2019-10-23T08:58:11Z</time>
      </trkpt>
      <trkpt lat="43.0893" lon="5.86771">
        <ele>62</ele>
        <time>2019-10-23T08:58:12Z</time>
      </trkpt>
      <trkpt lat="43.0893" lon="5.86776">
        <ele>63</ele>
        <time>2019-10-23T08:58:13Z</time>
      </trkpt>
      <trkpt lat="43.0893" lon="5.8678">
        <ele>63</ele>
        <time>2019-10-23T08:58:14Z</time>
      </trkpt>
      <trkpt lat="43.08931" lon="5.86784">
        <ele>63</ele>
        <time>2019-10-23T08:58:15Z</time>
      </trkpt>
      <trkpt lat="43.08932" lon="5.86788">
        <ele>63</ele>
        <time>2019-10-23T08:58:16Z</time>
      </trkpt>
      <trkpt lat="43.08932" lon="5.86792">
        <ele>64</ele>
        <time>2019-10-23T08:58:17Z</time>
      </trkpt>
      <trkpt lat="43.08933" lon="5.86796">
        <ele>64</ele>
        <time>2019-10-23T08:58:18Z</time>
      </trkpt>
      <trkpt lat="43.08934" lon="5.868">
        <ele>64</ele>
        <time>2019-10-23T08:58:19Z</time>
      </trkpt>
      <trkpt lat="43.08934" lon="5.86804">
        <ele>64</ele>
        <time>2019-10-23T08:58:20Z</time>
      </trkpt>
      <trkpt lat="43.08937" lon="5.86815">
        <ele>65</ele>
        <time>2019-10-23T08:58:21Z</time>
      </trkpt>
      <trkpt lat="43.08938" lon="5.86819">
        <ele>65</ele>
        <time>2019-10-23T08:58:22Z</time>
      </trkpt>
      <trkpt lat="43.08939" lon="5.86823">
        <ele>66</ele>
        <time>2019-10-23T08:58:23Z</time>
      </trkpt>
      <trkpt lat="43.0894" lon="5.86826">
        <ele>66</ele>
        <time>2019-10-23T08:58:24Z</time>
      </trkpt>
      <trkpt lat="43.08942" lon="5.8683">
        <ele>67</ele>
        <time>2019-10-23T08:58:25Z</time>
      </trkpt>
      <trkpt lat="43.08943" lon="5.86834">
        <ele>67</ele>
        <time>2019-10-23T08:58:26Z</time>
      </trkpt>
      <trkpt lat="43.08944" lon="5.86838">
        <ele>67</ele>
        <time>2019-10-23T08:58:27Z</time>
      </trkpt>
      <trkpt lat="43.08945" lon="5.86842">
        <ele>67</ele>
        <time>2019-10-23T08:58:28Z</time>
      </trkpt>
      <trkpt lat="43.08946" lon="5.86847">
        <ele>67</ele>
        <time>2019-10-23T08:58:29Z</time>
      </trkpt>
      <trkpt lat="43.08946" lon="5.86853">
        <ele>67</ele>
        <time>2019-10-23T08:58:30Z</time>
      </trkpt>
      <trkpt lat="43.08946" lon="5.86858">
        <ele>67</ele>
        <time>2019-10-23T08:58:31Z</time>
      </trkpt>
      <trkpt lat="43.08945" lon="5.86863">
        <ele>67</ele>
        <time>2019-10-23T08:58:32Z</time>
      </trkpt>
      <trkpt lat="43.08942" lon="5.86867">
        <ele>66</ele>
        <time>2019-10-23T08:58:33Z</time>
      </trkpt>
      <trkpt lat="43.08938" lon="5.86869">
        <ele>65</ele>
        <time>2019-10-23T08:58:34Z</time>
      </trkpt>
      <trkpt lat="43.08935" lon="5.86869">
        <ele>65</ele>
        <time>2019-10-23T08:58:35Z</time>
      </trkpt>
      <trkpt lat="43.0893" lon="5.86867">
        <ele>64</ele>
        <time>2019-10-23T08:58:36Z</time>
      </trkpt>
      <trkpt lat="43.08926" lon="5.86864">
        <ele>64</ele>
        <time>2019-10-23T08:58:37Z</time>
      </trkpt>
      <trkpt lat="43.08923" lon="5.86862">
        <ele>64</ele>
        <time>2019-10-23T08:58:38Z</time>
      </trkpt>
      <trkpt lat="43.08919" lon="5.86858">
        <ele>65</ele>
        <time>2019-10-23T08:58:39Z</time>
      </trkpt>
      <trkpt lat="43.08915" lon="5.86856">
        <ele>66</ele>
        <time>2019-10-23T08:58:40Z</time>
      </trkpt>
      <trkpt lat="43.08912" lon="5.86854">
        <ele>66</ele>
        <time>2019-10-23T08:58:41Z</time>
      </trkpt>
      <trkpt lat="43.08909" lon="5.86853">
        <ele>66</ele>
        <time>2019-10-23T08:58:42Z</time>
      </trkpt>
      <trkpt lat="43.08905" lon="5.86851">
        <ele>67</ele>
        <time>2019-10-23T08:58:43Z</time>
      </trkpt>
      <trkpt lat="43.08902" lon="5.86849">
        <ele>67</ele>
        <time>2019-10-23T08:58:44Z</time>
      </trkpt>
      <trkpt lat="43.08897" lon="5.86847">
        <ele>67</ele>
        <time>2019-10-23T08:58:45Z</time>
      </trkpt>
      <trkpt lat="43.08892" lon="5.86845">
        <ele>67</ele>
        <time>2019-10-23T08:58:46Z</time>
      </trkpt>
      <trkpt lat="43.08888" lon="5.86841">
        <ele>66</ele>
        <time>2019-10-23T08:58:47Z</time>
      </trkpt>
      <trkpt lat="43.08882" lon="5.86838">
        <ele>66</ele>
        <time>2019-10-23T08:58:48Z</time>
      </trkpt>
      <trkpt lat="43.08876" lon="5.86835">
        <ele>66</ele>
        <time>2019-10-23T08:58:49Z</time>
      </trkpt>
      <trkpt lat="43.08871" lon="5.86833">
        <ele>66</ele>
        <time>2019-10-23T08:58:50Z</time>
      </trkpt>
      <trkpt lat="43.08865" lon="5.8683">
        <ele>65</ele>
        <time>2019-10-23T08:58:51Z</time>
      </trkpt>
      <trkpt lat="43.08861" lon="5.86823">
        <ele>65</ele>
        <time>2019-10-23T08:58:52Z</time>
      </trkpt>
      <trkpt lat="43.08859" lon="5.86816">
        <ele>65</ele>
        <time>2019-10-23T08:58:53Z</time>
      </trkpt>
      <trkpt lat="43.08859" lon="5.86808">
        <ele>65</ele>
        <time>2019-10-23T08:58:54Z</time>
      </trkpt>
      <trkpt lat="43.0886" lon="5.86801">
        <ele>65</ele>
        <time>2019-10-23T08:58:55Z</time>
      </trkpt>
      <trkpt lat="43.0886" lon="5.86793">
        <ele>65</ele>
        <time>2019-10-23T08:58:56Z</time>
      </trkpt>
      <trkpt lat="43.08861" lon="5.86785">
        <ele>64</ele>
        <time>2019-10-23T08:58:57Z</time>
      </trkpt>
      <trkpt lat="43.08862" lon="5.86777">
        <ele>64</ele>
        <time>2019-10-23T08:58:58Z</time>
      </trkpt>
      <trkpt lat="43.08863" lon="5.86769">
        <ele>64</ele>
        <time>2019-10-23T08:58:59Z</time>
      </trkpt>
      <trkpt lat="43.08863" lon="5.86761">
        <ele>63</ele>
        <time>2019-10-23T08:59:00Z</time>
      </trkpt>
      <trkpt lat="43.08863" lon="5.86753">
        <ele>63</ele>
        <time>2019-10-23T08:59:01Z</time>
      </trkpt>
      <trkpt lat="43.08862" lon="5.86744">
        <ele>63</ele>
        <time>2019-10-23T08:59:02Z</time>
      </trkpt>
      <trkpt lat="43.08861" lon="5.86736">
        <ele>63</ele>
        <time>2019-10-23T08:59:04Z</time>
      </trkpt>
      <trkpt lat="43.0886" lon="5.86728">
        <ele>63</ele>
        <time>2019-10-23T08:59:05Z</time>
      </trkpt>
      <trkpt lat="43.08858" lon="5.8672">
        <ele>62</ele>
        <time>2019-10-23T08:59:06Z</time>
      </trkpt>
      <trkpt lat="43.08857" lon="5.86713">
        <ele>62</ele>
        <time>2019-10-23T08:59:08Z</time>
      </trkpt>
      <trkpt lat="43.08856" lon="5.86706">
        <ele>61</ele>
        <time>2019-10-23T08:59:09Z</time>
      </trkpt>
      <trkpt lat="43.08856" lon="5.86698">
        <ele>61</ele>
        <time>2019-10-23T08:59:10Z</time>
      </trkpt>
      <trkpt lat="43.08856" lon="5.86691">
        <ele>60</ele>
        <time>2019-10-23T08:59:11Z</time>
      </trkpt>
      <trkpt lat="43.08857" lon="5.86684">
        <ele>59</ele>
        <time>2019-10-23T08:59:12Z</time>
      </trkpt>
      <trkpt lat="43.08859" lon="5.86679">
        <ele>59</ele>
        <time>2019-10-23T08:59:13Z</time>
      </trkpt>
      <trkpt lat="43.0886" lon="5.86674">
        <ele>58</ele>
        <time>2019-10-23T08:59:14Z</time>
      </trkpt>
      <trkpt lat="43.0886" lon="5.86669">
        <ele>58</ele>
        <time>2019-10-23T08:59:15Z</time>
      </trkpt>
      <trkpt lat="43.0886" lon="5.86664">
        <ele>57</ele>
        <time>2019-10-23T08:59:16Z</time>
      </trkpt>
      <trkpt lat="43.08858" lon="5.86658">
        <ele>56</ele>
        <time>2019-10-23T08:59:17Z</time>
      </trkpt>
      <trkpt lat="43.08856" lon="5.86651">
        <ele>56</ele>
        <time>2019-10-23T08:59:18Z</time>
      </trkpt>
      <trkpt lat="43.08853" lon="5.86647">
        <ele>55</ele>
        <time>2019-10-23T08:59:19Z</time>
      </trkpt>
      <trkpt lat="43.08848" lon="5.86643">
        <ele>55</ele>
        <time>2019-10-23T08:59:20Z</time>
      </trkpt>
      <trkpt lat="43.08842" lon="5.86641">
        <ele>54</ele>
        <time>2019-10-23T08:59:21Z</time>
      </trkpt>
      <trkpt lat="43.08836" lon="5.8664">
        <ele>53</ele>
        <time>2019-10-23T08:59:22Z</time>
      </trkpt>
      <trkpt lat="43.08831" lon="5.86642">
        <ele>53</ele>
        <time>2019-10-23T08:59:23Z</time>
      </trkpt>
      <trkpt lat="43.08826" lon="5.86642">
        <ele>52</ele>
        <time>2019-10-23T08:59:24Z</time>
      </trkpt>
      <trkpt lat="43.08821" lon="5.86642">
        <ele>51</ele>
        <time>2019-10-23T08:59:25Z</time>
      </trkpt>
      <trkpt lat="43.08816" lon="5.86644">
        <ele>50</ele>
        <time>2019-10-23T08:59:26Z</time>
      </trkpt>
      <trkpt lat="43.0881" lon="5.86646">
        <ele>50</ele>
        <time>2019-10-23T08:59:27Z</time>
      </trkpt>
      <trkpt lat="43.08808" lon="5.8665">
        <ele>50</ele>
        <time>2019-10-23T08:59:28Z</time>
      </trkpt>
      <trkpt lat="43.08806" lon="5.86655">
        <ele>49</ele>
        <time>2019-10-23T08:59:29Z</time>
      </trkpt>
      <trkpt lat="43.08803" lon="5.8666">
        <ele>49</ele>
        <time>2019-10-23T08:59:30Z</time>
      </trkpt>
      <trkpt lat="43.08801" lon="5.86665">
        <ele>48</ele>
        <time>2019-10-23T08:59:31Z</time>
      </trkpt>
      <trkpt lat="43.08801" lon="5.86671">
        <ele>48</ele>
        <time>2019-10-23T08:59:32Z</time>
      </trkpt>
      <trkpt lat="43.088" lon="5.86676">
        <ele>49</ele>
        <time>2019-10-23T08:59:33Z</time>
      </trkpt>
      <trkpt lat="43.088" lon="5.8668">
        <ele>49</ele>
        <time>2019-10-23T08:59:34Z</time>
      </trkpt>
      <trkpt lat="43.088" lon="5.86686">
        <ele>50</ele>
        <time>2019-10-23T08:59:35Z</time>
      </trkpt>
      <trkpt lat="43.088" lon="5.86692">
        <ele>50</ele>
        <time>2019-10-23T08:59:36Z</time>
      </trkpt>
      <trkpt lat="43.088" lon="5.86696">
        <ele>50</ele>
        <time>2019-10-23T08:59:37Z</time>
      </trkpt>
      <trkpt lat="43.08799" lon="5.86703">
        <ele>50</ele>
        <time>2019-10-23T08:59:38Z</time>
      </trkpt>
      <trkpt lat="43.08798" lon="5.86708">
        <ele>51</ele>
        <time>2019-10-23T08:59:39Z</time>
      </trkpt>
      <trkpt lat="43.08797" lon="5.86713">
        <ele>51</ele>
        <time>2019-10-23T08:59:40Z</time>
      </trkpt>
      <trkpt lat="43.08796" lon="5.86718">
        <ele>51</ele>
        <time>2019-10-23T08:59:41Z</time>
      </trkpt>
      <trkpt lat="43.08794" lon="5.86722">
        <ele>51</ele>
        <time>2019-10-23T08:59:42Z</time>
      </trkpt>
      <trkpt lat="43.08792" lon="5.86725">
        <ele>51</ele>
        <time>2019-10-23T08:59:43Z</time>
      </trkpt>
      <trkpt lat="43.0879" lon="5.86728">
        <ele>51</ele>
        <time>2019-10-23T08:59:44Z</time>
      </trkpt>
      <trkpt lat="43.08788" lon="5.86731">
        <ele>51</ele>
        <time>2019-10-23T08:59:45Z</time>
      </trkpt>
      <trkpt lat="43.08785" lon="5.86735">
        <ele>51</ele>
        <time>2019-10-23T08:59:46Z</time>
      </trkpt>
      <trkpt lat="43.08782" lon="5.86738">
        <ele>51</ele>
        <time>2019-10-23T08:59:47Z</time>
      </trkpt>
      <trkpt lat="43.08779" lon="5.86742">
        <ele>52</ele>
        <time>2019-10-23T08:59:48Z</time>
      </trkpt>
      <trkpt lat="43.08776" lon="5.86747">
        <ele>52</ele>
        <time>2019-10-23T08:59:49Z</time>
      </trkpt>
      <trkpt lat="43.08773" lon="5.86752">
        <ele>51</ele>
        <time>2019-10-23T08:59:50Z</time>
      </trkpt>
      <trkpt lat="43.0877" lon="5.86759">
        <ele>51</ele>
        <time>2019-10-23T08:59:51Z</time>
      </trkpt>
      <trkpt lat="43.08767" lon="5.86766">
        <ele>51</ele>
        <time>2019-10-23T08:59:52Z</time>
      </trkpt>
      <trkpt lat="43.08764" lon="5.86774">
        <ele>51</ele>
        <time>2019-10-23T08:59:53Z</time>
      </trkpt>
      <trkpt lat="43.08762" lon="5.86782">
        <ele>51</ele>
        <time>2019-10-23T08:59:54Z</time>
      </trkpt>
      <trkpt lat="43.08758" lon="5.86791">
        <ele>50</ele>
        <time>2019-10-23T08:59:55Z</time>
      </trkpt>
      <trkpt lat="43.08755" lon="5.86799">
        <ele>50</ele>
        <time>2019-10-23T08:59:56Z</time>
      </trkpt>
      <trkpt lat="43.08751" lon="5.86805">
        <ele>50</ele>
        <time>2019-10-23T08:59:57Z</time>
      </trkpt>
      <trkpt lat="43.08747" lon="5.86811">
        <ele>49</ele>
        <time>2019-10-23T08:59:58Z</time>
      </trkpt>
      <trkpt lat="43.08743" lon="5.86817">
        <ele>49</ele>
        <time>2019-10-23T08:59:59Z</time>
      </trkpt>
      <trkpt lat="43.08739" lon="5.86823">
        <ele>49</ele>
        <time>2019-10-23T09:00:00Z</time>
      </trkpt>
      <trkpt lat="43.08735" lon="5.86829">
        <ele>49</ele>
        <time>2019-10-23T09:00:01Z</time>
      </trkpt>
      <trkpt lat="43.0873" lon="5.86835">
        <ele>49</ele>
        <time>2019-10-23T09:00:02Z</time>
      </trkpt>
      <trkpt lat="43.08726" lon="5.86839">
        <ele>48</ele>
        <time>2019-10-23T09:00:03Z</time>
      </trkpt>
      <trkpt lat="43.08721" lon="5.86842">
        <ele>48</ele>
        <time>2019-10-23T09:00:04Z</time>
      </trkpt>
      <trkpt lat="43.08715" lon="5.86845">
        <ele>48</ele>
        <time>2019-10-23T09:00:05Z</time>
      </trkpt>
      <trkpt lat="43.08709" lon="5.86846">
        <ele>48</ele>
        <time>2019-10-23T09:00:06Z</time>
      </trkpt>
      <trkpt lat="43.08703" lon="5.86847">
        <ele>47</ele>
        <time>2019-10-23T09:00:07Z</time>
      </trkpt>
      <trkpt lat="43.08697" lon="5.86848">
        <ele>47</ele>
        <time>2019-10-23T09:00:08Z</time>
      </trkpt>
      <trkpt lat="43.08691" lon="5.8685">
        <ele>47</ele>
        <time>2019-10-23T09:00:09Z</time>
      </trkpt>
      <trkpt lat="43.08685" lon="5.86854">
        <ele>47</ele>
        <time>2019-10-23T09:00:10Z</time>
      </trkpt>
      <trkpt lat="43.0868" lon="5.86858">
        <ele>47</ele>
        <time>2019-10-23T09:00:11Z</time>
      </trkpt>
      <trkpt lat="43.08673" lon="5.86862">
        <ele>47</ele>
        <time>2019-10-23T09:00:12Z</time>
      </trkpt>
      <trkpt lat="43.08667" lon="5.86867">
        <ele>46</ele>
        <time>2019-10-23T09:00:13Z</time>
      </trkpt>
      <trkpt lat="43.08661" lon="5.86871">
        <ele>46</ele>
        <time>2019-10-23T09:00:14Z</time>
      </trkpt>
      <trkpt lat="43.08654" lon="5.86877">
        <ele>45</ele>
        <time>2019-10-23T09:00:15Z</time>
      </trkpt>
      <trkpt lat="43.0865" lon="5.86882">
        <ele>45</ele>
        <time>2019-10-23T09:00:16Z</time>
      </trkpt>
      <trkpt lat="43.08645" lon="5.86888">
        <ele>45</ele>
        <time>2019-10-23T09:00:17Z</time>
      </trkpt>
      <trkpt lat="43.08641" lon="5.86895">
        <ele>45</ele>
        <time>2019-10-23T09:00:19Z</time>
      </trkpt>
      <trkpt lat="43.08635" lon="5.86904">
        <ele>45</ele>
        <time>2019-10-23T09:00:20Z</time>
      </trkpt>
      <trkpt lat="43.0863" lon="5.86911">
        <ele>45</ele>
        <time>2019-10-23T09:00:22Z</time>
      </trkpt>
      <trkpt lat="43.08626" lon="5.86918">
        <ele>45</ele>
        <time>2019-10-23T09:00:23Z</time>
      </trkpt>
      <trkpt lat="43.08622" lon="5.86925">
        <ele>44</ele>
        <time>2019-10-23T09:00:24Z</time>
      </trkpt>
      <trkpt lat="43.08618" lon="5.86931">
        <ele>44</ele>
        <time>2019-10-23T09:00:25Z</time>
      </trkpt>
      <trkpt lat="43.08613" lon="5.86937">
        <ele>44</ele>
        <time>2019-10-23T09:00:26Z</time>
      </trkpt>
      <trkpt lat="43.08608" lon="5.86942">
        <ele>44</ele>
        <time>2019-10-23T09:00:27Z</time>
      </trkpt>
      <trkpt lat="43.08604" lon="5.86949">
        <ele>43</ele>
        <time>2019-10-23T09:00:28Z</time>
      </trkpt>
      <trkpt lat="43.086" lon="5.86955">
        <ele>43</ele>
        <time>2019-10-23T09:00:29Z</time>
      </trkpt>
      <trkpt lat="43.08595" lon="5.86962">
        <ele>43</ele>
        <time>2019-10-23T09:00:30Z</time>
      </trkpt>
      <trkpt lat="43.08592" lon="5.8697">
        <ele>43</ele>
        <time>2019-10-23T09:00:31Z</time>
      </trkpt>
      <trkpt lat="43.08588" lon="5.86979">
        <ele>43</ele>
        <time>2019-10-23T09:00:32Z</time>
      </trkpt>
      <trkpt lat="43.08586" lon="5.86988">
        <ele>43</ele>
        <time>2019-10-23T09:00:33Z</time>
      </trkpt>
      <trkpt lat="43.08585" lon="5.86996">
        <ele>43</ele>
        <time>2019-10-23T09:00:34Z</time>
      </trkpt>
      <trkpt lat="43.08585" lon="5.87006">
        <ele>42</ele>
        <time>2019-10-23T09:00:35Z</time>
      </trkpt>
      <trkpt lat="43.08585" lon="5.87015">
        <ele>42</ele>
        <time>2019-10-23T09:00:36Z</time>
      </trkpt>
      <trkpt lat="43.08585" lon="5.87025">
        <ele>41</ele>
        <time>2019-10-23T09:00:37Z</time>
      </trkpt>
      <trkpt lat="43.08585" lon="5.87034">
        <ele>41</ele>
        <time>2019-10-23T09:00:38Z</time>
      </trkpt>
      <trkpt lat="43.08586" lon="5.87044">
        <ele>40</ele>
        <time>2019-10-23T09:00:39Z</time>
      </trkpt>
      <trkpt lat="43.08586" lon="5.87053">
        <ele>40</ele>
        <time>2019-10-23T09:00:40Z</time>
      </trkpt>
      <trkpt lat="43.08587" lon="5.87062">
        <ele>39</ele>
        <time>2019-10-23T09:00:41Z</time>
      </trkpt>
      <trkpt lat="43.08587" lon="5.8707">
        <ele>39</ele>
        <time>2019-10-23T09:00:42Z</time>
      </trkpt>
      <trkpt lat="43.08588" lon="5.87078">
        <ele>39</ele>
        <time>2019-10-23T09:00:43Z</time>
      </trkpt>
      <trkpt lat="43.08588" lon="5.87088">
        <ele>39</ele>
        <time>2019-10-23T09:00:44Z</time>
      </trkpt>
      <trkpt lat="43.08588" lon="5.87096">
        <ele>39</ele>
        <time>2019-10-23T09:00:45Z</time>
      </trkpt>
      <trkpt lat="43.08588" lon="5.87104">
        <ele>39</ele>
        <time>2019-10-23T09:00:46Z</time>
      </trkpt>
      <trkpt lat="43.08588" lon="5.87111">
        <ele>38</ele>
        <time>2019-10-23T09:00:47Z</time>
      </trkpt>
      <trkpt lat="43.08589" lon="5.87118">
        <ele>38</ele>
        <time>2019-10-23T09:00:48Z</time>
      </trkpt>
      <trkpt lat="43.08589" lon="5.87126">
        <ele>38</ele>
        <time>2019-10-23T09:00:49Z</time>
      </trkpt>
      <trkpt lat="43.08589" lon="5.87133">
        <ele>38</ele>
        <time>2019-10-23T09:00:51Z</time>
      </trkpt>
      <trkpt lat="43.08588" lon="5.87148">
        <ele>38</ele>
        <time>2019-10-23T09:00:52Z</time>
      </trkpt>
      <trkpt lat="43.08589" lon="5.8716">
        <ele>38</ele>
        <time>2019-10-23T09:00:53Z</time>
      </trkpt>
      <trkpt lat="43.0859" lon="5.87169">
        <ele>38</ele>
        <time>2019-10-23T09:00:54Z</time>
      </trkpt>
      <trkpt lat="43.08591" lon="5.87178">
        <ele>38</ele>
        <time>2019-10-23T09:00:55Z</time>
      </trkpt>
      <trkpt lat="43.08593" lon="5.87186">
        <ele>38</ele>
        <time>2019-10-23T09:00:56Z</time>
      </trkpt>
      <trkpt lat="43.08595" lon="5.87194">
        <ele>37</ele>
        <time>2019-10-23T09:00:57Z</time>
      </trkpt>
      <trkpt lat="43.08597" lon="5.87202">
        <ele>37</ele>
        <time>2019-10-23T09:00:58Z</time>
      </trkpt>
      <trkpt lat="43.08599" lon="5.87211">
        <ele>37</ele>
        <time>2019-10-23T09:00:59Z</time>
      </trkpt>
      <trkpt lat="43.086" lon="5.8722">
        <ele>37</ele>
        <time>2019-10-23T09:01:00Z</time>
      </trkpt>
      <trkpt lat="43.08601" lon="5.87228">
        <ele>36</ele>
        <time>2019-10-23T09:01:01Z</time>
      </trkpt>
      <trkpt lat="43.08601" lon="5.87237">
        <ele>36</ele>
        <time>2019-10-23T09:01:02Z</time>
      </trkpt>
      <trkpt lat="43.08601" lon="5.87245">
        <ele>36</ele>
        <time>2019-10-23T09:01:03Z</time>
      </trkpt>
      <trkpt lat="43.08599" lon="5.87251">
        <ele>36</ele>
        <time>2019-10-23T09:01:04Z</time>
      </trkpt>
      <trkpt lat="43.08598" lon="5.87257">
        <ele>36</ele>
        <time>2019-10-23T09:01:05Z</time>
      </trkpt>
      <trkpt lat="43.08596" lon="5.87262">
        <ele>36</ele>
        <time>2019-10-23T09:01:06Z</time>
      </trkpt>
      <trkpt lat="43.08596" lon="5.87268">
        <ele>36</ele>
        <time>2019-10-23T09:01:07Z</time>
      </trkpt>
      <trkpt lat="43.08596" lon="5.87273">
        <ele>37</ele>
        <time>2019-10-23T09:01:08Z</time>
      </trkpt>
      <trkpt lat="43.08596" lon="5.87277">
        <ele>37</ele>
        <time>2019-10-23T09:01:09Z</time>
      </trkpt>
      <trkpt lat="43.08596" lon="5.87284">
        <ele>37</ele>
        <time>2019-10-23T09:01:10Z</time>
      </trkpt>
      <trkpt lat="43.08595" lon="5.87291">
        <ele>37</ele>
        <time>2019-10-23T09:01:11Z</time>
      </trkpt>
      <trkpt lat="43.08594" lon="5.873">
        <ele>37</ele>
        <time>2019-10-23T09:01:12Z</time>
      </trkpt>
      <trkpt lat="43.08593" lon="5.87309">
        <ele>36</ele>
        <time>2019-10-23T09:01:13Z</time>
      </trkpt>
      <trkpt lat="43.08591" lon="5.87318">
        <ele>36</ele>
        <time>2019-10-23T09:01:14Z</time>
      </trkpt>
      <trkpt lat="43.0859" lon="5.87328">
        <ele>36</ele>
        <time>2019-10-23T09:01:15Z</time>
      </trkpt>
      <trkpt lat="43.08588" lon="5.87337">
        <ele>36</ele>
        <time>2019-10-23T09:01:16Z</time>
      </trkpt>
      <trkpt lat="43.08587" lon="5.87347">
        <ele>35</ele>
        <time>2019-10-23T09:01:18Z</time>
      </trkpt>
      <trkpt lat="43.08585" lon="5.87358">
        <ele>35</ele>
        <time>2019-10-23T09:01:20Z</time>
      </trkpt>
      <trkpt lat="43.08584" lon="5.87367">
        <ele>35</ele>
        <time>2019-10-23T09:01:21Z</time>
      </trkpt>
      <trkpt lat="43.08583" lon="5.87377">
        <ele>34</ele>
        <time>2019-10-23T09:01:23Z</time>
      </trkpt>
      <trkpt lat="43.08582" lon="5.87393">
        <ele>34</ele>
        <time>2019-10-23T09:01:24Z</time>
      </trkpt>
      <trkpt lat="43.0858" lon="5.87403">
        <ele>34</ele>
        <time>2019-10-23T09:01:25Z</time>
      </trkpt>
      <trkpt lat="43.08579" lon="5.87413">
        <ele>33</ele>
        <time>2019-10-23T09:01:26Z</time>
      </trkpt>
      <trkpt lat="43.08578" lon="5.87423">
        <ele>33</ele>
        <time>2019-10-23T09:01:27Z</time>
      </trkpt>
      <trkpt lat="43.08577" lon="5.87433">
        <ele>32</ele>
        <time>2019-10-23T09:01:28Z</time>
      </trkpt>
      <trkpt lat="43.08576" lon="5.87443">
        <ele>31</ele>
        <time>2019-10-23T09:01:30Z</time>
      </trkpt>
      <trkpt lat="43.08574" lon="5.87453">
        <ele>31</ele>
        <time>2019-10-23T09:01:31Z</time>
      </trkpt>
      <trkpt lat="43.08572" lon="5.87463">
        <ele>31</ele>
        <time>2019-10-23T09:01:33Z</time>
      </trkpt>
      <trkpt lat="43.08571" lon="5.87472">
        <ele>30</ele>
        <time>2019-10-23T09:01:34Z</time>
      </trkpt>
      <trkpt lat="43.08569" lon="5.87482">
        <ele>30</ele>
        <time>2019-10-23T09:01:35Z</time>
      </trkpt>
      <trkpt lat="43.08568" lon="5.87492">
        <ele>30</ele>
        <time>2019-10-23T09:01:36Z</time>
      </trkpt>
      <trkpt lat="43.08566" lon="5.875">
        <ele>29</ele>
        <time>2019-10-23T09:01:37Z</time>
      </trkpt>
      <trkpt lat="43.08564" lon="5.8751">
        <ele>29</ele>
        <time>2019-10-23T09:01:38Z</time>
      </trkpt>
      <trkpt lat="43.08562" lon="5.8752">
        <ele>28</ele>
        <time>2019-10-23T09:01:39Z</time>
      </trkpt>
      <trkpt lat="43.08561" lon="5.8753">
        <ele>28</ele>
        <time>2019-10-23T09:01:40Z</time>
      </trkpt>
      <trkpt lat="43.08559" lon="5.87539">
        <ele>28</ele>
        <time>2019-10-23T09:01:41Z</time>
      </trkpt>
      <trkpt lat="43.08556" lon="5.87548">
        <ele>27</ele>
        <time>2019-10-23T09:01:42Z</time>
      </trkpt>
      <trkpt lat="43.08553" lon="5.87556">
        <ele>27</ele>
        <time>2019-10-23T09:01:43Z</time>
      </trkpt>
      <trkpt lat="43.0855" lon="5.87562">
        <ele>26</ele>
        <time>2019-10-23T09:01:44Z</time>
      </trkpt>
      <trkpt lat="43.08546" lon="5.87567">
        <ele>26</ele>
        <time>2019-10-23T09:01:45Z</time>
      </trkpt>
      <trkpt lat="43.08542" lon="5.8757">
        <ele>25</ele>
        <time>2019-10-23T09:01:46Z</time>
      </trkpt>
      <trkpt lat="43.08537" lon="5.87572">
        <ele>25</ele>
        <time>2019-10-23T09:01:47Z</time>
      </trkpt>
      <trkpt lat="43.08532" lon="5.87574">
        <ele>25</ele>
        <time>2019-10-23T09:01:48Z</time>
      </trkpt>
      <trkpt lat="43.08526" lon="5.87577">
        <ele>25</ele>
        <time>2019-10-23T09:01:49Z</time>
      </trkpt>
      <trkpt lat="43.0852" lon="5.87579">
        <ele>25</ele>
        <time>2019-10-23T09:01:50Z</time>
      </trkpt>
      <trkpt lat="43.08514" lon="5.87581">
        <ele>24</ele>
        <time>2019-10-23T09:01:51Z</time>
      </trkpt>
      <trkpt lat="43.08507" lon="5.87588">
        <ele>23</ele>
        <time>2019-10-23T09:01:52Z</time>
      </trkpt>
      <trkpt lat="43.08504" lon="5.87601">
        <ele>22</ele>
        <time>2019-10-23T09:01:53Z</time>
      </trkpt>
      <trkpt lat="43.08502" lon="5.87611">
        <ele>22</ele>
        <time>2019-10-23T09:01:54Z</time>
      </trkpt>
      <trkpt lat="43.08503" lon="5.87625">
        <ele>22</ele>
        <time>2019-10-23T09:01:55Z</time>
      </trkpt>
      <trkpt lat="43.08503" lon="5.87634">
        <ele>22</ele>
        <time>2019-10-23T09:01:56Z</time>
      </trkpt>
      <trkpt lat="43.08503" lon="5.87642">
        <ele>22</ele>
        <time>2019-10-23T09:01:57Z</time>
      </trkpt>
      <trkpt lat="43.08504" lon="5.87649">
        <ele>22</ele>
        <time>2019-10-23T09:01:58Z</time>
      </trkpt>
      <trkpt lat="43.08505" lon="5.87656">
        <ele>22</ele>
        <time>2019-10-23T09:01:59Z</time>
      </trkpt>
      <trkpt lat="43.08503" lon="5.87664">
        <ele>22</ele>
        <time>2019-10-23T09:02:00Z</time>
      </trkpt>
      <trkpt lat="43.08498" lon="5.87676">
        <ele>22</ele>
        <time>2019-10-23T09:02:01Z</time>
      </trkpt>
      <trkpt lat="43.08493" lon="5.87683">
        <ele>21</ele>
        <time>2019-10-23T09:02:02Z</time>
      </trkpt>
      <trkpt lat="43.08489" lon="5.87696">
        <ele>21</ele>
        <time>2019-10-23T09:02:03Z</time>
      </trkpt>
      <trkpt lat="43.08486" lon="5.87705">
        <ele>20</ele>
        <time>2019-10-23T09:02:04Z</time>
      </trkpt>
      <trkpt lat="43.08485" lon="5.87713">
        <ele>20</ele>
        <time>2019-10-23T09:02:05Z</time>
      </trkpt>
      <trkpt lat="43.08485" lon="5.8772">
        <ele>20</ele>
        <time>2019-10-23T09:02:06Z</time>
      </trkpt>
      <trkpt lat="43.08482" lon="5.87726">
        <ele>20</ele>
        <time>2019-10-23T09:02:07Z</time>
      </trkpt>
      <trkpt lat="43.08479" lon="5.87731">
        <ele>19</ele>
        <time>2019-10-23T09:02:08Z</time>
      </trkpt>
      <trkpt lat="43.08475" lon="5.87735">
        <ele>19</ele>
        <time>2019-10-23T09:02:09Z</time>
      </trkpt>
      <trkpt lat="43.0847" lon="5.87737">
        <ele>19</ele>
        <time>2019-10-23T09:02:10Z</time>
      </trkpt>
      <trkpt lat="43.08465" lon="5.87738">
        <ele>19</ele>
        <time>2019-10-23T09:02:11Z</time>
      </trkpt>
      <trkpt lat="43.0846" lon="5.87739">
        <ele>18</ele>
        <time>2019-10-23T09:02:12Z</time>
      </trkpt>
      <trkpt lat="43.08454" lon="5.8774">
        <ele>18</ele>
        <time>2019-10-23T09:02:13Z</time>
      </trkpt>
      <trkpt lat="43.08448" lon="5.87742">
        <ele>18</ele>
        <time>2019-10-23T09:02:14Z</time>
      </trkpt>
      <trkpt lat="43.08442" lon="5.87744">
        <ele>18</ele>
        <time>2019-10-23T09:02:16Z</time>
      </trkpt>
      <trkpt lat="43.08437" lon="5.87747">
        <ele>17</ele>
        <time>2019-10-23T09:02:17Z</time>
      </trkpt>
      <trkpt lat="43.08432" lon="5.87752">
        <ele>17</ele>
        <time>2019-10-23T09:02:19Z</time>
      </trkpt>
      <trkpt lat="43.08428" lon="5.87758">
        <ele>16</ele>
        <time>2019-10-23T09:02:20Z</time>
      </trkpt>
      <trkpt lat="43.08424" lon="5.87764">
        <ele>16</ele>
        <time>2019-10-23T09:02:21Z</time>
      </trkpt>
      <trkpt lat="43.0842" lon="5.87771">
        <ele>16</ele>
        <time>2019-10-23T09:02:22Z</time>
      </trkpt>
      <trkpt lat="43.08417" lon="5.87778">
        <ele>16</ele>
        <time>2019-10-23T09:02:23Z</time>
      </trkpt>
      <trkpt lat="43.08414" lon="5.87785">
        <ele>16</ele>
        <time>2019-10-23T09:02:24Z</time>
      </trkpt>
      <trkpt lat="43.08411" lon="5.87791">
        <ele>16</ele>
        <time>2019-10-23T09:02:25Z</time>
      </trkpt>
      <trkpt lat="43.08409" lon="5.87798">
        <ele>16</ele>
        <time>2019-10-23T09:02:26Z</time>
      </trkpt>
      <trkpt lat="43.08406" lon="5.87804">
        <ele>16</ele>
        <time>2019-10-23T09:02:27Z</time>
      </trkpt>
      <trkpt lat="43.08404" lon="5.87811">
        <ele>16</ele>
        <time>2019-10-23T09:02:28Z</time>
      </trkpt>
      <trkpt lat="43.08401" lon="5.87819">
        <ele>16</ele>
        <time>2019-10-23T09:02:29Z</time>
      </trkpt>
      <trkpt lat="43.08399" lon="5.87826">
        <ele>16</ele>
        <time>2019-10-23T09:02:30Z</time>
      </trkpt>
      <trkpt lat="43.08398" lon="5.87833">
        <ele>16</ele>
        <time>2019-10-23T09:02:31Z</time>
      </trkpt>
      <trkpt lat="43.08395" lon="5.8784">
        <ele>15</ele>
        <time>2019-10-23T09:02:32Z</time>
      </trkpt>
      <trkpt lat="43.08393" lon="5.87847">
        <ele>15</ele>
        <time>2019-10-23T09:02:33Z</time>
      </trkpt>
      <trkpt lat="43.08391" lon="5.87854">
        <ele>15</ele>
        <time>2019-10-23T09:02:34Z</time>
      </trkpt>
      <trkpt lat="43.08389" lon="5.87861">
        <ele>15</ele>
        <time>2019-10-23T09:02:35Z</time>
      </trkpt>
      <trkpt lat="43.08387" lon="5.87869">
        <ele>15</ele>
        <time>2019-10-23T09:02:37Z</time>
      </trkpt>
      <trkpt lat="43.08385" lon="5.87876">
        <ele>14</ele>
        <time>2019-10-23T09:02:45Z</time>
      </trkpt>
      <trkpt lat="43.08382" lon="5.87884">
        <ele>14</ele>
        <time>2019-10-23T09:02:47Z</time>
      </trkpt>
      <trkpt lat="43.0838" lon="5.87891">
        <ele>14</ele>
        <time>2019-10-23T09:02:48Z</time>
      </trkpt>
      <trkpt lat="43.08378" lon="5.87896">
        <ele>14</ele>
        <time>2019-10-23T09:02:50Z</time>
      </trkpt>
      <trkpt lat="43.08375" lon="5.87902">
        <ele>14</ele>
        <time>2019-10-23T09:02:51Z</time>
      </trkpt>
      <trkpt lat="43.08372" lon="5.87908">
        <ele>14</ele>
        <time>2019-10-23T09:02:52Z</time>
      </trkpt>
      <trkpt lat="43.0837" lon="5.87914">
        <ele>14</ele>
        <time>2019-10-23T09:02:53Z</time>
      </trkpt>
      <trkpt lat="43.08367" lon="5.8792">
        <ele>14</ele>
        <time>2019-10-23T09:02:54Z</time>
      </trkpt>
      <trkpt lat="43.08365" lon="5.87927">
        <ele>14</ele>
        <time>2019-10-23T09:02:55Z</time>
      </trkpt>
      <trkpt lat="43.08364" lon="5.87932">
        <ele>14</ele>
        <time>2019-10-23T09:02:56Z</time>
      </trkpt>
      <trkpt lat="43.08363" lon="5.87937">
        <ele>14</ele>
        <time>2019-10-23T09:02:57Z</time>
      </trkpt>
      <trkpt lat="43.08361" lon="5.87941">
        <ele>14</ele>
        <time>2019-10-23T09:02:58Z</time>
      </trkpt>
      <trkpt lat="43.08356" lon="5.87944">
        <ele>12</ele>
        <time>2019-10-23T09:02:59Z</time>
      </trkpt>
      <trkpt lat="43.08352" lon="5.87944">
        <ele>11</ele>
        <time>2019-10-23T09:03:00Z</time>
      </trkpt>
      <trkpt lat="43.08348" lon="5.87943">
        <ele>11</ele>
        <time>2019-10-23T09:03:01Z</time>
      </trkpt>
      <trkpt lat="43.08343" lon="5.87943">
        <ele>10</ele>
        <time>2019-10-23T09:03:02Z</time>
      </trkpt>
      <trkpt lat="43.08338" lon="5.87942">
        <ele>10</ele>
        <time>2019-10-23T09:03:03Z</time>
      </trkpt>
      <trkpt lat="43.08334" lon="5.87941">
        <ele>10</ele>
        <time>2019-10-23T09:03:04Z</time>
      </trkpt>
      <trkpt lat="43.08329" lon="5.8794">
        <ele>10</ele>
        <time>2019-10-23T09:03:05Z</time>
      </trkpt>
      <trkpt lat="43.08325" lon="5.8794">
        <ele>10</ele>
        <time>2019-10-23T09:03:06Z</time>
      </trkpt>
      <trkpt lat="43.08321" lon="5.8794">
        <ele>10</ele>
        <time>2019-10-23T09:03:07Z</time>
      </trkpt>
      <trkpt lat="43.08316" lon="5.8794">
        <ele>10</ele>
        <time>2019-10-23T09:03:08Z</time>
      </trkpt>
      <trkpt lat="43.08312" lon="5.87939">
        <ele>10</ele>
        <time>2019-10-23T09:03:10Z</time>
      </trkpt>
      <trkpt lat="43.08307" lon="5.87938">
        <ele>10</ele>
        <time>2019-10-23T09:03:20Z</time>
      </trkpt>
      <trkpt lat="43.08302" lon="5.87938">
        <ele>10</ele>
        <time>2019-10-23T09:03:22Z</time>
      </trkpt>
      <trkpt lat="43.08298" lon="5.87939">
        <ele>10</ele>
        <time>2019-10-23T09:03:24Z</time>
      </trkpt>
      <trkpt lat="43.08293" lon="5.8794">
        <ele>10</ele>
        <time>2019-10-23T09:03:25Z</time>
      </trkpt>
      <trkpt lat="43.0829" lon="5.8794">
        <ele>10</ele>
        <time>2019-10-23T09:03:26Z</time>
      </trkpt>
      <trkpt lat="43.08287" lon="5.8794">
        <ele>10</ele>
        <time>2019-10-23T09:03:27Z</time>
      </trkpt>
      <trkpt lat="43.08284" lon="5.87939">
        <ele>10</ele>
        <time>2019-10-23T09:03:28Z</time>
      </trkpt>
      <trkpt lat="43.08283" lon="5.87936">
        <ele>11</ele>
        <time>2019-10-23T09:03:29Z</time>
      </trkpt>
      <trkpt lat="43.08281" lon="5.87932">
        <ele>11</ele>
        <time>2019-10-23T09:03:30Z</time>
      </trkpt>
      <trkpt lat="43.0828" lon="5.87928">
        <ele>11</ele>
        <time>2019-10-23T09:03:31Z</time>
      </trkpt>
      <trkpt lat="43.08277" lon="5.87921">
        <ele>11</ele>
        <time>2019-10-23T09:03:32Z</time>
      </trkpt>
      <trkpt lat="43.08275" lon="5.87917">
        <ele>11</ele>
        <time>2019-10-23T09:03:33Z</time>
      </trkpt>
      <trkpt lat="43.08274" lon="5.87912">
        <ele>12</ele>
        <time>2019-10-23T09:03:34Z</time>
      </trkpt>
      <trkpt lat="43.08272" lon="5.87908">
        <ele>12</ele>
        <time>2019-10-23T09:03:35Z</time>
      </trkpt>
      <trkpt lat="43.08271" lon="5.87904">
        <ele>12</ele>
        <time>2019-10-23T09:03:37Z</time>
      </trkpt>
      <trkpt lat="43.08269" lon="5.879">
        <ele>12</ele>
        <time>2019-10-23T09:03:38Z</time>
      </trkpt>
      <trkpt lat="43.08268" lon="5.87896">
        <ele>12</ele>
        <time>2019-10-23T09:03:40Z</time>
      </trkpt>
      <trkpt lat="43.08265" lon="5.87893">
        <ele>12</ele>
        <time>2019-10-23T09:03:42Z</time>
      </trkpt>
      <trkpt lat="43.08262" lon="5.87892">
        <ele>12</ele>
        <time>2019-10-23T09:03:44Z</time>
      </trkpt>
      <trkpt lat="43.08258" lon="5.87892">
        <ele>12</ele>
        <time>2019-10-23T09:03:46Z</time>
      </trkpt>
      <trkpt lat="43.08254" lon="5.87894">
        <ele>12</ele>
        <time>2019-10-23T09:03:48Z</time>
      </trkpt>
      <trkpt lat="43.08251" lon="5.87897">
        <ele>13</ele>
        <time>2019-10-23T09:03:50Z</time>
      </trkpt>
      <trkpt lat="43.08248" lon="5.879">
        <ele>13</ele>
        <time>2019-10-23T09:03:52Z</time>
      </trkpt>
      <trkpt lat="43.08245" lon="5.87903">
        <ele>13</ele>
        <time>2019-10-23T09:03:54Z</time>
      </trkpt>
      <trkpt lat="43.08242" lon="5.87905">
        <ele>13</ele>
        <time>2019-10-23T09:03:56Z</time>
      </trkpt>
      <trkpt lat="43.08238" lon="5.87906">
        <ele>13</ele>
        <time>2019-10-23T09:03:58Z</time>
      </trkpt>
      <trkpt lat="43.08234" lon="5.87907">
        <ele>13</ele>
        <time>2019-10-23T09:04:00Z</time>
      </trkpt>
      <trkpt lat="43.0823" lon="5.87907">
        <ele>13</ele>
        <time>2019-10-23T09:04:08Z</time>
      </trkpt>
      <trkpt lat="43.08227" lon="5.87908">
        <ele>12</ele>
        <time>2019-10-23T09:04:11Z</time>
      </trkpt>
      <trkpt lat="43.08224" lon="5.87909">
        <ele>12</ele>
        <time>2019-10-23T09:04:14Z</time>
      </trkpt>
      <trkpt lat="43.08221" lon="5.87911">
        <ele>11</ele>
        <time>2019-10-23T09:04:17Z</time>
      </trkpt>
      <trkpt lat="43.0822" lon="5.87915">
        <ele>11</ele>
        <time>2019-10-23T09:04:19Z</time>
      </trkpt>
      <trkpt lat="43.08218" lon="5.87919">
        <ele>11</ele>
        <time>2019-10-23T09:04:21Z</time>
      </trkpt>
      <trkpt lat="43.08216" lon="5.87925">
        <ele>11</ele>
        <time>2019-10-23T09:04:23Z</time>
      </trkpt>
      <trkpt lat="43.08213" lon="5.8793">
        <ele>11</ele>
        <time>2019-10-23T09:04:25Z</time>
      </trkpt>
      <trkpt lat="43.0821" lon="5.87933">
        <ele>11</ele>
        <time>2019-10-23T09:04:27Z</time>
      </trkpt>
      <trkpt lat="43.08208" lon="5.87937">
        <ele>11</ele>
        <time>2019-10-23T09:04:29Z</time>
      </trkpt>
      <trkpt lat="43.08205" lon="5.87941">
        <ele>11</ele>
        <time>2019-10-23T09:04:31Z</time>
      </trkpt>
      <trkpt lat="43.08203" lon="5.87945">
        <ele>11</ele>
        <time>2019-10-23T09:04:33Z</time>
      </trkpt>
      <trkpt lat="43.082" lon="5.8795">
        <ele>11</ele>
        <time>2019-10-23T09:04:35Z</time>
      </trkpt>
      <trkpt lat="43.08198" lon="5.87954">
        <ele>11</ele>
        <time>2019-10-23T09:04:36Z</time>
      </trkpt>
      <trkpt lat="43.08196" lon="5.87959">
        <ele>11</ele>
        <time>2019-10-23T09:04:38Z</time>
      </trkpt>
      <trkpt lat="43.08194" lon="5.87965">
        <ele>11</ele>
        <time>2019-10-23T09:04:39Z</time>
      </trkpt>
      <trkpt lat="43.08192" lon="5.87971">
        <ele>11</ele>
        <time>2019-10-23T09:04:40Z</time>
      </trkpt>
      <trkpt lat="43.08191" lon="5.87977">
        <ele>11</ele>
        <time>2019-10-23T09:04:41Z</time>
      </trkpt>
      <trkpt lat="43.08189" lon="5.87982">
        <ele>11</ele>
        <time>2019-10-23T09:04:42Z</time>
      </trkpt>
      <trkpt lat="43.08188" lon="5.87988">
        <ele>10</ele>
        <time>2019-10-23T09:04:43Z</time>
      </trkpt>
      <trkpt lat="43.08186" lon="5.87993">
        <ele>10</ele>
        <time>2019-10-23T09:04:44Z</time>
      </trkpt>
      <trkpt lat="43.08184" lon="5.87999">
        <ele>10</ele>
        <time>2019-10-23T09:04:45Z</time>
      </trkpt>
      <trkpt lat="43.08182" lon="5.88004">
        <ele>10</ele>
        <time>2019-10-23T09:04:46Z</time>
      </trkpt>
      <trkpt lat="43.0818" lon="5.8801">
        <ele>10</ele>
        <time>2019-10-23T09:04:47Z</time>
      </trkpt>
      <trkpt lat="43.08178" lon="5.88015">
        <ele>10</ele>
        <time>2019-10-23T09:04:48Z</time>
      </trkpt>
      <trkpt lat="43.08177" lon="5.88021">
        <ele>9</ele>
        <time>2019-10-23T09:04:49Z</time>
      </trkpt>
      <trkpt lat="43.08174" lon="5.88026">
        <ele>9</ele>
        <time>2019-10-23T09:04:50Z</time>
      </trkpt>
      <trkpt lat="43.08171" lon="5.88031">
        <ele>9</ele>
        <time>2019-10-23T09:04:51Z</time>
      </trkpt>
      <trkpt lat="43.08169" lon="5.88036">
        <ele>9</ele>
        <time>2019-10-23T09:04:52Z</time>
      </trkpt>
      <trkpt lat="43.08167" lon="5.88039">
        <ele>9</ele>
        <time>2019-10-23T09:04:53Z</time>
      </trkpt>
      <trkpt lat="43.08164" lon="5.88042">
        <ele>9</ele>
        <time>2019-10-23T09:04:54Z</time>
      </trkpt>
      <trkpt lat="43.08162" lon="5.88046">
        <ele>9</ele>
        <time>2019-10-23T09:04:55Z</time>
      </trkpt>
      <trkpt lat="43.08161" lon="5.8805">
        <ele>9</ele>
        <time>2019-10-23T09:04:56Z</time>
      </trkpt>
      <trkpt lat="43.08159" lon="5.88054">
        <ele>9</ele>
        <time>2019-10-23T09:04:57Z</time>
      </trkpt>
      <trkpt lat="43.08158" lon="5.88058">
        <ele>9</ele>
        <time>2019-10-23T09:04:59Z</time>
      </trkpt>
      <trkpt lat="43.08157" lon="5.88064">
        <ele>9</ele>
        <time>2019-10-23T09:05:00Z</time>
      </trkpt>
      <trkpt lat="43.08156" lon="5.88069">
        <ele>9</ele>
        <time>2019-10-23T09:05:01Z</time>
      </trkpt>
      <trkpt lat="43.08155" lon="5.88076">
        <ele>8</ele>
        <time>2019-10-23T09:05:02Z</time>
      </trkpt>
      <trkpt lat="43.08153" lon="5.88081">
        <ele>9</ele>
        <time>2019-10-23T09:05:03Z</time>
      </trkpt>
      <trkpt lat="43.08151" lon="5.88086">
        <ele>8</ele>
        <time>2019-10-23T09:05:04Z</time>
      </trkpt>
      <trkpt lat="43.08149" lon="5.88091">
        <ele>8</ele>
        <time>2019-10-23T09:05:06Z</time>
      </trkpt>
      <trkpt lat="43.08147" lon="5.88096">
        <ele>8</ele>
        <time>2019-10-23T09:05:07Z</time>
      </trkpt>
      <trkpt lat="43.08145" lon="5.88101">
        <ele>8</ele>
        <time>2019-10-23T09:05:08Z</time>
      </trkpt>
      <trkpt lat="43.08143" lon="5.88105">
        <ele>8</ele>
        <time>2019-10-23T09:05:09Z</time>
      </trkpt>
      <trkpt lat="43.0814" lon="5.88112">
        <ele>8</ele>
        <time>2019-10-23T09:05:10Z</time>
      </trkpt>
      <trkpt lat="43.08138" lon="5.88117">
        <ele>8</ele>
        <time>2019-10-23T09:05:11Z</time>
      </trkpt>
      <trkpt lat="43.08137" lon="5.88122">
        <ele>8</ele>
        <time>2019-10-23T09:05:12Z</time>
      </trkpt>
      <trkpt lat="43.08136" lon="5.88126">
        <ele>8</ele>
        <time>2019-10-23T09:05:13Z</time>
      </trkpt>
      <trkpt lat="43.08134" lon="5.88131">
        <ele>8</ele>
        <time>2019-10-23T09:05:14Z</time>
      </trkpt>
      <trkpt lat="43.08133" lon="5.88136">
        <ele>8</ele>
        <time>2019-10-23T09:05:17Z</time>
      </trkpt>
      <trkpt lat="43.08131" lon="5.88141">
        <ele>8</ele>
        <time>2019-10-23T09:05:18Z</time>
      </trkpt>
      <trkpt lat="43.0813" lon="5.88145">
        <ele>8</ele>
        <time>2019-10-23T09:05:19Z</time>
      </trkpt>
      <trkpt lat="43.08128" lon="5.88149">
        <ele>8</ele>
        <time>2019-10-23T09:05:20Z</time>
      </trkpt>
      <trkpt lat="43.08127" lon="5.88153">
        <ele>8</ele>
        <time>2019-10-23T09:05:21Z</time>
      </trkpt>
      <trkpt lat="43.08125" lon="5.88157">
        <ele>8</ele>
        <time>2019-10-23T09:05:22Z</time>
      </trkpt>
      <trkpt lat="43.08124" lon="5.88161">
        <ele>8</ele>
        <time>2019-10-23T09:05:23Z</time>
      </trkpt>
      <trkpt lat="43.08123" lon="5.88165">
        <ele>8</ele>
        <time>2019-10-23T09:05:24Z</time>
      </trkpt>
      <trkpt lat="43.08122" lon="5.88169">
        <ele>7</ele>
        <time>2019-10-23T09:05:25Z</time>
      </trkpt>
      <trkpt lat="43.08122" lon="5.88173">
        <ele>7</ele>
        <time>2019-10-23T09:05:26Z</time>
      </trkpt>
      <trkpt lat="43.08121" lon="5.88177">
        <ele>7</ele>
        <time>2019-10-23T09:05:27Z</time>
      </trkpt>
      <trkpt lat="43.08121" lon="5.88181">
        <ele>7</ele>
        <time>2019-10-23T09:05:28Z</time>
      </trkpt>
      <trkpt lat="43.0812" lon="5.88185">
        <ele>7</ele>
        <time>2019-10-23T09:05:29Z</time>
      </trkpt>
      <trkpt lat="43.08119" lon="5.8819">
        <ele>7</ele>
        <time>2019-10-23T09:05:30Z</time>
      </trkpt>
      <trkpt lat="43.08118" lon="5.88194">
        <ele>7</ele>
        <time>2019-10-23T09:05:38Z</time>
      </trkpt>
      <trkpt lat="43.08116" lon="5.88202">
        <ele>7</ele>
        <time>2019-10-23T09:05:39Z</time>
      </trkpt>
      <trkpt lat="43.08115" lon="5.88208">
        <ele>7</ele>
        <time>2019-10-23T09:05:40Z</time>
      </trkpt>
      <trkpt lat="43.08113" lon="5.88213">
        <ele>7</ele>
        <time>2019-10-23T09:05:41Z</time>
      </trkpt>
      <trkpt lat="43.08112" lon="5.88218">
        <ele>7</ele>
        <time>2019-10-23T09:05:42Z</time>
      </trkpt>
      <trkpt lat="43.0811" lon="5.88222">
        <ele>6</ele>
        <time>2019-10-23T09:05:43Z</time>
      </trkpt>
      <trkpt lat="43.08109" lon="5.88227">
        <ele>6</ele>
        <time>2019-10-23T09:05:44Z</time>
      </trkpt>
      <trkpt lat="43.08107" lon="5.88234">
        <ele>6</ele>
        <time>2019-10-23T09:05:45Z</time>
      </trkpt>
      <trkpt lat="43.08105" lon="5.8824">
        <ele>6</ele>
        <time>2019-10-23T09:05:46Z</time>
      </trkpt>
      <trkpt lat="43.08103" lon="5.88244">
        <ele>6</ele>
        <time>2019-10-23T09:05:48Z</time>
      </trkpt>
      <trkpt lat="43.08101" lon="5.88249">
        <ele>6</ele>
        <time>2019-10-23T09:05:50Z</time>
      </trkpt>
      <trkpt lat="43.08099" lon="5.88253">
        <ele>6</ele>
        <time>2019-10-23T09:05:51Z</time>
      </trkpt>
      <trkpt lat="43.08098" lon="5.88258">
        <ele>6</ele>
        <time>2019-10-23T09:05:52Z</time>
      </trkpt>
      <trkpt lat="43.08097" lon="5.88263">
        <ele>6</ele>
        <time>2019-10-23T09:05:53Z</time>
      </trkpt>
      <trkpt lat="43.08096" lon="5.88268">
        <ele>6</ele>
        <time>2019-10-23T09:05:54Z</time>
      </trkpt>
      <trkpt lat="43.08096" lon="5.88273">
        <ele>6</ele>
        <time>2019-10-23T09:05:55Z</time>
      </trkpt>
      <trkpt lat="43.08101" lon="5.8828">
        <ele>6</ele>
        <time>2019-10-23T09:05:56Z</time>
      </trkpt>
      <trkpt lat="43.08104" lon="5.88283">
        <ele>6</ele>
        <time>2019-10-23T09:05:57Z</time>
      </trkpt>
      <trkpt lat="43.08107" lon="5.88285">
        <ele>6</ele>
        <time>2019-10-23T09:06:00Z</time>
      </trkpt>
      <trkpt lat="43.0811" lon="5.88287">
        <ele>6</ele>
        <time>2019-10-23T09:06:01Z</time>
      </trkpt>
      <trkpt lat="43.08114" lon="5.88289">
        <ele>6</ele>
        <time>2019-10-23T09:06:02Z</time>
      </trkpt>
      <trkpt lat="43.08117" lon="5.8829">
        <ele>6</ele>
        <time>2019-10-23T09:06:03Z</time>
      </trkpt>
      <trkpt lat="43.0812" lon="5.88292">
        <ele>6</ele>
        <time>2019-10-23T09:06:04Z</time>
      </trkpt>
      <trkpt lat="43.08123" lon="5.88294">
        <ele>6</ele>
        <time>2019-10-23T09:06:05Z</time>
      </trkpt>
      <trkpt lat="43.08126" lon="5.88296">
        <ele>6</ele>
        <time>2019-10-23T09:06:06Z</time>
      </trkpt>
      <trkpt lat="43.08128" lon="5.88299">
        <ele>6</ele>
        <time>2019-10-23T09:06:07Z</time>
      </trkpt>
      <trkpt lat="43.0813" lon="5.88302">
        <ele>6</ele>
        <time>2019-10-23T09:06:08Z</time>
      </trkpt>
      <trkpt lat="43.0813" lon="5.88306">
        <ele>6</ele>
        <time>2019-10-23T09:06:09Z</time>
      </trkpt>
      <trkpt lat="43.0813" lon="5.88311">
        <ele>6</ele>
        <time>2019-10-23T09:06:10Z</time>
      </trkpt>
      <trkpt lat="43.08128" lon="5.88315">
        <ele>6</ele>
        <time>2019-10-23T09:06:11Z</time>
      </trkpt>
      <trkpt lat="43.08118" lon="5.88338">
        <ele>6</ele>
        <time>2019-10-23T09:06:12Z</time>
      </trkpt>
      <trkpt lat="43.08113" lon="5.88349">
        <ele>6</ele>
        <time>2019-10-23T09:06:13Z</time>
      </trkpt>
      <trkpt lat="43.0811" lon="5.88356">
        <ele>6</ele>
        <time>2019-10-23T09:06:14Z</time>
      </trkpt>
      <trkpt lat="43.08108" lon="5.88361">
        <ele>5</ele>
        <time>2019-10-23T09:06:15Z</time>
      </trkpt>
      <trkpt lat="43.08106" lon="5.88366">
        <ele>5</ele>
        <time>2019-10-23T09:06:16Z</time>
      </trkpt>
      <trkpt lat="43.08104" lon="5.8837">
        <ele>5</ele>
        <time>2019-10-23T09:06:17Z</time>
      </trkpt>
      <trkpt lat="43.08103" lon="5.88375">
        <ele>5</ele>
        <time>2019-10-23T09:06:18Z</time>
      </trkpt>
      <trkpt lat="43.08101" lon="5.88379">
        <ele>5</ele>
        <time>2019-10-23T09:06:19Z</time>
      </trkpt>
      <trkpt lat="43.081" lon="5.88382">
        <ele>5</ele>
        <time>2019-10-23T09:06:20Z</time>
      </trkpt>
      <trkpt lat="43.08098" lon="5.88387">
        <ele>5</ele>
        <time>2019-10-23T09:06:21Z</time>
      </trkpt>
      <trkpt lat="43.08096" lon="5.88393">
        <ele>5</ele>
        <time>2019-10-23T09:06:22Z</time>
      </trkpt>
      <trkpt lat="43.08095" lon="5.88398">
        <ele>5</ele>
        <time>2019-10-23T09:06:23Z</time>
      </trkpt>
      <trkpt lat="43.08093" lon="5.88402">
        <ele>4</ele>
        <time>2019-10-23T09:06:25Z</time>
      </trkpt>
      <trkpt lat="43.08092" lon="5.88406">
        <ele>4</ele>
        <time>2019-10-23T09:06:26Z</time>
      </trkpt>
      <trkpt lat="43.08091" lon="5.88411">
        <ele>5</ele>
        <time>2019-10-23T09:06:28Z</time>
      </trkpt>
      <trkpt lat="43.0809" lon="5.88414">
        <ele>5</ele>
        <time>2019-10-23T09:06:30Z</time>
      </trkpt>
      <trkpt lat="43.08089" lon="5.88418">
        <ele>5</ele>
        <time>2019-10-23T09:06:31Z</time>
      </trkpt>
      <trkpt lat="43.08087" lon="5.88421">
        <ele>5</ele>
        <time>2019-10-23T09:06:32Z</time>
      </trkpt>
      <trkpt lat="43.08082" lon="5.88428">
        <ele>5</ele>
        <time>2019-10-23T09:06:35Z</time>
      </trkpt>
      <trkpt lat="43.08079" lon="5.88434">
        <ele>5</ele>
        <time>2019-10-23T09:06:36Z</time>
      </trkpt>
      <trkpt lat="43.08077" lon="5.88439">
        <ele>5</ele>
        <time>2019-10-23T09:06:37Z</time>
      </trkpt>
      <trkpt lat="43.08076" lon="5.88444">
        <ele>5</ele>
        <time>2019-10-23T09:06:38Z</time>
      </trkpt>
      <trkpt lat="43.08075" lon="5.88449">
        <ele>5</ele>
        <time>2019-10-23T09:06:41Z</time>
      </trkpt>
      <trkpt lat="43.08074" lon="5.88454">
        <ele>5</ele>
        <time>2019-10-23T09:06:44Z</time>
      </trkpt>
      <trkpt lat="43.08072" lon="5.88459">
        <ele>4</ele>
        <time>2019-10-23T09:06:45Z</time>
      </trkpt>
      <trkpt lat="43.08072" lon="5.88464">
        <ele>4</ele>
        <time>2019-10-23T09:06:46Z</time>
      </trkpt>
      <trkpt lat="43.08071" lon="5.88468">
        <ele>4</ele>
        <time>2019-10-23T09:06:47Z</time>
      </trkpt>
      <trkpt lat="43.08071" lon="5.88473">
        <ele>4</ele>
        <time>2019-10-23T09:06:48Z</time>
      </trkpt>
      <trkpt lat="43.08072" lon="5.88478">
        <ele>4</ele>
        <time>2019-10-23T09:06:49Z</time>
      </trkpt>
      <trkpt lat="43.08073" lon="5.88482">
        <ele>4</ele>
        <time>2019-10-23T09:06:50Z</time>
      </trkpt>
      <trkpt lat="43.08076" lon="5.88486">
        <ele>4</ele>
        <time>2019-10-23T09:06:51Z</time>
      </trkpt>
      <trkpt lat="43.0808" lon="5.88489">
        <ele>4</ele>
        <time>2019-10-23T09:06:52Z</time>
      </trkpt>
      <trkpt lat="43.08083" lon="5.88492">
        <ele>4</ele>
        <time>2019-10-23T09:06:53Z</time>
      </trkpt>
      <trkpt lat="43.08087" lon="5.88495">
        <ele>4</ele>
        <time>2019-10-23T09:06:54Z</time>
      </trkpt>
      <trkpt lat="43.08091" lon="5.88497">
        <ele>4</ele>
        <time>2019-10-23T09:06:55Z</time>
      </trkpt>
      <trkpt lat="43.08095" lon="5.88499">
        <ele>4</ele>
        <time>2019-10-23T09:06:56Z</time>
      </trkpt>
      <trkpt lat="43.08099" lon="5.88501">
        <ele>3</ele>
        <time>2019-10-23T09:06:57Z</time>
      </trkpt>
      <trkpt lat="43.08103" lon="5.88503">
        <ele>3</ele>
        <time>2019-10-23T09:06:58Z</time>
      </trkpt>
      <trkpt lat="43.08107" lon="5.88506">
        <ele>4</ele>
        <time>2019-10-23T09:06:59Z</time>
      </trkpt>
      <trkpt lat="43.0811" lon="5.88508">
        <ele>4</ele>
        <time>2019-10-23T09:07:00Z</time>
      </trkpt>
      <trkpt lat="43.08114" lon="5.88511">
        <ele>4</ele>
        <time>2019-10-23T09:07:01Z</time>
      </trkpt>
      <trkpt lat="43.08117" lon="5.88513">
        <ele>4</ele>
        <time>2019-10-23T09:07:02Z</time>
      </trkpt>
      <trkpt lat="43.08123" lon="5.88516">
        <ele>3</ele>
        <time>2019-10-23T09:07:03Z</time>
      </trkpt>
      <trkpt lat="43.08127" lon="5.88517">
        <ele>3</ele>
        <time>2019-10-23T09:07:04Z</time>
      </trkpt>
      <trkpt lat="43.08131" lon="5.8852">
        <ele>2</ele>
        <time>2019-10-23T09:07:05Z</time>
      </trkpt>
      <trkpt lat="43.08134" lon="5.88523">
        <ele>3</ele>
        <time>2019-10-23T09:07:06Z</time>
      </trkpt>
      <trkpt lat="43.08135" lon="5.88527">
        <ele>3</ele>
        <time>2019-10-23T09:07:07Z</time>
      </trkpt>
      <trkpt lat="43.08136" lon="5.88531">
        <ele>3</ele>
        <time>2019-10-23T09:07:08Z</time>
      </trkpt>
      <trkpt lat="43.08136" lon="5.88542">
        <ele>4</ele>
        <time>2019-10-23T09:07:09Z</time>
      </trkpt>
      <trkpt lat="43.08136" lon="5.88549">
        <ele>4</ele>
        <time>2019-10-23T09:07:10Z</time>
      </trkpt>
      <trkpt lat="43.08136" lon="5.88555">
        <ele>4</ele>
        <time>2019-10-23T09:07:11Z</time>
      </trkpt>
      <trkpt lat="43.08136" lon="5.8856">
        <ele>4</ele>
        <time>2019-10-23T09:07:12Z</time>
      </trkpt>
      <trkpt lat="43.08134" lon="5.88569">
        <ele>3</ele>
        <time>2019-10-23T09:07:13Z</time>
      </trkpt>
      <trkpt lat="43.08128" lon="5.88578">
        <ele>3</ele>
        <time>2019-10-23T09:07:14Z</time>
      </trkpt>
      <trkpt lat="43.08123" lon="5.88583">
        <ele>3</ele>
        <time>2019-10-23T09:07:15Z</time>
      </trkpt>
      <trkpt lat="43.08118" lon="5.88584">
        <ele>3</ele>
        <time>2019-10-23T09:07:16Z</time>
      </trkpt>
      <trkpt lat="43.08113" lon="5.88584">
        <ele>3</ele>
        <time>2019-10-23T09:07:17Z</time>
      </trkpt>
      <trkpt lat="43.08109" lon="5.88584">
        <ele>3</ele>
        <time>2019-10-23T09:07:18Z</time>
      </trkpt>
      <trkpt lat="43.08104" lon="5.88585">
        <ele>3</ele>
        <time>2019-10-23T09:07:19Z</time>
      </trkpt>
      <trkpt lat="43.08099" lon="5.88585">
        <ele>2</ele>
        <time>2019-10-23T09:07:20Z</time>
      </trkpt>
      <trkpt lat="43.08094" lon="5.88585">
        <ele>2</ele>
        <time>2019-10-23T09:07:21Z</time>
      </trkpt>
      <trkpt lat="43.08088" lon="5.88585">
        <ele>2</ele>
        <time>2019-10-23T09:07:22Z</time>
      </trkpt>
      <trkpt lat="43.08084" lon="5.88584">
        <ele>2</ele>
        <time>2019-10-23T09:07:24Z</time>
      </trkpt>
      <trkpt lat="43.08079" lon="5.88584">
        <ele>2</ele>
        <time>2019-10-23T09:07:26Z</time>
      </trkpt>
      <trkpt lat="43.08074" lon="5.88584">
        <ele>2</ele>
        <time>2019-10-23T09:07:27Z</time>
      </trkpt>
      <trkpt lat="43.0807" lon="5.88584">
        <ele>2</ele>
        <time>2019-10-23T09:07:28Z</time>
      </trkpt>
      <trkpt lat="43.08065" lon="5.88584">
        <ele>2</ele>
        <time>2019-10-23T09:07:29Z</time>
      </trkpt>
      <trkpt lat="43.08061" lon="5.88583">
        <ele>2</ele>
        <time>2019-10-23T09:07:30Z</time>
      </trkpt>
      <trkpt lat="43.08057" lon="5.88583">
        <ele>2</ele>
        <time>2019-10-23T09:07:31Z</time>
      </trkpt>
      <trkpt lat="43.08052" lon="5.88583">
        <ele>2</ele>
        <time>2019-10-23T09:07:33Z</time>
      </trkpt>
      <trkpt lat="43.08047" lon="5.88583">
        <ele>2</ele>
        <time>2019-10-23T09:07:34Z</time>
      </trkpt>
      <trkpt lat="43.08043" lon="5.88582">
        <ele>2</ele>
        <time>2019-10-23T09:07:35Z</time>
      </trkpt>
      <trkpt lat="43.08038" lon="5.88581">
        <ele>2</ele>
        <time>2019-10-23T09:07:36Z</time>
      </trkpt>
      <trkpt lat="43.08033" lon="5.88581">
        <ele>2</ele>
        <time>2019-10-23T09:07:37Z</time>
      </trkpt>
      <trkpt lat="43.08028" lon="5.88581">
        <ele>2</ele>
        <time>2019-10-23T09:07:38Z</time>
      </trkpt>
      <trkpt lat="43.08023" lon="5.8858">
        <ele>2</ele>
        <time>2019-10-23T09:07:39Z</time>
      </trkpt>
      <trkpt lat="43.08018" lon="5.8858">
        <ele>2</ele>
        <time>2019-10-23T09:07:40Z</time>
      </trkpt>
      <trkpt lat="43.08013" lon="5.8858">
        <ele>1</ele>
        <time>2019-10-23T09:07:41Z</time>
      </trkpt>
      <trkpt lat="43.08009" lon="5.8858">
        <ele>1</ele>
        <time>2019-10-23T09:07:42Z</time>
      </trkpt>
      <trkpt lat="43.08004" lon="5.88579">
        <ele>1</ele>
        <time>2019-10-23T09:07:43Z</time>
      </trkpt>
      <trkpt lat="43.07999" lon="5.88577">
        <ele>1</ele>
        <time>2019-10-23T09:07:44Z</time>
      </trkpt>
      <trkpt lat="43.07994" lon="5.88576">
        <ele>1</ele>
        <time>2019-10-23T09:07:45Z</time>
      </trkpt>
      <trkpt lat="43.07989" lon="5.88575">
        <ele>1</ele>
        <time>2019-10-23T09:07:46Z</time>
      </trkpt>
      <trkpt lat="43.07984" lon="5.88575">
        <ele>1</ele>
        <time>2019-10-23T09:07:49Z</time>
      </trkpt>
      <trkpt lat="43.07979" lon="5.88574">
        <ele>1</ele>
        <time>2019-10-23T09:07:52Z</time>
      </trkpt>
      <trkpt lat="43.07974" lon="5.88573">
        <ele>1</ele>
        <time>2019-10-23T09:07:53Z</time>
      </trkpt>
      <trkpt lat="43.07969" lon="5.88573">
        <ele>1</ele>
        <time>2019-10-23T09:07:54Z</time>
      </trkpt>
      <trkpt lat="43.07965" lon="5.88571">
        <ele>1</ele>
        <time>2019-10-23T09:07:55Z</time>
      </trkpt>
      <trkpt lat="43.0796" lon="5.8857">
        <ele>10</ele>
        <time>2019-10-23T09:07:56Z</time>
      </trkpt>
      <trkpt lat="43.07956" lon="5.8857">
        <ele>10</ele>
        <time>2019-10-23T09:07:57Z</time>
      </trkpt>
      <trkpt lat="43.07952" lon="5.88569">
        <ele>9.9</ele>
        <time>2019-10-23T09:07:58Z</time>
      </trkpt>
      <trkpt lat="43.07948" lon="5.8857">
        <ele>9.8</ele>
        <time>2019-10-23T09:07:59Z</time>
      </trkpt>
      <trkpt lat="43.07944" lon="5.88573">
        <ele>9.8</ele>
        <time>2019-10-23T09:08:00Z</time>
      </trkpt>
      <trkpt lat="43.07941" lon="5.8858">
        <ele>9.7</ele>
        <time>2019-10-23T09:08:01Z</time>
      </trkpt>
      <trkpt lat="43.07941" lon="5.88586">
        <ele>9.8</ele>
        <time>2019-10-23T09:08:02Z</time>
      </trkpt>
      <trkpt lat="43.07941" lon="5.88592">
        <ele>9.8</ele>
        <time>2019-10-23T09:08:03Z</time>
      </trkpt>
      <trkpt lat="43.07941" lon="5.88597">
        <ele>9.9</ele>
        <time>2019-10-23T09:08:04Z</time>
      </trkpt>
      <trkpt lat="43.0794" lon="5.88602">
        <ele>9.9</ele>
        <time>2019-10-23T09:08:05Z</time>
      </trkpt>
      <trkpt lat="43.07939" lon="5.88607">
        <ele>9.9</ele>
        <time>2019-10-23T09:08:07Z</time>
      </trkpt>
      <trkpt lat="43.07934" lon="5.88612">
        <ele>9.9</ele>
        <time>2019-10-23T09:08:08Z</time>
      </trkpt>
      <trkpt lat="43.0793" lon="5.88614">
        <ele>9.8</ele>
        <time>2019-10-23T09:08:09Z</time>
      </trkpt>
      <trkpt lat="43.07925" lon="5.88615">
        <ele>9.8</ele>
        <time>2019-10-23T09:08:10Z</time>
      </trkpt>
      <trkpt lat="43.07921" lon="5.88615">
        <ele>9.8</ele>
        <time>2019-10-23T09:08:11Z</time>
      </trkpt>
      <trkpt lat="43.07916" lon="5.88615">
        <ele>8.1</ele>
        <time>2019-10-23T09:08:12Z</time>
      </trkpt>
      <trkpt lat="43.07912" lon="5.88615">
        <ele>8.1</ele>
        <time>2019-10-23T09:08:13Z</time>
      </trkpt>
      <trkpt lat="43.07907" lon="5.88614">
        <ele>8.1</ele>
        <time>2019-10-23T09:08:14Z</time>
      </trkpt>
      <trkpt lat="43.07902" lon="5.88614">
        <ele>8</ele>
        <time>2019-10-23T09:08:15Z</time>
      </trkpt>
      <trkpt lat="43.07897" lon="5.88615">
        <ele>7.9</ele>
        <time>2019-10-23T09:08:16Z</time>
      </trkpt>
      <trkpt lat="43.07891" lon="5.88616">
        <ele>7.9</ele>
        <time>2019-10-23T09:08:17Z</time>
      </trkpt>
      <trkpt lat="43.07886" lon="5.88615">
        <ele>7.8</ele>
        <time>2019-10-23T09:08:18Z</time>
      </trkpt>
      <trkpt lat="43.07882" lon="5.88613">
        <ele>7.7</ele>
        <time>2019-10-23T09:08:19Z</time>
      </trkpt>
      <trkpt lat="43.07878" lon="5.88612">
        <ele>7.7</ele>
        <time>2019-10-23T09:08:20Z</time>
      </trkpt>
      <trkpt lat="43.07874" lon="5.88612">
        <ele>7.6</ele>
        <time>2019-10-23T09:08:21Z</time>
      </trkpt>
      <trkpt lat="43.0787" lon="5.88613">
        <ele>8</ele>
        <time>2019-10-23T09:08:23Z</time>
      </trkpt>
      <trkpt lat="43.07863" lon="5.88614">
        <ele>7</ele>
        <time>2019-10-23T09:08:25Z</time>
      </trkpt>
      <trkpt lat="43.0786" lon="5.88615">
        <ele>7</ele>
        <time>2019-10-23T09:08:27Z</time>
      </trkpt>
      <trkpt lat="43.07856" lon="5.88615">
        <ele>7</ele>
        <time>2019-10-23T09:08:28Z</time>
      </trkpt>
      <trkpt lat="43.07852" lon="5.88614">
        <ele>7</ele>
        <time>2019-10-23T09:08:29Z</time>
      </trkpt>
      <trkpt lat="43.07848" lon="5.88612">
        <ele>7</ele>
        <time>2019-10-23T09:08:30Z</time>
      </trkpt>
      <trkpt lat="43.07844" lon="5.88611">
        <ele>7</ele>
        <time>2019-10-23T09:08:32Z</time>
      </trkpt>
      <trkpt lat="43.0784" lon="5.8861">
        <ele>7</ele>
        <time>2019-10-23T09:08:34Z</time>
      </trkpt>
      <trkpt lat="43.07836" lon="5.8861">
        <ele>7</ele>
        <time>2019-10-23T09:09:07Z</time>
      </trkpt>
      <trkpt lat="43.07832" lon="5.88609">
        <ele>7</ele>
        <time>2019-10-23T09:09:09Z</time>
      </trkpt>
      <trkpt lat="43.07827" lon="5.88609">
        <ele>7</ele>
        <time>2019-10-23T09:09:11Z</time>
      </trkpt>
      <trkpt lat="43.07823" lon="5.88608">
        <ele>7</ele>
        <time>2019-10-23T09:09:12Z</time>
      </trkpt>
      <trkpt lat="43.07818" lon="5.88607">
        <ele>7</ele>
        <time>2019-10-23T09:09:14Z</time>
      </trkpt>
      <trkpt lat="43.07814" lon="5.88606">
        <ele>7</ele>
        <time>2019-10-23T09:09:15Z</time>
      </trkpt>
      <trkpt lat="43.07809" lon="5.88607">
        <ele>7</ele>
        <time>2019-10-23T09:09:16Z</time>
      </trkpt>
      <trkpt lat="43.078" lon="5.88608">
        <ele>7</ele>
        <time>2019-10-23T09:09:17Z</time>
      </trkpt>
      <trkpt lat="43.07794" lon="5.88609">
        <ele>6</ele>
        <time>2019-10-23T09:09:18Z</time>
      </trkpt>
      <trkpt lat="43.07788" lon="5.88609">
        <ele>6</ele>
        <time>2019-10-23T09:09:20Z</time>
      </trkpt>
      <trkpt lat="43.07783" lon="5.8861">
        <ele>6</ele>
        <time>2019-10-23T09:09:21Z</time>
      </trkpt>
      <trkpt lat="43.07778" lon="5.88609">
        <ele>6</ele>
        <time>2019-10-23T09:09:22Z</time>
      </trkpt>
      <trkpt lat="43.07773" lon="5.88609">
        <ele>6</ele>
        <time>2019-10-23T09:09:23Z</time>
      </trkpt>
      <trkpt lat="43.07768" lon="5.88608">
        <ele>7</ele>
        <time>2019-10-23T09:09:24Z</time>
      </trkpt>
      <trkpt lat="43.07764" lon="5.88608">
        <ele>7</ele>
        <time>2019-10-23T09:09:25Z</time>
      </trkpt>
      <trkpt lat="43.0776" lon="5.88608">
        <ele>7</ele>
        <time>2019-10-23T09:09:26Z</time>
      </trkpt>
      <trkpt lat="43.07755" lon="5.88607">
        <ele>7</ele>
        <time>2019-10-23T09:09:27Z</time>
      </trkpt>
      <trkpt lat="43.07751" lon="5.88607">
        <ele>7</ele>
        <time>2019-10-23T09:09:28Z</time>
      </trkpt>
      <trkpt lat="43.07747" lon="5.88606">
        <ele>7</ele>
        <time>2019-10-23T09:09:29Z</time>
      </trkpt>
      <trkpt lat="43.07743" lon="5.88605">
        <ele>7</ele>
        <time>2019-10-23T09:09:30Z</time>
      </trkpt>
      <trkpt lat="43.0774" lon="5.88604">
        <ele>7</ele>
        <time>2019-10-23T09:09:32Z</time>
      </trkpt>
      <trkpt lat="43.07737" lon="5.88604">
        <ele>7</ele>
        <time>2019-10-23T09:09:33Z</time>
      </trkpt>
      <trkpt lat="43.07733" lon="5.88604">
        <ele>7</ele>
        <time>2019-10-23T09:09:34Z</time>
      </trkpt>
      <trkpt lat="43.0773" lon="5.88607">
        <ele>7</ele>
        <time>2019-10-23T09:09:35Z</time>
      </trkpt>
      <trkpt lat="43.07726" lon="5.88612">
        <ele>7</ele>
        <time>2019-10-23T09:09:36Z</time>
      </trkpt>
      <trkpt lat="43.07724" lon="5.88616">
        <ele>7</ele>
        <time>2019-10-23T09:09:38Z</time>
      </trkpt>
      <trkpt lat="43.07722" lon="5.8862">
        <ele>7</ele>
        <time>2019-10-23T09:09:40Z</time>
      </trkpt>
      <trkpt lat="43.0772" lon="5.88623">
        <ele>7</ele>
        <time>2019-10-23T09:09:43Z</time>
      </trkpt>
      <trkpt lat="43.07718" lon="5.88629">
        <ele>7</ele>
        <time>2019-10-23T09:09:44Z</time>
      </trkpt>
      <trkpt lat="43.07714" lon="5.88633">
        <ele>7</ele>
        <time>2019-10-23T09:09:45Z</time>
      </trkpt>
      <trkpt lat="43.07707" lon="5.8863">
        <ele>7</ele>
        <time>2019-10-23T09:09:46Z</time>
      </trkpt>
      <trkpt lat="43.07702" lon="5.88628">
        <ele>7</ele>
        <time>2019-10-23T09:09:47Z</time>
      </trkpt>
      <trkpt lat="43.07699" lon="5.88625">
        <ele>7</ele>
        <time>2019-10-23T09:09:48Z</time>
      </trkpt>
      <trkpt lat="43.07696" lon="5.88623">
        <ele>7</ele>
        <time>2019-10-23T09:09:49Z</time>
      </trkpt>
      <trkpt lat="43.07691" lon="5.88619">
        <ele>7</ele>
        <time>2019-10-23T09:09:50Z</time>
      </trkpt>
      <trkpt lat="43.07688" lon="5.88617">
        <ele>7</ele>
        <time>2019-10-23T09:09:51Z</time>
      </trkpt>
      <trkpt lat="43.07686" lon="5.88614">
        <ele>7</ele>
        <time>2019-10-23T09:09:52Z</time>
      </trkpt>
      <trkpt lat="43.07683" lon="5.88612">
        <ele>7</ele>
        <time>2019-10-23T09:09:53Z</time>
      </trkpt>
      <trkpt lat="43.07682" lon="5.88609">
        <ele>8</ele>
        <time>2019-10-23T09:09:54Z</time>
      </trkpt>
      <trkpt lat="43.07682" lon="5.88603">
        <ele>8</ele>
        <time>2019-10-23T09:09:55Z</time>
      </trkpt>
      <trkpt lat="43.07682" lon="5.88598">
        <ele>8</ele>
        <time>2019-10-23T09:09:56Z</time>
      </trkpt>
      <trkpt lat="43.07683" lon="5.88592">
        <ele>8</ele>
        <time>2019-10-23T09:09:57Z</time>
      </trkpt>
      <trkpt lat="43.07683" lon="5.88588">
        <ele>8</ele>
        <time>2019-10-23T09:09:58Z</time>
      </trkpt>
      <trkpt lat="43.07685" lon="5.88583">
        <ele>10</ele>
        <time>2019-10-23T09:10:01Z</time>
      </trkpt>
      <trkpt lat="43.07686" lon="5.88579">
        <ele>10</ele>
        <time>2019-10-23T09:10:02Z</time>
      </trkpt>
      <trkpt lat="43.07688" lon="5.88574">
        <ele>10</ele>
        <time>2019-10-23T09:10:04Z</time>
      </trkpt>
      <trkpt lat="43.07689" lon="5.8857">
        <ele>10</ele>
        <time>2019-10-23T09:10:06Z</time>
      </trkpt>
      <trkpt lat="43.07691" lon="5.88566">
        <ele>10</ele>
        <time>2019-10-23T09:10:07Z</time>
      </trkpt>
      <trkpt lat="43.07693" lon="5.88561">
        <ele>10</ele>
        <time>2019-10-23T09:10:10Z</time>
      </trkpt>
      <trkpt lat="43.07695" lon="5.88557">
        <ele>11</ele>
        <time>2019-10-23T09:10:11Z</time>
      </trkpt>
      <trkpt lat="43.07697" lon="5.88551">
        <ele>11</ele>
        <time>2019-10-23T09:10:13Z</time>
      </trkpt>
      <trkpt lat="43.077" lon="5.88545">
        <ele>11</ele>
        <time>2019-10-23T09:10:14Z</time>
      </trkpt>
      <trkpt lat="43.07702" lon="5.8854">
        <ele>11</ele>
        <time>2019-10-23T09:10:16Z</time>
      </trkpt>
      <trkpt lat="43.07704" lon="5.88536">
        <ele>11</ele>
        <time>2019-10-23T09:10:17Z</time>
      </trkpt>
      <trkpt lat="43.07705" lon="5.88531">
        <ele>11</ele>
        <time>2019-10-23T09:10:19Z</time>
      </trkpt>
      <trkpt lat="43.07708" lon="5.88525">
        <ele>11</ele>
        <time>2019-10-23T09:10:20Z</time>
      </trkpt>
      <trkpt lat="43.07708" lon="5.88517">
        <ele>11</ele>
        <time>2019-10-23T09:10:21Z</time>
      </trkpt>
      <trkpt lat="43.07708" lon="5.88505">
        <ele>11</ele>
        <time>2019-10-23T09:10:23Z</time>
      </trkpt>
      <trkpt lat="43.07707" lon="5.88498">
        <ele>13</ele>
        <time>2019-10-23T09:10:24Z</time>
      </trkpt>
      <trkpt lat="43.07706" lon="5.88493">
        <ele>14</ele>
        <time>2019-10-23T09:10:26Z</time>
      </trkpt>
      <trkpt lat="43.07705" lon="5.88488">
        <ele>14</ele>
        <time>2019-10-23T09:10:27Z</time>
      </trkpt>
      <trkpt lat="43.07705" lon="5.88483">
        <ele>14</ele>
        <time>2019-10-23T09:10:28Z</time>
      </trkpt>
      <trkpt lat="43.07704" lon="5.88479">
        <ele>14</ele>
        <time>2019-10-23T09:10:32Z</time>
      </trkpt>
      <trkpt lat="43.07703" lon="5.88475">
        <ele>14</ele>
        <time>2019-10-23T09:10:33Z</time>
      </trkpt>
      <trkpt lat="43.07702" lon="5.8847">
        <ele>14</ele>
        <time>2019-10-23T09:10:34Z</time>
      </trkpt>
      <trkpt lat="43.07701" lon="5.88465">
        <ele>14.1</ele>
        <time>2019-10-23T09:10:35Z</time>
      </trkpt>
      <trkpt lat="43.077" lon="5.88461">
        <ele>14.2</ele>
        <time>2019-10-23T09:10:36Z</time>
      </trkpt>
      <trkpt lat="43.077" lon="5.88456">
        <ele>14.3</ele>
        <time>2019-10-23T09:10:37Z</time>
      </trkpt>
      <trkpt lat="43.07699" lon="5.88451">
        <ele>14.4</ele>
        <time>2019-10-23T09:10:38Z</time>
      </trkpt>
      <trkpt lat="43.07699" lon="5.88446">
        <ele>14.5</ele>
        <time>2019-10-23T09:10:40Z</time>
      </trkpt>
      <trkpt lat="43.07698" lon="5.88441">
        <ele>14.7</ele>
        <time>2019-10-23T09:10:43Z</time>
      </trkpt>
      <trkpt lat="43.07698" lon="5.88435">
        <ele>14.9</ele>
        <time>2019-10-23T09:10:44Z</time>
      </trkpt>
      <trkpt lat="43.07696" lon="5.8843">
        <ele>15.2</ele>
        <time>2019-10-23T09:10:46Z</time>
      </trkpt>
      <trkpt lat="43.07693" lon="5.88419">
        <ele>15.7</ele>
        <time>2019-10-23T09:10:47Z</time>
      </trkpt>
      <trkpt lat="43.0769" lon="5.88412">
        <ele>1</ele>
        <time>2019-10-23T09:10:48Z</time>
      </trkpt>
      <trkpt lat="43.07686" lon="5.88405">
        <ele>1</ele>
        <time>2019-10-23T09:10:49Z</time>
      </trkpt>
      <trkpt lat="43.07681" lon="5.88401">
        <ele>1</ele>
        <time>2019-10-23T09:10:50Z</time>
      </trkpt>
      <trkpt lat="43.07678" lon="5.884">
        <ele>2</ele>
        <time>2019-10-23T09:10:52Z</time>
      </trkpt>
      <trkpt lat="43.07668" lon="5.88404">
        <ele>3</ele>
        <time>2019-10-23T09:10:53Z</time>
      </trkpt>
      <trkpt lat="43.07663" lon="5.88409">
        <ele>3</ele>
        <time>2019-10-23T09:10:54Z</time>
      </trkpt>
      <trkpt lat="43.0766" lon="5.88416">
        <ele>4</ele>
        <time>2019-10-23T09:10:55Z</time>
      </trkpt>
      <trkpt lat="43.07658" lon="5.8842">
        <ele>4</ele>
        <time>2019-10-23T09:10:56Z</time>
      </trkpt>
      <trkpt lat="43.07656" lon="5.88427">
        <ele>5</ele>
        <time>2019-10-23T09:10:57Z</time>
      </trkpt>
      <trkpt lat="43.07653" lon="5.88431">
        <ele>5</ele>
        <time>2019-10-23T09:10:58Z</time>
      </trkpt>
      <trkpt lat="43.0765" lon="5.88436">
        <ele>6</ele>
        <time>2019-10-23T09:10:59Z</time>
      </trkpt>
      <trkpt lat="43.07648" lon="5.88439">
        <ele>6</ele>
        <time>2019-10-23T09:11:00Z</time>
      </trkpt>
      <trkpt lat="43.07646" lon="5.88443">
        <ele>6</ele>
        <time>2019-10-23T09:11:01Z</time>
      </trkpt>
      <trkpt lat="43.07644" lon="5.88448">
        <ele>7</ele>
        <time>2019-10-23T09:11:02Z</time>
      </trkpt>
      <trkpt lat="43.07642" lon="5.88452">
        <ele>7</ele>
        <time>2019-10-23T09:11:03Z</time>
      </trkpt>
      <trkpt lat="43.0764" lon="5.88458">
        <ele>7</ele>
        <time>2019-10-23T09:11:04Z</time>
      </trkpt>
      <trkpt lat="43.07638" lon="5.88463">
        <ele>8</ele>
        <time>2019-10-23T09:11:05Z</time>
      </trkpt>
      <trkpt lat="43.07638" lon="5.88468">
        <ele>8</ele>
        <time>2019-10-23T09:11:06Z</time>
      </trkpt>
      <trkpt lat="43.07635" lon="5.88479">
        <ele>9</ele>
        <time>2019-10-23T09:11:07Z</time>
      </trkpt>
      <trkpt lat="43.07632" lon="5.88485">
        <ele>10</ele>
        <time>2019-10-23T09:11:08Z</time>
      </trkpt>
      <trkpt lat="43.07629" lon="5.8849">
        <ele>10</ele>
        <time>2019-10-23T09:11:09Z</time>
      </trkpt>
      <trkpt lat="43.07627" lon="5.88494">
        <ele>10</ele>
        <time>2019-10-23T09:11:11Z</time>
      </trkpt>
      <trkpt lat="43.07625" lon="5.88499">
        <ele>10</ele>
        <time>2019-10-23T09:11:12Z</time>
      </trkpt>
      <trkpt lat="43.07622" lon="5.88503">
        <ele>10</ele>
        <time>2019-10-23T09:11:14Z</time>
      </trkpt>
      <trkpt lat="43.0762" lon="5.88507">
        <ele>10</ele>
        <time>2019-10-23T09:11:15Z</time>
      </trkpt>
      <trkpt lat="43.07616" lon="5.88509">
        <ele>10</ele>
        <time>2019-10-23T09:11:16Z</time>
      </trkpt>
      <trkpt lat="43.07609" lon="5.8851">
        <ele>10</ele>
        <time>2019-10-23T09:11:17Z</time>
      </trkpt>
      <trkpt lat="43.07605" lon="5.88509">
        <ele>10</ele>
        <time>2019-10-23T09:11:18Z</time>
      </trkpt>
      <trkpt lat="43.076" lon="5.88508">
        <ele>10</ele>
        <time>2019-10-23T09:11:19Z</time>
      </trkpt>
      <trkpt lat="43.07596" lon="5.88507">
        <ele>10</ele>
        <time>2019-10-23T09:11:20Z</time>
      </trkpt>
      <trkpt lat="43.07592" lon="5.88506">
        <ele>10</ele>
        <time>2019-10-23T09:11:21Z</time>
      </trkpt>
      <trkpt lat="43.07588" lon="5.88506">
        <ele>10</ele>
        <time>2019-10-23T09:11:22Z</time>
      </trkpt>
      <trkpt lat="43.07585" lon="5.88506">
        <ele>10</ele>
        <time>2019-10-23T09:11:23Z</time>
      </trkpt>
      <trkpt lat="43.0758" lon="5.88505">
        <ele>10</ele>
        <time>2019-10-23T09:11:24Z</time>
      </trkpt>
      <trkpt lat="43.07575" lon="5.88503">
        <ele>10</ele>
      </trkpt>
      <trkpt lat="43.07571" lon="5.88502">
        <ele>10</ele>
      </trkpt>
      <trkpt lat="43.07566" lon="5.88499">
        <ele>10</ele>
      </trkpt>
      <trkpt lat="43.07561" lon="5.88497">
        <ele>10</ele>
      </trkpt>
      <trkpt lat="43.07556" lon="5.88494">
        <ele>10</ele>
      </trkpt>
      <trkpt lat="43.0755" lon="5.88491">
        <ele>9</ele>
      </trkpt>
      <trkpt lat="43.07544" lon="5.88487">
        <ele>9</ele>
      </trkpt>
      <trkpt lat="43.07538" lon="5.88484">
        <ele>9</ele>
      </trkpt>
      <trkpt lat="43.07532" lon="5.88481">
        <ele>9</ele>
      </trkpt>
      <trkpt lat="43.07527" lon="5.88479">
        <ele>9</ele>
      </trkpt>
      <trkpt lat="43.07522" lon="5.88476">
        <ele>9</ele>
      </trkpt>
      <trkpt lat="43.07519" lon="5.88475">
        <ele>8</ele>
      </trkpt>
      <trkpt lat="43.07515" lon="5.88473">
        <ele>8</ele>
      </trkpt>
      <trkpt lat="43.07512" lon="5.88471">
        <ele>8</ele>
      </trkpt>
      <trkpt lat="43.07509" lon="5.88468">
        <ele>8</ele>
      </trkpt>
      <trkpt lat="43.07505" lon="5.88467">
        <ele>8</ele>
      </trkpt>
      <trkpt lat="43.07502" lon="5.88465">
        <ele>8</ele>
      </trkpt>
      <trkpt lat="43.07498" lon="5.88461">
        <ele>8</ele>
      </trkpt>
      <trkpt lat="43.07494" lon="5.88458">
        <ele>9</ele>
      </trkpt>
      <trkpt lat="43.07487" lon="5.88454">
        <ele>9</ele>
      </trkpt>
      <trkpt lat="43.07483" lon="5.88451">
        <ele>9</ele>
      </trkpt>
      <trkpt lat="43.07479" lon="5.88448">
        <ele>9</ele>
      </trkpt>
      <trkpt lat="43.07476" lon="5.88445">
        <ele>9</ele>
      </trkpt>
      <trkpt lat="43.07474" lon="5.88441">
        <ele>9</ele>
      </trkpt>
      <trkpt lat="43.07471" lon="5.88434">
        <ele>9</ele>
      </trkpt>
      <trkpt lat="43.07469" lon="5.88427">
        <ele>9</ele>
      </trkpt>
      <trkpt lat="43.07466" lon="5.88419">
        <ele>8</ele>
      </trkpt>
      <trkpt lat="43.07463" lon="5.88411">
        <ele>8</ele>
      </trkpt>
      <trkpt lat="43.07459" lon="5.88403">
        <ele>8</ele>
      </trkpt>
      <trkpt lat="43.07454" lon="5.88393">
        <ele>7</ele>
      </trkpt>
    </trkseg>
  </trk>
</gpx>